<?xml version="1.0" encoding="UTF-8" standalone="no" ?>
<gpx xmlns="http://www.topografix.com/GPX/1/1" xmlns:xsi="http://www.w3.org/2001/XMLSchema-instance" xsi:schemaLocation="http://www.topografix.com/GPX/1/1 http://www.topografix.com/GPX/1/1/gpx.xsd" version="1.1" creator="VisuGPX - https://www.visugpx.com">
  <metadata>
    <name>Saverne - Haberaker</name>
    <desc><![CDATA[Boucle de 23 Km au départ de Saverne (Complex Adrien Zeller) - Haberaker]]></desc>
  </metadata>
  <trk>
    <name><![CDATA[ADi2011/03/12_14:06]]></name>
    <trkseg>
      <trkpt lat="48.73145" lon="7.35201">
        <ele>236.284302</ele>
        <time>2011-03-12T13:14:58Z</time>
      </trkpt>
      <trkpt lat="48.7315" lon="7.35197">
        <ele>236.897583</ele>
        <time>2011-03-12T13:15:01Z</time>
      </trkpt>
      <trkpt lat="48.73154" lon="7.35192">
        <ele>236.874146</ele>
        <time>2011-03-12T13:15:03Z</time>
      </trkpt>
      <trkpt lat="48.73159" lon="7.35183">
        <ele>237.499146</ele>
        <time>2011-03-12T13:15:05Z</time>
      </trkpt>
      <trkpt lat="48.73162" lon="7.35173">
        <ele>238.682739</ele>
        <time>2011-03-12T13:15:07Z</time>
      </trkpt>
      <trkpt lat="48.73165" lon="7.35163">
        <ele>238.171021</ele>
        <time>2011-03-12T13:15:09Z</time>
      </trkpt>
      <trkpt lat="48.73169" lon="7.35153">
        <ele>239.003052</ele>
        <time>2011-03-12T13:15:11Z</time>
      </trkpt>
      <trkpt lat="48.73172" lon="7.35145">
        <ele>239.100708</ele>
        <time>2011-03-12T13:15:13Z</time>
      </trkpt>
      <trkpt lat="48.73176" lon="7.35138">
        <ele>239.682739</ele>
        <time>2011-03-12T13:15:15Z</time>
      </trkpt>
      <trkpt lat="48.7318" lon="7.35135">
        <ele>240.073364</ele>
        <time>2011-03-12T13:15:17Z</time>
      </trkpt>
      <trkpt lat="48.73184" lon="7.35131">
        <ele>240.760864</ele>
        <time>2011-03-12T13:15:19Z</time>
      </trkpt>
      <trkpt lat="48.73189" lon="7.35125">
        <ele>241.631958</ele>
        <time>2011-03-12T13:15:22Z</time>
      </trkpt>
      <trkpt lat="48.73192" lon="7.35121">
        <ele>242.710083</ele>
        <time>2011-03-12T13:15:30Z</time>
      </trkpt>
      <trkpt lat="48.73197" lon="7.35124">
        <ele>242.737427</ele>
        <time>2011-03-12T13:15:33Z</time>
      </trkpt>
      <trkpt lat="48.73203" lon="7.3513">
        <ele>242.542114</ele>
        <time>2011-03-12T13:15:36Z</time>
      </trkpt>
      <trkpt lat="48.73209" lon="7.35133">
        <ele>242.100708</ele>
        <time>2011-03-12T13:15:38Z</time>
      </trkpt>
      <trkpt lat="48.73214" lon="7.35135">
        <ele>242.131958</ele>
        <time>2011-03-12T13:15:40Z</time>
      </trkpt>
      <trkpt lat="48.7322" lon="7.35131">
        <ele>242.549927</ele>
        <time>2011-03-12T13:15:42Z</time>
      </trkpt>
      <trkpt lat="48.73224" lon="7.35127">
        <ele>241.624146</ele>
        <time>2011-03-12T13:15:44Z</time>
      </trkpt>
      <trkpt lat="48.73227" lon="7.3512">
        <ele>243.104614</ele>
        <time>2011-03-12T13:15:46Z</time>
      </trkpt>
      <trkpt lat="48.73228" lon="7.35114">
        <ele>243.788208</ele>
        <time>2011-03-12T13:15:48Z</time>
      </trkpt>
      <trkpt lat="48.73231" lon="7.35107">
        <ele>243.307739</ele>
        <time>2011-03-12T13:15:50Z</time>
      </trkpt>
      <trkpt lat="48.73234" lon="7.351">
        <ele>244.221802</ele>
        <time>2011-03-12T13:15:53Z</time>
      </trkpt>
      <trkpt lat="48.73236" lon="7.35093">
        <ele>244.495239</ele>
        <time>2011-03-12T13:15:55Z</time>
      </trkpt>
      <trkpt lat="48.73238" lon="7.35085">
        <ele>244.811646</ele>
        <time>2011-03-12T13:15:57Z</time>
      </trkpt>
      <trkpt lat="48.7324" lon="7.35076">
        <ele>244.397583</ele>
        <time>2011-03-12T13:16:00Z</time>
      </trkpt>
      <trkpt lat="48.73243" lon="7.3507">
        <ele>244.850708</ele>
        <time>2011-03-12T13:16:02Z</time>
      </trkpt>
      <trkpt lat="48.73246" lon="7.35063">
        <ele>244.878052</ele>
        <time>2011-03-12T13:16:04Z</time>
      </trkpt>
      <trkpt lat="48.73249" lon="7.35053">
        <ele>244.565552</ele>
        <time>2011-03-12T13:16:07Z</time>
      </trkpt>
      <trkpt lat="48.73251" lon="7.35046">
        <ele>245.088989</ele>
        <time>2011-03-12T13:16:09Z</time>
      </trkpt>
      <trkpt lat="48.73254" lon="7.35038">
        <ele>247.026489</ele>
        <time>2011-03-12T13:16:11Z</time>
      </trkpt>
      <trkpt lat="48.73256" lon="7.35031">
        <ele>248.237427</ele>
        <time>2011-03-12T13:16:13Z</time>
      </trkpt>
      <trkpt lat="48.73256" lon="7.35024">
        <ele>249.057739</ele>
        <time>2011-03-12T13:16:15Z</time>
      </trkpt>
      <trkpt lat="48.73258" lon="7.35018">
        <ele>250.588989</ele>
        <time>2011-03-12T13:16:17Z</time>
      </trkpt>
      <trkpt lat="48.73261" lon="7.35011">
        <ele>251.745239</ele>
        <time>2011-03-12T13:16:20Z</time>
      </trkpt>
      <trkpt lat="48.73262" lon="7.35003">
        <ele>251.913208</ele>
        <time>2011-03-12T13:16:23Z</time>
      </trkpt>
      <trkpt lat="48.73264" lon="7.34997">
        <ele>252.631958</ele>
        <time>2011-03-12T13:16:26Z</time>
      </trkpt>
      <trkpt lat="48.73266" lon="7.3499">
        <ele>253.354614</ele>
        <time>2011-03-12T13:16:29Z</time>
      </trkpt>
      <trkpt lat="48.73268" lon="7.34985">
        <ele>254.444458</ele>
        <time>2011-03-12T13:16:32Z</time>
      </trkpt>
      <trkpt lat="48.73271" lon="7.34977">
        <ele>255.506958</ele>
        <time>2011-03-12T13:16:36Z</time>
      </trkpt>
      <trkpt lat="48.73274" lon="7.34969">
        <ele>256.771729</ele>
        <time>2011-03-12T13:16:39Z</time>
      </trkpt>
      <trkpt lat="48.73277" lon="7.34962">
        <ele>257.263916</ele>
        <time>2011-03-12T13:16:42Z</time>
      </trkpt>
      <trkpt lat="48.73278" lon="7.34954">
        <ele>257.592041</ele>
        <time>2011-03-12T13:16:45Z</time>
      </trkpt>
      <trkpt lat="48.73281" lon="7.34947">
        <ele>257.842041</ele>
        <time>2011-03-12T13:16:48Z</time>
      </trkpt>
      <trkpt lat="48.73285" lon="7.34941">
        <ele>257.427979</ele>
        <time>2011-03-12T13:16:51Z</time>
      </trkpt>
      <trkpt lat="48.7329" lon="7.34937">
        <ele>258.232666</ele>
        <time>2011-03-12T13:16:54Z</time>
      </trkpt>
      <trkpt lat="48.73294" lon="7.34932">
        <ele>258.842041</ele>
        <time>2011-03-12T13:16:57Z</time>
      </trkpt>
      <trkpt lat="48.73298" lon="7.34926">
        <ele>258.693604</ele>
        <time>2011-03-12T13:17:00Z</time>
      </trkpt>
      <trkpt lat="48.73301" lon="7.34921">
        <ele>258.670166</ele>
        <time>2011-03-12T13:17:02Z</time>
      </trkpt>
      <trkpt lat="48.73306" lon="7.34914">
        <ele>258.904541</ele>
        <time>2011-03-12T13:17:05Z</time>
      </trkpt>
      <trkpt lat="48.73311" lon="7.34908">
        <ele>260.263916</ele>
        <time>2011-03-12T13:17:08Z</time>
      </trkpt>
      <trkpt lat="48.73314" lon="7.34903">
        <ele>260.248291</ele>
        <time>2011-03-12T13:17:10Z</time>
      </trkpt>
      <trkpt lat="48.73319" lon="7.34896">
        <ele>260.271729</ele>
        <time>2011-03-12T13:17:13Z</time>
      </trkpt>
      <trkpt lat="48.73322" lon="7.34889">
        <ele>261.326416</ele>
        <time>2011-03-12T13:17:16Z</time>
      </trkpt>
      <trkpt lat="48.73325" lon="7.34883">
        <ele>262.584229</ele>
        <time>2011-03-12T13:17:19Z</time>
      </trkpt>
      <trkpt lat="48.73328" lon="7.34876">
        <ele>263.693604</ele>
        <time>2011-03-12T13:17:22Z</time>
      </trkpt>
      <trkpt lat="48.7333" lon="7.34868">
        <ele>265.201416</ele>
        <time>2011-03-12T13:17:25Z</time>
      </trkpt>
      <trkpt lat="48.73334" lon="7.34861">
        <ele>265.131104</ele>
        <time>2011-03-12T13:17:28Z</time>
      </trkpt>
      <trkpt lat="48.73336" lon="7.34853">
        <ele>264.701416</ele>
        <time>2011-03-12T13:17:31Z</time>
      </trkpt>
      <trkpt lat="48.73338" lon="7.34846">
        <ele>264.451416</ele>
        <time>2011-03-12T13:17:33Z</time>
      </trkpt>
      <trkpt lat="48.73342" lon="7.34838">
        <ele>264.982666</ele>
        <time>2011-03-12T13:17:36Z</time>
      </trkpt>
      <trkpt lat="48.73343" lon="7.3483">
        <ele>265.545166</ele>
        <time>2011-03-12T13:17:38Z</time>
      </trkpt>
      <trkpt lat="48.73346" lon="7.34823">
        <ele>267.802979</ele>
        <time>2011-03-12T13:17:40Z</time>
      </trkpt>
      <trkpt lat="48.73351" lon="7.34817">
        <ele>268.107666</ele>
        <time>2011-03-12T13:17:42Z</time>
      </trkpt>
      <trkpt lat="48.73356" lon="7.34813">
        <ele>267.638916</ele>
        <time>2011-03-12T13:17:45Z</time>
      </trkpt>
      <trkpt lat="48.73361" lon="7.3481">
        <ele>267.326416</ele>
        <time>2011-03-12T13:17:48Z</time>
      </trkpt>
      <trkpt lat="48.73364" lon="7.34804">
        <ele>267.170166</ele>
        <time>2011-03-12T13:17:52Z</time>
      </trkpt>
      <trkpt lat="48.73368" lon="7.34802">
        <ele>265.685791</ele>
        <time>2011-03-12T13:20:02Z</time>
      </trkpt>
      <trkpt lat="48.73369" lon="7.34794">
        <ele>265.052979</ele>
        <time>2011-03-12T13:20:07Z</time>
      </trkpt>
      <trkpt lat="48.73366" lon="7.3479">
        <ele>262.834229</ele>
        <time>2011-03-12T13:20:56Z</time>
      </trkpt>
      <trkpt lat="48.73362" lon="7.34784">
        <ele>262.974854</ele>
        <time>2011-03-12T13:20:59Z</time>
      </trkpt>
      <trkpt lat="48.73358" lon="7.34776">
        <ele>263.490479</ele>
        <time>2011-03-12T13:21:02Z</time>
      </trkpt>
      <trkpt lat="48.73356" lon="7.34769">
        <ele>263.795166</ele>
        <time>2011-03-12T13:21:04Z</time>
      </trkpt>
      <trkpt lat="48.73352" lon="7.34762">
        <ele>263.896729</ele>
        <time>2011-03-12T13:21:06Z</time>
      </trkpt>
      <trkpt lat="48.73348" lon="7.34757">
        <ele>264.154541</ele>
        <time>2011-03-12T13:21:08Z</time>
      </trkpt>
      <trkpt lat="48.73344" lon="7.34752">
        <ele>264.584229</ele>
        <time>2011-03-12T13:21:10Z</time>
      </trkpt>
      <trkpt lat="48.7334" lon="7.34746">
        <ele>265.052979</ele>
        <time>2011-03-12T13:21:12Z</time>
      </trkpt>
      <trkpt lat="48.73336" lon="7.3474">
        <ele>265.420166</ele>
        <time>2011-03-12T13:21:14Z</time>
      </trkpt>
      <trkpt lat="48.73332" lon="7.34734">
        <ele>265.709229</ele>
        <time>2011-03-12T13:21:16Z</time>
      </trkpt>
      <trkpt lat="48.73329" lon="7.34728">
        <ele>266.201416</ele>
        <time>2011-03-12T13:21:18Z</time>
      </trkpt>
      <trkpt lat="48.73326" lon="7.34722">
        <ele>266.365479</ele>
        <time>2011-03-12T13:21:20Z</time>
      </trkpt>
      <trkpt lat="48.73322" lon="7.34716">
        <ele>266.599854</ele>
        <time>2011-03-12T13:21:22Z</time>
      </trkpt>
      <trkpt lat="48.73317" lon="7.34709">
        <ele>267.248291</ele>
        <time>2011-03-12T13:21:24Z</time>
      </trkpt>
      <trkpt lat="48.73313" lon="7.34702">
        <ele>268.099854</ele>
        <time>2011-03-12T13:21:26Z</time>
      </trkpt>
      <trkpt lat="48.73309" lon="7.34696">
        <ele>268.646729</ele>
        <time>2011-03-12T13:21:28Z</time>
      </trkpt>
      <trkpt lat="48.73306" lon="7.34689">
        <ele>268.888916</ele>
        <time>2011-03-12T13:21:30Z</time>
      </trkpt>
      <trkpt lat="48.73302" lon="7.34683">
        <ele>269.037354</ele>
        <time>2011-03-12T13:21:32Z</time>
      </trkpt>
      <trkpt lat="48.73298" lon="7.34677">
        <ele>269.607666</ele>
        <time>2011-03-12T13:21:34Z</time>
      </trkpt>
      <trkpt lat="48.73295" lon="7.3467">
        <ele>270.154541</ele>
        <time>2011-03-12T13:21:36Z</time>
      </trkpt>
      <trkpt lat="48.73291" lon="7.34664">
        <ele>270.802979</ele>
        <time>2011-03-12T13:21:38Z</time>
      </trkpt>
      <trkpt lat="48.73288" lon="7.34658">
        <ele>270.443604</ele>
        <time>2011-03-12T13:21:40Z</time>
      </trkpt>
      <trkpt lat="48.73284" lon="7.34652">
        <ele>270.982666</ele>
        <time>2011-03-12T13:21:42Z</time>
      </trkpt>
      <trkpt lat="48.7328" lon="7.34646">
        <ele>271.146729</ele>
        <time>2011-03-12T13:21:44Z</time>
      </trkpt>
      <trkpt lat="48.73277" lon="7.34639">
        <ele>270.435791</ele>
        <time>2011-03-12T13:21:46Z</time>
      </trkpt>
      <trkpt lat="48.73274" lon="7.34633">
        <ele>270.342041</ele>
        <time>2011-03-12T13:21:48Z</time>
      </trkpt>
      <trkpt lat="48.7327" lon="7.34627">
        <ele>269.951416</ele>
        <time>2011-03-12T13:21:50Z</time>
      </trkpt>
      <trkpt lat="48.73267" lon="7.3462">
        <ele>270.162354</ele>
        <time>2011-03-12T13:21:52Z</time>
      </trkpt>
      <trkpt lat="48.73263" lon="7.34614">
        <ele>270.357666</ele>
        <time>2011-03-12T13:21:54Z</time>
      </trkpt>
      <trkpt lat="48.73259" lon="7.34608">
        <ele>270.138916</ele>
        <time>2011-03-12T13:21:56Z</time>
      </trkpt>
      <trkpt lat="48.73256" lon="7.34601">
        <ele>270.404541</ele>
        <time>2011-03-12T13:21:58Z</time>
      </trkpt>
      <trkpt lat="48.73253" lon="7.34596">
        <ele>271.459229</ele>
        <time>2011-03-12T13:22:00Z</time>
      </trkpt>
      <trkpt lat="48.7325" lon="7.3459">
        <ele>272.959229</ele>
        <time>2011-03-12T13:22:02Z</time>
      </trkpt>
      <trkpt lat="48.73245" lon="7.34583">
        <ele>272.224854</ele>
        <time>2011-03-12T13:22:05Z</time>
      </trkpt>
      <trkpt lat="48.73241" lon="7.34577">
        <ele>272.849854</ele>
        <time>2011-03-12T13:22:07Z</time>
      </trkpt>
      <trkpt lat="48.73238" lon="7.3457">
        <ele>273.677979</ele>
        <time>2011-03-12T13:22:09Z</time>
      </trkpt>
      <trkpt lat="48.73235" lon="7.34565">
        <ele>274.326416</ele>
        <time>2011-03-12T13:22:11Z</time>
      </trkpt>
      <trkpt lat="48.73231" lon="7.3456">
        <ele>274.342041</ele>
        <time>2011-03-12T13:22:13Z</time>
      </trkpt>
      <trkpt lat="48.73228" lon="7.34554">
        <ele>275.435791</ele>
        <time>2011-03-12T13:22:15Z</time>
      </trkpt>
      <trkpt lat="48.73224" lon="7.34549">
        <ele>275.896729</ele>
        <time>2011-03-12T13:22:17Z</time>
      </trkpt>
      <trkpt lat="48.73222" lon="7.34542">
        <ele>276.717041</ele>
        <time>2011-03-12T13:22:19Z</time>
      </trkpt>
      <trkpt lat="48.73218" lon="7.34535">
        <ele>278.084229</ele>
        <time>2011-03-12T13:22:21Z</time>
      </trkpt>
      <trkpt lat="48.73215" lon="7.34529">
        <ele>278.756104</ele>
        <time>2011-03-12T13:22:23Z</time>
      </trkpt>
      <trkpt lat="48.73211" lon="7.34523">
        <ele>279.279541</ele>
        <time>2011-03-12T13:22:25Z</time>
      </trkpt>
      <trkpt lat="48.73208" lon="7.34516">
        <ele>279.576416</ele>
        <time>2011-03-12T13:22:27Z</time>
      </trkpt>
      <trkpt lat="48.73204" lon="7.3451">
        <ele>280.115479</ele>
        <time>2011-03-12T13:22:29Z</time>
      </trkpt>
      <trkpt lat="48.73201" lon="7.34504">
        <ele>280.935791</ele>
        <time>2011-03-12T13:22:31Z</time>
      </trkpt>
      <trkpt lat="48.73197" lon="7.34498">
        <ele>281.623291</ele>
        <time>2011-03-12T13:22:33Z</time>
      </trkpt>
      <trkpt lat="48.73193" lon="7.34491">
        <ele>281.982666</ele>
        <time>2011-03-12T13:22:35Z</time>
      </trkpt>
      <trkpt lat="48.73189" lon="7.34486">
        <ele>282.209229</ele>
        <time>2011-03-12T13:22:37Z</time>
      </trkpt>
      <trkpt lat="48.73185" lon="7.3448">
        <ele>282.654541</ele>
        <time>2011-03-12T13:22:39Z</time>
      </trkpt>
      <trkpt lat="48.73181" lon="7.34474">
        <ele>282.709229</ele>
        <time>2011-03-12T13:22:41Z</time>
      </trkpt>
      <trkpt lat="48.73177" lon="7.34469">
        <ele>283.209229</ele>
        <time>2011-03-12T13:22:43Z</time>
      </trkpt>
      <trkpt lat="48.73173" lon="7.34464">
        <ele>283.474854</ele>
        <time>2011-03-12T13:22:45Z</time>
      </trkpt>
      <trkpt lat="48.73169" lon="7.34458">
        <ele>283.802979</ele>
        <time>2011-03-12T13:22:47Z</time>
      </trkpt>
      <trkpt lat="48.73165" lon="7.34453">
        <ele>283.959229</ele>
        <time>2011-03-12T13:22:49Z</time>
      </trkpt>
      <trkpt lat="48.73161" lon="7.34447">
        <ele>284.209229</ele>
        <time>2011-03-12T13:22:51Z</time>
      </trkpt>
      <trkpt lat="48.73157" lon="7.3444">
        <ele>284.295166</ele>
        <time>2011-03-12T13:22:53Z</time>
      </trkpt>
      <trkpt lat="48.73152" lon="7.34435">
        <ele>284.818604</ele>
        <time>2011-03-12T13:22:55Z</time>
      </trkpt>
      <trkpt lat="48.73146" lon="7.34428">
        <ele>285.709229</ele>
        <time>2011-03-12T13:22:57Z</time>
      </trkpt>
      <trkpt lat="48.73142" lon="7.3442">
        <ele>287.256104</ele>
        <time>2011-03-12T13:22:59Z</time>
      </trkpt>
      <trkpt lat="48.73137" lon="7.34413">
        <ele>287.592041</ele>
        <time>2011-03-12T13:23:01Z</time>
      </trkpt>
      <trkpt lat="48.73134" lon="7.34408">
        <ele>287.888916</ele>
        <time>2011-03-12T13:23:03Z</time>
      </trkpt>
      <trkpt lat="48.73129" lon="7.34404">
        <ele>288.310791</ele>
        <time>2011-03-12T13:23:05Z</time>
      </trkpt>
      <trkpt lat="48.73125" lon="7.344">
        <ele>288.881104</ele>
        <time>2011-03-12T13:23:07Z</time>
      </trkpt>
      <trkpt lat="48.73122" lon="7.34395">
        <ele>288.771729</ele>
        <time>2011-03-12T13:23:09Z</time>
      </trkpt>
      <trkpt lat="48.73117" lon="7.34389">
        <ele>289.654541</ele>
        <time>2011-03-12T13:23:12Z</time>
      </trkpt>
      <trkpt lat="48.73115" lon="7.34383">
        <ele>289.646729</ele>
        <time>2011-03-12T13:23:15Z</time>
      </trkpt>
      <trkpt lat="48.73112" lon="7.34378">
        <ele>289.568604</ele>
        <time>2011-03-12T13:23:17Z</time>
      </trkpt>
      <trkpt lat="48.73108" lon="7.34372">
        <ele>289.381104</ele>
        <time>2011-03-12T13:23:19Z</time>
      </trkpt>
      <trkpt lat="48.73102" lon="7.34368">
        <ele>289.099854</ele>
        <time>2011-03-12T13:23:21Z</time>
      </trkpt>
      <trkpt lat="48.73098" lon="7.34363">
        <ele>287.990479</ele>
        <time>2011-03-12T13:23:23Z</time>
      </trkpt>
      <trkpt lat="48.73093" lon="7.34356">
        <ele>287.529541</ele>
        <time>2011-03-12T13:23:25Z</time>
      </trkpt>
      <trkpt lat="48.73089" lon="7.3435">
        <ele>287.576416</ele>
        <time>2011-03-12T13:23:27Z</time>
      </trkpt>
      <trkpt lat="48.73084" lon="7.34345">
        <ele>286.912354</ele>
        <time>2011-03-12T13:23:29Z</time>
      </trkpt>
      <trkpt lat="48.73079" lon="7.3434">
        <ele>286.162354</ele>
        <time>2011-03-12T13:23:31Z</time>
      </trkpt>
      <trkpt lat="48.73074" lon="7.34334">
        <ele>284.998291</ele>
        <time>2011-03-12T13:23:33Z</time>
      </trkpt>
      <trkpt lat="48.73068" lon="7.34328">
        <ele>283.435791</ele>
        <time>2011-03-12T13:23:35Z</time>
      </trkpt>
      <trkpt lat="48.73063" lon="7.34323">
        <ele>283.756104</ele>
        <time>2011-03-12T13:23:37Z</time>
      </trkpt>
      <trkpt lat="48.73059" lon="7.34318">
        <ele>283.857666</ele>
        <time>2011-03-12T13:23:39Z</time>
      </trkpt>
      <trkpt lat="48.73053" lon="7.34316">
        <ele>285.599854</ele>
        <time>2011-03-12T13:23:41Z</time>
      </trkpt>
      <trkpt lat="48.73048" lon="7.3431">
        <ele>284.849854</ele>
        <time>2011-03-12T13:23:43Z</time>
      </trkpt>
      <trkpt lat="48.7304" lon="7.34305">
        <ele>284.037354</ele>
        <time>2011-03-12T13:23:45Z</time>
      </trkpt>
      <trkpt lat="48.73035" lon="7.34298">
        <ele>282.717041</ele>
        <time>2011-03-12T13:23:47Z</time>
      </trkpt>
      <trkpt lat="48.7303" lon="7.34293">
        <ele>283.201416</ele>
        <time>2011-03-12T13:23:49Z</time>
      </trkpt>
      <trkpt lat="48.73025" lon="7.34287">
        <ele>282.474854</ele>
        <time>2011-03-12T13:23:51Z</time>
      </trkpt>
      <trkpt lat="48.7302" lon="7.34281">
        <ele>282.013916</ele>
        <time>2011-03-12T13:23:53Z</time>
      </trkpt>
      <trkpt lat="48.73014" lon="7.34276">
        <ele>281.013916</ele>
        <time>2011-03-12T13:23:55Z</time>
      </trkpt>
      <trkpt lat="48.73009" lon="7.34269">
        <ele>280.990479</ele>
        <time>2011-03-12T13:23:57Z</time>
      </trkpt>
      <trkpt lat="48.73002" lon="7.34261">
        <ele>279.701416</ele>
        <time>2011-03-12T13:23:59Z</time>
      </trkpt>
      <trkpt lat="48.72996" lon="7.34253">
        <ele>277.967041</ele>
        <time>2011-03-12T13:24:01Z</time>
      </trkpt>
      <trkpt lat="48.7299" lon="7.34245">
        <ele>277.060791</ele>
        <time>2011-03-12T13:24:03Z</time>
      </trkpt>
      <trkpt lat="48.72984" lon="7.34238">
        <ele>275.779541</ele>
        <time>2011-03-12T13:24:05Z</time>
      </trkpt>
      <trkpt lat="48.72978" lon="7.34227">
        <ele>275.779541</ele>
        <time>2011-03-12T13:24:07Z</time>
      </trkpt>
      <trkpt lat="48.72975" lon="7.34222">
        <ele>275.560791</ele>
        <time>2011-03-12T13:24:08Z</time>
      </trkpt>
      <trkpt lat="48.72973" lon="7.34216">
        <ele>274.420166</ele>
        <time>2011-03-12T13:24:09Z</time>
      </trkpt>
      <trkpt lat="48.72969" lon="7.34211">
        <ele>274.123291</ele>
        <time>2011-03-12T13:24:10Z</time>
      </trkpt>
      <trkpt lat="48.72965" lon="7.34206">
        <ele>274.295166</ele>
        <time>2011-03-12T13:24:11Z</time>
      </trkpt>
      <trkpt lat="48.72962" lon="7.34201">
        <ele>275.498291</ele>
        <time>2011-03-12T13:24:12Z</time>
      </trkpt>
      <trkpt lat="48.72959" lon="7.34196">
        <ele>275.349854</ele>
        <time>2011-03-12T13:24:13Z</time>
      </trkpt>
      <trkpt lat="48.72956" lon="7.34191">
        <ele>274.412354</ele>
        <time>2011-03-12T13:24:14Z</time>
      </trkpt>
      <trkpt lat="48.72952" lon="7.34185">
        <ele>279.888916</ele>
        <time>2011-03-12T13:24:15Z</time>
      </trkpt>
      <trkpt lat="48.72949" lon="7.34179">
        <ele>281.771729</ele>
        <time>2011-03-12T13:24:16Z</time>
      </trkpt>
      <trkpt lat="48.72942" lon="7.34169">
        <ele>283.748291</ele>
        <time>2011-03-12T13:24:18Z</time>
      </trkpt>
      <trkpt lat="48.72938" lon="7.34161">
        <ele>286.537354</ele>
        <time>2011-03-12T13:24:20Z</time>
      </trkpt>
      <trkpt lat="48.72934" lon="7.34154">
        <ele>287.123291</ele>
        <time>2011-03-12T13:24:22Z</time>
      </trkpt>
      <trkpt lat="48.7293" lon="7.34147">
        <ele>288.412354</ele>
        <time>2011-03-12T13:24:24Z</time>
      </trkpt>
      <trkpt lat="48.72928" lon="7.34141">
        <ele>288.396729</ele>
        <time>2011-03-12T13:24:26Z</time>
      </trkpt>
      <trkpt lat="48.72923" lon="7.34133">
        <ele>290.888916</ele>
        <time>2011-03-12T13:24:29Z</time>
      </trkpt>
      <trkpt lat="48.7292" lon="7.34126">
        <ele>291.342041</ele>
        <time>2011-03-12T13:24:31Z</time>
      </trkpt>
      <trkpt lat="48.72916" lon="7.34118">
        <ele>293.709229</ele>
        <time>2011-03-12T13:24:33Z</time>
      </trkpt>
      <trkpt lat="48.72912" lon="7.3411">
        <ele>295.342041</ele>
        <time>2011-03-12T13:24:35Z</time>
      </trkpt>
      <trkpt lat="48.72908" lon="7.34103">
        <ele>295.693604</ele>
        <time>2011-03-12T13:24:37Z</time>
      </trkpt>
      <trkpt lat="48.72906" lon="7.34097">
        <ele>296.654541</ele>
        <time>2011-03-12T13:24:39Z</time>
      </trkpt>
      <trkpt lat="48.72903" lon="7.34089">
        <ele>297.951416</ele>
        <time>2011-03-12T13:24:42Z</time>
      </trkpt>
      <trkpt lat="48.72898" lon="7.34082">
        <ele>297.795166</ele>
        <time>2011-03-12T13:24:44Z</time>
      </trkpt>
      <trkpt lat="48.72894" lon="7.34074">
        <ele>297.709229</ele>
        <time>2011-03-12T13:24:46Z</time>
      </trkpt>
      <trkpt lat="48.72893" lon="7.34065">
        <ele>297.724854</ele>
        <time>2011-03-12T13:24:48Z</time>
      </trkpt>
      <trkpt lat="48.72892" lon="7.34057">
        <ele>297.576416</ele>
        <time>2011-03-12T13:24:50Z</time>
      </trkpt>
      <trkpt lat="48.72891" lon="7.3405">
        <ele>297.763916</ele>
        <time>2011-03-12T13:24:52Z</time>
      </trkpt>
      <trkpt lat="48.7289" lon="7.34042">
        <ele>297.037354</ele>
        <time>2011-03-12T13:24:54Z</time>
      </trkpt>
      <trkpt lat="48.72888" lon="7.34034">
        <ele>297.092041</ele>
        <time>2011-03-12T13:24:56Z</time>
      </trkpt>
      <trkpt lat="48.72886" lon="7.34026">
        <ele>296.756104</ele>
        <time>2011-03-12T13:24:58Z</time>
      </trkpt>
      <trkpt lat="48.72884" lon="7.34018">
        <ele>296.615479</ele>
        <time>2011-03-12T13:25:00Z</time>
      </trkpt>
      <trkpt lat="48.7288" lon="7.34009">
        <ele>297.326416</ele>
        <time>2011-03-12T13:25:02Z</time>
      </trkpt>
      <trkpt lat="48.72876" lon="7.34001">
        <ele>297.560791</ele>
        <time>2011-03-12T13:25:04Z</time>
      </trkpt>
      <trkpt lat="48.72873" lon="7.33991">
        <ele>298.232666</ele>
        <time>2011-03-12T13:25:06Z</time>
      </trkpt>
      <trkpt lat="48.7287" lon="7.33983">
        <ele>298.552979</ele>
        <time>2011-03-12T13:25:08Z</time>
      </trkpt>
      <trkpt lat="48.72869" lon="7.33973">
        <ele>297.881104</ele>
        <time>2011-03-12T13:25:11Z</time>
      </trkpt>
      <trkpt lat="48.72868" lon="7.33964">
        <ele>297.248291</ele>
        <time>2011-03-12T13:25:13Z</time>
      </trkpt>
      <trkpt lat="48.72868" lon="7.33956">
        <ele>296.787354</ele>
        <time>2011-03-12T13:25:15Z</time>
      </trkpt>
      <trkpt lat="48.72863" lon="7.33946">
        <ele>296.779541</ele>
        <time>2011-03-12T13:25:17Z</time>
      </trkpt>
      <trkpt lat="48.7286" lon="7.3394">
        <ele>297.748291</ele>
        <time>2011-03-12T13:25:18Z</time>
      </trkpt>
      <trkpt lat="48.72858" lon="7.3393">
        <ele>298.357666</ele>
        <time>2011-03-12T13:25:20Z</time>
      </trkpt>
      <trkpt lat="48.72855" lon="7.33921">
        <ele>299.951416</ele>
        <time>2011-03-12T13:25:22Z</time>
      </trkpt>
      <trkpt lat="48.7285" lon="7.33914">
        <ele>298.677979</ele>
        <time>2011-03-12T13:25:24Z</time>
      </trkpt>
      <trkpt lat="48.72849" lon="7.33905">
        <ele>298.646729</ele>
        <time>2011-03-12T13:25:26Z</time>
      </trkpt>
      <trkpt lat="48.72845" lon="7.33896">
        <ele>297.193604</ele>
        <time>2011-03-12T13:25:28Z</time>
      </trkpt>
      <trkpt lat="48.72843" lon="7.33887">
        <ele>299.529541</ele>
        <time>2011-03-12T13:25:30Z</time>
      </trkpt>
      <trkpt lat="48.7284" lon="7.33879">
        <ele>299.584229</ele>
        <time>2011-03-12T13:25:32Z</time>
      </trkpt>
      <trkpt lat="48.72836" lon="7.33871">
        <ele>300.849854</ele>
        <time>2011-03-12T13:25:34Z</time>
      </trkpt>
      <trkpt lat="48.72833" lon="7.33862">
        <ele>301.506104</ele>
        <time>2011-03-12T13:25:36Z</time>
      </trkpt>
      <trkpt lat="48.72829" lon="7.33853">
        <ele>301.029541</ele>
        <time>2011-03-12T13:25:38Z</time>
      </trkpt>
      <trkpt lat="48.72826" lon="7.33843">
        <ele>301.388916</ele>
        <time>2011-03-12T13:25:40Z</time>
      </trkpt>
      <trkpt lat="48.72823" lon="7.33835">
        <ele>301.232666</ele>
        <time>2011-03-12T13:25:42Z</time>
      </trkpt>
      <trkpt lat="48.72819" lon="7.33826">
        <ele>301.795166</ele>
        <time>2011-03-12T13:25:44Z</time>
      </trkpt>
      <trkpt lat="48.72815" lon="7.33815">
        <ele>301.349854</ele>
        <time>2011-03-12T13:25:46Z</time>
      </trkpt>
      <trkpt lat="48.72812" lon="7.33806">
        <ele>301.498291</ele>
        <time>2011-03-12T13:25:48Z</time>
      </trkpt>
      <trkpt lat="48.72807" lon="7.33799">
        <ele>301.560791</ele>
        <time>2011-03-12T13:25:50Z</time>
      </trkpt>
      <trkpt lat="48.72804" lon="7.3379">
        <ele>301.967041</ele>
        <time>2011-03-12T13:25:52Z</time>
      </trkpt>
      <trkpt lat="48.72799" lon="7.3378">
        <ele>302.404541</ele>
        <time>2011-03-12T13:25:54Z</time>
      </trkpt>
      <trkpt lat="48.72795" lon="7.33774">
        <ele>302.256104</ele>
        <time>2011-03-12T13:25:56Z</time>
      </trkpt>
      <trkpt lat="48.72792" lon="7.33769">
        <ele>302.412354</ele>
        <time>2011-03-12T13:25:58Z</time>
      </trkpt>
      <trkpt lat="48.72789" lon="7.33764">
        <ele>304.099854</ele>
        <time>2011-03-12T13:26:10Z</time>
      </trkpt>
      <trkpt lat="48.72785" lon="7.3376">
        <ele>305.271729</ele>
        <time>2011-03-12T13:26:58Z</time>
      </trkpt>
      <trkpt lat="48.72782" lon="7.33754">
        <ele>305.709229</ele>
        <time>2011-03-12T13:27:01Z</time>
      </trkpt>
      <trkpt lat="48.72779" lon="7.33746">
        <ele>305.412354</ele>
        <time>2011-03-12T13:27:03Z</time>
      </trkpt>
      <trkpt lat="48.72776" lon="7.3374">
        <ele>306.310791</ele>
        <time>2011-03-12T13:27:05Z</time>
      </trkpt>
      <trkpt lat="48.72773" lon="7.33735">
        <ele>306.435791</ele>
        <time>2011-03-12T13:27:30Z</time>
      </trkpt>
      <trkpt lat="48.7277" lon="7.33729">
        <ele>306.873291</ele>
        <time>2011-03-12T13:27:32Z</time>
      </trkpt>
      <trkpt lat="48.72767" lon="7.33722">
        <ele>307.256104</ele>
        <time>2011-03-12T13:27:34Z</time>
      </trkpt>
      <trkpt lat="48.72763" lon="7.33716">
        <ele>307.709229</ele>
        <time>2011-03-12T13:27:36Z</time>
      </trkpt>
      <trkpt lat="48.72759" lon="7.33709">
        <ele>307.849854</ele>
        <time>2011-03-12T13:27:38Z</time>
      </trkpt>
      <trkpt lat="48.72754" lon="7.33704">
        <ele>308.279541</ele>
        <time>2011-03-12T13:27:40Z</time>
      </trkpt>
      <trkpt lat="48.72749" lon="7.33697">
        <ele>308.623291</ele>
        <time>2011-03-12T13:27:42Z</time>
      </trkpt>
      <trkpt lat="48.72744" lon="7.33691">
        <ele>309.545166</ele>
        <time>2011-03-12T13:27:44Z</time>
      </trkpt>
      <trkpt lat="48.72739" lon="7.33684">
        <ele>310.615479</ele>
        <time>2011-03-12T13:27:46Z</time>
      </trkpt>
      <trkpt lat="48.72734" lon="7.33677">
        <ele>311.357666</ele>
        <time>2011-03-12T13:27:48Z</time>
      </trkpt>
      <trkpt lat="48.7273" lon="7.33672">
        <ele>312.177979</ele>
        <time>2011-03-12T13:27:50Z</time>
      </trkpt>
      <trkpt lat="48.72725" lon="7.33665">
        <ele>312.482666</ele>
        <time>2011-03-12T13:27:52Z</time>
      </trkpt>
      <trkpt lat="48.7272" lon="7.33659">
        <ele>313.959229</ele>
        <time>2011-03-12T13:27:54Z</time>
      </trkpt>
      <trkpt lat="48.72715" lon="7.33653">
        <ele>315.162354</ele>
        <time>2011-03-12T13:27:56Z</time>
      </trkpt>
      <trkpt lat="48.7271" lon="7.33646">
        <ele>316.373291</ele>
        <time>2011-03-12T13:27:58Z</time>
      </trkpt>
      <trkpt lat="48.72706" lon="7.33639">
        <ele>315.818604</ele>
        <time>2011-03-12T13:28:00Z</time>
      </trkpt>
      <trkpt lat="48.72701" lon="7.33632">
        <ele>316.021729</ele>
        <time>2011-03-12T13:28:02Z</time>
      </trkpt>
      <trkpt lat="48.72697" lon="7.33627">
        <ele>315.677979</ele>
        <time>2011-03-12T13:28:04Z</time>
      </trkpt>
      <trkpt lat="48.72692" lon="7.33621">
        <ele>316.349854</ele>
        <time>2011-03-12T13:28:06Z</time>
      </trkpt>
      <trkpt lat="48.72687" lon="7.33615">
        <ele>315.498291</ele>
        <time>2011-03-12T13:28:08Z</time>
      </trkpt>
      <trkpt lat="48.72682" lon="7.3361">
        <ele>315.521729</ele>
        <time>2011-03-12T13:28:10Z</time>
      </trkpt>
      <trkpt lat="48.72677" lon="7.33604">
        <ele>315.857666</ele>
        <time>2011-03-12T13:28:12Z</time>
      </trkpt>
      <trkpt lat="48.72672" lon="7.33598">
        <ele>316.506104</ele>
        <time>2011-03-12T13:28:14Z</time>
      </trkpt>
      <trkpt lat="48.72667" lon="7.33592">
        <ele>316.779541</ele>
        <time>2011-03-12T13:28:16Z</time>
      </trkpt>
      <trkpt lat="48.72661" lon="7.33586">
        <ele>317.263916</ele>
        <time>2011-03-12T13:28:18Z</time>
      </trkpt>
      <trkpt lat="48.72656" lon="7.33579">
        <ele>316.904541</ele>
        <time>2011-03-12T13:28:20Z</time>
      </trkpt>
      <trkpt lat="48.72651" lon="7.33574">
        <ele>317.068604</ele>
        <time>2011-03-12T13:28:22Z</time>
      </trkpt>
      <trkpt lat="48.72646" lon="7.33569">
        <ele>317.638916</ele>
        <time>2011-03-12T13:28:24Z</time>
      </trkpt>
      <trkpt lat="48.7264" lon="7.33566">
        <ele>319.107666</ele>
        <time>2011-03-12T13:28:26Z</time>
      </trkpt>
      <trkpt lat="48.72636" lon="7.33562">
        <ele>320.217041</ele>
        <time>2011-03-12T13:28:28Z</time>
      </trkpt>
      <trkpt lat="48.72632" lon="7.33557">
        <ele>321.193604</ele>
        <time>2011-03-12T13:28:30Z</time>
      </trkpt>
      <trkpt lat="48.72627" lon="7.33551">
        <ele>321.006104</ele>
        <time>2011-03-12T13:28:33Z</time>
      </trkpt>
      <trkpt lat="48.72622" lon="7.33545">
        <ele>320.896729</ele>
        <time>2011-03-12T13:28:36Z</time>
      </trkpt>
      <trkpt lat="48.72617" lon="7.33541">
        <ele>319.529541</ele>
        <time>2011-03-12T13:28:38Z</time>
      </trkpt>
      <trkpt lat="48.72612" lon="7.33536">
        <ele>319.279541</ele>
        <time>2011-03-12T13:28:40Z</time>
      </trkpt>
      <trkpt lat="48.72607" lon="7.33532">
        <ele>319.459229</ele>
        <time>2011-03-12T13:28:42Z</time>
      </trkpt>
      <trkpt lat="48.72602" lon="7.33527">
        <ele>319.943604</ele>
        <time>2011-03-12T13:28:44Z</time>
      </trkpt>
      <trkpt lat="48.72596" lon="7.33522">
        <ele>319.467041</ele>
        <time>2011-03-12T13:28:46Z</time>
      </trkpt>
      <trkpt lat="48.7259" lon="7.33516">
        <ele>319.201416</ele>
        <time>2011-03-12T13:28:48Z</time>
      </trkpt>
      <trkpt lat="48.72585" lon="7.33511">
        <ele>318.545166</ele>
        <time>2011-03-12T13:28:50Z</time>
      </trkpt>
      <trkpt lat="48.7258" lon="7.33507">
        <ele>318.709229</ele>
        <time>2011-03-12T13:28:52Z</time>
      </trkpt>
      <trkpt lat="48.72575" lon="7.33503">
        <ele>319.131104</ele>
        <time>2011-03-12T13:28:54Z</time>
      </trkpt>
      <trkpt lat="48.72569" lon="7.33499">
        <ele>319.310791</ele>
        <time>2011-03-12T13:28:56Z</time>
      </trkpt>
      <trkpt lat="48.72564" lon="7.33495">
        <ele>319.482666</ele>
        <time>2011-03-12T13:28:58Z</time>
      </trkpt>
      <trkpt lat="48.72558" lon="7.33491">
        <ele>319.974854</ele>
        <time>2011-03-12T13:29:00Z</time>
      </trkpt>
      <trkpt lat="48.72553" lon="7.33487">
        <ele>321.263916</ele>
        <time>2011-03-12T13:29:02Z</time>
      </trkpt>
      <trkpt lat="48.72548" lon="7.33483">
        <ele>321.771729</ele>
        <time>2011-03-12T13:29:04Z</time>
      </trkpt>
      <trkpt lat="48.72542" lon="7.33479">
        <ele>322.209229</ele>
        <time>2011-03-12T13:29:06Z</time>
      </trkpt>
      <trkpt lat="48.72537" lon="7.33474">
        <ele>322.451416</ele>
        <time>2011-03-12T13:29:08Z</time>
      </trkpt>
      <trkpt lat="48.7253" lon="7.33469">
        <ele>321.802979</ele>
        <time>2011-03-12T13:29:10Z</time>
      </trkpt>
      <trkpt lat="48.72525" lon="7.33465">
        <ele>321.654541</ele>
        <time>2011-03-12T13:29:12Z</time>
      </trkpt>
      <trkpt lat="48.7252" lon="7.33462">
        <ele>321.584229</ele>
        <time>2011-03-12T13:29:14Z</time>
      </trkpt>
      <trkpt lat="48.72516" lon="7.33459">
        <ele>321.115479</ele>
        <time>2011-03-12T13:29:16Z</time>
      </trkpt>
      <trkpt lat="48.7251" lon="7.33456">
        <ele>321.068604</ele>
        <time>2011-03-12T13:29:18Z</time>
      </trkpt>
      <trkpt lat="48.72505" lon="7.33453">
        <ele>320.412354</ele>
        <time>2011-03-12T13:29:20Z</time>
      </trkpt>
      <trkpt lat="48.72499" lon="7.33448">
        <ele>320.162354</ele>
        <time>2011-03-12T13:29:23Z</time>
      </trkpt>
      <trkpt lat="48.72493" lon="7.33445">
        <ele>320.701416</ele>
        <time>2011-03-12T13:29:25Z</time>
      </trkpt>
      <trkpt lat="48.72488" lon="7.33443">
        <ele>322.131104</ele>
        <time>2011-03-12T13:29:27Z</time>
      </trkpt>
      <trkpt lat="48.72483" lon="7.33438">
        <ele>322.865479</ele>
        <time>2011-03-12T13:29:29Z</time>
      </trkpt>
      <trkpt lat="48.72478" lon="7.33433">
        <ele>323.006104</ele>
        <time>2011-03-12T13:29:31Z</time>
      </trkpt>
      <trkpt lat="48.72472" lon="7.33429">
        <ele>323.224854</ele>
        <time>2011-03-12T13:29:33Z</time>
      </trkpt>
      <trkpt lat="48.72466" lon="7.33424">
        <ele>324.193604</ele>
        <time>2011-03-12T13:29:35Z</time>
      </trkpt>
      <trkpt lat="48.7246" lon="7.33419">
        <ele>323.717041</ele>
        <time>2011-03-12T13:29:37Z</time>
      </trkpt>
      <trkpt lat="48.72455" lon="7.33414">
        <ele>323.467041</ele>
        <time>2011-03-12T13:29:39Z</time>
      </trkpt>
      <trkpt lat="48.7245" lon="7.33409">
        <ele>325.943604</ele>
        <time>2011-03-12T13:29:41Z</time>
      </trkpt>
      <trkpt lat="48.72445" lon="7.33404">
        <ele>327.217041</ele>
        <time>2011-03-12T13:29:43Z</time>
      </trkpt>
      <trkpt lat="48.7244" lon="7.33399">
        <ele>328.021729</ele>
        <time>2011-03-12T13:29:45Z</time>
      </trkpt>
      <trkpt lat="48.72435" lon="7.33395">
        <ele>327.451416</ele>
        <time>2011-03-12T13:29:47Z</time>
      </trkpt>
      <trkpt lat="48.7243" lon="7.3339">
        <ele>328.404541</ele>
        <time>2011-03-12T13:29:50Z</time>
      </trkpt>
      <trkpt lat="48.72425" lon="7.33385">
        <ele>328.826416</ele>
        <time>2011-03-12T13:29:53Z</time>
      </trkpt>
      <trkpt lat="48.72419" lon="7.33378">
        <ele>329.810791</ele>
        <time>2011-03-12T13:29:56Z</time>
      </trkpt>
      <trkpt lat="48.72414" lon="7.33373">
        <ele>330.967041</ele>
        <time>2011-03-12T13:29:58Z</time>
      </trkpt>
      <trkpt lat="48.7241" lon="7.33368">
        <ele>330.748291</ele>
        <time>2011-03-12T13:30:00Z</time>
      </trkpt>
      <trkpt lat="48.72406" lon="7.33364">
        <ele>331.826416</ele>
        <time>2011-03-12T13:30:02Z</time>
      </trkpt>
      <trkpt lat="48.72402" lon="7.33359">
        <ele>331.662354</ele>
        <time>2011-03-12T13:30:04Z</time>
      </trkpt>
      <trkpt lat="48.72398" lon="7.33354">
        <ele>332.982666</ele>
        <time>2011-03-12T13:30:06Z</time>
      </trkpt>
      <trkpt lat="48.72394" lon="7.3335">
        <ele>334.209229</ele>
        <time>2011-03-12T13:30:08Z</time>
      </trkpt>
      <trkpt lat="48.72391" lon="7.33345">
        <ele>333.654541</ele>
        <time>2011-03-12T13:30:10Z</time>
      </trkpt>
      <trkpt lat="48.72387" lon="7.3334">
        <ele>333.709229</ele>
        <time>2011-03-12T13:30:12Z</time>
      </trkpt>
      <trkpt lat="48.72382" lon="7.33335">
        <ele>333.638916</ele>
        <time>2011-03-12T13:30:14Z</time>
      </trkpt>
      <trkpt lat="48.72377" lon="7.3333">
        <ele>332.529541</ele>
        <time>2011-03-12T13:30:16Z</time>
      </trkpt>
      <trkpt lat="48.72372" lon="7.33325">
        <ele>331.217041</ele>
        <time>2011-03-12T13:30:18Z</time>
      </trkpt>
      <trkpt lat="48.72367" lon="7.3332">
        <ele>329.568604</ele>
        <time>2011-03-12T13:30:20Z</time>
      </trkpt>
      <trkpt lat="48.72363" lon="7.33315">
        <ele>328.490479</ele>
        <time>2011-03-12T13:30:22Z</time>
      </trkpt>
      <trkpt lat="48.72358" lon="7.33311">
        <ele>327.685791</ele>
        <time>2011-03-12T13:30:24Z</time>
      </trkpt>
      <trkpt lat="48.72352" lon="7.33308">
        <ele>327.779541</ele>
        <time>2011-03-12T13:30:26Z</time>
      </trkpt>
      <trkpt lat="48.72347" lon="7.33304">
        <ele>327.998291</ele>
        <time>2011-03-12T13:30:28Z</time>
      </trkpt>
      <trkpt lat="48.72342" lon="7.33299">
        <ele>328.537354</ele>
        <time>2011-03-12T13:30:30Z</time>
      </trkpt>
      <trkpt lat="48.72338" lon="7.33294">
        <ele>328.248291</ele>
        <time>2011-03-12T13:30:32Z</time>
      </trkpt>
      <trkpt lat="48.72333" lon="7.33291">
        <ele>329.943604</ele>
        <time>2011-03-12T13:30:34Z</time>
      </trkpt>
      <trkpt lat="48.72328" lon="7.33286">
        <ele>333.349854</ele>
        <time>2011-03-12T13:30:36Z</time>
      </trkpt>
      <trkpt lat="48.72323" lon="7.33284">
        <ele>332.982666</ele>
        <time>2011-03-12T13:30:38Z</time>
      </trkpt>
      <trkpt lat="48.72318" lon="7.33281">
        <ele>333.420166</ele>
        <time>2011-03-12T13:30:40Z</time>
      </trkpt>
      <trkpt lat="48.72312" lon="7.33277">
        <ele>333.435791</ele>
        <time>2011-03-12T13:30:42Z</time>
      </trkpt>
      <trkpt lat="48.72306" lon="7.33273">
        <ele>334.427979</ele>
        <time>2011-03-12T13:30:44Z</time>
      </trkpt>
      <trkpt lat="48.723" lon="7.3327">
        <ele>335.388916</ele>
        <time>2011-03-12T13:30:46Z</time>
      </trkpt>
      <trkpt lat="48.72295" lon="7.33267">
        <ele>336.927979</ele>
        <time>2011-03-12T13:30:48Z</time>
      </trkpt>
      <trkpt lat="48.72289" lon="7.33265">
        <ele>336.927979</ele>
        <time>2011-03-12T13:30:50Z</time>
      </trkpt>
      <trkpt lat="48.72282" lon="7.33263">
        <ele>339.349854</ele>
        <time>2011-03-12T13:30:52Z</time>
      </trkpt>
      <trkpt lat="48.72276" lon="7.33262">
        <ele>340.240479</ele>
        <time>2011-03-12T13:30:54Z</time>
      </trkpt>
      <trkpt lat="48.7227" lon="7.3326">
        <ele>341.834229</ele>
        <time>2011-03-12T13:30:56Z</time>
      </trkpt>
      <trkpt lat="48.72264" lon="7.33258">
        <ele>341.685791</ele>
        <time>2011-03-12T13:30:58Z</time>
      </trkpt>
      <trkpt lat="48.72258" lon="7.33256">
        <ele>342.717041</ele>
        <time>2011-03-12T13:31:00Z</time>
      </trkpt>
      <trkpt lat="48.72253" lon="7.33254">
        <ele>343.654541</ele>
        <time>2011-03-12T13:31:02Z</time>
      </trkpt>
      <trkpt lat="48.72248" lon="7.33251">
        <ele>343.224854</ele>
        <time>2011-03-12T13:31:05Z</time>
      </trkpt>
      <trkpt lat="48.72243" lon="7.33249">
        <ele>345.865479</ele>
        <time>2011-03-12T13:31:07Z</time>
      </trkpt>
      <trkpt lat="48.72237" lon="7.33247">
        <ele>348.302979</ele>
        <time>2011-03-12T13:31:09Z</time>
      </trkpt>
      <trkpt lat="48.72231" lon="7.33246">
        <ele>346.217041</ele>
        <time>2011-03-12T13:31:11Z</time>
      </trkpt>
      <trkpt lat="48.72226" lon="7.33245">
        <ele>345.545166</ele>
        <time>2011-03-12T13:31:13Z</time>
      </trkpt>
      <trkpt lat="48.7222" lon="7.33245">
        <ele>347.873291</ele>
        <time>2011-03-12T13:31:15Z</time>
      </trkpt>
      <trkpt lat="48.72215" lon="7.33243">
        <ele>349.717041</ele>
        <time>2011-03-12T13:31:18Z</time>
      </trkpt>
      <trkpt lat="48.72211" lon="7.33239">
        <ele>351.623291</ele>
        <time>2011-03-12T13:31:20Z</time>
      </trkpt>
      <trkpt lat="48.72206" lon="7.33235">
        <ele>353.537354</ele>
        <time>2011-03-12T13:31:22Z</time>
      </trkpt>
      <trkpt lat="48.722" lon="7.33228">
        <ele>353.935791</ele>
        <time>2011-03-12T13:31:24Z</time>
      </trkpt>
      <trkpt lat="48.72195" lon="7.33222">
        <ele>354.998291</ele>
        <time>2011-03-12T13:31:26Z</time>
      </trkpt>
      <trkpt lat="48.72189" lon="7.33218">
        <ele>356.467041</ele>
        <time>2011-03-12T13:31:28Z</time>
      </trkpt>
      <trkpt lat="48.72184" lon="7.33212">
        <ele>357.013916</ele>
        <time>2011-03-12T13:31:30Z</time>
      </trkpt>
      <trkpt lat="48.72179" lon="7.33206">
        <ele>357.646729</ele>
        <time>2011-03-12T13:31:32Z</time>
      </trkpt>
      <trkpt lat="48.72175" lon="7.33199">
        <ele>356.013916</ele>
        <time>2011-03-12T13:31:35Z</time>
      </trkpt>
      <trkpt lat="48.7217" lon="7.33192">
        <ele>355.521729</ele>
        <time>2011-03-12T13:31:37Z</time>
      </trkpt>
      <trkpt lat="48.72165" lon="7.33185">
        <ele>355.381104</ele>
        <time>2011-03-12T13:31:39Z</time>
      </trkpt>
      <trkpt lat="48.72161" lon="7.33178">
        <ele>352.099854</ele>
        <time>2011-03-12T13:31:41Z</time>
      </trkpt>
      <trkpt lat="48.72156" lon="7.3317">
        <ele>349.006104</ele>
        <time>2011-03-12T13:31:43Z</time>
      </trkpt>
      <trkpt lat="48.72152" lon="7.33166">
        <ele>345.388916</ele>
        <time>2011-03-12T13:31:46Z</time>
      </trkpt>
      <trkpt lat="48.7215" lon="7.33167">
        <ele>341.388916</ele>
        <time>2011-03-12T13:32:07Z</time>
      </trkpt>
      <trkpt lat="48.72147" lon="7.33162">
        <ele>339.256104</ele>
        <time>2011-03-12T13:35:54Z</time>
      </trkpt>
      <trkpt lat="48.72145" lon="7.33152">
        <ele>340.029541</ele>
        <time>2011-03-12T13:35:57Z</time>
      </trkpt>
      <trkpt lat="48.72144" lon="7.33143">
        <ele>340.662354</ele>
        <time>2011-03-12T13:35:59Z</time>
      </trkpt>
      <trkpt lat="48.72142" lon="7.33135">
        <ele>340.537354</ele>
        <time>2011-03-12T13:36:01Z</time>
      </trkpt>
      <trkpt lat="48.72141" lon="7.33127">
        <ele>340.474854</ele>
        <time>2011-03-12T13:36:03Z</time>
      </trkpt>
      <trkpt lat="48.72141" lon="7.33118">
        <ele>340.756104</ele>
        <time>2011-03-12T13:36:05Z</time>
      </trkpt>
      <trkpt lat="48.7214" lon="7.33109">
        <ele>340.881104</ele>
        <time>2011-03-12T13:36:07Z</time>
      </trkpt>
      <trkpt lat="48.7214" lon="7.331">
        <ele>340.435791</ele>
        <time>2011-03-12T13:36:09Z</time>
      </trkpt>
      <trkpt lat="48.72139" lon="7.3309">
        <ele>340.396729</ele>
        <time>2011-03-12T13:36:11Z</time>
      </trkpt>
      <trkpt lat="48.72139" lon="7.33083">
        <ele>340.482666</ele>
        <time>2011-03-12T13:36:13Z</time>
      </trkpt>
      <trkpt lat="48.72138" lon="7.33074">
        <ele>340.365479</ele>
        <time>2011-03-12T13:36:15Z</time>
      </trkpt>
      <trkpt lat="48.72139" lon="7.33066">
        <ele>340.006104</ele>
        <time>2011-03-12T13:36:17Z</time>
      </trkpt>
      <trkpt lat="48.72139" lon="7.33057">
        <ele>340.013916</ele>
        <time>2011-03-12T13:36:19Z</time>
      </trkpt>
      <trkpt lat="48.72139" lon="7.33048">
        <ele>340.037354</ele>
        <time>2011-03-12T13:36:21Z</time>
      </trkpt>
      <trkpt lat="48.7214" lon="7.3304">
        <ele>339.654541</ele>
        <time>2011-03-12T13:36:23Z</time>
      </trkpt>
      <trkpt lat="48.72139" lon="7.3303">
        <ele>339.599854</ele>
        <time>2011-03-12T13:36:25Z</time>
      </trkpt>
      <trkpt lat="48.7214" lon="7.3302">
        <ele>339.560791</ele>
        <time>2011-03-12T13:36:27Z</time>
      </trkpt>
      <trkpt lat="48.72141" lon="7.3301">
        <ele>339.771729</ele>
        <time>2011-03-12T13:36:29Z</time>
      </trkpt>
      <trkpt lat="48.72141" lon="7.33001">
        <ele>340.076416</ele>
        <time>2011-03-12T13:36:31Z</time>
      </trkpt>
      <trkpt lat="48.72141" lon="7.32991">
        <ele>339.779541</ele>
        <time>2011-03-12T13:36:33Z</time>
      </trkpt>
      <trkpt lat="48.72141" lon="7.32983">
        <ele>339.545166</ele>
        <time>2011-03-12T13:36:35Z</time>
      </trkpt>
      <trkpt lat="48.72142" lon="7.32976">
        <ele>339.381104</ele>
        <time>2011-03-12T13:36:37Z</time>
      </trkpt>
      <trkpt lat="48.72142" lon="7.32967">
        <ele>339.224854</ele>
        <time>2011-03-12T13:36:40Z</time>
      </trkpt>
      <trkpt lat="48.72142" lon="7.32957">
        <ele>339.599854</ele>
        <time>2011-03-12T13:36:42Z</time>
      </trkpt>
      <trkpt lat="48.72143" lon="7.32948">
        <ele>339.857666</ele>
        <time>2011-03-12T13:36:44Z</time>
      </trkpt>
      <trkpt lat="48.72144" lon="7.3294">
        <ele>339.982666</ele>
        <time>2011-03-12T13:36:46Z</time>
      </trkpt>
      <trkpt lat="48.72143" lon="7.32932">
        <ele>340.263916</ele>
        <time>2011-03-12T13:36:48Z</time>
      </trkpt>
      <trkpt lat="48.72144" lon="7.32923">
        <ele>340.037354</ele>
        <time>2011-03-12T13:36:50Z</time>
      </trkpt>
      <trkpt lat="48.72144" lon="7.32914">
        <ele>340.123291</ele>
        <time>2011-03-12T13:36:52Z</time>
      </trkpt>
      <trkpt lat="48.72144" lon="7.32904">
        <ele>340.318604</ele>
        <time>2011-03-12T13:36:54Z</time>
      </trkpt>
      <trkpt lat="48.72147" lon="7.32893">
        <ele>341.115479</ele>
        <time>2011-03-12T13:36:56Z</time>
      </trkpt>
      <trkpt lat="48.72145" lon="7.32884">
        <ele>340.943604</ele>
        <time>2011-03-12T13:36:58Z</time>
      </trkpt>
      <trkpt lat="48.72144" lon="7.32876">
        <ele>340.982666</ele>
        <time>2011-03-12T13:37:00Z</time>
      </trkpt>
      <trkpt lat="48.72142" lon="7.32869">
        <ele>339.685791</ele>
        <time>2011-03-12T13:37:11Z</time>
      </trkpt>
      <trkpt lat="48.72141" lon="7.32859">
        <ele>339.342041</ele>
        <time>2011-03-12T13:37:15Z</time>
      </trkpt>
      <trkpt lat="48.72139" lon="7.32852">
        <ele>339.263916</ele>
        <time>2011-03-12T13:37:17Z</time>
      </trkpt>
      <trkpt lat="48.72137" lon="7.32843">
        <ele>338.888916</ele>
        <time>2011-03-12T13:37:20Z</time>
      </trkpt>
      <trkpt lat="48.72135" lon="7.32835">
        <ele>339.107666</ele>
        <time>2011-03-12T13:37:22Z</time>
      </trkpt>
      <trkpt lat="48.72131" lon="7.32825">
        <ele>338.990479</ele>
        <time>2011-03-12T13:37:24Z</time>
      </trkpt>
      <trkpt lat="48.72127" lon="7.32816">
        <ele>338.873291</ele>
        <time>2011-03-12T13:37:26Z</time>
      </trkpt>
      <trkpt lat="48.72123" lon="7.32804">
        <ele>339.084229</ele>
        <time>2011-03-12T13:37:28Z</time>
      </trkpt>
      <trkpt lat="48.7212" lon="7.32799">
        <ele>339.365479</ele>
        <time>2011-03-12T13:37:29Z</time>
      </trkpt>
      <trkpt lat="48.72117" lon="7.32793">
        <ele>339.373291</ele>
        <time>2011-03-12T13:37:30Z</time>
      </trkpt>
      <trkpt lat="48.72113" lon="7.32788">
        <ele>339.381104</ele>
        <time>2011-03-12T13:37:31Z</time>
      </trkpt>
      <trkpt lat="48.7211" lon="7.32782">
        <ele>339.193604</ele>
        <time>2011-03-12T13:37:32Z</time>
      </trkpt>
      <trkpt lat="48.72107" lon="7.32776">
        <ele>339.795166</ele>
        <time>2011-03-12T13:37:33Z</time>
      </trkpt>
      <trkpt lat="48.72104" lon="7.32772">
        <ele>339.912354</ele>
        <time>2011-03-12T13:37:34Z</time>
      </trkpt>
      <trkpt lat="48.72097" lon="7.32764">
        <ele>339.717041</ele>
        <time>2011-03-12T13:37:36Z</time>
      </trkpt>
      <trkpt lat="48.72091" lon="7.32759">
        <ele>339.318604</ele>
        <time>2011-03-12T13:37:38Z</time>
      </trkpt>
      <trkpt lat="48.72087" lon="7.32754">
        <ele>339.420166</ele>
        <time>2011-03-12T13:37:40Z</time>
      </trkpt>
      <trkpt lat="48.72083" lon="7.32749">
        <ele>340.834229</ele>
        <time>2011-03-12T13:37:42Z</time>
      </trkpt>
      <trkpt lat="48.72078" lon="7.32744">
        <ele>340.795166</ele>
        <time>2011-03-12T13:37:45Z</time>
      </trkpt>
      <trkpt lat="48.72073" lon="7.3274">
        <ele>341.201416</ele>
        <time>2011-03-12T13:37:47Z</time>
      </trkpt>
      <trkpt lat="48.72067" lon="7.32736">
        <ele>341.787354</ele>
        <time>2011-03-12T13:37:49Z</time>
      </trkpt>
      <trkpt lat="48.72062" lon="7.32734">
        <ele>342.388916</ele>
        <time>2011-03-12T13:37:51Z</time>
      </trkpt>
      <trkpt lat="48.72056" lon="7.32732">
        <ele>342.092041</ele>
        <time>2011-03-12T13:37:53Z</time>
      </trkpt>
      <trkpt lat="48.7205" lon="7.32729">
        <ele>342.404541</ele>
        <time>2011-03-12T13:37:55Z</time>
      </trkpt>
      <trkpt lat="48.72045" lon="7.32725">
        <ele>343.084229</ele>
        <time>2011-03-12T13:37:57Z</time>
      </trkpt>
      <trkpt lat="48.72039" lon="7.32722">
        <ele>344.162354</ele>
        <time>2011-03-12T13:37:59Z</time>
      </trkpt>
      <trkpt lat="48.72034" lon="7.32721">
        <ele>344.740479</ele>
        <time>2011-03-12T13:38:01Z</time>
      </trkpt>
      <trkpt lat="48.72029" lon="7.3272">
        <ele>345.568604</ele>
        <time>2011-03-12T13:38:03Z</time>
      </trkpt>
      <trkpt lat="48.72023" lon="7.32719">
        <ele>346.013916</ele>
        <time>2011-03-12T13:38:05Z</time>
      </trkpt>
      <trkpt lat="48.72017" lon="7.32717">
        <ele>346.490479</ele>
        <time>2011-03-12T13:38:07Z</time>
      </trkpt>
      <trkpt lat="48.72011" lon="7.32714">
        <ele>346.865479</ele>
        <time>2011-03-12T13:38:09Z</time>
      </trkpt>
      <trkpt lat="48.72005" lon="7.32714">
        <ele>347.779541</ele>
        <time>2011-03-12T13:38:11Z</time>
      </trkpt>
      <trkpt lat="48.71999" lon="7.32715">
        <ele>348.623291</ele>
        <time>2011-03-12T13:38:13Z</time>
      </trkpt>
      <trkpt lat="48.71993" lon="7.32715">
        <ele>349.271729</ele>
        <time>2011-03-12T13:38:15Z</time>
      </trkpt>
      <trkpt lat="48.71987" lon="7.32715">
        <ele>349.779541</ele>
        <time>2011-03-12T13:38:17Z</time>
      </trkpt>
      <trkpt lat="48.71981" lon="7.32715">
        <ele>350.060791</ele>
        <time>2011-03-12T13:38:19Z</time>
      </trkpt>
      <trkpt lat="48.71975" lon="7.32716">
        <ele>350.834229</ele>
        <time>2011-03-12T13:38:21Z</time>
      </trkpt>
      <trkpt lat="48.71969" lon="7.32717">
        <ele>351.545166</ele>
        <time>2011-03-12T13:38:23Z</time>
      </trkpt>
      <trkpt lat="48.71963" lon="7.32717">
        <ele>351.498291</ele>
        <time>2011-03-12T13:38:25Z</time>
      </trkpt>
      <trkpt lat="48.71956" lon="7.32717">
        <ele>351.810791</ele>
        <time>2011-03-12T13:38:27Z</time>
      </trkpt>
      <trkpt lat="48.71949" lon="7.32718">
        <ele>351.888916</ele>
        <time>2011-03-12T13:38:29Z</time>
      </trkpt>
      <trkpt lat="48.71944" lon="7.32719">
        <ele>352.638916</ele>
        <time>2011-03-12T13:38:31Z</time>
      </trkpt>
      <trkpt lat="48.71939" lon="7.32722">
        <ele>352.412354</ele>
        <time>2011-03-12T13:38:33Z</time>
      </trkpt>
      <trkpt lat="48.71934" lon="7.32724">
        <ele>352.802979</ele>
        <time>2011-03-12T13:38:35Z</time>
      </trkpt>
      <trkpt lat="48.71929" lon="7.32725">
        <ele>353.170166</ele>
        <time>2011-03-12T13:38:37Z</time>
      </trkpt>
      <trkpt lat="48.71923" lon="7.32727">
        <ele>354.076416</ele>
        <time>2011-03-12T13:38:39Z</time>
      </trkpt>
      <trkpt lat="48.71917" lon="7.3273">
        <ele>354.560791</ele>
        <time>2011-03-12T13:38:41Z</time>
      </trkpt>
      <trkpt lat="48.71911" lon="7.32732">
        <ele>354.318604</ele>
        <time>2011-03-12T13:38:43Z</time>
      </trkpt>
      <trkpt lat="48.71906" lon="7.32734">
        <ele>354.342041</ele>
        <time>2011-03-12T13:38:45Z</time>
      </trkpt>
      <trkpt lat="48.71901" lon="7.32738">
        <ele>354.701416</ele>
        <time>2011-03-12T13:38:47Z</time>
      </trkpt>
      <trkpt lat="48.71896" lon="7.32743">
        <ele>355.013916</ele>
        <time>2011-03-12T13:38:49Z</time>
      </trkpt>
      <trkpt lat="48.7189" lon="7.32747">
        <ele>355.412354</ele>
        <time>2011-03-12T13:38:51Z</time>
      </trkpt>
      <trkpt lat="48.71885" lon="7.32751">
        <ele>355.076416</ele>
        <time>2011-03-12T13:38:53Z</time>
      </trkpt>
      <trkpt lat="48.7188" lon="7.32756">
        <ele>354.732666</ele>
        <time>2011-03-12T13:38:55Z</time>
      </trkpt>
      <trkpt lat="48.71875" lon="7.3276">
        <ele>354.506104</ele>
        <time>2011-03-12T13:38:57Z</time>
      </trkpt>
      <trkpt lat="48.7187" lon="7.32765">
        <ele>354.451416</ele>
        <time>2011-03-12T13:38:59Z</time>
      </trkpt>
      <trkpt lat="48.71865" lon="7.32769">
        <ele>354.701416</ele>
        <time>2011-03-12T13:39:01Z</time>
      </trkpt>
      <trkpt lat="48.7186" lon="7.32775">
        <ele>354.560791</ele>
        <time>2011-03-12T13:39:03Z</time>
      </trkpt>
      <trkpt lat="48.71855" lon="7.32779">
        <ele>354.857666</ele>
        <time>2011-03-12T13:39:05Z</time>
      </trkpt>
      <trkpt lat="48.7185" lon="7.32781">
        <ele>356.982666</ele>
        <time>2011-03-12T13:39:07Z</time>
      </trkpt>
      <trkpt lat="48.71844" lon="7.32783">
        <ele>357.701416</ele>
        <time>2011-03-12T13:39:09Z</time>
      </trkpt>
      <trkpt lat="48.71839" lon="7.32788">
        <ele>358.490479</ele>
        <time>2011-03-12T13:39:11Z</time>
      </trkpt>
      <trkpt lat="48.71833" lon="7.32792">
        <ele>359.935791</ele>
        <time>2011-03-12T13:39:13Z</time>
      </trkpt>
      <trkpt lat="48.71828" lon="7.32796">
        <ele>361.045166</ele>
        <time>2011-03-12T13:39:15Z</time>
      </trkpt>
      <trkpt lat="48.71824" lon="7.32799">
        <ele>361.818604</ele>
        <time>2011-03-12T13:39:17Z</time>
      </trkpt>
      <trkpt lat="48.71819" lon="7.32802">
        <ele>362.810791</ele>
        <time>2011-03-12T13:39:19Z</time>
      </trkpt>
      <trkpt lat="48.71814" lon="7.32806">
        <ele>363.857666</ele>
        <time>2011-03-12T13:39:21Z</time>
      </trkpt>
      <trkpt lat="48.71809" lon="7.3281">
        <ele>364.357666</ele>
        <time>2011-03-12T13:39:23Z</time>
      </trkpt>
      <trkpt lat="48.71804" lon="7.32811">
        <ele>365.162354</ele>
        <time>2011-03-12T13:39:25Z</time>
      </trkpt>
      <trkpt lat="48.71798" lon="7.32812">
        <ele>365.342041</ele>
        <time>2011-03-12T13:39:27Z</time>
      </trkpt>
      <trkpt lat="48.71792" lon="7.32813">
        <ele>366.396729</ele>
        <time>2011-03-12T13:39:29Z</time>
      </trkpt>
      <trkpt lat="48.71785" lon="7.32812">
        <ele>366.263916</ele>
        <time>2011-03-12T13:39:31Z</time>
      </trkpt>
      <trkpt lat="48.71778" lon="7.32811">
        <ele>366.584229</ele>
        <time>2011-03-12T13:39:33Z</time>
      </trkpt>
      <trkpt lat="48.71771" lon="7.3281">
        <ele>366.888916</ele>
        <time>2011-03-12T13:39:35Z</time>
      </trkpt>
      <trkpt lat="48.71764" lon="7.32809">
        <ele>366.256104</ele>
        <time>2011-03-12T13:39:37Z</time>
      </trkpt>
      <trkpt lat="48.71758" lon="7.32807">
        <ele>366.240479</ele>
        <time>2011-03-12T13:39:39Z</time>
      </trkpt>
      <trkpt lat="48.71752" lon="7.32804">
        <ele>366.701416</ele>
        <time>2011-03-12T13:39:41Z</time>
      </trkpt>
      <trkpt lat="48.71745" lon="7.32803">
        <ele>367.084229</ele>
        <time>2011-03-12T13:39:43Z</time>
      </trkpt>
      <trkpt lat="48.7174" lon="7.32802">
        <ele>367.670166</ele>
        <time>2011-03-12T13:39:45Z</time>
      </trkpt>
      <trkpt lat="48.71734" lon="7.32802">
        <ele>367.834229</ele>
        <time>2011-03-12T13:39:47Z</time>
      </trkpt>
      <trkpt lat="48.71727" lon="7.32801">
        <ele>368.763916</ele>
        <time>2011-03-12T13:39:49Z</time>
      </trkpt>
      <trkpt lat="48.71721" lon="7.32802">
        <ele>369.381104</ele>
        <time>2011-03-12T13:39:51Z</time>
      </trkpt>
      <trkpt lat="48.71716" lon="7.32802">
        <ele>370.131104</ele>
        <time>2011-03-12T13:39:53Z</time>
      </trkpt>
      <trkpt lat="48.7171" lon="7.32801">
        <ele>370.631104</ele>
        <time>2011-03-12T13:39:55Z</time>
      </trkpt>
      <trkpt lat="48.71705" lon="7.32802">
        <ele>370.849854</ele>
        <time>2011-03-12T13:39:57Z</time>
      </trkpt>
      <trkpt lat="48.71698" lon="7.32803">
        <ele>371.052979</ele>
        <time>2011-03-12T13:39:59Z</time>
      </trkpt>
      <trkpt lat="48.71692" lon="7.32806">
        <ele>370.920166</ele>
        <time>2011-03-12T13:40:01Z</time>
      </trkpt>
      <trkpt lat="48.71686" lon="7.32809">
        <ele>370.865479</ele>
        <time>2011-03-12T13:40:03Z</time>
      </trkpt>
      <trkpt lat="48.71681" lon="7.32813">
        <ele>370.927979</ele>
        <time>2011-03-12T13:40:05Z</time>
      </trkpt>
      <trkpt lat="48.71675" lon="7.32817">
        <ele>371.146729</ele>
        <time>2011-03-12T13:40:07Z</time>
      </trkpt>
      <trkpt lat="48.7167" lon="7.32822">
        <ele>372.732666</ele>
        <time>2011-03-12T13:40:09Z</time>
      </trkpt>
      <trkpt lat="48.71665" lon="7.32827">
        <ele>370.232666</ele>
        <time>2011-03-12T13:40:11Z</time>
      </trkpt>
      <trkpt lat="48.71661" lon="7.32832">
        <ele>368.224854</ele>
        <time>2011-03-12T13:40:13Z</time>
      </trkpt>
      <trkpt lat="48.71658" lon="7.32837">
        <ele>366.709229</ele>
        <time>2011-03-12T13:40:15Z</time>
      </trkpt>
      <trkpt lat="48.71654" lon="7.32846">
        <ele>366.435791</ele>
        <time>2011-03-12T13:40:18Z</time>
      </trkpt>
      <trkpt lat="48.71652" lon="7.32853">
        <ele>366.467041</ele>
        <time>2011-03-12T13:40:20Z</time>
      </trkpt>
      <trkpt lat="48.71649" lon="7.3286">
        <ele>366.435791</ele>
        <time>2011-03-12T13:40:22Z</time>
      </trkpt>
      <trkpt lat="48.71646" lon="7.32868">
        <ele>366.240479</ele>
        <time>2011-03-12T13:40:24Z</time>
      </trkpt>
      <trkpt lat="48.71642" lon="7.32877">
        <ele>365.654541</ele>
        <time>2011-03-12T13:40:26Z</time>
      </trkpt>
      <trkpt lat="48.71638" lon="7.32882">
        <ele>365.381104</ele>
        <time>2011-03-12T13:40:28Z</time>
      </trkpt>
      <trkpt lat="48.71635" lon="7.32888">
        <ele>365.623291</ele>
        <time>2011-03-12T13:40:30Z</time>
      </trkpt>
      <trkpt lat="48.71629" lon="7.32892">
        <ele>366.232666</ele>
        <time>2011-03-12T13:40:32Z</time>
      </trkpt>
      <trkpt lat="48.71622" lon="7.32894">
        <ele>367.162354</ele>
        <time>2011-03-12T13:40:34Z</time>
      </trkpt>
      <trkpt lat="48.71616" lon="7.32893">
        <ele>367.904541</ele>
        <time>2011-03-12T13:40:36Z</time>
      </trkpt>
      <trkpt lat="48.71609" lon="7.32893">
        <ele>368.513916</ele>
        <time>2011-03-12T13:40:38Z</time>
      </trkpt>
      <trkpt lat="48.71604" lon="7.32892">
        <ele>363.170166</ele>
        <time>2011-03-12T13:40:40Z</time>
      </trkpt>
      <trkpt lat="48.71598" lon="7.3289">
        <ele>366.584229</ele>
        <time>2011-03-12T13:40:42Z</time>
      </trkpt>
      <trkpt lat="48.71592" lon="7.32888">
        <ele>367.427979</ele>
        <time>2011-03-12T13:40:44Z</time>
      </trkpt>
      <trkpt lat="48.71586" lon="7.32885">
        <ele>368.763916</ele>
        <time>2011-03-12T13:40:46Z</time>
      </trkpt>
      <trkpt lat="48.71579" lon="7.32883">
        <ele>370.295166</ele>
        <time>2011-03-12T13:40:48Z</time>
      </trkpt>
      <trkpt lat="48.71573" lon="7.32882">
        <ele>370.412354</ele>
        <time>2011-03-12T13:40:50Z</time>
      </trkpt>
      <trkpt lat="48.71568" lon="7.3288">
        <ele>370.271729</ele>
        <time>2011-03-12T13:40:52Z</time>
      </trkpt>
      <trkpt lat="48.71561" lon="7.32878">
        <ele>371.170166</ele>
        <time>2011-03-12T13:40:54Z</time>
      </trkpt>
      <trkpt lat="48.71555" lon="7.32877">
        <ele>371.295166</ele>
        <time>2011-03-12T13:40:56Z</time>
      </trkpt>
      <trkpt lat="48.71548" lon="7.32876">
        <ele>371.287354</ele>
        <time>2011-03-12T13:40:58Z</time>
      </trkpt>
      <trkpt lat="48.71542" lon="7.32874">
        <ele>371.232666</ele>
        <time>2011-03-12T13:41:00Z</time>
      </trkpt>
      <trkpt lat="48.71536" lon="7.32873">
        <ele>371.771729</ele>
        <time>2011-03-12T13:41:02Z</time>
      </trkpt>
      <trkpt lat="48.71531" lon="7.32871">
        <ele>372.623291</ele>
        <time>2011-03-12T13:41:04Z</time>
      </trkpt>
      <trkpt lat="48.71525" lon="7.32869">
        <ele>373.302979</ele>
        <time>2011-03-12T13:41:06Z</time>
      </trkpt>
      <trkpt lat="48.71519" lon="7.32868">
        <ele>373.615479</ele>
        <time>2011-03-12T13:41:08Z</time>
      </trkpt>
      <trkpt lat="48.71513" lon="7.32866">
        <ele>372.912354</ele>
        <time>2011-03-12T13:41:10Z</time>
      </trkpt>
      <trkpt lat="48.71507" lon="7.32865">
        <ele>372.701416</ele>
        <time>2011-03-12T13:41:12Z</time>
      </trkpt>
      <trkpt lat="48.71501" lon="7.32865">
        <ele>372.802979</ele>
        <time>2011-03-12T13:41:14Z</time>
      </trkpt>
      <trkpt lat="48.71494" lon="7.32865">
        <ele>373.412354</ele>
        <time>2011-03-12T13:41:16Z</time>
      </trkpt>
      <trkpt lat="48.71488" lon="7.32865">
        <ele>373.732666</ele>
        <time>2011-03-12T13:41:18Z</time>
      </trkpt>
      <trkpt lat="48.71482" lon="7.32866">
        <ele>373.217041</ele>
        <time>2011-03-12T13:41:20Z</time>
      </trkpt>
      <trkpt lat="48.71476" lon="7.32865">
        <ele>372.865479</ele>
        <time>2011-03-12T13:41:22Z</time>
      </trkpt>
      <trkpt lat="48.71469" lon="7.32866">
        <ele>372.717041</ele>
        <time>2011-03-12T13:41:24Z</time>
      </trkpt>
      <trkpt lat="48.71463" lon="7.32867">
        <ele>373.162354</ele>
        <time>2011-03-12T13:41:26Z</time>
      </trkpt>
      <trkpt lat="48.71457" lon="7.32868">
        <ele>372.521729</ele>
        <time>2011-03-12T13:41:28Z</time>
      </trkpt>
      <trkpt lat="48.7145" lon="7.32868">
        <ele>372.302979</ele>
        <time>2011-03-12T13:41:30Z</time>
      </trkpt>
      <trkpt lat="48.71444" lon="7.32869">
        <ele>371.927979</ele>
        <time>2011-03-12T13:41:32Z</time>
      </trkpt>
      <trkpt lat="48.71438" lon="7.3287">
        <ele>371.584229</ele>
        <time>2011-03-12T13:41:34Z</time>
      </trkpt>
      <trkpt lat="48.71433" lon="7.32871">
        <ele>371.560791</ele>
        <time>2011-03-12T13:41:36Z</time>
      </trkpt>
      <trkpt lat="48.71428" lon="7.32872">
        <ele>371.779541</ele>
        <time>2011-03-12T13:41:38Z</time>
      </trkpt>
      <trkpt lat="48.71422" lon="7.32873">
        <ele>372.115479</ele>
        <time>2011-03-12T13:41:40Z</time>
      </trkpt>
      <trkpt lat="48.71417" lon="7.32874">
        <ele>371.537354</ele>
        <time>2011-03-12T13:41:42Z</time>
      </trkpt>
      <trkpt lat="48.71411" lon="7.32875">
        <ele>371.881104</ele>
        <time>2011-03-12T13:41:44Z</time>
      </trkpt>
      <trkpt lat="48.71405" lon="7.32876">
        <ele>373.256104</ele>
        <time>2011-03-12T13:41:46Z</time>
      </trkpt>
      <trkpt lat="48.71399" lon="7.32878">
        <ele>373.568604</ele>
        <time>2011-03-12T13:41:48Z</time>
      </trkpt>
      <trkpt lat="48.71392" lon="7.32879">
        <ele>374.138916</ele>
        <time>2011-03-12T13:41:50Z</time>
      </trkpt>
      <trkpt lat="48.71386" lon="7.32881">
        <ele>374.381104</ele>
        <time>2011-03-12T13:41:52Z</time>
      </trkpt>
      <trkpt lat="48.7138" lon="7.32882">
        <ele>375.763916</ele>
        <time>2011-03-12T13:41:54Z</time>
      </trkpt>
      <trkpt lat="48.71373" lon="7.32884">
        <ele>375.459229</ele>
        <time>2011-03-12T13:41:56Z</time>
      </trkpt>
      <trkpt lat="48.71367" lon="7.32885">
        <ele>375.334229</ele>
        <time>2011-03-12T13:41:58Z</time>
      </trkpt>
      <trkpt lat="48.71361" lon="7.32887">
        <ele>374.896729</ele>
        <time>2011-03-12T13:42:00Z</time>
      </trkpt>
      <trkpt lat="48.71356" lon="7.32889">
        <ele>374.701416</ele>
        <time>2011-03-12T13:42:02Z</time>
      </trkpt>
      <trkpt lat="48.71351" lon="7.32889">
        <ele>374.084229</ele>
        <time>2011-03-12T13:42:04Z</time>
      </trkpt>
      <trkpt lat="48.71345" lon="7.3289">
        <ele>374.631104</ele>
        <time>2011-03-12T13:42:06Z</time>
      </trkpt>
      <trkpt lat="48.71339" lon="7.32891">
        <ele>374.373291</ele>
        <time>2011-03-12T13:42:08Z</time>
      </trkpt>
      <trkpt lat="48.71333" lon="7.32891">
        <ele>373.467041</ele>
        <time>2011-03-12T13:42:10Z</time>
      </trkpt>
      <trkpt lat="48.71328" lon="7.32891">
        <ele>372.873291</ele>
        <time>2011-03-12T13:42:12Z</time>
      </trkpt>
      <trkpt lat="48.71321" lon="7.32891">
        <ele>376.771729</ele>
        <time>2011-03-12T13:42:14Z</time>
      </trkpt>
      <trkpt lat="48.71315" lon="7.3289">
        <ele>376.287354</ele>
        <time>2011-03-12T13:42:16Z</time>
      </trkpt>
      <trkpt lat="48.7131" lon="7.32889">
        <ele>377.076416</ele>
        <time>2011-03-12T13:42:18Z</time>
      </trkpt>
      <trkpt lat="48.71303" lon="7.32889">
        <ele>379.396729</ele>
        <time>2011-03-12T13:42:20Z</time>
      </trkpt>
      <trkpt lat="48.71296" lon="7.32889">
        <ele>379.584229</ele>
        <time>2011-03-12T13:42:22Z</time>
      </trkpt>
      <trkpt lat="48.7129" lon="7.32889">
        <ele>379.826416</ele>
        <time>2011-03-12T13:42:24Z</time>
      </trkpt>
      <trkpt lat="48.71283" lon="7.32888">
        <ele>380.279541</ele>
        <time>2011-03-12T13:42:26Z</time>
      </trkpt>
      <trkpt lat="48.71276" lon="7.32887">
        <ele>380.584229</ele>
        <time>2011-03-12T13:42:28Z</time>
      </trkpt>
      <trkpt lat="48.71268" lon="7.32884">
        <ele>381.552979</ele>
        <time>2011-03-12T13:42:30Z</time>
      </trkpt>
      <trkpt lat="48.71261" lon="7.32881">
        <ele>382.146729</ele>
        <time>2011-03-12T13:42:32Z</time>
      </trkpt>
      <trkpt lat="48.71254" lon="7.32878">
        <ele>382.709229</ele>
        <time>2011-03-12T13:42:34Z</time>
      </trkpt>
      <trkpt lat="48.71248" lon="7.32874">
        <ele>383.115479</ele>
        <time>2011-03-12T13:42:36Z</time>
      </trkpt>
      <trkpt lat="48.7124" lon="7.32869">
        <ele>383.107666</ele>
        <time>2011-03-12T13:42:38Z</time>
      </trkpt>
      <trkpt lat="48.71232" lon="7.32861">
        <ele>383.115479</ele>
        <time>2011-03-12T13:42:40Z</time>
      </trkpt>
      <trkpt lat="48.71225" lon="7.32853">
        <ele>383.131104</ele>
        <time>2011-03-12T13:42:42Z</time>
      </trkpt>
      <trkpt lat="48.7122" lon="7.32843">
        <ele>382.912354</ele>
        <time>2011-03-12T13:42:44Z</time>
      </trkpt>
      <trkpt lat="48.71214" lon="7.32833">
        <ele>382.256104</ele>
        <time>2011-03-12T13:42:46Z</time>
      </trkpt>
      <trkpt lat="48.71209" lon="7.32823">
        <ele>381.615479</ele>
        <time>2011-03-12T13:42:48Z</time>
      </trkpt>
      <trkpt lat="48.71205" lon="7.32818">
        <ele>381.732666</ele>
        <time>2011-03-12T13:42:49Z</time>
      </trkpt>
      <trkpt lat="48.712" lon="7.32806">
        <ele>380.849854</ele>
        <time>2011-03-12T13:42:51Z</time>
      </trkpt>
      <trkpt lat="48.71193" lon="7.32799">
        <ele>381.896729</ele>
        <time>2011-03-12T13:42:53Z</time>
      </trkpt>
      <trkpt lat="48.71186" lon="7.32794">
        <ele>381.763916</ele>
        <time>2011-03-12T13:42:55Z</time>
      </trkpt>
      <trkpt lat="48.71182" lon="7.32789">
        <ele>380.295166</ele>
        <time>2011-03-12T13:42:57Z</time>
      </trkpt>
      <trkpt lat="48.71177" lon="7.32785">
        <ele>379.623291</ele>
        <time>2011-03-12T13:42:59Z</time>
      </trkpt>
      <trkpt lat="48.71172" lon="7.32778">
        <ele>380.076416</ele>
        <time>2011-03-12T13:43:01Z</time>
      </trkpt>
      <trkpt lat="48.71167" lon="7.32773">
        <ele>379.170166</ele>
        <time>2011-03-12T13:43:03Z</time>
      </trkpt>
      <trkpt lat="48.71163" lon="7.32767">
        <ele>378.310791</ele>
        <time>2011-03-12T13:43:05Z</time>
      </trkpt>
      <trkpt lat="48.71158" lon="7.32762">
        <ele>377.927979</ele>
        <time>2011-03-12T13:43:07Z</time>
      </trkpt>
      <trkpt lat="48.71153" lon="7.32759">
        <ele>377.451416</ele>
        <time>2011-03-12T13:43:09Z</time>
      </trkpt>
      <trkpt lat="48.71148" lon="7.32753">
        <ele>377.240479</ele>
        <time>2011-03-12T13:43:11Z</time>
      </trkpt>
      <trkpt lat="48.71143" lon="7.32748">
        <ele>376.826416</ele>
        <time>2011-03-12T13:43:13Z</time>
      </trkpt>
      <trkpt lat="48.71138" lon="7.32743">
        <ele>376.701416</ele>
        <time>2011-03-12T13:43:15Z</time>
      </trkpt>
      <trkpt lat="48.71132" lon="7.32739">
        <ele>376.732666</ele>
        <time>2011-03-12T13:43:17Z</time>
      </trkpt>
      <trkpt lat="48.71127" lon="7.32733">
        <ele>376.217041</ele>
        <time>2011-03-12T13:43:19Z</time>
      </trkpt>
      <trkpt lat="48.71123" lon="7.3273">
        <ele>376.177979</ele>
        <time>2011-03-12T13:43:21Z</time>
      </trkpt>
      <trkpt lat="48.71116" lon="7.32725">
        <ele>376.060791</ele>
        <time>2011-03-12T13:43:23Z</time>
      </trkpt>
      <trkpt lat="48.71112" lon="7.3272">
        <ele>375.724854</ele>
        <time>2011-03-12T13:43:25Z</time>
      </trkpt>
      <trkpt lat="48.71107" lon="7.32716">
        <ele>375.240479</ele>
        <time>2011-03-12T13:43:27Z</time>
      </trkpt>
      <trkpt lat="48.71103" lon="7.32712">
        <ele>375.287354</ele>
        <time>2011-03-12T13:43:29Z</time>
      </trkpt>
      <trkpt lat="48.711" lon="7.32705">
        <ele>375.123291</ele>
        <time>2011-03-12T13:43:31Z</time>
      </trkpt>
      <trkpt lat="48.71096" lon="7.32696">
        <ele>377.154541</ele>
        <time>2011-03-12T13:43:33Z</time>
      </trkpt>
      <trkpt lat="48.71092" lon="7.32687">
        <ele>378.529541</ele>
        <time>2011-03-12T13:43:35Z</time>
      </trkpt>
      <trkpt lat="48.7109" lon="7.3268">
        <ele>378.584229</ele>
        <time>2011-03-12T13:43:37Z</time>
      </trkpt>
      <trkpt lat="48.71092" lon="7.32672">
        <ele>380.467041</ele>
        <time>2011-03-12T13:43:39Z</time>
      </trkpt>
      <trkpt lat="48.71095" lon="7.32665">
        <ele>381.256104</ele>
        <time>2011-03-12T13:43:41Z</time>
      </trkpt>
      <trkpt lat="48.71097" lon="7.32659">
        <ele>383.693604</ele>
        <time>2011-03-12T13:43:42Z</time>
      </trkpt>
      <trkpt lat="48.71102" lon="7.32648">
        <ele>382.842041</ele>
        <time>2011-03-12T13:43:44Z</time>
      </trkpt>
      <trkpt lat="48.71107" lon="7.32639">
        <ele>383.873291</ele>
        <time>2011-03-12T13:43:46Z</time>
      </trkpt>
      <trkpt lat="48.71112" lon="7.32631">
        <ele>384.295166</ele>
        <time>2011-03-12T13:43:48Z</time>
      </trkpt>
      <trkpt lat="48.71115" lon="7.32626">
        <ele>384.810791</ele>
        <time>2011-03-12T13:43:49Z</time>
      </trkpt>
      <trkpt lat="48.71119" lon="7.32618">
        <ele>386.115479</ele>
        <time>2011-03-12T13:43:51Z</time>
      </trkpt>
      <trkpt lat="48.71122" lon="7.32612">
        <ele>385.896729</ele>
        <time>2011-03-12T13:43:52Z</time>
      </trkpt>
      <trkpt lat="48.71126" lon="7.32604">
        <ele>384.592041</ele>
        <time>2011-03-12T13:43:53Z</time>
      </trkpt>
      <trkpt lat="48.71132" lon="7.32597">
        <ele>384.318604</ele>
        <time>2011-03-12T13:43:54Z</time>
      </trkpt>
      <trkpt lat="48.7114" lon="7.32592">
        <ele>383.810791</ele>
        <time>2011-03-12T13:43:55Z</time>
      </trkpt>
      <trkpt lat="48.71149" lon="7.32586">
        <ele>384.131104</ele>
        <time>2011-03-12T13:43:56Z</time>
      </trkpt>
      <trkpt lat="48.71158" lon="7.3258">
        <ele>383.021729</ele>
        <time>2011-03-12T13:43:57Z</time>
      </trkpt>
      <trkpt lat="48.71165" lon="7.32574">
        <ele>382.334229</ele>
        <time>2011-03-12T13:43:58Z</time>
      </trkpt>
      <trkpt lat="48.71174" lon="7.32568">
        <ele>381.904541</ele>
        <time>2011-03-12T13:43:59Z</time>
      </trkpt>
      <trkpt lat="48.71181" lon="7.32562">
        <ele>381.162354</ele>
        <time>2011-03-12T13:44:00Z</time>
      </trkpt>
      <trkpt lat="48.71189" lon="7.32557">
        <ele>381.474854</ele>
        <time>2011-03-12T13:44:01Z</time>
      </trkpt>
      <trkpt lat="48.71192" lon="7.32552">
        <ele>380.084229</ele>
        <time>2011-03-12T13:44:02Z</time>
      </trkpt>
      <trkpt lat="48.71198" lon="7.32546">
        <ele>378.498291</ele>
        <time>2011-03-12T13:44:03Z</time>
      </trkpt>
      <trkpt lat="48.71203" lon="7.32541">
        <ele>377.748291</ele>
        <time>2011-03-12T13:44:04Z</time>
      </trkpt>
      <trkpt lat="48.71207" lon="7.32535">
        <ele>378.459229</ele>
        <time>2011-03-12T13:44:05Z</time>
      </trkpt>
      <trkpt lat="48.71212" lon="7.3253">
        <ele>378.373291</ele>
        <time>2011-03-12T13:44:06Z</time>
      </trkpt>
      <trkpt lat="48.71217" lon="7.32523">
        <ele>378.482666</ele>
        <time>2011-03-12T13:44:07Z</time>
      </trkpt>
      <trkpt lat="48.7122" lon="7.32516">
        <ele>378.240479</ele>
        <time>2011-03-12T13:44:08Z</time>
      </trkpt>
      <trkpt lat="48.71225" lon="7.3251">
        <ele>378.068604</ele>
        <time>2011-03-12T13:44:09Z</time>
      </trkpt>
      <trkpt lat="48.71228" lon="7.32505">
        <ele>378.521729</ele>
        <time>2011-03-12T13:44:10Z</time>
      </trkpt>
      <trkpt lat="48.7123" lon="7.32499">
        <ele>377.896729</ele>
        <time>2011-03-12T13:44:11Z</time>
      </trkpt>
      <trkpt lat="48.71233" lon="7.32492">
        <ele>379.123291</ele>
        <time>2011-03-12T13:44:14Z</time>
      </trkpt>
      <trkpt lat="48.71234" lon="7.32485">
        <ele>377.709229</ele>
        <time>2011-03-12T13:44:19Z</time>
      </trkpt>
      <trkpt lat="48.71231" lon="7.32482">
        <ele>374.670166</ele>
        <time>2011-03-12T13:45:26Z</time>
      </trkpt>
      <trkpt lat="48.71229" lon="7.32485">
        <ele>370.381104</ele>
        <time>2011-03-12T13:46:44Z</time>
      </trkpt>
      <trkpt lat="48.71224" lon="7.32491">
        <ele>369.779541</ele>
        <time>2011-03-12T13:46:48Z</time>
      </trkpt>
      <trkpt lat="48.71219" lon="7.32497">
        <ele>369.381104</ele>
        <time>2011-03-12T13:46:51Z</time>
      </trkpt>
      <trkpt lat="48.71215" lon="7.32501">
        <ele>368.779541</ele>
        <time>2011-03-12T13:46:53Z</time>
      </trkpt>
      <trkpt lat="48.71211" lon="7.32504">
        <ele>368.427979</ele>
        <time>2011-03-12T13:46:55Z</time>
      </trkpt>
      <trkpt lat="48.71205" lon="7.32507">
        <ele>367.646729</ele>
        <time>2011-03-12T13:46:58Z</time>
      </trkpt>
      <trkpt lat="48.71201" lon="7.32513">
        <ele>367.693604</ele>
        <time>2011-03-12T13:47:00Z</time>
      </trkpt>
      <trkpt lat="48.71196" lon="7.32519">
        <ele>367.037354</ele>
        <time>2011-03-12T13:47:02Z</time>
      </trkpt>
      <trkpt lat="48.71192" lon="7.32524">
        <ele>366.881104</ele>
        <time>2011-03-12T13:47:04Z</time>
      </trkpt>
      <trkpt lat="48.71188" lon="7.32528">
        <ele>366.599854</ele>
        <time>2011-03-12T13:47:06Z</time>
      </trkpt>
      <trkpt lat="48.71184" lon="7.32532">
        <ele>366.521729</ele>
        <time>2011-03-12T13:47:08Z</time>
      </trkpt>
      <trkpt lat="48.71179" lon="7.32536">
        <ele>365.920166</ele>
        <time>2011-03-12T13:47:10Z</time>
      </trkpt>
      <trkpt lat="48.71174" lon="7.3254">
        <ele>366.115479</ele>
        <time>2011-03-12T13:47:12Z</time>
      </trkpt>
      <trkpt lat="48.71169" lon="7.32546">
        <ele>366.099854</ele>
        <time>2011-03-12T13:47:14Z</time>
      </trkpt>
      <trkpt lat="48.71164" lon="7.32553">
        <ele>367.115479</ele>
        <time>2011-03-12T13:47:16Z</time>
      </trkpt>
      <trkpt lat="48.71158" lon="7.32557">
        <ele>366.076416</ele>
        <time>2011-03-12T13:47:18Z</time>
      </trkpt>
      <trkpt lat="48.71153" lon="7.3256">
        <ele>366.310791</ele>
        <time>2011-03-12T13:47:20Z</time>
      </trkpt>
      <trkpt lat="48.71147" lon="7.32566">
        <ele>366.162354</ele>
        <time>2011-03-12T13:47:22Z</time>
      </trkpt>
      <trkpt lat="48.71142" lon="7.32571">
        <ele>365.763916</ele>
        <time>2011-03-12T13:47:24Z</time>
      </trkpt>
      <trkpt lat="48.71135" lon="7.32574">
        <ele>365.638916</ele>
        <time>2011-03-12T13:47:27Z</time>
      </trkpt>
      <trkpt lat="48.7113" lon="7.32579">
        <ele>365.763916</ele>
        <time>2011-03-12T13:47:29Z</time>
      </trkpt>
      <trkpt lat="48.71124" lon="7.32586">
        <ele>366.013916</ele>
        <time>2011-03-12T13:47:32Z</time>
      </trkpt>
      <trkpt lat="48.7112" lon="7.32591">
        <ele>366.693604</ele>
        <time>2011-03-12T13:47:34Z</time>
      </trkpt>
      <trkpt lat="48.71115" lon="7.32595">
        <ele>367.302979</ele>
        <time>2011-03-12T13:47:36Z</time>
      </trkpt>
      <trkpt lat="48.7111" lon="7.32603">
        <ele>367.318604</ele>
        <time>2011-03-12T13:47:38Z</time>
      </trkpt>
      <trkpt lat="48.71105" lon="7.32608">
        <ele>366.935791</ele>
        <time>2011-03-12T13:47:40Z</time>
      </trkpt>
      <trkpt lat="48.71101" lon="7.32613">
        <ele>366.045166</ele>
        <time>2011-03-12T13:47:42Z</time>
      </trkpt>
      <trkpt lat="48.71098" lon="7.32619">
        <ele>365.998291</ele>
        <time>2011-03-12T13:47:44Z</time>
      </trkpt>
      <trkpt lat="48.71093" lon="7.32624">
        <ele>366.154541</ele>
        <time>2011-03-12T13:47:46Z</time>
      </trkpt>
      <trkpt lat="48.7109" lon="7.32629">
        <ele>366.693604</ele>
        <time>2011-03-12T13:47:48Z</time>
      </trkpt>
      <trkpt lat="48.71086" lon="7.32637">
        <ele>365.842041</ele>
        <time>2011-03-12T13:47:50Z</time>
      </trkpt>
      <trkpt lat="48.71083" lon="7.32646">
        <ele>366.732666</ele>
        <time>2011-03-12T13:47:52Z</time>
      </trkpt>
      <trkpt lat="48.71079" lon="7.32657">
        <ele>368.974854</ele>
        <time>2011-03-12T13:47:54Z</time>
      </trkpt>
      <trkpt lat="48.71075" lon="7.3267">
        <ele>373.646729</ele>
        <time>2011-03-12T13:47:56Z</time>
      </trkpt>
      <trkpt lat="48.71073" lon="7.3268">
        <ele>374.357666</ele>
        <time>2011-03-12T13:47:58Z</time>
      </trkpt>
      <trkpt lat="48.71073" lon="7.32689">
        <ele>375.459229</ele>
        <time>2011-03-12T13:48:00Z</time>
      </trkpt>
      <trkpt lat="48.71073" lon="7.32697">
        <ele>376.326416</ele>
        <time>2011-03-12T13:48:02Z</time>
      </trkpt>
      <trkpt lat="48.71074" lon="7.32706">
        <ele>377.474854</ele>
        <time>2011-03-12T13:48:04Z</time>
      </trkpt>
      <trkpt lat="48.71075" lon="7.32715">
        <ele>379.021729</ele>
        <time>2011-03-12T13:48:06Z</time>
      </trkpt>
      <trkpt lat="48.71076" lon="7.32724">
        <ele>380.724854</ele>
        <time>2011-03-12T13:48:08Z</time>
      </trkpt>
      <trkpt lat="48.7108" lon="7.3273">
        <ele>380.584229</ele>
        <time>2011-03-12T13:48:10Z</time>
      </trkpt>
      <trkpt lat="48.71082" lon="7.32738">
        <ele>380.857666</ele>
        <time>2011-03-12T13:48:12Z</time>
      </trkpt>
      <trkpt lat="48.71086" lon="7.32743">
        <ele>380.482666</ele>
        <time>2011-03-12T13:48:14Z</time>
      </trkpt>
      <trkpt lat="48.71087" lon="7.32751">
        <ele>382.357666</ele>
        <time>2011-03-12T13:48:16Z</time>
      </trkpt>
      <trkpt lat="48.71091" lon="7.32756">
        <ele>382.732666</ele>
        <time>2011-03-12T13:48:18Z</time>
      </trkpt>
      <trkpt lat="48.71096" lon="7.32764">
        <ele>386.349854</ele>
        <time>2011-03-12T13:48:21Z</time>
      </trkpt>
      <trkpt lat="48.711" lon="7.3277">
        <ele>387.771729</ele>
        <time>2011-03-12T13:48:23Z</time>
      </trkpt>
      <trkpt lat="48.71103" lon="7.32776">
        <ele>388.662354</ele>
        <time>2011-03-12T13:48:25Z</time>
      </trkpt>
      <trkpt lat="48.71107" lon="7.32783">
        <ele>389.115479</ele>
        <time>2011-03-12T13:48:27Z</time>
      </trkpt>
      <trkpt lat="48.71111" lon="7.3279">
        <ele>389.638916</ele>
        <time>2011-03-12T13:48:29Z</time>
      </trkpt>
      <trkpt lat="48.71117" lon="7.32796">
        <ele>387.709229</ele>
        <time>2011-03-12T13:48:31Z</time>
      </trkpt>
      <trkpt lat="48.71121" lon="7.32803">
        <ele>389.607666</ele>
        <time>2011-03-12T13:48:33Z</time>
      </trkpt>
      <trkpt lat="48.71126" lon="7.32808">
        <ele>390.271729</ele>
        <time>2011-03-12T13:48:35Z</time>
      </trkpt>
      <trkpt lat="48.7113" lon="7.32814">
        <ele>391.060791</ele>
        <time>2011-03-12T13:48:37Z</time>
      </trkpt>
      <trkpt lat="48.71133" lon="7.32819">
        <ele>393.560791</ele>
        <time>2011-03-12T13:48:39Z</time>
      </trkpt>
      <trkpt lat="48.71136" lon="7.32824">
        <ele>395.451416</ele>
        <time>2011-03-12T13:48:41Z</time>
      </trkpt>
      <trkpt lat="48.7114" lon="7.32829">
        <ele>396.357666</ele>
        <time>2011-03-12T13:48:43Z</time>
      </trkpt>
      <trkpt lat="48.71142" lon="7.32835">
        <ele>398.443604</ele>
        <time>2011-03-12T13:48:45Z</time>
      </trkpt>
      <trkpt lat="48.71145" lon="7.3284">
        <ele>400.107666</ele>
        <time>2011-03-12T13:48:47Z</time>
      </trkpt>
      <trkpt lat="48.71149" lon="7.32846">
        <ele>402.060791</ele>
        <time>2011-03-12T13:48:50Z</time>
      </trkpt>
      <trkpt lat="48.71154" lon="7.32853">
        <ele>403.310791</ele>
        <time>2011-03-12T13:48:53Z</time>
      </trkpt>
      <trkpt lat="48.71158" lon="7.32859">
        <ele>404.592041</ele>
        <time>2011-03-12T13:48:56Z</time>
      </trkpt>
      <trkpt lat="48.7116" lon="7.32866">
        <ele>404.670166</ele>
        <time>2011-03-12T13:48:59Z</time>
      </trkpt>
      <trkpt lat="48.71162" lon="7.32874">
        <ele>405.388916</ele>
        <time>2011-03-12T13:49:02Z</time>
      </trkpt>
      <trkpt lat="48.71164" lon="7.32881">
        <ele>406.670166</ele>
        <time>2011-03-12T13:49:08Z</time>
      </trkpt>
      <trkpt lat="48.71166" lon="7.3289">
        <ele>407.396729</ele>
        <time>2011-03-12T13:49:12Z</time>
      </trkpt>
      <trkpt lat="48.71168" lon="7.32896">
        <ele>407.709229</ele>
        <time>2011-03-12T13:49:14Z</time>
      </trkpt>
      <trkpt lat="48.71172" lon="7.32902">
        <ele>406.404541</ele>
        <time>2011-03-12T13:49:17Z</time>
      </trkpt>
      <trkpt lat="48.71175" lon="7.32909">
        <ele>406.787354</ele>
        <time>2011-03-12T13:49:19Z</time>
      </trkpt>
      <trkpt lat="48.71177" lon="7.32919">
        <ele>406.607666</ele>
        <time>2011-03-12T13:49:22Z</time>
      </trkpt>
      <trkpt lat="48.7118" lon="7.32925">
        <ele>406.459229</ele>
        <time>2011-03-12T13:49:24Z</time>
      </trkpt>
      <trkpt lat="48.71181" lon="7.32931">
        <ele>405.998291</ele>
        <time>2011-03-12T13:49:26Z</time>
      </trkpt>
      <trkpt lat="48.71183" lon="7.32941">
        <ele>406.927979</ele>
        <time>2011-03-12T13:49:29Z</time>
      </trkpt>
      <trkpt lat="48.71186" lon="7.32945">
        <ele>405.842041</ele>
        <time>2011-03-12T13:49:31Z</time>
      </trkpt>
      <trkpt lat="48.71191" lon="7.32953">
        <ele>404.185791</ele>
        <time>2011-03-12T13:49:34Z</time>
      </trkpt>
      <trkpt lat="48.71195" lon="7.32959">
        <ele>404.506104</ele>
        <time>2011-03-12T13:49:36Z</time>
      </trkpt>
      <trkpt lat="48.71195" lon="7.32965">
        <ele>405.701416</ele>
        <time>2011-03-12T13:49:38Z</time>
      </trkpt>
      <trkpt lat="48.71198" lon="7.32973">
        <ele>406.115479</ele>
        <time>2011-03-12T13:49:41Z</time>
      </trkpt>
      <trkpt lat="48.71203" lon="7.32976">
        <ele>405.888916</ele>
        <time>2011-03-12T13:49:44Z</time>
      </trkpt>
      <trkpt lat="48.71209" lon="7.32979">
        <ele>405.443604</ele>
        <time>2011-03-12T13:49:46Z</time>
      </trkpt>
      <trkpt lat="48.71214" lon="7.32983">
        <ele>406.607666</ele>
        <time>2011-03-12T13:49:48Z</time>
      </trkpt>
      <trkpt lat="48.71218" lon="7.32991">
        <ele>408.123291</ele>
        <time>2011-03-12T13:49:50Z</time>
      </trkpt>
      <trkpt lat="48.71223" lon="7.32994">
        <ele>409.584229</ele>
        <time>2011-03-12T13:49:52Z</time>
      </trkpt>
      <trkpt lat="48.71228" lon="7.32998">
        <ele>410.771729</ele>
        <time>2011-03-12T13:49:54Z</time>
      </trkpt>
      <trkpt lat="48.71232" lon="7.33001">
        <ele>411.756104</ele>
        <time>2011-03-12T13:49:56Z</time>
      </trkpt>
      <trkpt lat="48.71238" lon="7.33002">
        <ele>413.537354</ele>
        <time>2011-03-12T13:49:59Z</time>
      </trkpt>
      <trkpt lat="48.71243" lon="7.33006">
        <ele>414.201416</ele>
        <time>2011-03-12T13:50:02Z</time>
      </trkpt>
      <trkpt lat="48.71249" lon="7.3301">
        <ele>414.607666</ele>
        <time>2011-03-12T13:50:05Z</time>
      </trkpt>
      <trkpt lat="48.71253" lon="7.33013">
        <ele>414.740479</ele>
        <time>2011-03-12T13:50:07Z</time>
      </trkpt>
      <trkpt lat="48.71257" lon="7.33018">
        <ele>416.060791</ele>
        <time>2011-03-12T13:50:09Z</time>
      </trkpt>
      <trkpt lat="48.71262" lon="7.33021">
        <ele>417.232666</ele>
        <time>2011-03-12T13:50:11Z</time>
      </trkpt>
      <trkpt lat="48.71268" lon="7.33019">
        <ele>419.217041</ele>
        <time>2011-03-12T13:50:14Z</time>
      </trkpt>
      <trkpt lat="48.71271" lon="7.33025">
        <ele>419.568604</ele>
        <time>2011-03-12T13:50:15Z</time>
      </trkpt>
      <trkpt lat="48.71275" lon="7.33028">
        <ele>420.842041</ele>
        <time>2011-03-12T13:50:17Z</time>
      </trkpt>
      <trkpt lat="48.71281" lon="7.33029">
        <ele>420.427979</ele>
        <time>2011-03-12T13:50:19Z</time>
      </trkpt>
      <trkpt lat="48.71291" lon="7.3303">
        <ele>422.810791</ele>
        <time>2011-03-12T13:50:22Z</time>
      </trkpt>
      <trkpt lat="48.71298" lon="7.33032">
        <ele>424.521729</ele>
        <time>2011-03-12T13:50:25Z</time>
      </trkpt>
      <trkpt lat="48.71302" lon="7.33031">
        <ele>425.482666</ele>
        <time>2011-03-12T13:50:28Z</time>
      </trkpt>
      <trkpt lat="48.71307" lon="7.33032">
        <ele>427.646729</ele>
        <time>2011-03-12T13:50:31Z</time>
      </trkpt>
      <trkpt lat="48.71313" lon="7.33031">
        <ele>428.802979</ele>
        <time>2011-03-12T13:50:34Z</time>
      </trkpt>
      <trkpt lat="48.71318" lon="7.33035">
        <ele>429.412354</ele>
        <time>2011-03-12T13:50:36Z</time>
      </trkpt>
      <trkpt lat="48.71323" lon="7.33034">
        <ele>430.537354</ele>
        <time>2011-03-12T13:50:38Z</time>
      </trkpt>
      <trkpt lat="48.71329" lon="7.33036">
        <ele>432.349854</ele>
        <time>2011-03-12T13:50:41Z</time>
      </trkpt>
      <trkpt lat="48.71334" lon="7.33036">
        <ele>434.638916</ele>
        <time>2011-03-12T13:50:44Z</time>
      </trkpt>
      <trkpt lat="48.7134" lon="7.33034">
        <ele>434.310791</ele>
        <time>2011-03-12T13:50:47Z</time>
      </trkpt>
      <trkpt lat="48.71346" lon="7.33035">
        <ele>435.810791</ele>
        <time>2011-03-12T13:50:50Z</time>
      </trkpt>
      <trkpt lat="48.71351" lon="7.33036">
        <ele>433.748291</ele>
        <time>2011-03-12T13:50:52Z</time>
      </trkpt>
      <trkpt lat="48.71357" lon="7.33033">
        <ele>434.701416</ele>
        <time>2011-03-12T13:50:56Z</time>
      </trkpt>
      <trkpt lat="48.71361" lon="7.33034">
        <ele>434.685791</ele>
        <time>2011-03-12T13:50:58Z</time>
      </trkpt>
      <trkpt lat="48.71367" lon="7.33033">
        <ele>434.412354</ele>
        <time>2011-03-12T13:51:00Z</time>
      </trkpt>
      <trkpt lat="48.71372" lon="7.33037">
        <ele>434.748291</ele>
        <time>2011-03-12T13:51:03Z</time>
      </trkpt>
      <trkpt lat="48.71377" lon="7.33036">
        <ele>434.967041</ele>
        <time>2011-03-12T13:51:05Z</time>
      </trkpt>
      <trkpt lat="48.71383" lon="7.33036">
        <ele>436.310791</ele>
        <time>2011-03-12T13:51:08Z</time>
      </trkpt>
      <trkpt lat="48.71388" lon="7.33036">
        <ele>437.396729</ele>
        <time>2011-03-12T13:51:10Z</time>
      </trkpt>
      <trkpt lat="48.71394" lon="7.33035">
        <ele>436.045166</ele>
        <time>2011-03-12T13:51:12Z</time>
      </trkpt>
      <trkpt lat="48.71399" lon="7.33035">
        <ele>434.131104</ele>
        <time>2011-03-12T13:51:14Z</time>
      </trkpt>
      <trkpt lat="48.71404" lon="7.33037">
        <ele>436.107666</ele>
        <time>2011-03-12T13:51:16Z</time>
      </trkpt>
      <trkpt lat="48.71409" lon="7.33037">
        <ele>437.326416</ele>
        <time>2011-03-12T13:51:18Z</time>
      </trkpt>
      <trkpt lat="48.71414" lon="7.33036">
        <ele>435.568604</ele>
        <time>2011-03-12T13:51:20Z</time>
      </trkpt>
      <trkpt lat="48.7142" lon="7.33036">
        <ele>434.615479</ele>
        <time>2011-03-12T13:51:22Z</time>
      </trkpt>
      <trkpt lat="48.71425" lon="7.33037">
        <ele>435.920166</ele>
        <time>2011-03-12T13:51:25Z</time>
      </trkpt>
      <trkpt lat="48.71429" lon="7.33038">
        <ele>436.302979</ele>
        <time>2011-03-12T13:51:27Z</time>
      </trkpt>
      <trkpt lat="48.71436" lon="7.33039">
        <ele>437.834229</ele>
        <time>2011-03-12T13:51:29Z</time>
      </trkpt>
      <trkpt lat="48.7144" lon="7.3304">
        <ele>440.865479</ele>
        <time>2011-03-12T13:51:31Z</time>
      </trkpt>
      <trkpt lat="48.71445" lon="7.33042">
        <ele>438.310791</ele>
        <time>2011-03-12T13:51:33Z</time>
      </trkpt>
      <trkpt lat="48.7145" lon="7.33044">
        <ele>437.967041</ele>
        <time>2011-03-12T13:51:35Z</time>
      </trkpt>
      <trkpt lat="48.71455" lon="7.33047">
        <ele>438.349854</ele>
        <time>2011-03-12T13:51:37Z</time>
      </trkpt>
      <trkpt lat="48.7146" lon="7.33049">
        <ele>438.217041</ele>
        <time>2011-03-12T13:51:40Z</time>
      </trkpt>
      <trkpt lat="48.71467" lon="7.33049">
        <ele>437.795166</ele>
        <time>2011-03-12T13:51:43Z</time>
      </trkpt>
      <trkpt lat="48.71473" lon="7.33049">
        <ele>436.451416</ele>
        <time>2011-03-12T13:51:45Z</time>
      </trkpt>
      <trkpt lat="48.71479" lon="7.33051">
        <ele>437.443604</ele>
        <time>2011-03-12T13:51:47Z</time>
      </trkpt>
      <trkpt lat="48.71485" lon="7.33053">
        <ele>438.248291</ele>
        <time>2011-03-12T13:51:49Z</time>
      </trkpt>
      <trkpt lat="48.7149" lon="7.33053">
        <ele>438.357666</ele>
        <time>2011-03-12T13:51:51Z</time>
      </trkpt>
      <trkpt lat="48.71496" lon="7.33054">
        <ele>439.052979</ele>
        <time>2011-03-12T13:51:53Z</time>
      </trkpt>
      <trkpt lat="48.71501" lon="7.33056">
        <ele>438.935791</ele>
        <time>2011-03-12T13:51:55Z</time>
      </trkpt>
      <trkpt lat="48.71506" lon="7.33057">
        <ele>439.013916</ele>
        <time>2011-03-12T13:51:57Z</time>
      </trkpt>
      <trkpt lat="48.71511" lon="7.3306">
        <ele>439.615479</ele>
        <time>2011-03-12T13:51:59Z</time>
      </trkpt>
      <trkpt lat="48.71516" lon="7.3306">
        <ele>439.935791</ele>
        <time>2011-03-12T13:52:01Z</time>
      </trkpt>
      <trkpt lat="48.71521" lon="7.3306">
        <ele>440.888916</ele>
        <time>2011-03-12T13:52:03Z</time>
      </trkpt>
      <trkpt lat="48.71525" lon="7.33064">
        <ele>440.240479</ele>
        <time>2011-03-12T13:52:06Z</time>
      </trkpt>
      <trkpt lat="48.7153" lon="7.33067">
        <ele>439.420166</ele>
        <time>2011-03-12T13:52:09Z</time>
      </trkpt>
      <trkpt lat="48.71535" lon="7.33069">
        <ele>439.240479</ele>
        <time>2011-03-12T13:52:12Z</time>
      </trkpt>
      <trkpt lat="48.71541" lon="7.3307">
        <ele>439.177979</ele>
        <time>2011-03-12T13:52:16Z</time>
      </trkpt>
      <trkpt lat="48.71545" lon="7.33073">
        <ele>438.693604</ele>
        <time>2011-03-12T13:52:20Z</time>
      </trkpt>
      <trkpt lat="48.71548" lon="7.33078">
        <ele>438.107666</ele>
        <time>2011-03-12T13:52:23Z</time>
      </trkpt>
      <trkpt lat="48.71549" lon="7.33072">
        <ele>437.279541</ele>
        <time>2011-03-12T13:52:28Z</time>
      </trkpt>
      <trkpt lat="48.71546" lon="7.33066">
        <ele>435.224854</ele>
        <time>2011-03-12T13:52:35Z</time>
      </trkpt>
      <trkpt lat="48.71541" lon="7.33066">
        <ele>433.677979</ele>
        <time>2011-03-12T13:52:53Z</time>
      </trkpt>
      <trkpt lat="48.71537" lon="7.33065">
        <ele>431.365479</ele>
        <time>2011-03-12T13:54:29Z</time>
      </trkpt>
      <trkpt lat="48.71531" lon="7.33064">
        <ele>429.099854</ele>
        <time>2011-03-12T13:55:22Z</time>
      </trkpt>
      <trkpt lat="48.71525" lon="7.33063">
        <ele>429.474854</ele>
        <time>2011-03-12T13:55:25Z</time>
      </trkpt>
      <trkpt lat="48.7152" lon="7.33062">
        <ele>429.224854</ele>
        <time>2011-03-12T13:55:28Z</time>
      </trkpt>
      <trkpt lat="48.71514" lon="7.33062">
        <ele>429.193604</ele>
        <time>2011-03-12T13:55:30Z</time>
      </trkpt>
      <trkpt lat="48.71507" lon="7.33061">
        <ele>429.029541</ele>
        <time>2011-03-12T13:55:32Z</time>
      </trkpt>
      <trkpt lat="48.715" lon="7.33062">
        <ele>429.248291</ele>
        <time>2011-03-12T13:55:34Z</time>
      </trkpt>
      <trkpt lat="48.71494" lon="7.33062">
        <ele>429.443604</ele>
        <time>2011-03-12T13:55:36Z</time>
      </trkpt>
      <trkpt lat="48.71489" lon="7.33062">
        <ele>429.599854</ele>
        <time>2011-03-12T13:55:38Z</time>
      </trkpt>
      <trkpt lat="48.71482" lon="7.33062">
        <ele>429.896729</ele>
        <time>2011-03-12T13:55:40Z</time>
      </trkpt>
      <trkpt lat="48.71476" lon="7.33064">
        <ele>429.490479</ele>
        <time>2011-03-12T13:55:42Z</time>
      </trkpt>
      <trkpt lat="48.7147" lon="7.33064">
        <ele>429.412354</ele>
        <time>2011-03-12T13:55:44Z</time>
      </trkpt>
      <trkpt lat="48.71462" lon="7.33064">
        <ele>428.982666</ele>
        <time>2011-03-12T13:55:46Z</time>
      </trkpt>
      <trkpt lat="48.71455" lon="7.33066">
        <ele>429.334229</ele>
        <time>2011-03-12T13:55:48Z</time>
      </trkpt>
      <trkpt lat="48.71447" lon="7.33066">
        <ele>430.131104</ele>
        <time>2011-03-12T13:55:50Z</time>
      </trkpt>
      <trkpt lat="48.71439" lon="7.33067">
        <ele>430.623291</ele>
        <time>2011-03-12T13:55:52Z</time>
      </trkpt>
      <trkpt lat="48.71435" lon="7.33068">
        <ele>430.599854</ele>
        <time>2011-03-12T13:55:53Z</time>
      </trkpt>
      <trkpt lat="48.71428" lon="7.3307">
        <ele>428.498291</ele>
        <time>2011-03-12T13:55:55Z</time>
      </trkpt>
      <trkpt lat="48.7142" lon="7.33073">
        <ele>429.529541</ele>
        <time>2011-03-12T13:55:57Z</time>
      </trkpt>
      <trkpt lat="48.71412" lon="7.33076">
        <ele>429.068604</ele>
        <time>2011-03-12T13:55:59Z</time>
      </trkpt>
      <trkpt lat="48.71404" lon="7.33079">
        <ele>428.810791</ele>
        <time>2011-03-12T13:56:01Z</time>
      </trkpt>
      <trkpt lat="48.71396" lon="7.33083">
        <ele>429.927979</ele>
        <time>2011-03-12T13:56:03Z</time>
      </trkpt>
      <trkpt lat="48.71388" lon="7.33086">
        <ele>430.693604</ele>
        <time>2011-03-12T13:56:05Z</time>
      </trkpt>
      <trkpt lat="48.71379" lon="7.33089">
        <ele>430.763916</ele>
        <time>2011-03-12T13:56:07Z</time>
      </trkpt>
      <trkpt lat="48.71375" lon="7.3309">
        <ele>430.646729</ele>
        <time>2011-03-12T13:56:08Z</time>
      </trkpt>
      <trkpt lat="48.71367" lon="7.33091">
        <ele>431.302979</ele>
        <time>2011-03-12T13:56:10Z</time>
      </trkpt>
      <trkpt lat="48.71362" lon="7.33093">
        <ele>432.240479</ele>
        <time>2011-03-12T13:56:11Z</time>
      </trkpt>
      <trkpt lat="48.71357" lon="7.33095">
        <ele>432.888916</ele>
        <time>2011-03-12T13:56:12Z</time>
      </trkpt>
      <trkpt lat="48.71349" lon="7.33097">
        <ele>433.771729</ele>
        <time>2011-03-12T13:56:14Z</time>
      </trkpt>
      <trkpt lat="48.7134" lon="7.331">
        <ele>433.029541</ele>
        <time>2011-03-12T13:56:16Z</time>
      </trkpt>
      <trkpt lat="48.71333" lon="7.33104">
        <ele>433.092041</ele>
        <time>2011-03-12T13:56:18Z</time>
      </trkpt>
      <trkpt lat="48.71325" lon="7.33107">
        <ele>432.959229</ele>
        <time>2011-03-12T13:56:20Z</time>
      </trkpt>
      <trkpt lat="48.71316" lon="7.33109">
        <ele>434.256104</ele>
        <time>2011-03-12T13:56:22Z</time>
      </trkpt>
      <trkpt lat="48.71307" lon="7.3311">
        <ele>434.092041</ele>
        <time>2011-03-12T13:56:24Z</time>
      </trkpt>
      <trkpt lat="48.71299" lon="7.33111">
        <ele>432.638916</ele>
        <time>2011-03-12T13:56:26Z</time>
      </trkpt>
      <trkpt lat="48.71291" lon="7.33111">
        <ele>429.615479</ele>
        <time>2011-03-12T13:56:28Z</time>
      </trkpt>
      <trkpt lat="48.71287" lon="7.33111">
        <ele>430.154541</ele>
        <time>2011-03-12T13:56:29Z</time>
      </trkpt>
      <trkpt lat="48.71279" lon="7.3311">
        <ele>428.412354</ele>
        <time>2011-03-12T13:56:31Z</time>
      </trkpt>
      <trkpt lat="48.7127" lon="7.3311">
        <ele>427.974854</ele>
        <time>2011-03-12T13:56:33Z</time>
      </trkpt>
      <trkpt lat="48.71265" lon="7.3311">
        <ele>427.295166</ele>
        <time>2011-03-12T13:56:34Z</time>
      </trkpt>
      <trkpt lat="48.7126" lon="7.33112">
        <ele>426.513916</ele>
        <time>2011-03-12T13:56:35Z</time>
      </trkpt>
      <trkpt lat="48.71256" lon="7.33113">
        <ele>425.795166</ele>
        <time>2011-03-12T13:56:36Z</time>
      </trkpt>
      <trkpt lat="48.71251" lon="7.33114">
        <ele>425.888916</ele>
        <time>2011-03-12T13:56:37Z</time>
      </trkpt>
      <trkpt lat="48.71243" lon="7.33118">
        <ele>424.099854</ele>
        <time>2011-03-12T13:56:39Z</time>
      </trkpt>
      <trkpt lat="48.71235" lon="7.33122">
        <ele>423.357666</ele>
        <time>2011-03-12T13:56:41Z</time>
      </trkpt>
      <trkpt lat="48.71227" lon="7.33126">
        <ele>425.365479</ele>
        <time>2011-03-12T13:56:43Z</time>
      </trkpt>
      <trkpt lat="48.71219" lon="7.3313">
        <ele>425.842041</ele>
        <time>2011-03-12T13:56:45Z</time>
      </trkpt>
      <trkpt lat="48.71214" lon="7.33133">
        <ele>425.912354</ele>
        <time>2011-03-12T13:56:46Z</time>
      </trkpt>
      <trkpt lat="48.71207" lon="7.33138">
        <ele>425.388916</ele>
        <time>2011-03-12T13:56:48Z</time>
      </trkpt>
      <trkpt lat="48.712" lon="7.33144">
        <ele>424.654541</ele>
        <time>2011-03-12T13:56:50Z</time>
      </trkpt>
      <trkpt lat="48.71192" lon="7.33148">
        <ele>424.427979</ele>
        <time>2011-03-12T13:56:52Z</time>
      </trkpt>
      <trkpt lat="48.71184" lon="7.33153">
        <ele>423.217041</ele>
        <time>2011-03-12T13:56:54Z</time>
      </trkpt>
      <trkpt lat="48.71177" lon="7.3316">
        <ele>422.998291</ele>
        <time>2011-03-12T13:56:56Z</time>
      </trkpt>
      <trkpt lat="48.71169" lon="7.33162">
        <ele>422.013916</ele>
        <time>2011-03-12T13:56:58Z</time>
      </trkpt>
      <trkpt lat="48.71163" lon="7.33158">
        <ele>421.701416</ele>
        <time>2011-03-12T13:57:00Z</time>
      </trkpt>
      <trkpt lat="48.71158" lon="7.33152">
        <ele>422.404541</ele>
        <time>2011-03-12T13:57:02Z</time>
      </trkpt>
      <trkpt lat="48.71154" lon="7.33147">
        <ele>422.037354</ele>
        <time>2011-03-12T13:57:04Z</time>
      </trkpt>
      <trkpt lat="48.71151" lon="7.33141">
        <ele>421.115479</ele>
        <time>2011-03-12T13:57:06Z</time>
      </trkpt>
      <trkpt lat="48.71147" lon="7.33136">
        <ele>420.287354</ele>
        <time>2011-03-12T13:57:08Z</time>
      </trkpt>
      <trkpt lat="48.71144" lon="7.33131">
        <ele>420.342041</ele>
        <time>2011-03-12T13:57:10Z</time>
      </trkpt>
      <trkpt lat="48.71138" lon="7.33126">
        <ele>419.763916</ele>
        <time>2011-03-12T13:57:13Z</time>
      </trkpt>
      <trkpt lat="48.71134" lon="7.33118">
        <ele>420.131104</ele>
        <time>2011-03-12T13:57:16Z</time>
      </trkpt>
      <trkpt lat="48.7113" lon="7.33113">
        <ele>420.631104</ele>
        <time>2011-03-12T13:57:18Z</time>
      </trkpt>
      <trkpt lat="48.71128" lon="7.33108">
        <ele>420.912354</ele>
        <time>2011-03-12T13:57:20Z</time>
      </trkpt>
      <trkpt lat="48.71125" lon="7.33102">
        <ele>420.990479</ele>
        <time>2011-03-12T13:57:22Z</time>
      </trkpt>
      <trkpt lat="48.71121" lon="7.33095">
        <ele>421.451416</ele>
        <time>2011-03-12T13:57:24Z</time>
      </trkpt>
      <trkpt lat="48.71118" lon="7.33089">
        <ele>421.623291</ele>
        <time>2011-03-12T13:57:26Z</time>
      </trkpt>
      <trkpt lat="48.71114" lon="7.33083">
        <ele>421.802979</ele>
        <time>2011-03-12T13:57:28Z</time>
      </trkpt>
      <trkpt lat="48.71112" lon="7.33076">
        <ele>422.506104</ele>
        <time>2011-03-12T13:57:30Z</time>
      </trkpt>
      <trkpt lat="48.71109" lon="7.33071">
        <ele>422.279541</ele>
        <time>2011-03-12T13:57:32Z</time>
      </trkpt>
      <trkpt lat="48.71105" lon="7.33063">
        <ele>422.342041</ele>
        <time>2011-03-12T13:57:35Z</time>
      </trkpt>
      <trkpt lat="48.71104" lon="7.33056">
        <ele>423.248291</ele>
        <time>2011-03-12T13:57:37Z</time>
      </trkpt>
      <trkpt lat="48.71101" lon="7.3305">
        <ele>424.318604</ele>
        <time>2011-03-12T13:57:39Z</time>
      </trkpt>
      <trkpt lat="48.71098" lon="7.33042">
        <ele>425.865479</ele>
        <time>2011-03-12T13:57:41Z</time>
      </trkpt>
      <trkpt lat="48.71095" lon="7.33035">
        <ele>426.763916</ele>
        <time>2011-03-12T13:57:43Z</time>
      </trkpt>
      <trkpt lat="48.71093" lon="7.33028">
        <ele>426.927979</ele>
        <time>2011-03-12T13:57:45Z</time>
      </trkpt>
      <trkpt lat="48.71089" lon="7.33021">
        <ele>427.756104</ele>
        <time>2011-03-12T13:57:48Z</time>
      </trkpt>
      <trkpt lat="48.71087" lon="7.33015">
        <ele>427.013916</ele>
        <time>2011-03-12T13:57:50Z</time>
      </trkpt>
      <trkpt lat="48.71084" lon="7.3301">
        <ele>426.388916</ele>
        <time>2011-03-12T13:57:52Z</time>
      </trkpt>
      <trkpt lat="48.7108" lon="7.33002">
        <ele>426.412354</ele>
        <time>2011-03-12T13:57:55Z</time>
      </trkpt>
      <trkpt lat="48.71078" lon="7.32996">
        <ele>425.717041</ele>
        <time>2011-03-12T13:57:57Z</time>
      </trkpt>
      <trkpt lat="48.71075" lon="7.3299">
        <ele>426.685791</ele>
        <time>2011-03-12T13:57:59Z</time>
      </trkpt>
      <trkpt lat="48.71072" lon="7.32984">
        <ele>426.787354</ele>
        <time>2011-03-12T13:58:01Z</time>
      </trkpt>
      <trkpt lat="48.71069" lon="7.32977">
        <ele>427.185791</ele>
        <time>2011-03-12T13:58:04Z</time>
      </trkpt>
      <trkpt lat="48.71064" lon="7.32971">
        <ele>427.006104</ele>
        <time>2011-03-12T13:58:08Z</time>
      </trkpt>
      <trkpt lat="48.71061" lon="7.32966">
        <ele>427.967041</ele>
        <time>2011-03-12T13:58:12Z</time>
      </trkpt>
      <trkpt lat="48.71057" lon="7.32961">
        <ele>428.615479</ele>
        <time>2011-03-12T13:58:15Z</time>
      </trkpt>
      <trkpt lat="48.71053" lon="7.32955">
        <ele>428.927979</ele>
        <time>2011-03-12T13:58:18Z</time>
      </trkpt>
      <trkpt lat="48.71049" lon="7.32947">
        <ele>429.482666</ele>
        <time>2011-03-12T13:58:21Z</time>
      </trkpt>
      <trkpt lat="48.71046" lon="7.32943">
        <ele>429.326416</ele>
        <time>2011-03-12T13:58:23Z</time>
      </trkpt>
      <trkpt lat="48.71042" lon="7.32938">
        <ele>429.279541</ele>
        <time>2011-03-12T13:58:25Z</time>
      </trkpt>
      <trkpt lat="48.71039" lon="7.32932">
        <ele>429.584229</ele>
        <time>2011-03-12T13:58:27Z</time>
      </trkpt>
      <trkpt lat="48.71035" lon="7.32926">
        <ele>429.717041</ele>
        <time>2011-03-12T13:58:29Z</time>
      </trkpt>
      <trkpt lat="48.71031" lon="7.32922">
        <ele>429.998291</ele>
        <time>2011-03-12T13:58:31Z</time>
      </trkpt>
      <trkpt lat="48.71027" lon="7.32916">
        <ele>430.631104</ele>
        <time>2011-03-12T13:58:33Z</time>
      </trkpt>
      <trkpt lat="48.71022" lon="7.3291">
        <ele>430.545166</ele>
        <time>2011-03-12T13:58:36Z</time>
      </trkpt>
      <trkpt lat="48.71018" lon="7.32905">
        <ele>430.654541</ele>
        <time>2011-03-12T13:58:38Z</time>
      </trkpt>
      <trkpt lat="48.71014" lon="7.329">
        <ele>430.482666</ele>
        <time>2011-03-12T13:58:40Z</time>
      </trkpt>
      <trkpt lat="48.7101" lon="7.32896">
        <ele>429.217041</ele>
        <time>2011-03-12T13:58:42Z</time>
      </trkpt>
      <trkpt lat="48.71006" lon="7.32891">
        <ele>428.451416</ele>
        <time>2011-03-12T13:58:44Z</time>
      </trkpt>
      <trkpt lat="48.71001" lon="7.32886">
        <ele>427.388916</ele>
        <time>2011-03-12T13:58:47Z</time>
      </trkpt>
      <trkpt lat="48.70997" lon="7.3288">
        <ele>427.677979</ele>
        <time>2011-03-12T13:58:50Z</time>
      </trkpt>
      <trkpt lat="48.70993" lon="7.32872">
        <ele>428.506104</ele>
        <time>2011-03-12T13:58:53Z</time>
      </trkpt>
      <trkpt lat="48.70988" lon="7.32867">
        <ele>428.693604</ele>
        <time>2011-03-12T13:58:56Z</time>
      </trkpt>
      <trkpt lat="48.70984" lon="7.32862">
        <ele>429.529541</ele>
        <time>2011-03-12T13:58:58Z</time>
      </trkpt>
      <trkpt lat="48.70979" lon="7.32858">
        <ele>429.959229</ele>
        <time>2011-03-12T13:59:00Z</time>
      </trkpt>
      <trkpt lat="48.70975" lon="7.32854">
        <ele>430.060791</ele>
        <time>2011-03-12T13:59:02Z</time>
      </trkpt>
      <trkpt lat="48.70971" lon="7.32851">
        <ele>430.646729</ele>
        <time>2011-03-12T13:59:04Z</time>
      </trkpt>
      <trkpt lat="48.70966" lon="7.32847">
        <ele>430.842041</ele>
        <time>2011-03-12T13:59:06Z</time>
      </trkpt>
      <trkpt lat="48.70961" lon="7.32845">
        <ele>431.584229</ele>
        <time>2011-03-12T13:59:08Z</time>
      </trkpt>
      <trkpt lat="48.70956" lon="7.32842">
        <ele>432.552979</ele>
        <time>2011-03-12T13:59:10Z</time>
      </trkpt>
      <trkpt lat="48.70951" lon="7.32839">
        <ele>433.115479</ele>
        <time>2011-03-12T13:59:12Z</time>
      </trkpt>
      <trkpt lat="48.70947" lon="7.32836">
        <ele>433.646729</ele>
        <time>2011-03-12T13:59:14Z</time>
      </trkpt>
      <trkpt lat="48.70942" lon="7.32833">
        <ele>434.115479</ele>
        <time>2011-03-12T13:59:16Z</time>
      </trkpt>
      <trkpt lat="48.70937" lon="7.32829">
        <ele>435.060791</ele>
        <time>2011-03-12T13:59:18Z</time>
      </trkpt>
      <trkpt lat="48.70933" lon="7.32823">
        <ele>436.177979</ele>
        <time>2011-03-12T13:59:20Z</time>
      </trkpt>
      <trkpt lat="48.7093" lon="7.32819">
        <ele>436.873291</ele>
        <time>2011-03-12T13:59:22Z</time>
      </trkpt>
      <trkpt lat="48.70926" lon="7.32814">
        <ele>437.693604</ele>
        <time>2011-03-12T13:59:39Z</time>
      </trkpt>
      <trkpt lat="48.70922" lon="7.32807">
        <ele>438.467041</ele>
        <time>2011-03-12T13:59:43Z</time>
      </trkpt>
      <trkpt lat="48.70919" lon="7.328">
        <ele>438.412354</ele>
        <time>2011-03-12T13:59:47Z</time>
      </trkpt>
      <trkpt lat="48.70917" lon="7.32794">
        <ele>437.560791</ele>
        <time>2011-03-12T13:59:51Z</time>
      </trkpt>
      <trkpt lat="48.70915" lon="7.32787">
        <ele>437.443604</ele>
        <time>2011-03-12T13:59:55Z</time>
      </trkpt>
      <trkpt lat="48.70915" lon="7.32779">
        <ele>436.693604</ele>
        <time>2011-03-12T13:59:59Z</time>
      </trkpt>
      <trkpt lat="48.70916" lon="7.32772">
        <ele>436.685791</ele>
        <time>2011-03-12T14:00:04Z</time>
      </trkpt>
      <trkpt lat="48.70916" lon="7.32765">
        <ele>437.607666</ele>
        <time>2011-03-12T14:00:09Z</time>
      </trkpt>
      <trkpt lat="48.70917" lon="7.32757">
        <ele>438.115479</ele>
        <time>2011-03-12T14:00:13Z</time>
      </trkpt>
      <trkpt lat="48.70917" lon="7.32749">
        <ele>438.638916</ele>
        <time>2011-03-12T14:00:17Z</time>
      </trkpt>
      <trkpt lat="48.70917" lon="7.32741">
        <ele>438.951416</ele>
        <time>2011-03-12T14:00:21Z</time>
      </trkpt>
      <trkpt lat="48.70915" lon="7.32734">
        <ele>439.654541</ele>
        <time>2011-03-12T14:00:25Z</time>
      </trkpt>
      <trkpt lat="48.70915" lon="7.32725">
        <ele>439.607666</ele>
        <time>2011-03-12T14:00:29Z</time>
      </trkpt>
      <trkpt lat="48.70918" lon="7.32718">
        <ele>438.810791</ele>
        <time>2011-03-12T14:00:33Z</time>
      </trkpt>
      <trkpt lat="48.70919" lon="7.32711">
        <ele>438.857666</ele>
        <time>2011-03-12T14:00:36Z</time>
      </trkpt>
      <trkpt lat="48.70921" lon="7.32704">
        <ele>438.506104</ele>
        <time>2011-03-12T14:00:39Z</time>
      </trkpt>
      <trkpt lat="48.70923" lon="7.32696">
        <ele>438.545166</ele>
        <time>2011-03-12T14:00:41Z</time>
      </trkpt>
      <trkpt lat="48.70926" lon="7.32688">
        <ele>438.959229</ele>
        <time>2011-03-12T14:00:43Z</time>
      </trkpt>
      <trkpt lat="48.70929" lon="7.3268">
        <ele>439.138916</ele>
        <time>2011-03-12T14:00:45Z</time>
      </trkpt>
      <trkpt lat="48.70932" lon="7.32671">
        <ele>439.217041</ele>
        <time>2011-03-12T14:00:47Z</time>
      </trkpt>
      <trkpt lat="48.70934" lon="7.32664">
        <ele>439.412354</ele>
        <time>2011-03-12T14:00:49Z</time>
      </trkpt>
      <trkpt lat="48.70937" lon="7.32656">
        <ele>439.185791</ele>
        <time>2011-03-12T14:00:51Z</time>
      </trkpt>
      <trkpt lat="48.7094" lon="7.32649">
        <ele>439.420166</ele>
        <time>2011-03-12T14:00:53Z</time>
      </trkpt>
      <trkpt lat="48.70944" lon="7.32641">
        <ele>440.045166</ele>
        <time>2011-03-12T14:00:55Z</time>
      </trkpt>
      <trkpt lat="48.70946" lon="7.32632">
        <ele>439.521729</ele>
        <time>2011-03-12T14:00:57Z</time>
      </trkpt>
      <trkpt lat="48.70949" lon="7.32624">
        <ele>439.373291</ele>
        <time>2011-03-12T14:00:59Z</time>
      </trkpt>
      <trkpt lat="48.70953" lon="7.32616">
        <ele>439.318604</ele>
        <time>2011-03-12T14:01:01Z</time>
      </trkpt>
      <trkpt lat="48.70956" lon="7.32608">
        <ele>439.873291</ele>
        <time>2011-03-12T14:01:03Z</time>
      </trkpt>
      <trkpt lat="48.70959" lon="7.32601">
        <ele>439.982666</ele>
        <time>2011-03-12T14:01:05Z</time>
      </trkpt>
      <trkpt lat="48.70963" lon="7.32594">
        <ele>439.779541</ele>
        <time>2011-03-12T14:01:07Z</time>
      </trkpt>
      <trkpt lat="48.70965" lon="7.32588">
        <ele>439.709229</ele>
        <time>2011-03-12T14:01:10Z</time>
      </trkpt>
      <trkpt lat="48.70969" lon="7.32583">
        <ele>438.310791</ele>
        <time>2011-03-12T14:03:50Z</time>
      </trkpt>
      <trkpt lat="48.70972" lon="7.32578">
        <ele>439.099854</ele>
        <time>2011-03-12T14:03:53Z</time>
      </trkpt>
      <trkpt lat="48.70976" lon="7.3257">
        <ele>438.959229</ele>
        <time>2011-03-12T14:03:56Z</time>
      </trkpt>
      <trkpt lat="48.70979" lon="7.32564">
        <ele>439.209229</ele>
        <time>2011-03-12T14:03:58Z</time>
      </trkpt>
      <trkpt lat="48.70984" lon="7.32557">
        <ele>439.420166</ele>
        <time>2011-03-12T14:04:00Z</time>
      </trkpt>
      <trkpt lat="48.70988" lon="7.3255">
        <ele>439.318604</ele>
        <time>2011-03-12T14:04:02Z</time>
      </trkpt>
      <trkpt lat="48.70993" lon="7.32542">
        <ele>438.982666</ele>
        <time>2011-03-12T14:04:04Z</time>
      </trkpt>
      <trkpt lat="48.70997" lon="7.32535">
        <ele>439.013916</ele>
        <time>2011-03-12T14:04:06Z</time>
      </trkpt>
      <trkpt lat="48.71" lon="7.32529">
        <ele>438.857666</ele>
        <time>2011-03-12T14:04:08Z</time>
      </trkpt>
      <trkpt lat="48.71005" lon="7.32522">
        <ele>438.021729</ele>
        <time>2011-03-12T14:04:10Z</time>
      </trkpt>
      <trkpt lat="48.71008" lon="7.32515">
        <ele>438.068604</ele>
        <time>2011-03-12T14:04:12Z</time>
      </trkpt>
      <trkpt lat="48.71011" lon="7.32506">
        <ele>438.217041</ele>
        <time>2011-03-12T14:04:15Z</time>
      </trkpt>
      <trkpt lat="48.71014" lon="7.32499">
        <ele>438.506104</ele>
        <time>2011-03-12T14:04:17Z</time>
      </trkpt>
      <trkpt lat="48.71018" lon="7.32492">
        <ele>438.638916</ele>
        <time>2011-03-12T14:04:19Z</time>
      </trkpt>
      <trkpt lat="48.71022" lon="7.32486">
        <ele>438.568604</ele>
        <time>2011-03-12T14:04:21Z</time>
      </trkpt>
      <trkpt lat="48.71026" lon="7.3248">
        <ele>438.763916</ele>
        <time>2011-03-12T14:04:23Z</time>
      </trkpt>
      <trkpt lat="48.7103" lon="7.32474">
        <ele>438.849854</ele>
        <time>2011-03-12T14:04:25Z</time>
      </trkpt>
      <trkpt lat="48.71034" lon="7.32465">
        <ele>437.357666</ele>
        <time>2011-03-12T14:04:27Z</time>
      </trkpt>
      <trkpt lat="48.71038" lon="7.32458">
        <ele>437.521729</ele>
        <time>2011-03-12T14:04:29Z</time>
      </trkpt>
      <trkpt lat="48.71041" lon="7.3245">
        <ele>437.162354</ele>
        <time>2011-03-12T14:04:31Z</time>
      </trkpt>
      <trkpt lat="48.71046" lon="7.32441">
        <ele>436.271729</ele>
        <time>2011-03-12T14:04:33Z</time>
      </trkpt>
      <trkpt lat="48.71052" lon="7.32436">
        <ele>436.646729</ele>
        <time>2011-03-12T14:04:35Z</time>
      </trkpt>
      <trkpt lat="48.71057" lon="7.32428">
        <ele>436.029541</ele>
        <time>2011-03-12T14:04:37Z</time>
      </trkpt>
      <trkpt lat="48.71062" lon="7.3242">
        <ele>436.513916</ele>
        <time>2011-03-12T14:04:39Z</time>
      </trkpt>
      <trkpt lat="48.71066" lon="7.32413">
        <ele>437.443604</ele>
        <time>2011-03-12T14:04:41Z</time>
      </trkpt>
      <trkpt lat="48.7107" lon="7.32406">
        <ele>438.365479</ele>
        <time>2011-03-12T14:04:43Z</time>
      </trkpt>
      <trkpt lat="48.71075" lon="7.32399">
        <ele>439.357666</ele>
        <time>2011-03-12T14:04:45Z</time>
      </trkpt>
      <trkpt lat="48.71081" lon="7.32391">
        <ele>440.459229</ele>
        <time>2011-03-12T14:04:47Z</time>
      </trkpt>
      <trkpt lat="48.71084" lon="7.32385">
        <ele>438.881104</ele>
        <time>2011-03-12T14:04:48Z</time>
      </trkpt>
      <trkpt lat="48.71089" lon="7.32376">
        <ele>439.724854</ele>
        <time>2011-03-12T14:04:50Z</time>
      </trkpt>
      <trkpt lat="48.71091" lon="7.32369">
        <ele>437.888916</ele>
        <time>2011-03-12T14:04:51Z</time>
      </trkpt>
      <trkpt lat="48.71097" lon="7.32359">
        <ele>437.592041</ele>
        <time>2011-03-12T14:04:53Z</time>
      </trkpt>
      <trkpt lat="48.71103" lon="7.32349">
        <ele>438.748291</ele>
        <time>2011-03-12T14:04:55Z</time>
      </trkpt>
      <trkpt lat="48.71107" lon="7.32339">
        <ele>440.146729</ele>
        <time>2011-03-12T14:04:57Z</time>
      </trkpt>
      <trkpt lat="48.71111" lon="7.32327">
        <ele>441.373291</ele>
        <time>2011-03-12T14:04:59Z</time>
      </trkpt>
      <trkpt lat="48.71112" lon="7.32319">
        <ele>440.592041</ele>
        <time>2011-03-12T14:05:00Z</time>
      </trkpt>
      <trkpt lat="48.71115" lon="7.32312">
        <ele>441.193604</ele>
        <time>2011-03-12T14:05:01Z</time>
      </trkpt>
      <trkpt lat="48.71117" lon="7.32306">
        <ele>441.248291</ele>
        <time>2011-03-12T14:05:02Z</time>
      </trkpt>
      <trkpt lat="48.71121" lon="7.32295">
        <ele>442.076416</ele>
        <time>2011-03-12T14:05:04Z</time>
      </trkpt>
      <trkpt lat="48.71122" lon="7.32286">
        <ele>443.810791</ele>
        <time>2011-03-12T14:05:06Z</time>
      </trkpt>
      <trkpt lat="48.71125" lon="7.32277">
        <ele>444.974854</ele>
        <time>2011-03-12T14:05:08Z</time>
      </trkpt>
      <trkpt lat="48.71126" lon="7.32266">
        <ele>445.904541</ele>
        <time>2011-03-12T14:05:10Z</time>
      </trkpt>
      <trkpt lat="48.71129" lon="7.32256">
        <ele>448.217041</ele>
        <time>2011-03-12T14:05:12Z</time>
      </trkpt>
      <trkpt lat="48.71131" lon="7.3225">
        <ele>447.170166</ele>
        <time>2011-03-12T14:05:13Z</time>
      </trkpt>
      <trkpt lat="48.71134" lon="7.32236">
        <ele>446.115479</ele>
        <time>2011-03-12T14:05:15Z</time>
      </trkpt>
      <trkpt lat="48.71136" lon="7.32225">
        <ele>447.451416</ele>
        <time>2011-03-12T14:05:17Z</time>
      </trkpt>
      <trkpt lat="48.71138" lon="7.32215">
        <ele>448.802979</ele>
        <time>2011-03-12T14:05:19Z</time>
      </trkpt>
      <trkpt lat="48.71141" lon="7.32205">
        <ele>450.092041</ele>
        <time>2011-03-12T14:05:21Z</time>
      </trkpt>
      <trkpt lat="48.71145" lon="7.32193">
        <ele>450.662354</ele>
        <time>2011-03-12T14:05:23Z</time>
      </trkpt>
      <trkpt lat="48.71147" lon="7.32185">
        <ele>452.935791</ele>
        <time>2011-03-12T14:05:25Z</time>
      </trkpt>
      <trkpt lat="48.71148" lon="7.32178">
        <ele>451.537354</ele>
        <time>2011-03-12T14:05:26Z</time>
      </trkpt>
      <trkpt lat="48.71151" lon="7.32167">
        <ele>451.810791</ele>
        <time>2011-03-12T14:05:28Z</time>
      </trkpt>
      <trkpt lat="48.71151" lon="7.3216">
        <ele>450.756104</ele>
        <time>2011-03-12T14:05:30Z</time>
      </trkpt>
      <trkpt lat="48.71153" lon="7.32153">
        <ele>452.138916</ele>
        <time>2011-03-12T14:05:34Z</time>
      </trkpt>
      <trkpt lat="48.71153" lon="7.32145">
        <ele>454.342041</ele>
        <time>2011-03-12T14:05:40Z</time>
      </trkpt>
      <trkpt lat="48.71152" lon="7.32139">
        <ele>455.849854</ele>
        <time>2011-03-12T14:05:47Z</time>
      </trkpt>
      <trkpt lat="48.71156" lon="7.32137">
        <ele>453.342041</ele>
        <time>2011-03-12T14:07:56Z</time>
      </trkpt>
      <trkpt lat="48.7115" lon="7.32136">
        <ele>452.162354</ele>
        <time>2011-03-12T14:08:43Z</time>
      </trkpt>
      <trkpt lat="48.71146" lon="7.32134">
        <ele>453.099854</ele>
        <time>2011-03-12T14:08:49Z</time>
      </trkpt>
      <trkpt lat="48.71141" lon="7.32132">
        <ele>453.310791</ele>
        <time>2011-03-12T14:08:53Z</time>
      </trkpt>
      <trkpt lat="48.71136" lon="7.32132">
        <ele>452.763916</ele>
        <time>2011-03-12T14:08:56Z</time>
      </trkpt>
      <trkpt lat="48.71131" lon="7.32132">
        <ele>452.302979</ele>
        <time>2011-03-12T14:08:59Z</time>
      </trkpt>
      <trkpt lat="48.71126" lon="7.32133">
        <ele>452.420166</ele>
        <time>2011-03-12T14:09:02Z</time>
      </trkpt>
      <trkpt lat="48.7112" lon="7.32133">
        <ele>453.459229</ele>
        <time>2011-03-12T14:09:05Z</time>
      </trkpt>
      <trkpt lat="48.71115" lon="7.32131">
        <ele>454.396729</ele>
        <time>2011-03-12T14:09:08Z</time>
      </trkpt>
      <trkpt lat="48.71109" lon="7.32129">
        <ele>455.365479</ele>
        <time>2011-03-12T14:09:11Z</time>
      </trkpt>
      <trkpt lat="48.71102" lon="7.32126">
        <ele>456.302979</ele>
        <time>2011-03-12T14:09:14Z</time>
      </trkpt>
      <trkpt lat="48.71098" lon="7.32124">
        <ele>457.092041</ele>
        <time>2011-03-12T14:09:16Z</time>
      </trkpt>
      <trkpt lat="48.71092" lon="7.32121">
        <ele>458.029541</ele>
        <time>2011-03-12T14:09:18Z</time>
      </trkpt>
      <trkpt lat="48.71087" lon="7.32118">
        <ele>458.881104</ele>
        <time>2011-03-12T14:09:20Z</time>
      </trkpt>
      <trkpt lat="48.71081" lon="7.32116">
        <ele>459.818604</ele>
        <time>2011-03-12T14:09:22Z</time>
      </trkpt>
      <trkpt lat="48.71075" lon="7.32113">
        <ele>460.654541</ele>
        <time>2011-03-12T14:09:24Z</time>
      </trkpt>
      <trkpt lat="48.71071" lon="7.32109">
        <ele>461.193604</ele>
        <time>2011-03-12T14:09:26Z</time>
      </trkpt>
      <trkpt lat="48.71066" lon="7.32106">
        <ele>462.021729</ele>
        <time>2011-03-12T14:09:28Z</time>
      </trkpt>
      <trkpt lat="48.71061" lon="7.32104">
        <ele>462.998291</ele>
        <time>2011-03-12T14:09:30Z</time>
      </trkpt>
      <trkpt lat="48.71058" lon="7.32098">
        <ele>463.974854</ele>
        <time>2011-03-12T14:09:32Z</time>
      </trkpt>
      <trkpt lat="48.71055" lon="7.32092">
        <ele>465.037354</ele>
        <time>2011-03-12T14:09:34Z</time>
      </trkpt>
      <trkpt lat="48.7105" lon="7.32085">
        <ele>466.795166</ele>
        <time>2011-03-12T14:09:37Z</time>
      </trkpt>
      <trkpt lat="48.71045" lon="7.32078">
        <ele>468.076416</ele>
        <time>2011-03-12T14:09:40Z</time>
      </trkpt>
      <trkpt lat="48.71041" lon="7.32074">
        <ele>469.201416</ele>
        <time>2011-03-12T14:09:42Z</time>
      </trkpt>
      <trkpt lat="48.71038" lon="7.32068">
        <ele>470.287354</ele>
        <time>2011-03-12T14:09:45Z</time>
      </trkpt>
      <trkpt lat="48.71035" lon="7.32061">
        <ele>471.490479</ele>
        <time>2011-03-12T14:09:48Z</time>
      </trkpt>
      <trkpt lat="48.71032" lon="7.32051">
        <ele>472.404541</ele>
        <time>2011-03-12T14:09:50Z</time>
      </trkpt>
      <trkpt lat="48.71026" lon="7.32047">
        <ele>473.037354</ele>
        <time>2011-03-12T14:09:52Z</time>
      </trkpt>
      <trkpt lat="48.71022" lon="7.32038">
        <ele>473.779541</ele>
        <time>2011-03-12T14:09:55Z</time>
      </trkpt>
      <trkpt lat="48.71019" lon="7.32032">
        <ele>474.467041</ele>
        <time>2011-03-12T14:09:58Z</time>
      </trkpt>
      <trkpt lat="48.71014" lon="7.32025">
        <ele>474.506104</ele>
        <time>2011-03-12T14:10:01Z</time>
      </trkpt>
      <trkpt lat="48.71008" lon="7.32019">
        <ele>474.021729</ele>
        <time>2011-03-12T14:10:03Z</time>
      </trkpt>
      <trkpt lat="48.71004" lon="7.32012">
        <ele>474.896729</ele>
        <time>2011-03-12T14:10:06Z</time>
      </trkpt>
      <trkpt lat="48.71" lon="7.32007">
        <ele>474.654541</ele>
        <time>2011-03-12T14:10:08Z</time>
      </trkpt>
      <trkpt lat="48.70996" lon="7.32003">
        <ele>474.342041</ele>
        <time>2011-03-12T14:10:10Z</time>
      </trkpt>
      <trkpt lat="48.70992" lon="7.31998">
        <ele>475.521729</ele>
        <time>2011-03-12T14:10:12Z</time>
      </trkpt>
      <trkpt lat="48.70989" lon="7.31993">
        <ele>476.084229</ele>
        <time>2011-03-12T14:10:15Z</time>
      </trkpt>
      <trkpt lat="48.70985" lon="7.31986">
        <ele>476.615479</ele>
        <time>2011-03-12T14:10:19Z</time>
      </trkpt>
      <trkpt lat="48.70982" lon="7.3198">
        <ele>477.099854</ele>
        <time>2011-03-12T14:10:22Z</time>
      </trkpt>
      <trkpt lat="48.70978" lon="7.31973">
        <ele>478.006104</ele>
        <time>2011-03-12T14:10:25Z</time>
      </trkpt>
      <trkpt lat="48.70974" lon="7.31965">
        <ele>479.240479</ele>
        <time>2011-03-12T14:10:29Z</time>
      </trkpt>
      <trkpt lat="48.70972" lon="7.31959">
        <ele>480.138916</ele>
        <time>2011-03-12T14:10:32Z</time>
      </trkpt>
      <trkpt lat="48.70969" lon="7.31953">
        <ele>480.177979</ele>
        <time>2011-03-12T14:10:34Z</time>
      </trkpt>
      <trkpt lat="48.70966" lon="7.31945">
        <ele>480.240479</ele>
        <time>2011-03-12T14:10:37Z</time>
      </trkpt>
      <trkpt lat="48.70963" lon="7.31937">
        <ele>480.537354</ele>
        <time>2011-03-12T14:10:40Z</time>
      </trkpt>
      <trkpt lat="48.7096" lon="7.3193">
        <ele>480.607666</ele>
        <time>2011-03-12T14:10:42Z</time>
      </trkpt>
      <trkpt lat="48.70956" lon="7.31925">
        <ele>480.256104</ele>
        <time>2011-03-12T14:10:44Z</time>
      </trkpt>
      <trkpt lat="48.70954" lon="7.31919">
        <ele>480.209229</ele>
        <time>2011-03-12T14:10:46Z</time>
      </trkpt>
      <trkpt lat="48.70951" lon="7.31911">
        <ele>479.865479</ele>
        <time>2011-03-12T14:10:49Z</time>
      </trkpt>
      <trkpt lat="48.70948" lon="7.31904">
        <ele>478.232666</ele>
        <time>2011-03-12T14:10:52Z</time>
      </trkpt>
      <trkpt lat="48.70945" lon="7.31897">
        <ele>477.013916</ele>
        <time>2011-03-12T14:10:55Z</time>
      </trkpt>
      <trkpt lat="48.70942" lon="7.31888">
        <ele>476.826416</ele>
        <time>2011-03-12T14:10:58Z</time>
      </trkpt>
      <trkpt lat="48.70939" lon="7.31881">
        <ele>477.443604</ele>
        <time>2011-03-12T14:11:01Z</time>
      </trkpt>
      <trkpt lat="48.70935" lon="7.31875">
        <ele>477.427979</ele>
        <time>2011-03-12T14:11:04Z</time>
      </trkpt>
      <trkpt lat="48.70933" lon="7.31867">
        <ele>477.826416</ele>
        <time>2011-03-12T14:11:07Z</time>
      </trkpt>
      <trkpt lat="48.7093" lon="7.31859">
        <ele>477.506104</ele>
        <time>2011-03-12T14:11:10Z</time>
      </trkpt>
      <trkpt lat="48.70928" lon="7.3185">
        <ele>477.717041</ele>
        <time>2011-03-12T14:11:12Z</time>
      </trkpt>
      <trkpt lat="48.70926" lon="7.3184">
        <ele>477.732666</ele>
        <time>2011-03-12T14:11:14Z</time>
      </trkpt>
      <trkpt lat="48.70924" lon="7.31833">
        <ele>478.334229</ele>
        <time>2011-03-12T14:11:16Z</time>
      </trkpt>
      <trkpt lat="48.70921" lon="7.31825">
        <ele>478.365479</ele>
        <time>2011-03-12T14:11:18Z</time>
      </trkpt>
      <trkpt lat="48.70919" lon="7.31818">
        <ele>478.217041</ele>
        <time>2011-03-12T14:11:20Z</time>
      </trkpt>
      <trkpt lat="48.70915" lon="7.31812">
        <ele>478.162354</ele>
        <time>2011-03-12T14:11:22Z</time>
      </trkpt>
      <trkpt lat="48.70911" lon="7.31805">
        <ele>478.474854</ele>
        <time>2011-03-12T14:11:24Z</time>
      </trkpt>
      <trkpt lat="48.70908" lon="7.318">
        <ele>478.787354</ele>
        <time>2011-03-12T14:11:26Z</time>
      </trkpt>
      <trkpt lat="48.70905" lon="7.31796">
        <ele>479.256104</ele>
        <time>2011-03-12T14:11:28Z</time>
      </trkpt>
      <trkpt lat="48.70899" lon="7.31791">
        <ele>479.724854</ele>
        <time>2011-03-12T14:11:31Z</time>
      </trkpt>
      <trkpt lat="48.70894" lon="7.31791">
        <ele>480.287354</ele>
        <time>2011-03-12T14:11:33Z</time>
      </trkpt>
      <trkpt lat="48.70888" lon="7.31792">
        <ele>480.888916</ele>
        <time>2011-03-12T14:11:36Z</time>
      </trkpt>
      <trkpt lat="48.70883" lon="7.31792">
        <ele>481.459229</ele>
        <time>2011-03-12T14:11:39Z</time>
      </trkpt>
      <trkpt lat="48.70878" lon="7.31792">
        <ele>482.467041</ele>
        <time>2011-03-12T14:11:42Z</time>
      </trkpt>
      <trkpt lat="48.70874" lon="7.31795">
        <ele>482.927979</ele>
        <time>2011-03-12T14:11:45Z</time>
      </trkpt>
      <trkpt lat="48.70869" lon="7.31797">
        <ele>483.263916</ele>
        <time>2011-03-12T14:11:48Z</time>
      </trkpt>
      <trkpt lat="48.70863" lon="7.31799">
        <ele>483.451416</ele>
        <time>2011-03-12T14:11:51Z</time>
      </trkpt>
      <trkpt lat="48.70858" lon="7.31802">
        <ele>484.459229</ele>
        <time>2011-03-12T14:11:55Z</time>
      </trkpt>
      <trkpt lat="48.70853" lon="7.31799">
        <ele>485.013916</ele>
        <time>2011-03-12T14:11:58Z</time>
      </trkpt>
      <trkpt lat="48.70847" lon="7.31801">
        <ele>486.177979</ele>
        <time>2011-03-12T14:12:02Z</time>
      </trkpt>
      <trkpt lat="48.70842" lon="7.31801">
        <ele>486.310791</ele>
        <time>2011-03-12T14:12:05Z</time>
      </trkpt>
      <trkpt lat="48.70837" lon="7.31803">
        <ele>485.896729</ele>
        <time>2011-03-12T14:13:27Z</time>
      </trkpt>
      <trkpt lat="48.70832" lon="7.31804">
        <ele>486.763916</ele>
        <time>2011-03-12T14:13:35Z</time>
      </trkpt>
      <trkpt lat="48.70828" lon="7.31808">
        <ele>486.912354</ele>
        <time>2011-03-12T14:13:37Z</time>
      </trkpt>
      <trkpt lat="48.70823" lon="7.31813">
        <ele>487.302979</ele>
        <time>2011-03-12T14:13:39Z</time>
      </trkpt>
      <trkpt lat="48.70817" lon="7.31817">
        <ele>487.693604</ele>
        <time>2011-03-12T14:13:41Z</time>
      </trkpt>
      <trkpt lat="48.70812" lon="7.31822">
        <ele>488.662354</ele>
        <time>2011-03-12T14:13:43Z</time>
      </trkpt>
      <trkpt lat="48.70806" lon="7.31829">
        <ele>489.092041</ele>
        <time>2011-03-12T14:13:45Z</time>
      </trkpt>
      <trkpt lat="48.70799" lon="7.31835">
        <ele>489.334229</ele>
        <time>2011-03-12T14:13:47Z</time>
      </trkpt>
      <trkpt lat="48.70792" lon="7.31841">
        <ele>489.974854</ele>
        <time>2011-03-12T14:13:49Z</time>
      </trkpt>
      <trkpt lat="48.70786" lon="7.31847">
        <ele>489.732666</ele>
        <time>2011-03-12T14:13:51Z</time>
      </trkpt>
      <trkpt lat="48.70779" lon="7.31851">
        <ele>489.545166</ele>
        <time>2011-03-12T14:13:53Z</time>
      </trkpt>
      <trkpt lat="48.70775" lon="7.31854">
        <ele>489.662354</ele>
        <time>2011-03-12T14:13:55Z</time>
      </trkpt>
      <trkpt lat="48.7077" lon="7.31859">
        <ele>489.826416</ele>
        <time>2011-03-12T14:13:59Z</time>
      </trkpt>
      <trkpt lat="48.70765" lon="7.31864">
        <ele>490.615479</ele>
        <time>2011-03-12T14:14:02Z</time>
      </trkpt>
      <trkpt lat="48.7076" lon="7.31869">
        <ele>491.209229</ele>
        <time>2011-03-12T14:14:05Z</time>
      </trkpt>
      <trkpt lat="48.70754" lon="7.3187">
        <ele>492.459229</ele>
        <time>2011-03-12T14:14:09Z</time>
      </trkpt>
      <trkpt lat="48.7075" lon="7.31872">
        <ele>490.615479</ele>
        <time>2011-03-12T14:15:37Z</time>
      </trkpt>
      <trkpt lat="48.70746" lon="7.31878">
        <ele>490.092041</ele>
        <time>2011-03-12T14:15:40Z</time>
      </trkpt>
      <trkpt lat="48.70743" lon="7.31885">
        <ele>489.271729</ele>
        <time>2011-03-12T14:15:42Z</time>
      </trkpt>
      <trkpt lat="48.70739" lon="7.319">
        <ele>488.560791</ele>
        <time>2011-03-12T14:15:44Z</time>
      </trkpt>
      <trkpt lat="48.70735" lon="7.31908">
        <ele>487.998291</ele>
        <time>2011-03-12T14:15:45Z</time>
      </trkpt>
      <trkpt lat="48.70731" lon="7.31916">
        <ele>487.693604</ele>
        <time>2011-03-12T14:15:46Z</time>
      </trkpt>
      <trkpt lat="48.70728" lon="7.31922">
        <ele>487.193604</ele>
        <time>2011-03-12T14:15:47Z</time>
      </trkpt>
      <trkpt lat="48.70725" lon="7.31927">
        <ele>486.748291</ele>
        <time>2011-03-12T14:15:48Z</time>
      </trkpt>
      <trkpt lat="48.7072" lon="7.3193">
        <ele>486.295166</ele>
        <time>2011-03-12T14:15:49Z</time>
      </trkpt>
      <trkpt lat="48.70715" lon="7.31932">
        <ele>485.584229</ele>
        <time>2011-03-12T14:15:50Z</time>
      </trkpt>
      <trkpt lat="48.7071" lon="7.31933">
        <ele>485.115479</ele>
        <time>2011-03-12T14:15:51Z</time>
      </trkpt>
      <trkpt lat="48.70705" lon="7.31939">
        <ele>484.513916</ele>
        <time>2011-03-12T14:15:52Z</time>
      </trkpt>
      <trkpt lat="48.70701" lon="7.31943">
        <ele>483.787354</ele>
        <time>2011-03-12T14:15:53Z</time>
      </trkpt>
      <trkpt lat="48.70697" lon="7.31949">
        <ele>483.052979</ele>
        <time>2011-03-12T14:15:54Z</time>
      </trkpt>
      <trkpt lat="48.70692" lon="7.31956">
        <ele>482.592041</ele>
        <time>2011-03-12T14:15:55Z</time>
      </trkpt>
      <trkpt lat="48.70686" lon="7.31962">
        <ele>482.177979</ele>
        <time>2011-03-12T14:15:56Z</time>
      </trkpt>
      <trkpt lat="48.70679" lon="7.31973">
        <ele>481.802979</ele>
        <time>2011-03-12T14:15:57Z</time>
      </trkpt>
      <trkpt lat="48.70672" lon="7.31985">
        <ele>481.240479</ele>
        <time>2011-03-12T14:15:58Z</time>
      </trkpt>
      <trkpt lat="48.70665" lon="7.31997">
        <ele>480.842041</ele>
        <time>2011-03-12T14:15:59Z</time>
      </trkpt>
      <trkpt lat="48.70659" lon="7.32008">
        <ele>480.560791</ele>
        <time>2011-03-12T14:16:00Z</time>
      </trkpt>
      <trkpt lat="48.70652" lon="7.32018">
        <ele>480.209229</ele>
        <time>2011-03-12T14:16:01Z</time>
      </trkpt>
      <trkpt lat="48.70646" lon="7.32026">
        <ele>479.943604</ele>
        <time>2011-03-12T14:16:02Z</time>
      </trkpt>
      <trkpt lat="48.70639" lon="7.32037">
        <ele>479.623291</ele>
        <time>2011-03-12T14:16:03Z</time>
      </trkpt>
      <trkpt lat="48.70631" lon="7.32043">
        <ele>478.857666</ele>
        <time>2011-03-12T14:16:04Z</time>
      </trkpt>
      <trkpt lat="48.70623" lon="7.3205">
        <ele>478.185791</ele>
        <time>2011-03-12T14:16:05Z</time>
      </trkpt>
      <trkpt lat="48.70614" lon="7.32058">
        <ele>477.888916</ele>
        <time>2011-03-12T14:16:06Z</time>
      </trkpt>
      <trkpt lat="48.70606" lon="7.32063">
        <ele>477.326416</ele>
        <time>2011-03-12T14:16:07Z</time>
      </trkpt>
      <trkpt lat="48.70597" lon="7.32068">
        <ele>476.740479</ele>
        <time>2011-03-12T14:16:08Z</time>
      </trkpt>
      <trkpt lat="48.70585" lon="7.3207">
        <ele>476.209229</ele>
        <time>2011-03-12T14:16:09Z</time>
      </trkpt>
      <trkpt lat="48.70573" lon="7.32074">
        <ele>475.412354</ele>
        <time>2011-03-12T14:16:10Z</time>
      </trkpt>
      <trkpt lat="48.70561" lon="7.32075">
        <ele>474.615479</ele>
        <time>2011-03-12T14:16:11Z</time>
      </trkpt>
      <trkpt lat="48.70549" lon="7.32078">
        <ele>474.092041</ele>
        <time>2011-03-12T14:16:12Z</time>
      </trkpt>
      <trkpt lat="48.70539" lon="7.32081">
        <ele>473.662354</ele>
        <time>2011-03-12T14:16:13Z</time>
      </trkpt>
      <trkpt lat="48.70531" lon="7.32079">
        <ele>473.263916</ele>
        <time>2011-03-12T14:16:14Z</time>
      </trkpt>
      <trkpt lat="48.70521" lon="7.32084">
        <ele>473.084229</ele>
        <time>2011-03-12T14:16:15Z</time>
      </trkpt>
      <trkpt lat="48.70511" lon="7.3209">
        <ele>472.865479</ele>
        <time>2011-03-12T14:16:16Z</time>
      </trkpt>
      <trkpt lat="48.70501" lon="7.32095">
        <ele>473.123291</ele>
        <time>2011-03-12T14:16:17Z</time>
      </trkpt>
      <trkpt lat="48.70493" lon="7.32099">
        <ele>473.045166</ele>
        <time>2011-03-12T14:16:18Z</time>
      </trkpt>
      <trkpt lat="48.70485" lon="7.32105">
        <ele>472.904541</ele>
        <time>2011-03-12T14:16:19Z</time>
      </trkpt>
      <trkpt lat="48.70477" lon="7.3211">
        <ele>472.826416</ele>
        <time>2011-03-12T14:16:20Z</time>
      </trkpt>
      <trkpt lat="48.70466" lon="7.32118">
        <ele>472.779541</ele>
        <time>2011-03-12T14:16:21Z</time>
      </trkpt>
      <trkpt lat="48.70456" lon="7.32124">
        <ele>472.756104</ele>
        <time>2011-03-12T14:16:22Z</time>
      </trkpt>
      <trkpt lat="48.70446" lon="7.32131">
        <ele>472.834229</ele>
        <time>2011-03-12T14:16:23Z</time>
      </trkpt>
      <trkpt lat="48.70437" lon="7.32138">
        <ele>472.787354</ele>
        <time>2011-03-12T14:16:24Z</time>
      </trkpt>
      <trkpt lat="48.70428" lon="7.32145">
        <ele>472.732666</ele>
        <time>2011-03-12T14:16:25Z</time>
      </trkpt>
      <trkpt lat="48.70419" lon="7.32151">
        <ele>472.576416</ele>
        <time>2011-03-12T14:16:26Z</time>
      </trkpt>
      <trkpt lat="48.70411" lon="7.32161">
        <ele>472.474854</ele>
        <time>2011-03-12T14:16:27Z</time>
      </trkpt>
      <trkpt lat="48.70403" lon="7.32168">
        <ele>472.334229</ele>
        <time>2011-03-12T14:16:28Z</time>
      </trkpt>
      <trkpt lat="48.70396" lon="7.32175">
        <ele>471.818604</ele>
        <time>2011-03-12T14:16:29Z</time>
      </trkpt>
      <trkpt lat="48.70388" lon="7.32183">
        <ele>471.631104</ele>
        <time>2011-03-12T14:16:30Z</time>
      </trkpt>
      <trkpt lat="48.70381" lon="7.32189">
        <ele>471.420166</ele>
        <time>2011-03-12T14:16:31Z</time>
      </trkpt>
      <trkpt lat="48.70372" lon="7.32193">
        <ele>471.099854</ele>
        <time>2011-03-12T14:16:32Z</time>
      </trkpt>
      <trkpt lat="48.70363" lon="7.32196">
        <ele>470.771729</ele>
        <time>2011-03-12T14:16:33Z</time>
      </trkpt>
      <trkpt lat="48.70355" lon="7.32201">
        <ele>470.357666</ele>
        <time>2011-03-12T14:16:34Z</time>
      </trkpt>
      <trkpt lat="48.70346" lon="7.32206">
        <ele>470.068604</ele>
        <time>2011-03-12T14:16:35Z</time>
      </trkpt>
      <trkpt lat="48.70338" lon="7.3221">
        <ele>469.701416</ele>
        <time>2011-03-12T14:16:36Z</time>
      </trkpt>
      <trkpt lat="48.7033" lon="7.32215">
        <ele>469.412354</ele>
        <time>2011-03-12T14:16:37Z</time>
      </trkpt>
      <trkpt lat="48.70323" lon="7.32219">
        <ele>469.099854</ele>
        <time>2011-03-12T14:16:38Z</time>
      </trkpt>
      <trkpt lat="48.70317" lon="7.32222">
        <ele>468.482666</ele>
        <time>2011-03-12T14:16:39Z</time>
      </trkpt>
      <trkpt lat="48.7031" lon="7.32225">
        <ele>468.068604</ele>
        <time>2011-03-12T14:16:40Z</time>
      </trkpt>
      <trkpt lat="48.70303" lon="7.32227">
        <ele>467.248291</ele>
        <time>2011-03-12T14:16:41Z</time>
      </trkpt>
      <trkpt lat="48.70295" lon="7.32229">
        <ele>466.506104</ele>
        <time>2011-03-12T14:16:42Z</time>
      </trkpt>
      <trkpt lat="48.70287" lon="7.32231">
        <ele>466.068604</ele>
        <time>2011-03-12T14:16:43Z</time>
      </trkpt>
      <trkpt lat="48.7028" lon="7.32233">
        <ele>465.693604</ele>
        <time>2011-03-12T14:16:44Z</time>
      </trkpt>
      <trkpt lat="48.70272" lon="7.32236">
        <ele>465.240479</ele>
        <time>2011-03-12T14:16:45Z</time>
      </trkpt>
      <trkpt lat="48.70263" lon="7.32241">
        <ele>464.709229</ele>
        <time>2011-03-12T14:16:46Z</time>
      </trkpt>
      <trkpt lat="48.70254" lon="7.32246">
        <ele>464.232666</ele>
        <time>2011-03-12T14:16:47Z</time>
      </trkpt>
      <trkpt lat="48.70242" lon="7.32249">
        <ele>463.701416</ele>
        <time>2011-03-12T14:16:48Z</time>
      </trkpt>
      <trkpt lat="48.7023" lon="7.32253">
        <ele>463.146729</ele>
        <time>2011-03-12T14:16:49Z</time>
      </trkpt>
      <trkpt lat="48.70221" lon="7.32256">
        <ele>462.724854</ele>
        <time>2011-03-12T14:16:50Z</time>
      </trkpt>
      <trkpt lat="48.7021" lon="7.32257">
        <ele>461.529541</ele>
        <time>2011-03-12T14:16:52Z</time>
      </trkpt>
      <trkpt lat="48.702" lon="7.32261">
        <ele>460.842041</ele>
        <time>2011-03-12T14:16:53Z</time>
      </trkpt>
      <trkpt lat="48.7019" lon="7.32266">
        <ele>460.443604</ele>
        <time>2011-03-12T14:16:54Z</time>
      </trkpt>
      <trkpt lat="48.70181" lon="7.3227">
        <ele>459.990479</ele>
        <time>2011-03-12T14:16:55Z</time>
      </trkpt>
      <trkpt lat="48.70171" lon="7.32275">
        <ele>459.545166</ele>
        <time>2011-03-12T14:16:56Z</time>
      </trkpt>
      <trkpt lat="48.70163" lon="7.3228">
        <ele>459.404541</ele>
        <time>2011-03-12T14:16:57Z</time>
      </trkpt>
      <trkpt lat="48.70154" lon="7.32285">
        <ele>459.162354</ele>
        <time>2011-03-12T14:16:58Z</time>
      </trkpt>
      <trkpt lat="48.70147" lon="7.32292">
        <ele>459.076416</ele>
        <time>2011-03-12T14:16:59Z</time>
      </trkpt>
      <trkpt lat="48.7014" lon="7.32297">
        <ele>459.060791</ele>
        <time>2011-03-12T14:17:00Z</time>
      </trkpt>
      <trkpt lat="48.70133" lon="7.32302">
        <ele>459.084229</ele>
        <time>2011-03-12T14:17:01Z</time>
      </trkpt>
      <trkpt lat="48.70127" lon="7.32306">
        <ele>459.177979</ele>
        <time>2011-03-12T14:17:02Z</time>
      </trkpt>
      <trkpt lat="48.70123" lon="7.32312">
        <ele>459.217041</ele>
        <time>2011-03-12T14:17:03Z</time>
      </trkpt>
      <trkpt lat="48.70119" lon="7.32316">
        <ele>459.185791</ele>
        <time>2011-03-12T14:17:04Z</time>
      </trkpt>
      <trkpt lat="48.70113" lon="7.3232">
        <ele>459.029541</ele>
        <time>2011-03-12T14:17:05Z</time>
      </trkpt>
      <trkpt lat="48.70105" lon="7.32328">
        <ele>459.302979</ele>
        <time>2011-03-12T14:17:07Z</time>
      </trkpt>
      <trkpt lat="48.701" lon="7.32335">
        <ele>457.677979</ele>
        <time>2011-03-12T14:17:09Z</time>
      </trkpt>
      <trkpt lat="48.70095" lon="7.3234">
        <ele>457.154541</ele>
        <time>2011-03-12T14:17:10Z</time>
      </trkpt>
      <trkpt lat="48.7009" lon="7.32346">
        <ele>456.748291</ele>
        <time>2011-03-12T14:17:11Z</time>
      </trkpt>
      <trkpt lat="48.70085" lon="7.32351">
        <ele>456.232666</ele>
        <time>2011-03-12T14:17:12Z</time>
      </trkpt>
      <trkpt lat="48.70081" lon="7.32355">
        <ele>455.638916</ele>
        <time>2011-03-12T14:17:13Z</time>
      </trkpt>
      <trkpt lat="48.70075" lon="7.32362">
        <ele>453.177979</ele>
        <time>2011-03-12T14:17:15Z</time>
      </trkpt>
      <trkpt lat="48.70071" lon="7.32368">
        <ele>451.170166</ele>
        <time>2011-03-12T14:17:17Z</time>
      </trkpt>
      <trkpt lat="48.70065" lon="7.32373">
        <ele>449.568604</ele>
        <time>2011-03-12T14:17:19Z</time>
      </trkpt>
      <trkpt lat="48.7006" lon="7.32378">
        <ele>447.732666</ele>
        <time>2011-03-12T14:17:21Z</time>
      </trkpt>
      <trkpt lat="48.70054" lon="7.32383">
        <ele>445.826416</ele>
        <time>2011-03-12T14:17:23Z</time>
      </trkpt>
      <trkpt lat="48.70049" lon="7.32389">
        <ele>443.263916</ele>
        <time>2011-03-12T14:17:25Z</time>
      </trkpt>
      <trkpt lat="48.70042" lon="7.32395">
        <ele>442.740479</ele>
        <time>2011-03-12T14:17:27Z</time>
      </trkpt>
      <trkpt lat="48.70038" lon="7.32399">
        <ele>442.107666</ele>
        <time>2011-03-12T14:17:28Z</time>
      </trkpt>
      <trkpt lat="48.70029" lon="7.32405">
        <ele>441.295166</ele>
        <time>2011-03-12T14:17:30Z</time>
      </trkpt>
      <trkpt lat="48.70024" lon="7.32408">
        <ele>440.818604</ele>
        <time>2011-03-12T14:17:31Z</time>
      </trkpt>
      <trkpt lat="48.7002" lon="7.32412">
        <ele>439.232666</ele>
        <time>2011-03-12T14:17:32Z</time>
      </trkpt>
      <trkpt lat="48.70015" lon="7.32416">
        <ele>438.459229</ele>
        <time>2011-03-12T14:17:33Z</time>
      </trkpt>
      <trkpt lat="48.7001" lon="7.32419">
        <ele>438.185791</ele>
        <time>2011-03-12T14:17:34Z</time>
      </trkpt>
      <trkpt lat="48.70005" lon="7.32422">
        <ele>437.771729</ele>
        <time>2011-03-12T14:17:35Z</time>
      </trkpt>
      <trkpt lat="48.70001" lon="7.32427">
        <ele>436.982666</ele>
        <time>2011-03-12T14:17:36Z</time>
      </trkpt>
      <trkpt lat="48.69996" lon="7.32433">
        <ele>436.326416</ele>
        <time>2011-03-12T14:17:37Z</time>
      </trkpt>
      <trkpt lat="48.6999" lon="7.32437">
        <ele>435.631104</ele>
        <time>2011-03-12T14:17:38Z</time>
      </trkpt>
      <trkpt lat="48.69985" lon="7.32442">
        <ele>434.474854</ele>
        <time>2011-03-12T14:17:39Z</time>
      </trkpt>
      <trkpt lat="48.69981" lon="7.32446">
        <ele>434.021729</ele>
        <time>2011-03-12T14:17:40Z</time>
      </trkpt>
      <trkpt lat="48.69976" lon="7.3245">
        <ele>433.302979</ele>
        <time>2011-03-12T14:17:41Z</time>
      </trkpt>
      <trkpt lat="48.69971" lon="7.32454">
        <ele>432.998291</ele>
        <time>2011-03-12T14:17:42Z</time>
      </trkpt>
      <trkpt lat="48.69968" lon="7.3246">
        <ele>432.365479</ele>
        <time>2011-03-12T14:17:43Z</time>
      </trkpt>
      <trkpt lat="48.69965" lon="7.32465">
        <ele>431.998291</ele>
        <time>2011-03-12T14:17:44Z</time>
      </trkpt>
      <trkpt lat="48.6996" lon="7.32474">
        <ele>431.787354</ele>
        <time>2011-03-12T14:17:46Z</time>
      </trkpt>
      <trkpt lat="48.69955" lon="7.32478">
        <ele>431.670166</ele>
        <time>2011-03-12T14:17:48Z</time>
      </trkpt>
      <trkpt lat="48.69949" lon="7.32485">
        <ele>431.459229</ele>
        <time>2011-03-12T14:17:50Z</time>
      </trkpt>
      <trkpt lat="48.69946" lon="7.3249">
        <ele>431.185791</ele>
        <time>2011-03-12T14:17:52Z</time>
      </trkpt>
      <trkpt lat="48.69941" lon="7.32496">
        <ele>429.513916</ele>
        <time>2011-03-12T14:17:54Z</time>
      </trkpt>
      <trkpt lat="48.69936" lon="7.32499">
        <ele>428.756104</ele>
        <time>2011-03-12T14:17:55Z</time>
      </trkpt>
      <trkpt lat="48.6993" lon="7.32505">
        <ele>427.873291</ele>
        <time>2011-03-12T14:17:57Z</time>
      </trkpt>
      <trkpt lat="48.69926" lon="7.32514">
        <ele>424.467041</ele>
        <time>2011-03-12T14:17:59Z</time>
      </trkpt>
      <trkpt lat="48.69922" lon="7.32516">
        <ele>422.146729</ele>
        <time>2011-03-12T14:18:01Z</time>
      </trkpt>
      <trkpt lat="48.6992" lon="7.32522">
        <ele>419.881104</ele>
        <time>2011-03-12T14:18:29Z</time>
      </trkpt>
      <trkpt lat="48.69915" lon="7.32527">
        <ele>418.998291</ele>
        <time>2011-03-12T14:18:32Z</time>
      </trkpt>
      <trkpt lat="48.6991" lon="7.32533">
        <ele>416.896729</ele>
        <time>2011-03-12T14:18:35Z</time>
      </trkpt>
      <trkpt lat="48.69902" lon="7.32542">
        <ele>415.302979</ele>
        <time>2011-03-12T14:18:37Z</time>
      </trkpt>
      <trkpt lat="48.69898" lon="7.32548">
        <ele>414.896729</ele>
        <time>2011-03-12T14:18:38Z</time>
      </trkpt>
      <trkpt lat="48.69894" lon="7.32554">
        <ele>414.451416</ele>
        <time>2011-03-12T14:18:39Z</time>
      </trkpt>
      <trkpt lat="48.69891" lon="7.3256">
        <ele>413.912354</ele>
        <time>2011-03-12T14:18:40Z</time>
      </trkpt>
      <trkpt lat="48.69886" lon="7.32565">
        <ele>413.623291</ele>
        <time>2011-03-12T14:18:41Z</time>
      </trkpt>
      <trkpt lat="48.69881" lon="7.3257">
        <ele>413.170166</ele>
        <time>2011-03-12T14:18:42Z</time>
      </trkpt>
      <trkpt lat="48.69876" lon="7.32575">
        <ele>412.279541</ele>
        <time>2011-03-12T14:18:43Z</time>
      </trkpt>
      <trkpt lat="48.69872" lon="7.32581">
        <ele>412.052979</ele>
        <time>2011-03-12T14:18:44Z</time>
      </trkpt>
      <trkpt lat="48.69868" lon="7.32586">
        <ele>411.560791</ele>
        <time>2011-03-12T14:18:45Z</time>
      </trkpt>
      <trkpt lat="48.69864" lon="7.3259">
        <ele>410.990479</ele>
        <time>2011-03-12T14:18:46Z</time>
      </trkpt>
      <trkpt lat="48.69859" lon="7.32594">
        <ele>410.881104</ele>
        <time>2011-03-12T14:18:47Z</time>
      </trkpt>
      <trkpt lat="48.69854" lon="7.32597">
        <ele>410.584229</ele>
        <time>2011-03-12T14:18:48Z</time>
      </trkpt>
      <trkpt lat="48.69849" lon="7.32601">
        <ele>410.396729</ele>
        <time>2011-03-12T14:18:49Z</time>
      </trkpt>
      <trkpt lat="48.69844" lon="7.32604">
        <ele>410.068604</ele>
        <time>2011-03-12T14:18:50Z</time>
      </trkpt>
      <trkpt lat="48.69839" lon="7.32607">
        <ele>409.834229</ele>
        <time>2011-03-12T14:18:51Z</time>
      </trkpt>
      <trkpt lat="48.69833" lon="7.3261">
        <ele>409.373291</ele>
        <time>2011-03-12T14:18:52Z</time>
      </trkpt>
      <trkpt lat="48.69829" lon="7.32613">
        <ele>409.084229</ele>
        <time>2011-03-12T14:18:53Z</time>
      </trkpt>
      <trkpt lat="48.6982" lon="7.32619">
        <ele>409.451416</ele>
        <time>2011-03-12T14:18:55Z</time>
      </trkpt>
      <trkpt lat="48.69814" lon="7.32624">
        <ele>408.592041</ele>
        <time>2011-03-12T14:18:57Z</time>
      </trkpt>
      <trkpt lat="48.69808" lon="7.32627">
        <ele>407.388916</ele>
        <time>2011-03-12T14:18:59Z</time>
      </trkpt>
      <trkpt lat="48.69804" lon="7.32631">
        <ele>405.599854</ele>
        <time>2011-03-12T14:19:01Z</time>
      </trkpt>
      <trkpt lat="48.698" lon="7.32634">
        <ele>405.060791</ele>
        <time>2011-03-12T14:19:04Z</time>
      </trkpt>
      <trkpt lat="48.69795" lon="7.32634">
        <ele>404.701416</ele>
        <time>2011-03-12T14:19:07Z</time>
      </trkpt>
      <trkpt lat="48.6979" lon="7.32636">
        <ele>404.326416</ele>
        <time>2011-03-12T14:19:10Z</time>
      </trkpt>
      <trkpt lat="48.69785" lon="7.32638">
        <ele>404.709229</ele>
        <time>2011-03-12T14:19:12Z</time>
      </trkpt>
      <trkpt lat="48.69778" lon="7.3264">
        <ele>404.912354</ele>
        <time>2011-03-12T14:19:14Z</time>
      </trkpt>
      <trkpt lat="48.69769" lon="7.32642">
        <ele>404.623291</ele>
        <time>2011-03-12T14:19:16Z</time>
      </trkpt>
      <trkpt lat="48.69761" lon="7.32647">
        <ele>404.435791</ele>
        <time>2011-03-12T14:19:18Z</time>
      </trkpt>
      <trkpt lat="48.69754" lon="7.3265">
        <ele>402.552979</ele>
        <time>2011-03-12T14:19:20Z</time>
      </trkpt>
      <trkpt lat="48.69751" lon="7.32655">
        <ele>400.670166</ele>
        <time>2011-03-12T14:19:22Z</time>
      </trkpt>
      <trkpt lat="48.69745" lon="7.32655">
        <ele>400.482666</ele>
        <time>2011-03-12T14:19:24Z</time>
      </trkpt>
      <trkpt lat="48.69739" lon="7.32654">
        <ele>400.818604</ele>
        <time>2011-03-12T14:19:26Z</time>
      </trkpt>
      <trkpt lat="48.69732" lon="7.32652">
        <ele>400.576416</ele>
        <time>2011-03-12T14:19:28Z</time>
      </trkpt>
      <trkpt lat="48.69725" lon="7.3265">
        <ele>400.912354</ele>
        <time>2011-03-12T14:19:30Z</time>
      </trkpt>
      <trkpt lat="48.69718" lon="7.32649">
        <ele>400.693604</ele>
        <time>2011-03-12T14:19:32Z</time>
      </trkpt>
      <trkpt lat="48.69711" lon="7.32649">
        <ele>400.420166</ele>
        <time>2011-03-12T14:19:34Z</time>
      </trkpt>
      <trkpt lat="48.69706" lon="7.32649">
        <ele>398.349854</ele>
        <time>2011-03-12T14:19:36Z</time>
      </trkpt>
      <trkpt lat="48.697" lon="7.32651">
        <ele>397.295166</ele>
        <time>2011-03-12T14:19:39Z</time>
      </trkpt>
      <trkpt lat="48.69695" lon="7.32652">
        <ele>397.209229</ele>
        <time>2011-03-12T14:19:41Z</time>
      </trkpt>
      <trkpt lat="48.69689" lon="7.32652">
        <ele>396.482666</ele>
        <time>2011-03-12T14:19:44Z</time>
      </trkpt>
      <trkpt lat="48.69684" lon="7.32652">
        <ele>397.357666</ele>
        <time>2011-03-12T14:19:47Z</time>
      </trkpt>
      <trkpt lat="48.69677" lon="7.3265">
        <ele>396.021729</ele>
        <time>2011-03-12T14:22:02Z</time>
      </trkpt>
      <trkpt lat="48.69672" lon="7.32649">
        <ele>394.357666</ele>
        <time>2011-03-12T14:22:05Z</time>
      </trkpt>
      <trkpt lat="48.69668" lon="7.32648">
        <ele>393.084229</ele>
        <time>2011-03-12T14:22:07Z</time>
      </trkpt>
      <trkpt lat="48.69664" lon="7.32646">
        <ele>391.756104</ele>
        <time>2011-03-12T14:22:09Z</time>
      </trkpt>
      <trkpt lat="48.69659" lon="7.32644">
        <ele>391.287354</ele>
        <time>2011-03-12T14:22:11Z</time>
      </trkpt>
      <trkpt lat="48.69652" lon="7.32641">
        <ele>390.123291</ele>
        <time>2011-03-12T14:22:13Z</time>
      </trkpt>
      <trkpt lat="48.69645" lon="7.32638">
        <ele>389.467041</ele>
        <time>2011-03-12T14:22:15Z</time>
      </trkpt>
      <trkpt lat="48.69637" lon="7.32639">
        <ele>388.334229</ele>
        <time>2011-03-12T14:22:17Z</time>
      </trkpt>
      <trkpt lat="48.69629" lon="7.32641">
        <ele>386.967041</ele>
        <time>2011-03-12T14:22:19Z</time>
      </trkpt>
      <trkpt lat="48.6962" lon="7.32642">
        <ele>386.006104</ele>
        <time>2011-03-12T14:22:21Z</time>
      </trkpt>
      <trkpt lat="48.69616" lon="7.32644">
        <ele>385.107666</ele>
        <time>2011-03-12T14:22:22Z</time>
      </trkpt>
      <trkpt lat="48.69611" lon="7.32645">
        <ele>384.490479</ele>
        <time>2011-03-12T14:22:23Z</time>
      </trkpt>
      <trkpt lat="48.69603" lon="7.32646">
        <ele>384.271729</ele>
        <time>2011-03-12T14:22:25Z</time>
      </trkpt>
      <trkpt lat="48.69595" lon="7.32648">
        <ele>383.115479</ele>
        <time>2011-03-12T14:22:27Z</time>
      </trkpt>
      <trkpt lat="48.69587" lon="7.32648">
        <ele>382.459229</ele>
        <time>2011-03-12T14:22:29Z</time>
      </trkpt>
      <trkpt lat="48.69581" lon="7.3265">
        <ele>381.615479</ele>
        <time>2011-03-12T14:22:31Z</time>
      </trkpt>
      <trkpt lat="48.69574" lon="7.32651">
        <ele>380.732666</ele>
        <time>2011-03-12T14:22:33Z</time>
      </trkpt>
      <trkpt lat="48.69569" lon="7.32653">
        <ele>379.779541</ele>
        <time>2011-03-12T14:22:35Z</time>
      </trkpt>
      <trkpt lat="48.69563" lon="7.32653">
        <ele>379.592041</ele>
        <time>2011-03-12T14:22:37Z</time>
      </trkpt>
      <trkpt lat="48.69557" lon="7.32654">
        <ele>380.334229</ele>
        <time>2011-03-12T14:22:39Z</time>
      </trkpt>
      <trkpt lat="48.69552" lon="7.32656">
        <ele>380.177979</ele>
        <time>2011-03-12T14:22:41Z</time>
      </trkpt>
      <trkpt lat="48.69548" lon="7.32658">
        <ele>380.334229</ele>
        <time>2011-03-12T14:22:43Z</time>
      </trkpt>
      <trkpt lat="48.69543" lon="7.32658">
        <ele>381.209229</ele>
        <time>2011-03-12T14:22:46Z</time>
      </trkpt>
      <trkpt lat="48.69542" lon="7.32652">
        <ele>383.560791</ele>
        <time>2011-03-12T14:22:50Z</time>
      </trkpt>
      <trkpt lat="48.69538" lon="7.32645">
        <ele>383.732666</ele>
        <time>2011-03-12T14:22:53Z</time>
      </trkpt>
      <trkpt lat="48.69533" lon="7.32642">
        <ele>383.912354</ele>
        <time>2011-03-12T14:22:56Z</time>
      </trkpt>
      <trkpt lat="48.69528" lon="7.32641">
        <ele>384.427979</ele>
        <time>2011-03-12T14:22:58Z</time>
      </trkpt>
      <trkpt lat="48.69522" lon="7.32641">
        <ele>384.177979</ele>
        <time>2011-03-12T14:23:01Z</time>
      </trkpt>
      <trkpt lat="48.69517" lon="7.32638">
        <ele>383.006104</ele>
        <time>2011-03-12T14:23:04Z</time>
      </trkpt>
      <trkpt lat="48.69513" lon="7.32633">
        <ele>382.349854</ele>
        <time>2011-03-12T14:23:07Z</time>
      </trkpt>
      <trkpt lat="48.69508" lon="7.3263">
        <ele>382.802979</ele>
        <time>2011-03-12T14:23:09Z</time>
      </trkpt>
      <trkpt lat="48.69502" lon="7.32628">
        <ele>385.584229</ele>
        <time>2011-03-12T14:23:11Z</time>
      </trkpt>
      <trkpt lat="48.69497" lon="7.32626">
        <ele>386.388916</ele>
        <time>2011-03-12T14:23:13Z</time>
      </trkpt>
      <trkpt lat="48.69492" lon="7.32626">
        <ele>386.623291</ele>
        <time>2011-03-12T14:23:15Z</time>
      </trkpt>
      <trkpt lat="48.69486" lon="7.32622">
        <ele>387.029541</ele>
        <time>2011-03-12T14:23:17Z</time>
      </trkpt>
      <trkpt lat="48.69482" lon="7.32618">
        <ele>387.099854</ele>
        <time>2011-03-12T14:23:19Z</time>
      </trkpt>
      <trkpt lat="48.69477" lon="7.32614">
        <ele>386.177979</ele>
        <time>2011-03-12T14:23:23Z</time>
      </trkpt>
      <trkpt lat="48.69472" lon="7.3261">
        <ele>387.217041</ele>
        <time>2011-03-12T14:23:26Z</time>
      </trkpt>
      <trkpt lat="48.69467" lon="7.32607">
        <ele>387.029541</ele>
        <time>2011-03-12T14:23:29Z</time>
      </trkpt>
      <trkpt lat="48.69462" lon="7.32607">
        <ele>387.131104</ele>
        <time>2011-03-12T14:23:31Z</time>
      </trkpt>
      <trkpt lat="48.69457" lon="7.3261">
        <ele>387.138916</ele>
        <time>2011-03-12T14:23:35Z</time>
      </trkpt>
      <trkpt lat="48.69452" lon="7.32611">
        <ele>386.224854</ele>
        <time>2011-03-12T14:23:38Z</time>
      </trkpt>
      <trkpt lat="48.69447" lon="7.3261">
        <ele>386.068604</ele>
        <time>2011-03-12T14:23:42Z</time>
      </trkpt>
      <trkpt lat="48.69442" lon="7.32612">
        <ele>387.240479</ele>
        <time>2011-03-12T14:23:45Z</time>
      </trkpt>
      <trkpt lat="48.69437" lon="7.32614">
        <ele>388.279541</ele>
        <time>2011-03-12T14:23:48Z</time>
      </trkpt>
      <trkpt lat="48.69431" lon="7.32614">
        <ele>388.998291</ele>
        <time>2011-03-12T14:23:51Z</time>
      </trkpt>
      <trkpt lat="48.69427" lon="7.32616">
        <ele>389.498291</ele>
        <time>2011-03-12T14:23:53Z</time>
      </trkpt>
      <trkpt lat="48.69421" lon="7.32616">
        <ele>390.763916</ele>
        <time>2011-03-12T14:23:56Z</time>
      </trkpt>
      <trkpt lat="48.69416" lon="7.32617">
        <ele>392.310791</ele>
        <time>2011-03-12T14:23:59Z</time>
      </trkpt>
      <trkpt lat="48.69411" lon="7.32619">
        <ele>392.842041</ele>
        <time>2011-03-12T14:24:01Z</time>
      </trkpt>
      <trkpt lat="48.69405" lon="7.3262">
        <ele>392.482666</ele>
        <time>2011-03-12T14:24:04Z</time>
      </trkpt>
      <trkpt lat="48.694" lon="7.32619">
        <ele>393.131104</ele>
        <time>2011-03-12T14:24:07Z</time>
      </trkpt>
      <trkpt lat="48.69395" lon="7.32619">
        <ele>393.388916</ele>
        <time>2011-03-12T14:24:10Z</time>
      </trkpt>
      <trkpt lat="48.6939" lon="7.32618">
        <ele>393.756104</ele>
        <time>2011-03-12T14:24:13Z</time>
      </trkpt>
      <trkpt lat="48.69384" lon="7.32619">
        <ele>392.818604</ele>
        <time>2011-03-12T14:24:17Z</time>
      </trkpt>
      <trkpt lat="48.6938" lon="7.32618">
        <ele>393.060791</ele>
        <time>2011-03-12T14:24:20Z</time>
      </trkpt>
      <trkpt lat="48.69375" lon="7.32616">
        <ele>395.248291</ele>
        <time>2011-03-12T14:24:24Z</time>
      </trkpt>
      <trkpt lat="48.6937" lon="7.32615">
        <ele>395.107666</ele>
        <time>2011-03-12T14:24:27Z</time>
      </trkpt>
      <trkpt lat="48.69365" lon="7.32615">
        <ele>397.052979</ele>
        <time>2011-03-12T14:24:30Z</time>
      </trkpt>
      <trkpt lat="48.6936" lon="7.32616">
        <ele>397.701416</ele>
        <time>2011-03-12T14:24:33Z</time>
      </trkpt>
      <trkpt lat="48.69355" lon="7.32614">
        <ele>398.631104</ele>
        <time>2011-03-12T14:24:36Z</time>
      </trkpt>
      <trkpt lat="48.6935" lon="7.32614">
        <ele>398.256104</ele>
        <time>2011-03-12T14:24:40Z</time>
      </trkpt>
      <trkpt lat="48.69344" lon="7.3261">
        <ele>399.623291</ele>
        <time>2011-03-12T14:24:44Z</time>
      </trkpt>
      <trkpt lat="48.6934" lon="7.32609">
        <ele>400.232666</ele>
        <time>2011-03-12T14:24:48Z</time>
      </trkpt>
      <trkpt lat="48.69335" lon="7.32608">
        <ele>400.506104</ele>
        <time>2011-03-12T14:24:51Z</time>
      </trkpt>
      <trkpt lat="48.69331" lon="7.32605">
        <ele>400.763916</ele>
        <time>2011-03-12T14:24:55Z</time>
      </trkpt>
      <trkpt lat="48.69326" lon="7.32602">
        <ele>401.295166</ele>
        <time>2011-03-12T14:24:58Z</time>
      </trkpt>
      <trkpt lat="48.69321" lon="7.32599">
        <ele>401.701416</ele>
        <time>2011-03-12T14:25:01Z</time>
      </trkpt>
      <trkpt lat="48.69317" lon="7.32597">
        <ele>400.529541</ele>
        <time>2011-03-12T14:25:05Z</time>
      </trkpt>
      <trkpt lat="48.69313" lon="7.32593">
        <ele>400.818604</ele>
        <time>2011-03-12T14:25:08Z</time>
      </trkpt>
      <trkpt lat="48.69308" lon="7.32588">
        <ele>401.349854</ele>
        <time>2011-03-12T14:25:13Z</time>
      </trkpt>
      <trkpt lat="48.69305" lon="7.32584">
        <ele>401.967041</ele>
        <time>2011-03-12T14:25:17Z</time>
      </trkpt>
      <trkpt lat="48.69301" lon="7.3258">
        <ele>403.209229</ele>
        <time>2011-03-12T14:25:20Z</time>
      </trkpt>
      <trkpt lat="48.69296" lon="7.32577">
        <ele>404.302979</ele>
        <time>2011-03-12T14:25:23Z</time>
      </trkpt>
      <trkpt lat="48.69292" lon="7.32572">
        <ele>405.818604</ele>
        <time>2011-03-12T14:25:26Z</time>
      </trkpt>
      <trkpt lat="48.69288" lon="7.32566">
        <ele>406.365479</ele>
        <time>2011-03-12T14:25:29Z</time>
      </trkpt>
      <trkpt lat="48.69283" lon="7.32565">
        <ele>406.506104</ele>
        <time>2011-03-12T14:25:33Z</time>
      </trkpt>
      <trkpt lat="48.69277" lon="7.32558">
        <ele>407.568604</ele>
        <time>2011-03-12T14:25:36Z</time>
      </trkpt>
      <trkpt lat="48.69273" lon="7.32554">
        <ele>408.170166</ele>
        <time>2011-03-12T14:25:40Z</time>
      </trkpt>
      <trkpt lat="48.69269" lon="7.32548">
        <ele>407.904541</ele>
        <time>2011-03-12T14:25:46Z</time>
      </trkpt>
      <trkpt lat="48.69265" lon="7.32543">
        <ele>409.170166</ele>
        <time>2011-03-12T14:25:49Z</time>
      </trkpt>
      <trkpt lat="48.69262" lon="7.32536">
        <ele>409.888916</ele>
        <time>2011-03-12T14:26:15Z</time>
      </trkpt>
      <trkpt lat="48.69257" lon="7.3253">
        <ele>410.787354</ele>
        <time>2011-03-12T14:26:18Z</time>
      </trkpt>
      <trkpt lat="48.69253" lon="7.32526">
        <ele>409.717041</ele>
        <time>2011-03-12T14:26:20Z</time>
      </trkpt>
      <trkpt lat="48.69249" lon="7.32523">
        <ele>410.240479</ele>
        <time>2011-03-12T14:26:24Z</time>
      </trkpt>
      <trkpt lat="48.69244" lon="7.32518">
        <ele>410.396729</ele>
        <time>2011-03-12T14:26:28Z</time>
      </trkpt>
      <trkpt lat="48.6924" lon="7.32512">
        <ele>410.935791</ele>
        <time>2011-03-12T14:26:41Z</time>
      </trkpt>
      <trkpt lat="48.69236" lon="7.32507">
        <ele>410.677979</ele>
        <time>2011-03-12T14:26:45Z</time>
      </trkpt>
      <trkpt lat="48.69231" lon="7.325">
        <ele>411.279541</ele>
        <time>2011-03-12T14:26:48Z</time>
      </trkpt>
      <trkpt lat="48.6923" lon="7.32493">
        <ele>412.521729</ele>
        <time>2011-03-12T14:26:51Z</time>
      </trkpt>
      <trkpt lat="48.69225" lon="7.32487">
        <ele>412.927979</ele>
        <time>2011-03-12T14:26:54Z</time>
      </trkpt>
      <trkpt lat="48.69222" lon="7.32482">
        <ele>412.334229</ele>
        <time>2011-03-12T14:26:57Z</time>
      </trkpt>
      <trkpt lat="48.69219" lon="7.32476">
        <ele>413.420166</ele>
        <time>2011-03-12T14:27:00Z</time>
      </trkpt>
      <trkpt lat="48.69215" lon="7.32471">
        <ele>413.904541</ele>
        <time>2011-03-12T14:27:02Z</time>
      </trkpt>
      <trkpt lat="48.69212" lon="7.32466">
        <ele>415.506104</ele>
        <time>2011-03-12T14:27:05Z</time>
      </trkpt>
      <trkpt lat="48.69209" lon="7.3246">
        <ele>415.693604</ele>
        <time>2011-03-12T14:27:07Z</time>
      </trkpt>
      <trkpt lat="48.69206" lon="7.32455">
        <ele>416.709229</ele>
        <time>2011-03-12T14:27:09Z</time>
      </trkpt>
      <trkpt lat="48.69202" lon="7.32448">
        <ele>417.920166</ele>
        <time>2011-03-12T14:27:12Z</time>
      </trkpt>
      <trkpt lat="48.69199" lon="7.32443">
        <ele>418.357666</ele>
        <time>2011-03-12T14:27:14Z</time>
      </trkpt>
      <trkpt lat="48.69196" lon="7.32435">
        <ele>419.654541</ele>
        <time>2011-03-12T14:27:17Z</time>
      </trkpt>
      <trkpt lat="48.69192" lon="7.32428">
        <ele>420.185791</ele>
        <time>2011-03-12T14:27:20Z</time>
      </trkpt>
      <trkpt lat="48.69189" lon="7.32422">
        <ele>420.904541</ele>
        <time>2011-03-12T14:27:22Z</time>
      </trkpt>
      <trkpt lat="48.69185" lon="7.32417">
        <ele>420.701416</ele>
        <time>2011-03-12T14:27:25Z</time>
      </trkpt>
      <trkpt lat="48.69181" lon="7.32413">
        <ele>420.623291</ele>
        <time>2011-03-12T14:27:27Z</time>
      </trkpt>
      <trkpt lat="48.69178" lon="7.32405">
        <ele>419.021729</ele>
        <time>2011-03-12T14:27:29Z</time>
      </trkpt>
      <trkpt lat="48.69174" lon="7.32399">
        <ele>418.607666</ele>
        <time>2011-03-12T14:27:31Z</time>
      </trkpt>
      <trkpt lat="48.69169" lon="7.32394">
        <ele>418.545166</ele>
        <time>2011-03-12T14:27:34Z</time>
      </trkpt>
      <trkpt lat="48.69165" lon="7.32388">
        <ele>419.146729</ele>
        <time>2011-03-12T14:27:36Z</time>
      </trkpt>
      <trkpt lat="48.69162" lon="7.32384">
        <ele>419.162354</ele>
        <time>2011-03-12T14:27:38Z</time>
      </trkpt>
      <trkpt lat="48.69157" lon="7.32379">
        <ele>419.201416</ele>
        <time>2011-03-12T14:27:40Z</time>
      </trkpt>
      <trkpt lat="48.69153" lon="7.32372">
        <ele>419.654541</ele>
        <time>2011-03-12T14:27:43Z</time>
      </trkpt>
      <trkpt lat="48.69146" lon="7.32371">
        <ele>419.959229</ele>
        <time>2011-03-12T14:27:45Z</time>
      </trkpt>
      <trkpt lat="48.69142" lon="7.32368">
        <ele>420.263916</ele>
        <time>2011-03-12T14:27:47Z</time>
      </trkpt>
      <trkpt lat="48.69139" lon="7.32363">
        <ele>421.224854</ele>
        <time>2011-03-12T14:27:49Z</time>
      </trkpt>
      <trkpt lat="48.69134" lon="7.32361">
        <ele>421.842041</ele>
        <time>2011-03-12T14:27:51Z</time>
      </trkpt>
      <trkpt lat="48.69129" lon="7.32359">
        <ele>422.045166</ele>
        <time>2011-03-12T14:27:52Z</time>
      </trkpt>
      <trkpt lat="48.69124" lon="7.32355">
        <ele>422.849854</ele>
        <time>2011-03-12T14:27:54Z</time>
      </trkpt>
      <trkpt lat="48.69119" lon="7.32351">
        <ele>422.513916</ele>
        <time>2011-03-12T14:27:55Z</time>
      </trkpt>
      <trkpt lat="48.69114" lon="7.32345">
        <ele>422.920166</ele>
        <time>2011-03-12T14:27:57Z</time>
      </trkpt>
      <trkpt lat="48.69109" lon="7.32341">
        <ele>424.349854</ele>
        <time>2011-03-12T14:27:59Z</time>
      </trkpt>
      <trkpt lat="48.69102" lon="7.32334">
        <ele>423.677979</ele>
        <time>2011-03-12T14:28:02Z</time>
      </trkpt>
      <trkpt lat="48.69098" lon="7.32329">
        <ele>424.302979</ele>
        <time>2011-03-12T14:28:04Z</time>
      </trkpt>
      <trkpt lat="48.69093" lon="7.32323">
        <ele>424.967041</ele>
        <time>2011-03-12T14:28:06Z</time>
      </trkpt>
      <trkpt lat="48.69089" lon="7.32317">
        <ele>424.334229</ele>
        <time>2011-03-12T14:28:08Z</time>
      </trkpt>
      <trkpt lat="48.69084" lon="7.3231">
        <ele>425.068604</ele>
        <time>2011-03-12T14:28:10Z</time>
      </trkpt>
      <trkpt lat="48.69079" lon="7.32308">
        <ele>426.592041</ele>
        <time>2011-03-12T14:28:12Z</time>
      </trkpt>
      <trkpt lat="48.69074" lon="7.32302">
        <ele>425.052979</ele>
        <time>2011-03-12T14:28:14Z</time>
      </trkpt>
      <trkpt lat="48.69069" lon="7.32297">
        <ele>425.529541</ele>
        <time>2011-03-12T14:28:17Z</time>
      </trkpt>
      <trkpt lat="48.69064" lon="7.32293">
        <ele>425.693604</ele>
        <time>2011-03-12T14:28:20Z</time>
      </trkpt>
      <trkpt lat="48.6906" lon="7.32288">
        <ele>425.763916</ele>
        <time>2011-03-12T14:28:23Z</time>
      </trkpt>
      <trkpt lat="48.69055" lon="7.32285">
        <ele>426.209229</ele>
        <time>2011-03-12T14:28:26Z</time>
      </trkpt>
      <trkpt lat="48.69051" lon="7.32281">
        <ele>428.888916</ele>
        <time>2011-03-12T14:28:29Z</time>
      </trkpt>
      <trkpt lat="48.69046" lon="7.32277">
        <ele>429.787354</ele>
        <time>2011-03-12T14:28:32Z</time>
      </trkpt>
      <trkpt lat="48.69041" lon="7.32276">
        <ele>430.576416</ele>
        <time>2011-03-12T14:28:34Z</time>
      </trkpt>
      <trkpt lat="48.69035" lon="7.32272">
        <ele>430.748291</ele>
        <time>2011-03-12T14:28:37Z</time>
      </trkpt>
      <trkpt lat="48.6903" lon="7.32268">
        <ele>431.248291</ele>
        <time>2011-03-12T14:28:40Z</time>
      </trkpt>
      <trkpt lat="48.69026" lon="7.32263">
        <ele>432.115479</ele>
        <time>2011-03-12T14:28:43Z</time>
      </trkpt>
      <trkpt lat="48.69022" lon="7.32259">
        <ele>432.638916</ele>
        <time>2011-03-12T14:28:46Z</time>
      </trkpt>
      <trkpt lat="48.69018" lon="7.32254">
        <ele>434.052979</ele>
        <time>2011-03-12T14:28:50Z</time>
      </trkpt>
      <trkpt lat="48.69015" lon="7.32249">
        <ele>435.232666</ele>
        <time>2011-03-12T14:28:54Z</time>
      </trkpt>
      <trkpt lat="48.69012" lon="7.32243">
        <ele>435.287354</ele>
        <time>2011-03-12T14:28:57Z</time>
      </trkpt>
      <trkpt lat="48.69002" lon="7.32243">
        <ele>435.990479</ele>
        <time>2011-03-12T14:29:00Z</time>
      </trkpt>
      <trkpt lat="48.68997" lon="7.32238">
        <ele>436.717041</ele>
        <time>2011-03-12T14:29:02Z</time>
      </trkpt>
      <trkpt lat="48.68995" lon="7.32232">
        <ele>438.662354</ele>
        <time>2011-03-12T14:29:05Z</time>
      </trkpt>
      <trkpt lat="48.68991" lon="7.32228">
        <ele>440.427979</ele>
        <time>2011-03-12T14:29:08Z</time>
      </trkpt>
      <trkpt lat="48.68986" lon="7.32225">
        <ele>440.638916</ele>
        <time>2011-03-12T14:29:10Z</time>
      </trkpt>
      <trkpt lat="48.68983" lon="7.32219">
        <ele>440.224854</ele>
        <time>2011-03-12T14:29:13Z</time>
      </trkpt>
      <trkpt lat="48.68979" lon="7.32215">
        <ele>438.873291</ele>
        <time>2011-03-12T14:29:15Z</time>
      </trkpt>
      <trkpt lat="48.68977" lon="7.32209">
        <ele>437.357666</ele>
        <time>2011-03-12T14:29:17Z</time>
      </trkpt>
      <trkpt lat="48.68973" lon="7.32203">
        <ele>437.693604</ele>
        <time>2011-03-12T14:29:21Z</time>
      </trkpt>
      <trkpt lat="48.68971" lon="7.32197">
        <ele>436.974854</ele>
        <time>2011-03-12T14:29:23Z</time>
      </trkpt>
      <trkpt lat="48.6897" lon="7.32191">
        <ele>437.092041</ele>
        <time>2011-03-12T14:29:26Z</time>
      </trkpt>
      <trkpt lat="48.68966" lon="7.32184">
        <ele>437.201416</ele>
        <time>2011-03-12T14:29:29Z</time>
      </trkpt>
      <trkpt lat="48.68962" lon="7.32178">
        <ele>438.162354</ele>
        <time>2011-03-12T14:29:32Z</time>
      </trkpt>
      <trkpt lat="48.68956" lon="7.32174">
        <ele>439.935791</ele>
        <time>2011-03-12T14:29:35Z</time>
      </trkpt>
      <trkpt lat="48.68953" lon="7.3217">
        <ele>441.521729</ele>
        <time>2011-03-12T14:29:38Z</time>
      </trkpt>
      <trkpt lat="48.68949" lon="7.32171">
        <ele>441.904541</ele>
        <time>2011-03-12T14:29:39Z</time>
      </trkpt>
      <trkpt lat="48.68943" lon="7.32169">
        <ele>441.342041</ele>
        <time>2011-03-12T14:29:41Z</time>
      </trkpt>
      <trkpt lat="48.68938" lon="7.32167">
        <ele>442.459229</ele>
        <time>2011-03-12T14:29:44Z</time>
      </trkpt>
      <trkpt lat="48.68934" lon="7.32162">
        <ele>442.748291</ele>
        <time>2011-03-12T14:29:47Z</time>
      </trkpt>
      <trkpt lat="48.6893" lon="7.32157">
        <ele>442.107666</ele>
        <time>2011-03-12T14:29:49Z</time>
      </trkpt>
      <trkpt lat="48.68926" lon="7.32152">
        <ele>442.998291</ele>
        <time>2011-03-12T14:29:52Z</time>
      </trkpt>
      <trkpt lat="48.68921" lon="7.3215">
        <ele>444.185791</ele>
        <time>2011-03-12T14:29:55Z</time>
      </trkpt>
      <trkpt lat="48.68919" lon="7.32141">
        <ele>443.654541</ele>
        <time>2011-03-12T14:29:58Z</time>
      </trkpt>
      <trkpt lat="48.68914" lon="7.32137">
        <ele>443.927979</ele>
        <time>2011-03-12T14:30:01Z</time>
      </trkpt>
      <trkpt lat="48.68911" lon="7.32132">
        <ele>444.857666</ele>
        <time>2011-03-12T14:30:04Z</time>
      </trkpt>
      <trkpt lat="48.68906" lon="7.32127">
        <ele>444.873291</ele>
        <time>2011-03-12T14:30:08Z</time>
      </trkpt>
      <trkpt lat="48.68903" lon="7.32122">
        <ele>445.162354</ele>
        <time>2011-03-12T14:30:11Z</time>
      </trkpt>
      <trkpt lat="48.68898" lon="7.32118">
        <ele>445.459229</ele>
        <time>2011-03-12T14:30:14Z</time>
      </trkpt>
      <trkpt lat="48.68897" lon="7.32111">
        <ele>447.170166</ele>
        <time>2011-03-12T14:30:17Z</time>
      </trkpt>
      <trkpt lat="48.68892" lon="7.32107">
        <ele>448.435791</ele>
        <time>2011-03-12T14:30:20Z</time>
      </trkpt>
      <trkpt lat="48.68887" lon="7.32104">
        <ele>448.982666</ele>
        <time>2011-03-12T14:30:22Z</time>
      </trkpt>
      <trkpt lat="48.68883" lon="7.321">
        <ele>448.787354</ele>
        <time>2011-03-12T14:30:25Z</time>
      </trkpt>
      <trkpt lat="48.68878" lon="7.32096">
        <ele>450.099854</ele>
        <time>2011-03-12T14:30:29Z</time>
      </trkpt>
      <trkpt lat="48.68874" lon="7.32092">
        <ele>450.677979</ele>
        <time>2011-03-12T14:30:31Z</time>
      </trkpt>
      <trkpt lat="48.68871" lon="7.32087">
        <ele>451.349854</ele>
        <time>2011-03-12T14:30:34Z</time>
      </trkpt>
      <trkpt lat="48.68868" lon="7.3208">
        <ele>451.717041</ele>
        <time>2011-03-12T14:30:36Z</time>
      </trkpt>
      <trkpt lat="48.68867" lon="7.32068">
        <ele>450.802979</ele>
        <time>2011-03-12T14:30:38Z</time>
      </trkpt>
      <trkpt lat="48.68861" lon="7.32063">
        <ele>450.865479</ele>
        <time>2011-03-12T14:30:40Z</time>
      </trkpt>
      <trkpt lat="48.68857" lon="7.32057">
        <ele>450.795166</ele>
        <time>2011-03-12T14:30:43Z</time>
      </trkpt>
      <trkpt lat="48.68853" lon="7.32052">
        <ele>449.802979</ele>
        <time>2011-03-12T14:30:46Z</time>
      </trkpt>
      <trkpt lat="48.68849" lon="7.32047">
        <ele>450.209229</ele>
        <time>2011-03-12T14:30:49Z</time>
      </trkpt>
      <trkpt lat="48.68845" lon="7.32043">
        <ele>450.068604</ele>
        <time>2011-03-12T14:30:52Z</time>
      </trkpt>
      <trkpt lat="48.68841" lon="7.32036">
        <ele>451.201416</ele>
        <time>2011-03-12T14:30:56Z</time>
      </trkpt>
      <trkpt lat="48.68837" lon="7.3203">
        <ele>451.740479</ele>
        <time>2011-03-12T14:30:59Z</time>
      </trkpt>
      <trkpt lat="48.68834" lon="7.32024">
        <ele>451.521729</ele>
        <time>2011-03-12T14:31:02Z</time>
      </trkpt>
      <trkpt lat="48.68831" lon="7.32017">
        <ele>450.779541</ele>
        <time>2011-03-12T14:31:05Z</time>
      </trkpt>
      <trkpt lat="48.68829" lon="7.3201">
        <ele>450.857666</ele>
        <time>2011-03-12T14:31:08Z</time>
      </trkpt>
      <trkpt lat="48.68825" lon="7.32003">
        <ele>450.099854</ele>
        <time>2011-03-12T14:31:10Z</time>
      </trkpt>
      <trkpt lat="48.68822" lon="7.31997">
        <ele>450.029541</ele>
        <time>2011-03-12T14:31:13Z</time>
      </trkpt>
      <trkpt lat="48.68818" lon="7.31989">
        <ele>449.982666</ele>
        <time>2011-03-12T14:31:16Z</time>
      </trkpt>
      <trkpt lat="48.68814" lon="7.31987">
        <ele>450.193604</ele>
        <time>2011-03-12T14:31:18Z</time>
      </trkpt>
      <trkpt lat="48.6881" lon="7.31981">
        <ele>451.138916</ele>
        <time>2011-03-12T14:31:21Z</time>
      </trkpt>
      <trkpt lat="48.68806" lon="7.31975">
        <ele>451.076416</ele>
        <time>2011-03-12T14:31:24Z</time>
      </trkpt>
      <trkpt lat="48.68803" lon="7.31967">
        <ele>448.849854</ele>
        <time>2011-03-12T14:31:27Z</time>
      </trkpt>
      <trkpt lat="48.688" lon="7.31959">
        <ele>449.756104</ele>
        <time>2011-03-12T14:31:31Z</time>
      </trkpt>
      <trkpt lat="48.68796" lon="7.31954">
        <ele>449.615479</ele>
        <time>2011-03-12T14:33:25Z</time>
      </trkpt>
      <trkpt lat="48.68792" lon="7.31949">
        <ele>449.748291</ele>
        <time>2011-03-12T14:33:27Z</time>
      </trkpt>
      <trkpt lat="48.68787" lon="7.31944">
        <ele>450.584229</ele>
        <time>2011-03-12T14:33:30Z</time>
      </trkpt>
      <trkpt lat="48.68783" lon="7.31937">
        <ele>450.638916</ele>
        <time>2011-03-12T14:33:32Z</time>
      </trkpt>
      <trkpt lat="48.6878" lon="7.31931">
        <ele>451.763916</ele>
        <time>2011-03-12T14:33:35Z</time>
      </trkpt>
      <trkpt lat="48.68776" lon="7.31925">
        <ele>452.404541</ele>
        <time>2011-03-12T14:33:37Z</time>
      </trkpt>
      <trkpt lat="48.68772" lon="7.3192">
        <ele>451.185791</ele>
        <time>2011-03-12T14:33:39Z</time>
      </trkpt>
      <trkpt lat="48.68767" lon="7.31917">
        <ele>450.646729</ele>
        <time>2011-03-12T14:33:41Z</time>
      </trkpt>
      <trkpt lat="48.68763" lon="7.31912">
        <ele>450.256104</ele>
        <time>2011-03-12T14:33:43Z</time>
      </trkpt>
      <trkpt lat="48.6876" lon="7.31906">
        <ele>450.927979</ele>
        <time>2011-03-12T14:33:45Z</time>
      </trkpt>
      <trkpt lat="48.68758" lon="7.31898">
        <ele>451.677979</ele>
        <time>2011-03-12T14:33:48Z</time>
      </trkpt>
      <trkpt lat="48.68755" lon="7.31892">
        <ele>452.279541</ele>
        <time>2011-03-12T14:33:50Z</time>
      </trkpt>
      <trkpt lat="48.68751" lon="7.31888">
        <ele>453.131104</ele>
        <time>2011-03-12T14:33:52Z</time>
      </trkpt>
      <trkpt lat="48.6875" lon="7.3188">
        <ele>453.513916</ele>
        <time>2011-03-12T14:33:55Z</time>
      </trkpt>
      <trkpt lat="48.68747" lon="7.31876">
        <ele>455.006104</ele>
        <time>2011-03-12T14:33:57Z</time>
      </trkpt>
      <trkpt lat="48.68743" lon="7.31869">
        <ele>456.357666</ele>
        <time>2011-03-12T14:34:00Z</time>
      </trkpt>
      <trkpt lat="48.68743" lon="7.31863">
        <ele>458.451416</ele>
        <time>2011-03-12T14:34:03Z</time>
      </trkpt>
      <trkpt lat="48.68739" lon="7.31858">
        <ele>459.748291</ele>
        <time>2011-03-12T14:34:05Z</time>
      </trkpt>
      <trkpt lat="48.68735" lon="7.31854">
        <ele>460.381104</ele>
        <time>2011-03-12T14:34:07Z</time>
      </trkpt>
      <trkpt lat="48.68731" lon="7.31843">
        <ele>461.310791</ele>
        <time>2011-03-12T14:34:10Z</time>
      </trkpt>
      <trkpt lat="48.68728" lon="7.31834">
        <ele>461.451416</ele>
        <time>2011-03-12T14:34:12Z</time>
      </trkpt>
      <trkpt lat="48.68726" lon="7.31827">
        <ele>461.888916</ele>
        <time>2011-03-12T14:34:14Z</time>
      </trkpt>
      <trkpt lat="48.68722" lon="7.31819">
        <ele>460.513916</ele>
        <time>2011-03-12T14:34:17Z</time>
      </trkpt>
      <trkpt lat="48.68718" lon="7.31813">
        <ele>459.592041</ele>
        <time>2011-03-12T14:34:20Z</time>
      </trkpt>
      <trkpt lat="48.68713" lon="7.31812">
        <ele>457.131104</ele>
        <time>2011-03-12T14:34:24Z</time>
      </trkpt>
      <trkpt lat="48.6871" lon="7.31805">
        <ele>457.967041</ele>
        <time>2011-03-12T14:34:40Z</time>
      </trkpt>
      <trkpt lat="48.68709" lon="7.31795">
        <ele>457.123291</ele>
        <time>2011-03-12T14:34:43Z</time>
      </trkpt>
      <trkpt lat="48.68707" lon="7.31789">
        <ele>457.982666</ele>
        <time>2011-03-12T14:34:45Z</time>
      </trkpt>
      <trkpt lat="48.68704" lon="7.31781">
        <ele>458.490479</ele>
        <time>2011-03-12T14:34:48Z</time>
      </trkpt>
      <trkpt lat="48.68704" lon="7.31773">
        <ele>458.310791</ele>
        <time>2011-03-12T14:34:50Z</time>
      </trkpt>
      <trkpt lat="48.68702" lon="7.31767">
        <ele>458.006104</ele>
        <time>2011-03-12T14:34:52Z</time>
      </trkpt>
      <trkpt lat="48.68699" lon="7.31761">
        <ele>456.842041</ele>
        <time>2011-03-12T14:34:54Z</time>
      </trkpt>
      <trkpt lat="48.68697" lon="7.31754">
        <ele>455.435791</ele>
        <time>2011-03-12T14:34:56Z</time>
      </trkpt>
      <trkpt lat="48.68692" lon="7.31746">
        <ele>455.771729</ele>
        <time>2011-03-12T14:34:59Z</time>
      </trkpt>
      <trkpt lat="48.6869" lon="7.31738">
        <ele>455.693604</ele>
        <time>2011-03-12T14:35:01Z</time>
      </trkpt>
      <trkpt lat="48.68687" lon="7.3173">
        <ele>456.865479</ele>
        <time>2011-03-12T14:35:03Z</time>
      </trkpt>
      <trkpt lat="48.68684" lon="7.31723">
        <ele>458.412354</ele>
        <time>2011-03-12T14:35:05Z</time>
      </trkpt>
      <trkpt lat="48.68683" lon="7.31716">
        <ele>459.279541</ele>
        <time>2011-03-12T14:35:07Z</time>
      </trkpt>
      <trkpt lat="48.68681" lon="7.3171">
        <ele>459.763916</ele>
        <time>2011-03-12T14:35:09Z</time>
      </trkpt>
      <trkpt lat="48.68679" lon="7.317">
        <ele>461.732666</ele>
        <time>2011-03-12T14:35:12Z</time>
      </trkpt>
      <trkpt lat="48.68677" lon="7.31693">
        <ele>462.545166</ele>
        <time>2011-03-12T14:35:14Z</time>
      </trkpt>
      <trkpt lat="48.68675" lon="7.31685">
        <ele>462.646729</ele>
        <time>2011-03-12T14:35:17Z</time>
      </trkpt>
      <trkpt lat="48.68673" lon="7.31678">
        <ele>463.373291</ele>
        <time>2011-03-12T14:35:20Z</time>
      </trkpt>
      <trkpt lat="48.68668" lon="7.31675">
        <ele>465.701416</ele>
        <time>2011-03-12T14:35:23Z</time>
      </trkpt>
      <trkpt lat="48.68663" lon="7.31673">
        <ele>466.513916</ele>
        <time>2011-03-12T14:35:25Z</time>
      </trkpt>
      <trkpt lat="48.68659" lon="7.31668">
        <ele>467.240479</ele>
        <time>2011-03-12T14:35:27Z</time>
      </trkpt>
      <trkpt lat="48.68655" lon="7.31663">
        <ele>466.912354</ele>
        <time>2011-03-12T14:35:29Z</time>
      </trkpt>
      <trkpt lat="48.68651" lon="7.31658">
        <ele>467.115479</ele>
        <time>2011-03-12T14:35:31Z</time>
      </trkpt>
      <trkpt lat="48.68648" lon="7.3165">
        <ele>465.154541</ele>
        <time>2011-03-12T14:35:33Z</time>
      </trkpt>
      <trkpt lat="48.68645" lon="7.31645">
        <ele>463.271729</ele>
        <time>2011-03-12T14:35:35Z</time>
      </trkpt>
      <trkpt lat="48.68642" lon="7.31637">
        <ele>462.013916</ele>
        <time>2011-03-12T14:35:38Z</time>
      </trkpt>
      <trkpt lat="48.68638" lon="7.31632">
        <ele>460.826416</ele>
        <time>2011-03-12T14:35:41Z</time>
      </trkpt>
      <trkpt lat="48.68636" lon="7.31625">
        <ele>460.107666</ele>
        <time>2011-03-12T14:35:44Z</time>
      </trkpt>
      <trkpt lat="48.68636" lon="7.31617">
        <ele>461.974854</ele>
        <time>2011-03-12T14:35:47Z</time>
      </trkpt>
      <trkpt lat="48.68635" lon="7.31609">
        <ele>462.474854</ele>
        <time>2011-03-12T14:35:51Z</time>
      </trkpt>
      <trkpt lat="48.68634" lon="7.31601">
        <ele>462.646729</ele>
        <time>2011-03-12T14:35:54Z</time>
      </trkpt>
      <trkpt lat="48.68632" lon="7.31594">
        <ele>463.092041</ele>
        <time>2011-03-12T14:35:57Z</time>
      </trkpt>
      <trkpt lat="48.6863" lon="7.31587">
        <ele>463.529541</ele>
        <time>2011-03-12T14:36:01Z</time>
      </trkpt>
      <trkpt lat="48.68625" lon="7.31584">
        <ele>463.834229</ele>
        <time>2011-03-12T14:36:05Z</time>
      </trkpt>
      <trkpt lat="48.68619" lon="7.31582">
        <ele>464.123291</ele>
        <time>2011-03-12T14:36:07Z</time>
      </trkpt>
      <trkpt lat="48.68615" lon="7.3158">
        <ele>463.881104</ele>
        <time>2011-03-12T14:36:14Z</time>
      </trkpt>
      <trkpt lat="48.68611" lon="7.31575">
        <ele>463.498291</ele>
        <time>2011-03-12T14:36:18Z</time>
      </trkpt>
      <trkpt lat="48.68614" lon="7.31571">
        <ele>460.045166</ele>
        <time>2011-03-12T14:36:52Z</time>
      </trkpt>
      <trkpt lat="48.68618" lon="7.31574">
        <ele>460.881104</ele>
        <time>2011-03-12T14:37:11Z</time>
      </trkpt>
      <trkpt lat="48.68615" lon="7.31577">
        <ele>464.740479</ele>
        <time>2011-03-12T14:37:48Z</time>
      </trkpt>
      <trkpt lat="48.68616" lon="7.31574">
        <ele>460.381104</ele>
        <time>2011-03-12T14:42:10Z</time>
      </trkpt>
      <trkpt lat="48.68611" lon="7.31572">
        <ele>460.552979</ele>
        <time>2011-03-12T14:42:27Z</time>
      </trkpt>
      <trkpt lat="48.68615" lon="7.31571">
        <ele>462.982666</ele>
        <time>2011-03-12T14:42:52Z</time>
      </trkpt>
      <trkpt lat="48.68613" lon="7.31577">
        <ele>462.521729</ele>
        <time>2011-03-12T14:44:41Z</time>
      </trkpt>
      <trkpt lat="48.68611" lon="7.31583">
        <ele>462.834229</ele>
        <time>2011-03-12T14:44:56Z</time>
      </trkpt>
      <trkpt lat="48.68613" lon="7.31577">
        <ele>461.459229</ele>
        <time>2011-03-12T14:45:10Z</time>
      </trkpt>
      <trkpt lat="48.68609" lon="7.31575">
        <ele>460.334229</ele>
        <time>2011-03-12T14:46:50Z</time>
      </trkpt>
      <trkpt lat="48.68606" lon="7.31571">
        <ele>463.623291</ele>
        <time>2011-03-12T14:48:55Z</time>
      </trkpt>
      <trkpt lat="48.68604" lon="7.31566">
        <ele>465.662354</ele>
        <time>2011-03-12T14:50:38Z</time>
      </trkpt>
      <trkpt lat="48.68602" lon="7.3156">
        <ele>468.560791</ele>
        <time>2011-03-12T14:50:59Z</time>
      </trkpt>
      <trkpt lat="48.68598" lon="7.31556">
        <ele>466.724854</ele>
        <time>2011-03-12T14:51:33Z</time>
      </trkpt>
      <trkpt lat="48.68593" lon="7.31554">
        <ele>466.951416</ele>
        <time>2011-03-12T14:51:39Z</time>
      </trkpt>
      <trkpt lat="48.68589" lon="7.31555">
        <ele>465.638916</ele>
        <time>2011-03-12T14:51:49Z</time>
      </trkpt>
      <trkpt lat="48.68584" lon="7.31551">
        <ele>465.670166</ele>
        <time>2011-03-12T14:52:05Z</time>
      </trkpt>
      <trkpt lat="48.68578" lon="7.31549">
        <ele>464.248291</ele>
        <time>2011-03-12T14:52:28Z</time>
      </trkpt>
      <trkpt lat="48.68573" lon="7.31547">
        <ele>463.834229</ele>
        <time>2011-03-12T14:52:31Z</time>
      </trkpt>
      <trkpt lat="48.68568" lon="7.31546">
        <ele>464.013916</ele>
        <time>2011-03-12T14:52:33Z</time>
      </trkpt>
      <trkpt lat="48.68562" lon="7.31543">
        <ele>464.162354</ele>
        <time>2011-03-12T14:52:36Z</time>
      </trkpt>
      <trkpt lat="48.68557" lon="7.31542">
        <ele>464.810791</ele>
        <time>2011-03-12T14:52:38Z</time>
      </trkpt>
      <trkpt lat="48.68552" lon="7.31542">
        <ele>465.513916</ele>
        <time>2011-03-12T14:52:40Z</time>
      </trkpt>
      <trkpt lat="48.68547" lon="7.3154">
        <ele>466.092041</ele>
        <time>2011-03-12T14:52:42Z</time>
      </trkpt>
      <trkpt lat="48.68541" lon="7.31537">
        <ele>465.631104</ele>
        <time>2011-03-12T14:52:44Z</time>
      </trkpt>
      <trkpt lat="48.68535" lon="7.31535">
        <ele>465.982666</ele>
        <time>2011-03-12T14:52:46Z</time>
      </trkpt>
      <trkpt lat="48.6853" lon="7.31533">
        <ele>466.381104</ele>
        <time>2011-03-12T14:52:48Z</time>
      </trkpt>
      <trkpt lat="48.68525" lon="7.31531">
        <ele>466.881104</ele>
        <time>2011-03-12T14:52:50Z</time>
      </trkpt>
      <trkpt lat="48.6852" lon="7.31529">
        <ele>468.099854</ele>
        <time>2011-03-12T14:52:52Z</time>
      </trkpt>
      <trkpt lat="48.68515" lon="7.31527">
        <ele>467.381104</ele>
        <time>2011-03-12T14:52:54Z</time>
      </trkpt>
      <trkpt lat="48.68509" lon="7.31526">
        <ele>467.685791</ele>
        <time>2011-03-12T14:52:56Z</time>
      </trkpt>
      <trkpt lat="48.68504" lon="7.31524">
        <ele>467.584229</ele>
        <time>2011-03-12T14:52:58Z</time>
      </trkpt>
      <trkpt lat="48.68498" lon="7.31521">
        <ele>467.904541</ele>
        <time>2011-03-12T14:53:00Z</time>
      </trkpt>
      <trkpt lat="48.68493" lon="7.31519">
        <ele>467.826416</ele>
        <time>2011-03-12T14:53:02Z</time>
      </trkpt>
      <trkpt lat="48.68488" lon="7.3152">
        <ele>468.060791</ele>
        <time>2011-03-12T14:53:04Z</time>
      </trkpt>
      <trkpt lat="48.68483" lon="7.31521">
        <ele>468.263916</ele>
        <time>2011-03-12T14:53:06Z</time>
      </trkpt>
      <trkpt lat="48.68479" lon="7.31521">
        <ele>468.123291</ele>
        <time>2011-03-12T14:53:08Z</time>
      </trkpt>
      <trkpt lat="48.68474" lon="7.31523">
        <ele>467.896729</ele>
        <time>2011-03-12T14:53:10Z</time>
      </trkpt>
      <trkpt lat="48.68469" lon="7.31521">
        <ele>468.537354</ele>
        <time>2011-03-12T14:53:12Z</time>
      </trkpt>
      <trkpt lat="48.68464" lon="7.31519">
        <ele>468.802979</ele>
        <time>2011-03-12T14:53:14Z</time>
      </trkpt>
      <trkpt lat="48.6846" lon="7.31516">
        <ele>469.443604</ele>
        <time>2011-03-12T14:53:16Z</time>
      </trkpt>
      <trkpt lat="48.68456" lon="7.31514">
        <ele>470.076416</ele>
        <time>2011-03-12T14:53:18Z</time>
      </trkpt>
      <trkpt lat="48.68451" lon="7.3151">
        <ele>470.779541</ele>
        <time>2011-03-12T14:53:20Z</time>
      </trkpt>
      <trkpt lat="48.68446" lon="7.31504">
        <ele>472.435791</ele>
        <time>2011-03-12T14:53:23Z</time>
      </trkpt>
      <trkpt lat="48.68442" lon="7.315">
        <ele>473.763916</ele>
        <time>2011-03-12T14:53:25Z</time>
      </trkpt>
      <trkpt lat="48.68437" lon="7.31496">
        <ele>475.951416</ele>
        <time>2011-03-12T14:53:28Z</time>
      </trkpt>
      <trkpt lat="48.68431" lon="7.31492">
        <ele>476.982666</ele>
        <time>2011-03-12T14:53:31Z</time>
      </trkpt>
      <trkpt lat="48.68424" lon="7.31488">
        <ele>478.381104</ele>
        <time>2011-03-12T14:53:34Z</time>
      </trkpt>
      <trkpt lat="48.68419" lon="7.31486">
        <ele>479.310791</ele>
        <time>2011-03-12T14:53:36Z</time>
      </trkpt>
      <trkpt lat="48.68414" lon="7.31482">
        <ele>480.982666</ele>
        <time>2011-03-12T14:53:38Z</time>
      </trkpt>
      <trkpt lat="48.68411" lon="7.31479">
        <ele>482.638916</ele>
        <time>2011-03-12T14:53:40Z</time>
      </trkpt>
      <trkpt lat="48.68407" lon="7.31474">
        <ele>484.099854</ele>
        <time>2011-03-12T14:53:43Z</time>
      </trkpt>
      <trkpt lat="48.68404" lon="7.31469">
        <ele>486.263916</ele>
        <time>2011-03-12T14:53:46Z</time>
      </trkpt>
      <trkpt lat="48.68399" lon="7.31465">
        <ele>487.162354</ele>
        <time>2011-03-12T14:53:48Z</time>
      </trkpt>
      <trkpt lat="48.68395" lon="7.31459">
        <ele>488.021729</ele>
        <time>2011-03-12T14:53:50Z</time>
      </trkpt>
      <trkpt lat="48.68388" lon="7.31454">
        <ele>489.006104</ele>
        <time>2011-03-12T14:53:53Z</time>
      </trkpt>
      <trkpt lat="48.68385" lon="7.31451">
        <ele>489.076416</ele>
        <time>2011-03-12T14:53:54Z</time>
      </trkpt>
      <trkpt lat="48.68377" lon="7.31447">
        <ele>489.842041</ele>
        <time>2011-03-12T14:53:56Z</time>
      </trkpt>
      <trkpt lat="48.6837" lon="7.31445">
        <ele>490.677979</ele>
        <time>2011-03-12T14:53:58Z</time>
      </trkpt>
      <trkpt lat="48.68366" lon="7.31441">
        <ele>491.631104</ele>
        <time>2011-03-12T14:54:00Z</time>
      </trkpt>
      <trkpt lat="48.68361" lon="7.31438">
        <ele>491.404541</ele>
        <time>2011-03-12T14:54:02Z</time>
      </trkpt>
      <trkpt lat="48.68358" lon="7.31431">
        <ele>492.982666</ele>
        <time>2011-03-12T14:54:05Z</time>
      </trkpt>
      <trkpt lat="48.68354" lon="7.31426">
        <ele>493.256104</ele>
        <time>2011-03-12T14:54:07Z</time>
      </trkpt>
      <trkpt lat="48.68349" lon="7.31421">
        <ele>493.990479</ele>
        <time>2011-03-12T14:54:09Z</time>
      </trkpt>
      <trkpt lat="48.68345" lon="7.31416">
        <ele>495.138916</ele>
        <time>2011-03-12T14:54:11Z</time>
      </trkpt>
      <trkpt lat="48.6834" lon="7.31411">
        <ele>496.717041</ele>
        <time>2011-03-12T14:54:13Z</time>
      </trkpt>
      <trkpt lat="48.68336" lon="7.31407">
        <ele>497.224854</ele>
        <time>2011-03-12T14:54:15Z</time>
      </trkpt>
      <trkpt lat="48.68331" lon="7.31404">
        <ele>498.068604</ele>
        <time>2011-03-12T14:54:17Z</time>
      </trkpt>
      <trkpt lat="48.68326" lon="7.31402">
        <ele>498.029541</ele>
        <time>2011-03-12T14:54:20Z</time>
      </trkpt>
      <trkpt lat="48.68317" lon="7.31395">
        <ele>495.724854</ele>
        <time>2011-03-12T14:54:22Z</time>
      </trkpt>
      <trkpt lat="48.68314" lon="7.31388">
        <ele>497.170166</ele>
        <time>2011-03-12T14:54:24Z</time>
      </trkpt>
      <trkpt lat="48.6831" lon="7.31383">
        <ele>496.076416</ele>
        <time>2011-03-12T14:54:26Z</time>
      </trkpt>
      <trkpt lat="48.68306" lon="7.31375">
        <ele>494.920166</ele>
        <time>2011-03-12T14:54:29Z</time>
      </trkpt>
      <trkpt lat="48.68301" lon="7.31367">
        <ele>496.107666</ele>
        <time>2011-03-12T14:54:32Z</time>
      </trkpt>
      <trkpt lat="48.68295" lon="7.31363">
        <ele>494.342041</ele>
        <time>2011-03-12T14:54:34Z</time>
      </trkpt>
      <trkpt lat="48.6829" lon="7.31361">
        <ele>492.670166</ele>
        <time>2011-03-12T14:54:36Z</time>
      </trkpt>
      <trkpt lat="48.68284" lon="7.31358">
        <ele>491.029541</ele>
        <time>2011-03-12T14:54:38Z</time>
      </trkpt>
      <trkpt lat="48.6828" lon="7.31353">
        <ele>489.521729</ele>
        <time>2011-03-12T14:54:40Z</time>
      </trkpt>
      <trkpt lat="48.68274" lon="7.31348">
        <ele>487.381104</ele>
        <time>2011-03-12T14:54:42Z</time>
      </trkpt>
      <trkpt lat="48.68269" lon="7.31345">
        <ele>486.287354</ele>
        <time>2011-03-12T14:54:44Z</time>
      </trkpt>
      <trkpt lat="48.68264" lon="7.31341">
        <ele>485.123291</ele>
        <time>2011-03-12T14:54:46Z</time>
      </trkpt>
      <trkpt lat="48.68259" lon="7.31336">
        <ele>484.099854</ele>
        <time>2011-03-12T14:54:49Z</time>
      </trkpt>
      <trkpt lat="48.68255" lon="7.31331">
        <ele>482.709229</ele>
        <time>2011-03-12T14:54:52Z</time>
      </trkpt>
      <trkpt lat="48.68249" lon="7.31327">
        <ele>481.623291</ele>
        <time>2011-03-12T14:54:54Z</time>
      </trkpt>
      <trkpt lat="48.68243" lon="7.31323">
        <ele>480.888916</ele>
        <time>2011-03-12T14:54:56Z</time>
      </trkpt>
      <trkpt lat="48.68237" lon="7.31319">
        <ele>479.974854</ele>
        <time>2011-03-12T14:54:58Z</time>
      </trkpt>
      <trkpt lat="48.68233" lon="7.31314">
        <ele>479.427979</ele>
        <time>2011-03-12T14:55:00Z</time>
      </trkpt>
      <trkpt lat="48.68229" lon="7.31305">
        <ele>479.201416</ele>
        <time>2011-03-12T14:55:02Z</time>
      </trkpt>
      <trkpt lat="48.68223" lon="7.31295">
        <ele>478.482666</ele>
        <time>2011-03-12T14:55:04Z</time>
      </trkpt>
      <trkpt lat="48.68221" lon="7.31289">
        <ele>478.201416</ele>
        <time>2011-03-12T14:55:05Z</time>
      </trkpt>
      <trkpt lat="48.68216" lon="7.31279">
        <ele>477.998291</ele>
        <time>2011-03-12T14:55:07Z</time>
      </trkpt>
      <trkpt lat="48.68212" lon="7.31268">
        <ele>477.592041</ele>
        <time>2011-03-12T14:55:09Z</time>
      </trkpt>
      <trkpt lat="48.68208" lon="7.31258">
        <ele>476.795166</ele>
        <time>2011-03-12T14:55:11Z</time>
      </trkpt>
      <trkpt lat="48.68205" lon="7.31252">
        <ele>476.513916</ele>
        <time>2011-03-12T14:55:12Z</time>
      </trkpt>
      <trkpt lat="48.68202" lon="7.31246">
        <ele>476.498291</ele>
        <time>2011-03-12T14:55:13Z</time>
      </trkpt>
      <trkpt lat="48.682" lon="7.3124">
        <ele>476.599854</ele>
        <time>2011-03-12T14:55:14Z</time>
      </trkpt>
      <trkpt lat="48.68197" lon="7.31235">
        <ele>476.912354</ele>
        <time>2011-03-12T14:55:15Z</time>
      </trkpt>
      <trkpt lat="48.68193" lon="7.31229">
        <ele>477.006104</ele>
        <time>2011-03-12T14:55:16Z</time>
      </trkpt>
      <trkpt lat="48.6819" lon="7.31222">
        <ele>477.373291</ele>
        <time>2011-03-12T14:55:17Z</time>
      </trkpt>
      <trkpt lat="48.68187" lon="7.31217">
        <ele>477.506104</ele>
        <time>2011-03-12T14:55:18Z</time>
      </trkpt>
      <trkpt lat="48.68184" lon="7.31212">
        <ele>477.177979</ele>
        <time>2011-03-12T14:55:19Z</time>
      </trkpt>
      <trkpt lat="48.68181" lon="7.31207">
        <ele>477.576416</ele>
        <time>2011-03-12T14:55:20Z</time>
      </trkpt>
      <trkpt lat="48.68177" lon="7.31202">
        <ele>477.263916</ele>
        <time>2011-03-12T14:55:21Z</time>
      </trkpt>
      <trkpt lat="48.68174" lon="7.31197">
        <ele>477.240479</ele>
        <time>2011-03-12T14:55:22Z</time>
      </trkpt>
      <trkpt lat="48.68168" lon="7.31185">
        <ele>476.959229</ele>
        <time>2011-03-12T14:55:24Z</time>
      </trkpt>
      <trkpt lat="48.68164" lon="7.3118">
        <ele>476.717041</ele>
        <time>2011-03-12T14:55:25Z</time>
      </trkpt>
      <trkpt lat="48.6816" lon="7.31175">
        <ele>476.623291</ele>
        <time>2011-03-12T14:55:26Z</time>
      </trkpt>
      <trkpt lat="48.68155" lon="7.31169">
        <ele>476.342041</ele>
        <time>2011-03-12T14:55:27Z</time>
      </trkpt>
      <trkpt lat="48.68151" lon="7.31164">
        <ele>476.068604</ele>
        <time>2011-03-12T14:55:28Z</time>
      </trkpt>
      <trkpt lat="48.68147" lon="7.3116">
        <ele>476.388916</ele>
        <time>2011-03-12T14:55:29Z</time>
      </trkpt>
      <trkpt lat="48.68141" lon="7.31157">
        <ele>476.162354</ele>
        <time>2011-03-12T14:55:31Z</time>
      </trkpt>
      <trkpt lat="48.68137" lon="7.31154">
        <ele>475.677979</ele>
        <time>2011-03-12T14:55:45Z</time>
      </trkpt>
      <trkpt lat="48.6813" lon="7.31156">
        <ele>475.810791</ele>
        <time>2011-03-12T14:55:49Z</time>
      </trkpt>
      <trkpt lat="48.68124" lon="7.31161">
        <ele>475.717041</ele>
        <time>2011-03-12T14:55:51Z</time>
      </trkpt>
      <trkpt lat="48.68118" lon="7.31166">
        <ele>476.646729</ele>
        <time>2011-03-12T14:55:53Z</time>
      </trkpt>
      <trkpt lat="48.68112" lon="7.31173">
        <ele>477.123291</ele>
        <time>2011-03-12T14:55:55Z</time>
      </trkpt>
      <trkpt lat="48.68107" lon="7.3118">
        <ele>477.084229</ele>
        <time>2011-03-12T14:55:57Z</time>
      </trkpt>
      <trkpt lat="48.68103" lon="7.31185">
        <ele>477.904541</ele>
        <time>2011-03-12T14:55:59Z</time>
      </trkpt>
      <trkpt lat="48.68099" lon="7.31191">
        <ele>478.427979</ele>
        <time>2011-03-12T14:56:02Z</time>
      </trkpt>
      <trkpt lat="48.68096" lon="7.31196">
        <ele>479.771729</ele>
        <time>2011-03-12T14:56:05Z</time>
      </trkpt>
      <trkpt lat="48.68092" lon="7.31202">
        <ele>480.982666</ele>
        <time>2011-03-12T14:56:08Z</time>
      </trkpt>
      <trkpt lat="48.68087" lon="7.31204">
        <ele>483.263916</ele>
        <time>2011-03-12T14:56:11Z</time>
      </trkpt>
      <trkpt lat="48.68084" lon="7.31208">
        <ele>485.029541</ele>
        <time>2011-03-12T14:56:13Z</time>
      </trkpt>
      <trkpt lat="48.68079" lon="7.31212">
        <ele>486.326416</ele>
        <time>2011-03-12T14:56:15Z</time>
      </trkpt>
      <trkpt lat="48.68076" lon="7.31221">
        <ele>486.982666</ele>
        <time>2011-03-12T14:56:17Z</time>
      </trkpt>
      <trkpt lat="48.68071" lon="7.31231">
        <ele>488.185791</ele>
        <time>2011-03-12T14:56:19Z</time>
      </trkpt>
      <trkpt lat="48.68067" lon="7.31241">
        <ele>489.092041</ele>
        <time>2011-03-12T14:56:21Z</time>
      </trkpt>
      <trkpt lat="48.68063" lon="7.3125">
        <ele>489.857666</ele>
        <time>2011-03-12T14:56:23Z</time>
      </trkpt>
      <trkpt lat="48.68058" lon="7.31257">
        <ele>490.693604</ele>
        <time>2011-03-12T14:56:25Z</time>
      </trkpt>
      <trkpt lat="48.68055" lon="7.31264">
        <ele>491.498291</ele>
        <time>2011-03-12T14:56:27Z</time>
      </trkpt>
      <trkpt lat="48.68049" lon="7.31272">
        <ele>492.170166</ele>
        <time>2011-03-12T14:56:29Z</time>
      </trkpt>
      <trkpt lat="48.68042" lon="7.31278">
        <ele>492.849854</ele>
        <time>2011-03-12T14:56:31Z</time>
      </trkpt>
      <trkpt lat="48.68036" lon="7.31282">
        <ele>493.693604</ele>
        <time>2011-03-12T14:56:33Z</time>
      </trkpt>
      <trkpt lat="48.68029" lon="7.31286">
        <ele>494.818604</ele>
        <time>2011-03-12T14:56:35Z</time>
      </trkpt>
      <trkpt lat="48.68023" lon="7.31292">
        <ele>493.170166</ele>
        <time>2011-03-12T14:56:37Z</time>
      </trkpt>
      <trkpt lat="48.68016" lon="7.31293">
        <ele>493.888916</ele>
        <time>2011-03-12T14:56:39Z</time>
      </trkpt>
      <trkpt lat="48.6801" lon="7.31294">
        <ele>494.888916</ele>
        <time>2011-03-12T14:56:41Z</time>
      </trkpt>
      <trkpt lat="48.68004" lon="7.31295">
        <ele>495.420166</ele>
        <time>2011-03-12T14:56:43Z</time>
      </trkpt>
      <trkpt lat="48.67998" lon="7.31296">
        <ele>496.279541</ele>
        <time>2011-03-12T14:56:45Z</time>
      </trkpt>
      <trkpt lat="48.6799" lon="7.31294">
        <ele>496.185791</ele>
        <time>2011-03-12T14:56:47Z</time>
      </trkpt>
      <trkpt lat="48.67983" lon="7.31293">
        <ele>496.092041</ele>
        <time>2011-03-12T14:56:49Z</time>
      </trkpt>
      <trkpt lat="48.67976" lon="7.3129">
        <ele>495.435791</ele>
        <time>2011-03-12T14:56:51Z</time>
      </trkpt>
      <trkpt lat="48.6797" lon="7.31287">
        <ele>496.685791</ele>
        <time>2011-03-12T14:56:53Z</time>
      </trkpt>
      <trkpt lat="48.67965" lon="7.31283">
        <ele>496.662354</ele>
        <time>2011-03-12T14:56:55Z</time>
      </trkpt>
      <trkpt lat="48.67957" lon="7.31278">
        <ele>498.271729</ele>
        <time>2011-03-12T14:56:57Z</time>
      </trkpt>
      <trkpt lat="48.67952" lon="7.31274">
        <ele>498.896729</ele>
        <time>2011-03-12T14:56:58Z</time>
      </trkpt>
      <trkpt lat="48.67948" lon="7.31269">
        <ele>499.662354</ele>
        <time>2011-03-12T14:56:59Z</time>
      </trkpt>
      <trkpt lat="48.67944" lon="7.31263">
        <ele>500.693604</ele>
        <time>2011-03-12T14:57:00Z</time>
      </trkpt>
      <trkpt lat="48.6794" lon="7.31259">
        <ele>500.224854</ele>
        <time>2011-03-12T14:57:01Z</time>
      </trkpt>
      <trkpt lat="48.67936" lon="7.31256">
        <ele>499.467041</ele>
        <time>2011-03-12T14:57:02Z</time>
      </trkpt>
      <trkpt lat="48.67932" lon="7.31253">
        <ele>500.404541</ele>
        <time>2011-03-12T14:57:03Z</time>
      </trkpt>
      <trkpt lat="48.67928" lon="7.3125">
        <ele>500.631104</ele>
        <time>2011-03-12T14:57:04Z</time>
      </trkpt>
      <trkpt lat="48.67923" lon="7.31247">
        <ele>500.037354</ele>
        <time>2011-03-12T14:57:05Z</time>
      </trkpt>
      <trkpt lat="48.67919" lon="7.31245">
        <ele>497.599854</ele>
        <time>2011-03-12T14:57:06Z</time>
      </trkpt>
      <trkpt lat="48.67914" lon="7.31243">
        <ele>495.185791</ele>
        <time>2011-03-12T14:57:07Z</time>
      </trkpt>
      <trkpt lat="48.6791" lon="7.31241">
        <ele>494.849854</ele>
        <time>2011-03-12T14:57:08Z</time>
      </trkpt>
      <trkpt lat="48.67901" lon="7.3124">
        <ele>491.756104</ele>
        <time>2011-03-12T14:57:10Z</time>
      </trkpt>
      <trkpt lat="48.67893" lon="7.31239">
        <ele>489.818604</ele>
        <time>2011-03-12T14:57:12Z</time>
      </trkpt>
      <trkpt lat="48.67884" lon="7.31237">
        <ele>489.318604</ele>
        <time>2011-03-12T14:57:14Z</time>
      </trkpt>
      <trkpt lat="48.67877" lon="7.31236">
        <ele>489.107666</ele>
        <time>2011-03-12T14:57:16Z</time>
      </trkpt>
      <trkpt lat="48.67869" lon="7.31236">
        <ele>488.240479</ele>
        <time>2011-03-12T14:57:18Z</time>
      </trkpt>
      <trkpt lat="48.67862" lon="7.31238">
        <ele>487.537354</ele>
        <time>2011-03-12T14:57:20Z</time>
      </trkpt>
      <trkpt lat="48.67856" lon="7.31238">
        <ele>487.427979</ele>
        <time>2011-03-12T14:57:22Z</time>
      </trkpt>
      <trkpt lat="48.67848" lon="7.3124">
        <ele>486.654541</ele>
        <time>2011-03-12T14:57:24Z</time>
      </trkpt>
      <trkpt lat="48.67842" lon="7.31241">
        <ele>486.209229</ele>
        <time>2011-03-12T14:57:26Z</time>
      </trkpt>
      <trkpt lat="48.67835" lon="7.31243">
        <ele>485.451416</ele>
        <time>2011-03-12T14:57:28Z</time>
      </trkpt>
      <trkpt lat="48.67828" lon="7.31245">
        <ele>485.232666</ele>
        <time>2011-03-12T14:57:30Z</time>
      </trkpt>
      <trkpt lat="48.67823" lon="7.31247">
        <ele>485.092041</ele>
        <time>2011-03-12T14:57:32Z</time>
      </trkpt>
      <trkpt lat="48.67816" lon="7.3125">
        <ele>484.115479</ele>
        <time>2011-03-12T14:57:34Z</time>
      </trkpt>
      <trkpt lat="48.6781" lon="7.31253">
        <ele>484.334229</ele>
        <time>2011-03-12T14:57:36Z</time>
      </trkpt>
      <trkpt lat="48.67804" lon="7.31256">
        <ele>484.404541</ele>
        <time>2011-03-12T14:57:38Z</time>
      </trkpt>
      <trkpt lat="48.67799" lon="7.31259">
        <ele>484.162354</ele>
        <time>2011-03-12T14:57:40Z</time>
      </trkpt>
      <trkpt lat="48.67794" lon="7.31262">
        <ele>483.670166</ele>
        <time>2011-03-12T14:57:42Z</time>
      </trkpt>
      <trkpt lat="48.67789" lon="7.31265">
        <ele>483.615479</ele>
        <time>2011-03-12T14:57:44Z</time>
      </trkpt>
      <trkpt lat="48.67783" lon="7.31268">
        <ele>483.576416</ele>
        <time>2011-03-12T14:57:46Z</time>
      </trkpt>
      <trkpt lat="48.67777" lon="7.3127">
        <ele>483.560791</ele>
        <time>2011-03-12T14:57:48Z</time>
      </trkpt>
      <trkpt lat="48.67772" lon="7.31271">
        <ele>483.771729</ele>
        <time>2011-03-12T14:57:50Z</time>
      </trkpt>
      <trkpt lat="48.67767" lon="7.3127">
        <ele>483.990479</ele>
        <time>2011-03-12T14:57:52Z</time>
      </trkpt>
      <trkpt lat="48.6776" lon="7.3127">
        <ele>484.271729</ele>
        <time>2011-03-12T14:57:55Z</time>
      </trkpt>
      <trkpt lat="48.67756" lon="7.31269">
        <ele>484.107666</ele>
        <time>2011-03-12T14:57:57Z</time>
      </trkpt>
      <trkpt lat="48.67751" lon="7.31267">
        <ele>484.295166</ele>
        <time>2011-03-12T14:57:59Z</time>
      </trkpt>
      <trkpt lat="48.67745" lon="7.31265">
        <ele>484.232666</ele>
        <time>2011-03-12T14:58:01Z</time>
      </trkpt>
      <trkpt lat="48.67739" lon="7.31263">
        <ele>484.420166</ele>
        <time>2011-03-12T14:58:03Z</time>
      </trkpt>
      <trkpt lat="48.67733" lon="7.31261">
        <ele>484.623291</ele>
        <time>2011-03-12T14:58:05Z</time>
      </trkpt>
      <trkpt lat="48.67727" lon="7.3126">
        <ele>484.763916</ele>
        <time>2011-03-12T14:58:07Z</time>
      </trkpt>
      <trkpt lat="48.67722" lon="7.31258">
        <ele>484.888916</ele>
        <time>2011-03-12T14:58:09Z</time>
      </trkpt>
      <trkpt lat="48.67716" lon="7.31258">
        <ele>485.045166</ele>
        <time>2011-03-12T14:58:11Z</time>
      </trkpt>
      <trkpt lat="48.67711" lon="7.31257">
        <ele>485.193604</ele>
        <time>2011-03-12T14:58:13Z</time>
      </trkpt>
      <trkpt lat="48.67704" lon="7.31257">
        <ele>485.287354</ele>
        <time>2011-03-12T14:58:15Z</time>
      </trkpt>
      <trkpt lat="48.67698" lon="7.31257">
        <ele>485.388916</ele>
        <time>2011-03-12T14:58:17Z</time>
      </trkpt>
      <trkpt lat="48.67692" lon="7.31257">
        <ele>485.552979</ele>
        <time>2011-03-12T14:58:19Z</time>
      </trkpt>
      <trkpt lat="48.67686" lon="7.31258">
        <ele>485.763916</ele>
        <time>2011-03-12T14:58:21Z</time>
      </trkpt>
      <trkpt lat="48.6768" lon="7.31259">
        <ele>485.873291</ele>
        <time>2011-03-12T14:58:23Z</time>
      </trkpt>
      <trkpt lat="48.67674" lon="7.31261">
        <ele>485.888916</ele>
        <time>2011-03-12T14:58:25Z</time>
      </trkpt>
      <trkpt lat="48.67667" lon="7.31264">
        <ele>485.748291</ele>
        <time>2011-03-12T14:58:27Z</time>
      </trkpt>
      <trkpt lat="48.67661" lon="7.31268">
        <ele>486.013916</ele>
        <time>2011-03-12T14:58:29Z</time>
      </trkpt>
      <trkpt lat="48.67654" lon="7.31272">
        <ele>485.974854</ele>
        <time>2011-03-12T14:58:31Z</time>
      </trkpt>
      <trkpt lat="48.67648" lon="7.31278">
        <ele>485.771729</ele>
        <time>2011-03-12T14:58:33Z</time>
      </trkpt>
      <trkpt lat="48.67641" lon="7.31284">
        <ele>485.615479</ele>
        <time>2011-03-12T14:58:35Z</time>
      </trkpt>
      <trkpt lat="48.67634" lon="7.31289">
        <ele>485.584229</ele>
        <time>2011-03-12T14:58:37Z</time>
      </trkpt>
      <trkpt lat="48.67626" lon="7.31292">
        <ele>485.537354</ele>
        <time>2011-03-12T14:58:39Z</time>
      </trkpt>
      <trkpt lat="48.67618" lon="7.31293">
        <ele>485.396729</ele>
        <time>2011-03-12T14:58:41Z</time>
      </trkpt>
      <trkpt lat="48.67613" lon="7.31292">
        <ele>484.967041</ele>
        <time>2011-03-12T14:58:42Z</time>
      </trkpt>
      <trkpt lat="48.67604" lon="7.31291">
        <ele>484.740479</ele>
        <time>2011-03-12T14:58:44Z</time>
      </trkpt>
      <trkpt lat="48.67596" lon="7.3129">
        <ele>484.670166</ele>
        <time>2011-03-12T14:58:46Z</time>
      </trkpt>
      <trkpt lat="48.67588" lon="7.31288">
        <ele>484.654541</ele>
        <time>2011-03-12T14:58:48Z</time>
      </trkpt>
      <trkpt lat="48.67579" lon="7.31287">
        <ele>484.404541</ele>
        <time>2011-03-12T14:58:50Z</time>
      </trkpt>
      <trkpt lat="48.67572" lon="7.31284">
        <ele>484.724854</ele>
        <time>2011-03-12T14:58:52Z</time>
      </trkpt>
      <trkpt lat="48.67563" lon="7.31279">
        <ele>484.490479</ele>
        <time>2011-03-12T14:58:54Z</time>
      </trkpt>
      <trkpt lat="48.67556" lon="7.31274">
        <ele>484.615479</ele>
        <time>2011-03-12T14:58:56Z</time>
      </trkpt>
      <trkpt lat="48.67552" lon="7.31269">
        <ele>484.771729</ele>
        <time>2011-03-12T14:58:57Z</time>
      </trkpt>
      <trkpt lat="48.67548" lon="7.31265">
        <ele>484.896729</ele>
        <time>2011-03-12T14:58:58Z</time>
      </trkpt>
      <trkpt lat="48.67544" lon="7.31261">
        <ele>485.342041</ele>
        <time>2011-03-12T14:58:59Z</time>
      </trkpt>
      <trkpt lat="48.67541" lon="7.31257">
        <ele>485.467041</ele>
        <time>2011-03-12T14:59:00Z</time>
      </trkpt>
      <trkpt lat="48.67537" lon="7.31252">
        <ele>485.177979</ele>
        <time>2011-03-12T14:59:01Z</time>
      </trkpt>
      <trkpt lat="48.67534" lon="7.31246">
        <ele>485.138916</ele>
        <time>2011-03-12T14:59:02Z</time>
      </trkpt>
      <trkpt lat="48.6753" lon="7.31241">
        <ele>484.935791</ele>
        <time>2011-03-12T14:59:03Z</time>
      </trkpt>
      <trkpt lat="48.67528" lon="7.31235">
        <ele>485.365479</ele>
        <time>2011-03-12T14:59:04Z</time>
      </trkpt>
      <trkpt lat="48.67524" lon="7.31223">
        <ele>485.974854</ele>
        <time>2011-03-12T14:59:06Z</time>
      </trkpt>
      <trkpt lat="48.67522" lon="7.31217">
        <ele>486.295166</ele>
        <time>2011-03-12T14:59:07Z</time>
      </trkpt>
      <trkpt lat="48.67519" lon="7.31205">
        <ele>486.818604</ele>
        <time>2011-03-12T14:59:09Z</time>
      </trkpt>
      <trkpt lat="48.67515" lon="7.31192">
        <ele>487.427979</ele>
        <time>2011-03-12T14:59:11Z</time>
      </trkpt>
      <trkpt lat="48.67512" lon="7.31181">
        <ele>488.412354</ele>
        <time>2011-03-12T14:59:13Z</time>
      </trkpt>
      <trkpt lat="48.67509" lon="7.31169">
        <ele>489.677979</ele>
        <time>2011-03-12T14:59:15Z</time>
      </trkpt>
      <trkpt lat="48.67508" lon="7.31162">
        <ele>490.154541</ele>
        <time>2011-03-12T14:59:16Z</time>
      </trkpt>
      <trkpt lat="48.67506" lon="7.31156">
        <ele>490.670166</ele>
        <time>2011-03-12T14:59:17Z</time>
      </trkpt>
      <trkpt lat="48.67505" lon="7.31148">
        <ele>489.787354</ele>
        <time>2011-03-12T14:59:18Z</time>
      </trkpt>
      <trkpt lat="48.67503" lon="7.3114">
        <ele>490.060791</ele>
        <time>2011-03-12T14:59:19Z</time>
      </trkpt>
      <trkpt lat="48.67503" lon="7.31133">
        <ele>488.951416</ele>
        <time>2011-03-12T14:59:20Z</time>
      </trkpt>
      <trkpt lat="48.67503" lon="7.31125">
        <ele>488.967041</ele>
        <time>2011-03-12T14:59:21Z</time>
      </trkpt>
      <trkpt lat="48.67503" lon="7.31117">
        <ele>488.685791</ele>
        <time>2011-03-12T14:59:22Z</time>
      </trkpt>
      <trkpt lat="48.67503" lon="7.3111">
        <ele>488.474854</ele>
        <time>2011-03-12T14:59:23Z</time>
      </trkpt>
      <trkpt lat="48.67503" lon="7.31102">
        <ele>488.677979</ele>
        <time>2011-03-12T14:59:24Z</time>
      </trkpt>
      <trkpt lat="48.67503" lon="7.31095">
        <ele>488.552979</ele>
        <time>2011-03-12T14:59:25Z</time>
      </trkpt>
      <trkpt lat="48.67503" lon="7.31088">
        <ele>488.498291</ele>
        <time>2011-03-12T14:59:26Z</time>
      </trkpt>
      <trkpt lat="48.67505" lon="7.31081">
        <ele>488.560791</ele>
        <time>2011-03-12T14:59:27Z</time>
      </trkpt>
      <trkpt lat="48.67506" lon="7.31074">
        <ele>488.638916</ele>
        <time>2011-03-12T14:59:28Z</time>
      </trkpt>
      <trkpt lat="48.67506" lon="7.31067">
        <ele>488.943604</ele>
        <time>2011-03-12T14:59:29Z</time>
      </trkpt>
      <trkpt lat="48.67507" lon="7.3106">
        <ele>489.193604</ele>
        <time>2011-03-12T14:59:30Z</time>
      </trkpt>
      <trkpt lat="48.67508" lon="7.31053">
        <ele>489.779541</ele>
        <time>2011-03-12T14:59:31Z</time>
      </trkpt>
      <trkpt lat="48.67509" lon="7.31046">
        <ele>489.787354</ele>
        <time>2011-03-12T14:59:32Z</time>
      </trkpt>
      <trkpt lat="48.6751" lon="7.31038">
        <ele>489.685791</ele>
        <time>2011-03-12T14:59:33Z</time>
      </trkpt>
      <trkpt lat="48.6751" lon="7.31031">
        <ele>489.732666</ele>
        <time>2011-03-12T14:59:34Z</time>
      </trkpt>
      <trkpt lat="48.67511" lon="7.31024">
        <ele>489.857666</ele>
        <time>2011-03-12T14:59:35Z</time>
      </trkpt>
      <trkpt lat="48.67511" lon="7.31016">
        <ele>490.302979</ele>
        <time>2011-03-12T14:59:36Z</time>
      </trkpt>
      <trkpt lat="48.67512" lon="7.31009">
        <ele>490.802979</ele>
        <time>2011-03-12T14:59:37Z</time>
      </trkpt>
      <trkpt lat="48.67512" lon="7.31002">
        <ele>491.427979</ele>
        <time>2011-03-12T14:59:38Z</time>
      </trkpt>
      <trkpt lat="48.67512" lon="7.30995">
        <ele>491.529541</ele>
        <time>2011-03-12T14:59:39Z</time>
      </trkpt>
      <trkpt lat="48.67512" lon="7.30989">
        <ele>491.357666</ele>
        <time>2011-03-12T14:59:40Z</time>
      </trkpt>
      <trkpt lat="48.67511" lon="7.30981">
        <ele>491.271729</ele>
        <time>2011-03-12T14:59:41Z</time>
      </trkpt>
      <trkpt lat="48.6751" lon="7.30974">
        <ele>491.443604</ele>
        <time>2011-03-12T14:59:42Z</time>
      </trkpt>
      <trkpt lat="48.6751" lon="7.30967">
        <ele>491.209229</ele>
        <time>2011-03-12T14:59:43Z</time>
      </trkpt>
      <trkpt lat="48.67509" lon="7.3096">
        <ele>491.232666</ele>
        <time>2011-03-12T14:59:44Z</time>
      </trkpt>
      <trkpt lat="48.67508" lon="7.30953">
        <ele>491.342041</ele>
        <time>2011-03-12T14:59:45Z</time>
      </trkpt>
      <trkpt lat="48.67506" lon="7.30947">
        <ele>491.256104</ele>
        <time>2011-03-12T14:59:46Z</time>
      </trkpt>
      <trkpt lat="48.67505" lon="7.30939">
        <ele>491.459229</ele>
        <time>2011-03-12T14:59:47Z</time>
      </trkpt>
      <trkpt lat="48.67504" lon="7.30932">
        <ele>491.787354</ele>
        <time>2011-03-12T14:59:48Z</time>
      </trkpt>
      <trkpt lat="48.67503" lon="7.30926">
        <ele>491.857666</ele>
        <time>2011-03-12T14:59:49Z</time>
      </trkpt>
      <trkpt lat="48.67501" lon="7.30919">
        <ele>491.357666</ele>
        <time>2011-03-12T14:59:50Z</time>
      </trkpt>
      <trkpt lat="48.675" lon="7.30912">
        <ele>491.146729</ele>
        <time>2011-03-12T14:59:51Z</time>
      </trkpt>
      <trkpt lat="48.67498" lon="7.30906">
        <ele>491.256104</ele>
        <time>2011-03-12T14:59:52Z</time>
      </trkpt>
      <trkpt lat="48.67496" lon="7.30899">
        <ele>491.474854</ele>
        <time>2011-03-12T14:59:53Z</time>
      </trkpt>
      <trkpt lat="48.67492" lon="7.30887">
        <ele>492.326416</ele>
        <time>2011-03-12T14:59:55Z</time>
      </trkpt>
      <trkpt lat="48.67488" lon="7.30875">
        <ele>493.177979</ele>
        <time>2011-03-12T14:59:57Z</time>
      </trkpt>
      <trkpt lat="48.67485" lon="7.30863">
        <ele>493.842041</ele>
        <time>2011-03-12T14:59:59Z</time>
      </trkpt>
      <trkpt lat="48.67483" lon="7.30857">
        <ele>494.099854</ele>
        <time>2011-03-12T15:00:00Z</time>
      </trkpt>
      <trkpt lat="48.67479" lon="7.30845">
        <ele>494.068604</ele>
        <time>2011-03-12T15:00:02Z</time>
      </trkpt>
      <trkpt lat="48.67477" lon="7.30839">
        <ele>494.209229</ele>
        <time>2011-03-12T15:00:03Z</time>
      </trkpt>
      <trkpt lat="48.67473" lon="7.30827">
        <ele>493.990479</ele>
        <time>2011-03-12T15:00:05Z</time>
      </trkpt>
      <trkpt lat="48.6747" lon="7.3082">
        <ele>493.873291</ele>
        <time>2011-03-12T15:00:06Z</time>
      </trkpt>
      <trkpt lat="48.67466" lon="7.30809">
        <ele>493.670166</ele>
        <time>2011-03-12T15:00:08Z</time>
      </trkpt>
      <trkpt lat="48.67463" lon="7.30797">
        <ele>493.599854</ele>
        <time>2011-03-12T15:00:10Z</time>
      </trkpt>
      <trkpt lat="48.6746" lon="7.30787">
        <ele>493.599854</ele>
        <time>2011-03-12T15:00:12Z</time>
      </trkpt>
      <trkpt lat="48.67456" lon="7.30778">
        <ele>493.865479</ele>
        <time>2011-03-12T15:00:14Z</time>
      </trkpt>
      <trkpt lat="48.67452" lon="7.30767">
        <ele>493.740479</ele>
        <time>2011-03-12T15:00:16Z</time>
      </trkpt>
      <trkpt lat="48.67448" lon="7.30757">
        <ele>493.717041</ele>
        <time>2011-03-12T15:00:18Z</time>
      </trkpt>
      <trkpt lat="48.67445" lon="7.30747">
        <ele>493.662354</ele>
        <time>2011-03-12T15:00:20Z</time>
      </trkpt>
      <trkpt lat="48.67441" lon="7.30738">
        <ele>493.693604</ele>
        <time>2011-03-12T15:00:22Z</time>
      </trkpt>
      <trkpt lat="48.67437" lon="7.30728">
        <ele>493.662354</ele>
        <time>2011-03-12T15:00:24Z</time>
      </trkpt>
      <trkpt lat="48.67435" lon="7.30718">
        <ele>493.576416</ele>
        <time>2011-03-12T15:00:26Z</time>
      </trkpt>
      <trkpt lat="48.67431" lon="7.30708">
        <ele>493.396729</ele>
        <time>2011-03-12T15:00:28Z</time>
      </trkpt>
      <trkpt lat="48.67427" lon="7.30698">
        <ele>493.490479</ele>
        <time>2011-03-12T15:00:30Z</time>
      </trkpt>
      <trkpt lat="48.67424" lon="7.30688">
        <ele>493.201416</ele>
        <time>2011-03-12T15:00:32Z</time>
      </trkpt>
      <trkpt lat="48.6742" lon="7.30678">
        <ele>492.974854</ele>
        <time>2011-03-12T15:00:34Z</time>
      </trkpt>
      <trkpt lat="48.67417" lon="7.30669">
        <ele>493.310791</ele>
        <time>2011-03-12T15:00:36Z</time>
      </trkpt>
      <trkpt lat="48.67413" lon="7.30659">
        <ele>492.763916</ele>
        <time>2011-03-12T15:00:38Z</time>
      </trkpt>
      <trkpt lat="48.67408" lon="7.3065">
        <ele>492.701416</ele>
        <time>2011-03-12T15:00:40Z</time>
      </trkpt>
      <trkpt lat="48.67404" lon="7.3064">
        <ele>492.537354</ele>
        <time>2011-03-12T15:00:42Z</time>
      </trkpt>
      <trkpt lat="48.674" lon="7.30631">
        <ele>492.146729</ele>
        <time>2011-03-12T15:00:44Z</time>
      </trkpt>
      <trkpt lat="48.67397" lon="7.3062">
        <ele>492.740479</ele>
        <time>2011-03-12T15:00:46Z</time>
      </trkpt>
      <trkpt lat="48.67394" lon="7.30611">
        <ele>493.318604</ele>
        <time>2011-03-12T15:00:48Z</time>
      </trkpt>
      <trkpt lat="48.6739" lon="7.30601">
        <ele>493.592041</ele>
        <time>2011-03-12T15:00:50Z</time>
      </trkpt>
      <trkpt lat="48.67387" lon="7.30592">
        <ele>493.295166</ele>
        <time>2011-03-12T15:00:52Z</time>
      </trkpt>
      <trkpt lat="48.67384" lon="7.30582">
        <ele>493.709229</ele>
        <time>2011-03-12T15:00:54Z</time>
      </trkpt>
      <trkpt lat="48.67381" lon="7.30573">
        <ele>493.904541</ele>
        <time>2011-03-12T15:00:56Z</time>
      </trkpt>
      <trkpt lat="48.67379" lon="7.30563">
        <ele>494.404541</ele>
        <time>2011-03-12T15:00:58Z</time>
      </trkpt>
      <trkpt lat="48.67377" lon="7.30554">
        <ele>494.935791</ele>
        <time>2011-03-12T15:01:00Z</time>
      </trkpt>
      <trkpt lat="48.67377" lon="7.30545">
        <ele>495.623291</ele>
        <time>2011-03-12T15:01:02Z</time>
      </trkpt>
      <trkpt lat="48.67378" lon="7.30537">
        <ele>496.068604</ele>
        <time>2011-03-12T15:01:04Z</time>
      </trkpt>
      <trkpt lat="48.67379" lon="7.30527">
        <ele>496.302979</ele>
        <time>2011-03-12T15:01:06Z</time>
      </trkpt>
      <trkpt lat="48.6738" lon="7.30518">
        <ele>496.584229</ele>
        <time>2011-03-12T15:01:08Z</time>
      </trkpt>
      <trkpt lat="48.67384" lon="7.30509">
        <ele>497.646729</ele>
        <time>2011-03-12T15:01:10Z</time>
      </trkpt>
      <trkpt lat="48.67389" lon="7.30501">
        <ele>498.310791</ele>
        <time>2011-03-12T15:01:12Z</time>
      </trkpt>
      <trkpt lat="48.67394" lon="7.30494">
        <ele>499.052979</ele>
        <time>2011-03-12T15:01:14Z</time>
      </trkpt>
      <trkpt lat="48.67397" lon="7.30486">
        <ele>498.177979</ele>
        <time>2011-03-12T15:01:16Z</time>
      </trkpt>
      <trkpt lat="48.67401" lon="7.30478">
        <ele>498.420166</ele>
        <time>2011-03-12T15:01:18Z</time>
      </trkpt>
      <trkpt lat="48.67405" lon="7.3047">
        <ele>497.802979</ele>
        <time>2011-03-12T15:01:20Z</time>
      </trkpt>
      <trkpt lat="48.67408" lon="7.3046">
        <ele>498.592041</ele>
        <time>2011-03-12T15:01:22Z</time>
      </trkpt>
      <trkpt lat="48.67412" lon="7.30451">
        <ele>498.740479</ele>
        <time>2011-03-12T15:01:24Z</time>
      </trkpt>
      <trkpt lat="48.67416" lon="7.3044">
        <ele>498.771729</ele>
        <time>2011-03-12T15:01:26Z</time>
      </trkpt>
      <trkpt lat="48.67418" lon="7.30429">
        <ele>499.302979</ele>
        <time>2011-03-12T15:01:28Z</time>
      </trkpt>
      <trkpt lat="48.67419" lon="7.30418">
        <ele>499.482666</ele>
        <time>2011-03-12T15:01:30Z</time>
      </trkpt>
      <trkpt lat="48.6742" lon="7.30406">
        <ele>500.459229</ele>
        <time>2011-03-12T15:01:32Z</time>
      </trkpt>
      <trkpt lat="48.67419" lon="7.30395">
        <ele>500.232666</ele>
        <time>2011-03-12T15:01:34Z</time>
      </trkpt>
      <trkpt lat="48.67418" lon="7.30384">
        <ele>501.552979</ele>
        <time>2011-03-12T15:01:36Z</time>
      </trkpt>
      <trkpt lat="48.67415" lon="7.30373">
        <ele>501.576416</ele>
        <time>2011-03-12T15:01:38Z</time>
      </trkpt>
      <trkpt lat="48.67412" lon="7.30363">
        <ele>501.998291</ele>
        <time>2011-03-12T15:01:40Z</time>
      </trkpt>
      <trkpt lat="48.6741" lon="7.30353">
        <ele>502.295166</ele>
        <time>2011-03-12T15:01:42Z</time>
      </trkpt>
      <trkpt lat="48.67407" lon="7.30346">
        <ele>505.693604</ele>
        <time>2011-03-12T15:01:44Z</time>
      </trkpt>
      <trkpt lat="48.67405" lon="7.30336">
        <ele>506.568604</ele>
        <time>2011-03-12T15:01:46Z</time>
      </trkpt>
      <trkpt lat="48.67401" lon="7.30325">
        <ele>506.873291</ele>
        <time>2011-03-12T15:01:48Z</time>
      </trkpt>
      <trkpt lat="48.67397" lon="7.30313">
        <ele>506.467041</ele>
        <time>2011-03-12T15:01:50Z</time>
      </trkpt>
      <trkpt lat="48.67393" lon="7.30304">
        <ele>507.529541</ele>
        <time>2011-03-12T15:01:52Z</time>
      </trkpt>
      <trkpt lat="48.67389" lon="7.30295">
        <ele>508.201416</ele>
        <time>2011-03-12T15:01:54Z</time>
      </trkpt>
      <trkpt lat="48.67386" lon="7.30287">
        <ele>509.021729</ele>
        <time>2011-03-12T15:01:56Z</time>
      </trkpt>
      <trkpt lat="48.67382" lon="7.3028">
        <ele>509.818604</ele>
        <time>2011-03-12T15:01:58Z</time>
      </trkpt>
      <trkpt lat="48.67377" lon="7.30277">
        <ele>510.756104</ele>
        <time>2011-03-12T15:02:00Z</time>
      </trkpt>
      <trkpt lat="48.67373" lon="7.30273">
        <ele>511.935791</ele>
        <time>2011-03-12T15:02:02Z</time>
      </trkpt>
      <trkpt lat="48.67368" lon="7.3027">
        <ele>513.340332</ele>
        <time>2011-03-12T15:02:05Z</time>
      </trkpt>
      <trkpt lat="48.67363" lon="7.30267">
        <ele>514.871582</ele>
        <time>2011-03-12T15:02:08Z</time>
      </trkpt>
      <trkpt lat="48.67357" lon="7.30264">
        <ele>515.824707</ele>
        <time>2011-03-12T15:02:11Z</time>
      </trkpt>
      <trkpt lat="48.67352" lon="7.30259">
        <ele>515.871582</ele>
        <time>2011-03-12T15:02:14Z</time>
      </trkpt>
      <trkpt lat="48.67347" lon="7.30253">
        <ele>516.762207</ele>
        <time>2011-03-12T15:02:17Z</time>
      </trkpt>
      <trkpt lat="48.67342" lon="7.30248">
        <ele>517.371582</ele>
        <time>2011-03-12T15:02:20Z</time>
      </trkpt>
      <trkpt lat="48.67336" lon="7.30243">
        <ele>517.902832</ele>
        <time>2011-03-12T15:02:23Z</time>
      </trkpt>
      <trkpt lat="48.67333" lon="7.30237">
        <ele>518.871582</ele>
        <time>2011-03-12T15:02:26Z</time>
      </trkpt>
      <trkpt lat="48.67329" lon="7.30231">
        <ele>519.543457</ele>
        <time>2011-03-12T15:02:29Z</time>
      </trkpt>
      <trkpt lat="48.67324" lon="7.30227">
        <ele>520.684082</ele>
        <time>2011-03-12T15:02:32Z</time>
      </trkpt>
      <trkpt lat="48.6732" lon="7.30219">
        <ele>521.574707</ele>
        <time>2011-03-12T15:02:35Z</time>
      </trkpt>
      <trkpt lat="48.67315" lon="7.30213">
        <ele>522.152832</ele>
        <time>2011-03-12T15:02:38Z</time>
      </trkpt>
      <trkpt lat="48.67311" lon="7.30209">
        <ele>522.621582</ele>
        <time>2011-03-12T15:02:40Z</time>
      </trkpt>
      <trkpt lat="48.67307" lon="7.30206">
        <ele>522.949707</ele>
        <time>2011-03-12T15:02:42Z</time>
      </trkpt>
      <trkpt lat="48.67303" lon="7.30202">
        <ele>523.199707</ele>
        <time>2011-03-12T15:02:44Z</time>
      </trkpt>
      <trkpt lat="48.67299" lon="7.30199">
        <ele>523.090332</ele>
        <time>2011-03-12T15:02:46Z</time>
      </trkpt>
      <trkpt lat="48.67293" lon="7.30194">
        <ele>523.152832</ele>
        <time>2011-03-12T15:02:49Z</time>
      </trkpt>
      <trkpt lat="48.67289" lon="7.30191">
        <ele>522.480957</ele>
        <time>2011-03-12T15:02:51Z</time>
      </trkpt>
      <trkpt lat="48.67284" lon="7.30186">
        <ele>522.340332</ele>
        <time>2011-03-12T15:02:53Z</time>
      </trkpt>
      <trkpt lat="48.67281" lon="7.3018">
        <ele>522.402832</ele>
        <time>2011-03-12T15:02:55Z</time>
      </trkpt>
      <trkpt lat="48.67276" lon="7.30174">
        <ele>521.840332</ele>
        <time>2011-03-12T15:02:58Z</time>
      </trkpt>
      <trkpt lat="48.67272" lon="7.3017">
        <ele>521.574707</ele>
        <time>2011-03-12T15:03:00Z</time>
      </trkpt>
      <trkpt lat="48.67269" lon="7.30164">
        <ele>522.121582</ele>
        <time>2011-03-12T15:03:02Z</time>
      </trkpt>
      <trkpt lat="48.67265" lon="7.3016">
        <ele>521.387207</ele>
        <time>2011-03-12T15:03:04Z</time>
      </trkpt>
      <trkpt lat="48.67261" lon="7.30153">
        <ele>518.246582</ele>
        <time>2011-03-12T15:03:06Z</time>
      </trkpt>
      <trkpt lat="48.67257" lon="7.30147">
        <ele>516.449707</ele>
        <time>2011-03-12T15:03:08Z</time>
      </trkpt>
      <trkpt lat="48.67254" lon="7.30142">
        <ele>515.949707</ele>
        <time>2011-03-12T15:03:10Z</time>
      </trkpt>
      <trkpt lat="48.6725" lon="7.30135">
        <ele>515.699707</ele>
        <time>2011-03-12T15:03:12Z</time>
      </trkpt>
      <trkpt lat="48.67245" lon="7.30129">
        <ele>514.605957</ele>
        <time>2011-03-12T15:03:14Z</time>
      </trkpt>
      <trkpt lat="48.67241" lon="7.30124">
        <ele>513.043457</ele>
        <time>2011-03-12T15:03:16Z</time>
      </trkpt>
      <trkpt lat="48.67238" lon="7.30116">
        <ele>511.693604</ele>
        <time>2011-03-12T15:03:18Z</time>
      </trkpt>
      <trkpt lat="48.67235" lon="7.3011">
        <ele>511.654541</ele>
        <time>2011-03-12T15:03:20Z</time>
      </trkpt>
      <trkpt lat="48.67233" lon="7.30104">
        <ele>510.701416</ele>
        <time>2011-03-12T15:03:22Z</time>
      </trkpt>
      <trkpt lat="48.67228" lon="7.30099">
        <ele>510.498291</ele>
        <time>2011-03-12T15:03:24Z</time>
      </trkpt>
      <trkpt lat="48.67223" lon="7.30094">
        <ele>509.279541</ele>
        <time>2011-03-12T15:03:27Z</time>
      </trkpt>
      <trkpt lat="48.67221" lon="7.30088">
        <ele>509.779541</ele>
        <time>2011-03-12T15:03:29Z</time>
      </trkpt>
      <trkpt lat="48.67218" lon="7.30081">
        <ele>510.021729</ele>
        <time>2011-03-12T15:03:31Z</time>
      </trkpt>
      <trkpt lat="48.67217" lon="7.30074">
        <ele>510.334229</ele>
        <time>2011-03-12T15:03:33Z</time>
      </trkpt>
      <trkpt lat="48.67215" lon="7.30066">
        <ele>513.777832</ele>
        <time>2011-03-12T15:03:35Z</time>
      </trkpt>
      <trkpt lat="48.67214" lon="7.30058">
        <ele>515.355957</ele>
        <time>2011-03-12T15:03:37Z</time>
      </trkpt>
      <trkpt lat="48.67213" lon="7.30052">
        <ele>516.918457</ele>
        <time>2011-03-12T15:03:39Z</time>
      </trkpt>
      <trkpt lat="48.67212" lon="7.30045">
        <ele>518.918457</ele>
        <time>2011-03-12T15:03:41Z</time>
      </trkpt>
      <trkpt lat="48.67212" lon="7.30037">
        <ele>515.855957</ele>
        <time>2011-03-12T15:03:43Z</time>
      </trkpt>
      <trkpt lat="48.67213" lon="7.30029">
        <ele>515.277832</ele>
        <time>2011-03-12T15:03:45Z</time>
      </trkpt>
      <trkpt lat="48.67213" lon="7.30021">
        <ele>515.074707</ele>
        <time>2011-03-12T15:03:47Z</time>
      </trkpt>
      <trkpt lat="48.67213" lon="7.30012">
        <ele>516.277832</ele>
        <time>2011-03-12T15:03:49Z</time>
      </trkpt>
      <trkpt lat="48.67214" lon="7.30003">
        <ele>516.465332</ele>
        <time>2011-03-12T15:03:51Z</time>
      </trkpt>
      <trkpt lat="48.67215" lon="7.29994">
        <ele>517.105957</ele>
        <time>2011-03-12T15:03:53Z</time>
      </trkpt>
      <trkpt lat="48.67215" lon="7.29985">
        <ele>516.902832</ele>
        <time>2011-03-12T15:03:55Z</time>
      </trkpt>
      <trkpt lat="48.67217" lon="7.29976">
        <ele>516.855957</ele>
        <time>2011-03-12T15:03:57Z</time>
      </trkpt>
      <trkpt lat="48.67218" lon="7.29967">
        <ele>516.809082</ele>
        <time>2011-03-12T15:03:59Z</time>
      </trkpt>
      <trkpt lat="48.67219" lon="7.29958">
        <ele>516.465332</ele>
        <time>2011-03-12T15:04:01Z</time>
      </trkpt>
      <trkpt lat="48.67219" lon="7.29949">
        <ele>516.699707</ele>
        <time>2011-03-12T15:04:03Z</time>
      </trkpt>
      <trkpt lat="48.6722" lon="7.29941">
        <ele>516.637207</ele>
        <time>2011-03-12T15:04:05Z</time>
      </trkpt>
      <trkpt lat="48.6722" lon="7.29931">
        <ele>517.184082</ele>
        <time>2011-03-12T15:04:07Z</time>
      </trkpt>
      <trkpt lat="48.67221" lon="7.29922">
        <ele>518.121582</ele>
        <time>2011-03-12T15:04:09Z</time>
      </trkpt>
      <trkpt lat="48.67222" lon="7.29914">
        <ele>517.918457</ele>
        <time>2011-03-12T15:04:11Z</time>
      </trkpt>
      <trkpt lat="48.67223" lon="7.29905">
        <ele>517.793457</ele>
        <time>2011-03-12T15:04:13Z</time>
      </trkpt>
      <trkpt lat="48.67224" lon="7.29897">
        <ele>518.137207</ele>
        <time>2011-03-12T15:04:15Z</time>
      </trkpt>
      <trkpt lat="48.67225" lon="7.29888">
        <ele>518.059082</ele>
        <time>2011-03-12T15:04:17Z</time>
      </trkpt>
      <trkpt lat="48.67226" lon="7.2988">
        <ele>517.871582</ele>
        <time>2011-03-12T15:04:19Z</time>
      </trkpt>
      <trkpt lat="48.67227" lon="7.29871">
        <ele>517.699707</ele>
        <time>2011-03-12T15:04:21Z</time>
      </trkpt>
      <trkpt lat="48.67228" lon="7.29862">
        <ele>518.434082</ele>
        <time>2011-03-12T15:04:23Z</time>
      </trkpt>
      <trkpt lat="48.6723" lon="7.29854">
        <ele>518.418457</ele>
        <time>2011-03-12T15:04:25Z</time>
      </trkpt>
      <trkpt lat="48.67231" lon="7.29845">
        <ele>519.043457</ele>
        <time>2011-03-12T15:04:27Z</time>
      </trkpt>
      <trkpt lat="48.67232" lon="7.29837">
        <ele>519.387207</ele>
        <time>2011-03-12T15:04:29Z</time>
      </trkpt>
      <trkpt lat="48.67233" lon="7.29828">
        <ele>519.559082</ele>
        <time>2011-03-12T15:04:31Z</time>
      </trkpt>
      <trkpt lat="48.67235" lon="7.2982">
        <ele>520.246582</ele>
        <time>2011-03-12T15:04:33Z</time>
      </trkpt>
      <trkpt lat="48.67236" lon="7.29811">
        <ele>521.699707</ele>
        <time>2011-03-12T15:04:35Z</time>
      </trkpt>
      <trkpt lat="48.67237" lon="7.29802">
        <ele>521.949707</ele>
        <time>2011-03-12T15:04:37Z</time>
      </trkpt>
      <trkpt lat="48.67238" lon="7.29794">
        <ele>520.152832</ele>
        <time>2011-03-12T15:04:39Z</time>
      </trkpt>
      <trkpt lat="48.67239" lon="7.29786">
        <ele>520.496582</ele>
        <time>2011-03-12T15:04:41Z</time>
      </trkpt>
      <trkpt lat="48.67241" lon="7.29778">
        <ele>520.480957</ele>
        <time>2011-03-12T15:04:43Z</time>
      </trkpt>
      <trkpt lat="48.67242" lon="7.2977">
        <ele>518.887207</ele>
        <time>2011-03-12T15:04:45Z</time>
      </trkpt>
      <trkpt lat="48.67244" lon="7.29762">
        <ele>519.512207</ele>
        <time>2011-03-12T15:04:47Z</time>
      </trkpt>
      <trkpt lat="48.67245" lon="7.29754">
        <ele>519.840332</ele>
        <time>2011-03-12T15:04:49Z</time>
      </trkpt>
      <trkpt lat="48.67247" lon="7.29745">
        <ele>518.871582</ele>
        <time>2011-03-12T15:04:51Z</time>
      </trkpt>
      <trkpt lat="48.67248" lon="7.29736">
        <ele>518.449707</ele>
        <time>2011-03-12T15:04:53Z</time>
      </trkpt>
      <trkpt lat="48.6725" lon="7.29727">
        <ele>517.949707</ele>
        <time>2011-03-12T15:04:55Z</time>
      </trkpt>
      <trkpt lat="48.67251" lon="7.29719">
        <ele>518.027832</ele>
        <time>2011-03-12T15:04:57Z</time>
      </trkpt>
      <trkpt lat="48.67252" lon="7.29709">
        <ele>518.277832</ele>
        <time>2011-03-12T15:04:59Z</time>
      </trkpt>
      <trkpt lat="48.67253" lon="7.297">
        <ele>518.777832</ele>
        <time>2011-03-12T15:05:01Z</time>
      </trkpt>
      <trkpt lat="48.67253" lon="7.2969">
        <ele>520.168457</ele>
        <time>2011-03-12T15:05:03Z</time>
      </trkpt>
      <trkpt lat="48.67252" lon="7.29681">
        <ele>521.652832</ele>
        <time>2011-03-12T15:05:05Z</time>
      </trkpt>
      <trkpt lat="48.67251" lon="7.29672">
        <ele>521.809082</ele>
        <time>2011-03-12T15:05:07Z</time>
      </trkpt>
      <trkpt lat="48.67249" lon="7.29663">
        <ele>522.934082</ele>
        <time>2011-03-12T15:05:09Z</time>
      </trkpt>
      <trkpt lat="48.67246" lon="7.29658">
        <ele>521.355957</ele>
        <time>2011-03-12T15:05:10Z</time>
      </trkpt>
      <trkpt lat="48.67243" lon="7.29649">
        <ele>521.887207</ele>
        <time>2011-03-12T15:05:12Z</time>
      </trkpt>
      <trkpt lat="48.67239" lon="7.2964">
        <ele>520.840332</ele>
        <time>2011-03-12T15:05:14Z</time>
      </trkpt>
      <trkpt lat="48.67234" lon="7.29631">
        <ele>520.730957</ele>
        <time>2011-03-12T15:05:16Z</time>
      </trkpt>
      <trkpt lat="48.6723" lon="7.29623">
        <ele>521.043457</ele>
        <time>2011-03-12T15:05:18Z</time>
      </trkpt>
      <trkpt lat="48.67226" lon="7.29615">
        <ele>521.371582</ele>
        <time>2011-03-12T15:05:20Z</time>
      </trkpt>
      <trkpt lat="48.67222" lon="7.29608">
        <ele>521.965332</ele>
        <time>2011-03-12T15:05:22Z</time>
      </trkpt>
      <trkpt lat="48.67217" lon="7.296">
        <ele>522.496582</ele>
        <time>2011-03-12T15:05:24Z</time>
      </trkpt>
      <trkpt lat="48.67214" lon="7.29595">
        <ele>523.434082</ele>
        <time>2011-03-12T15:05:25Z</time>
      </trkpt>
      <trkpt lat="48.67209" lon="7.29588">
        <ele>524.402832</ele>
        <time>2011-03-12T15:05:27Z</time>
      </trkpt>
      <trkpt lat="48.67202" lon="7.29581">
        <ele>525.105957</ele>
        <time>2011-03-12T15:05:29Z</time>
      </trkpt>
      <trkpt lat="48.67197" lon="7.2958">
        <ele>525.309082</ele>
        <time>2011-03-12T15:05:30Z</time>
      </trkpt>
      <trkpt lat="48.67192" lon="7.29578">
        <ele>525.637207</ele>
        <time>2011-03-12T15:05:31Z</time>
      </trkpt>
      <trkpt lat="48.67188" lon="7.29576">
        <ele>525.902832</ele>
        <time>2011-03-12T15:05:32Z</time>
      </trkpt>
      <trkpt lat="48.67184" lon="7.29573">
        <ele>526.168457</ele>
        <time>2011-03-12T15:05:33Z</time>
      </trkpt>
      <trkpt lat="48.67179" lon="7.29571">
        <ele>526.605957</ele>
        <time>2011-03-12T15:05:34Z</time>
      </trkpt>
      <trkpt lat="48.67175" lon="7.29569">
        <ele>526.965332</ele>
        <time>2011-03-12T15:05:35Z</time>
      </trkpt>
      <trkpt lat="48.6717" lon="7.29567">
        <ele>527.480957</ele>
        <time>2011-03-12T15:05:36Z</time>
      </trkpt>
      <trkpt lat="48.67165" lon="7.29565">
        <ele>527.871582</ele>
        <time>2011-03-12T15:05:37Z</time>
      </trkpt>
      <trkpt lat="48.6716" lon="7.29563">
        <ele>528.324707</ele>
        <time>2011-03-12T15:05:38Z</time>
      </trkpt>
      <trkpt lat="48.67155" lon="7.29561">
        <ele>528.949707</ele>
        <time>2011-03-12T15:05:39Z</time>
      </trkpt>
      <trkpt lat="48.67151" lon="7.29559">
        <ele>529.387207</ele>
        <time>2011-03-12T15:05:40Z</time>
      </trkpt>
      <trkpt lat="48.67142" lon="7.29556">
        <ele>530.684082</ele>
        <time>2011-03-12T15:05:42Z</time>
      </trkpt>
      <trkpt lat="48.67133" lon="7.29554">
        <ele>530.965332</ele>
        <time>2011-03-12T15:05:44Z</time>
      </trkpt>
      <trkpt lat="48.67128" lon="7.29553">
        <ele>531.684082</ele>
        <time>2011-03-12T15:05:45Z</time>
      </trkpt>
      <trkpt lat="48.67123" lon="7.29551">
        <ele>532.230957</ele>
        <time>2011-03-12T15:05:46Z</time>
      </trkpt>
      <trkpt lat="48.67115" lon="7.2955">
        <ele>533.480957</ele>
        <time>2011-03-12T15:05:48Z</time>
      </trkpt>
      <trkpt lat="48.67106" lon="7.29549">
        <ele>534.762207</ele>
        <time>2011-03-12T15:05:50Z</time>
      </trkpt>
      <trkpt lat="48.67102" lon="7.29548">
        <ele>535.262207</ele>
        <time>2011-03-12T15:05:51Z</time>
      </trkpt>
      <trkpt lat="48.67093" lon="7.29543">
        <ele>536.027832</ele>
        <time>2011-03-12T15:05:53Z</time>
      </trkpt>
      <trkpt lat="48.67086" lon="7.29536">
        <ele>535.855957</ele>
        <time>2011-03-12T15:05:55Z</time>
      </trkpt>
      <trkpt lat="48.67082" lon="7.29526">
        <ele>536.512207</ele>
        <time>2011-03-12T15:05:57Z</time>
      </trkpt>
      <trkpt lat="48.67075" lon="7.29518">
        <ele>537.105957</ele>
        <time>2011-03-12T15:05:59Z</time>
      </trkpt>
      <trkpt lat="48.6707" lon="7.29509">
        <ele>537.168457</ele>
        <time>2011-03-12T15:06:01Z</time>
      </trkpt>
      <trkpt lat="48.67064" lon="7.29501">
        <ele>538.215332</ele>
        <time>2011-03-12T15:06:03Z</time>
      </trkpt>
      <trkpt lat="48.6706" lon="7.29489">
        <ele>538.387207</ele>
        <time>2011-03-12T15:06:05Z</time>
      </trkpt>
      <trkpt lat="48.67055" lon="7.2948">
        <ele>539.184082</ele>
        <time>2011-03-12T15:06:07Z</time>
      </trkpt>
      <trkpt lat="48.67051" lon="7.2947">
        <ele>539.637207</ele>
        <time>2011-03-12T15:06:09Z</time>
      </trkpt>
      <trkpt lat="48.67052" lon="7.29457">
        <ele>542.762207</ele>
        <time>2011-03-12T15:06:10Z</time>
      </trkpt>
      <trkpt lat="48.6705" lon="7.29449">
        <ele>543.230957</ele>
        <time>2011-03-12T15:06:11Z</time>
      </trkpt>
      <trkpt lat="48.67048" lon="7.29441">
        <ele>542.996582</ele>
        <time>2011-03-12T15:06:12Z</time>
      </trkpt>
      <trkpt lat="48.67046" lon="7.29433">
        <ele>543.324707</ele>
        <time>2011-03-12T15:06:13Z</time>
      </trkpt>
      <trkpt lat="48.67045" lon="7.29426">
        <ele>543.980957</ele>
        <time>2011-03-12T15:06:14Z</time>
      </trkpt>
      <trkpt lat="48.67041" lon="7.29419">
        <ele>544.324707</ele>
        <time>2011-03-12T15:06:16Z</time>
      </trkpt>
      <trkpt lat="48.67037" lon="7.29409">
        <ele>544.605957</ele>
        <time>2011-03-12T15:06:18Z</time>
      </trkpt>
      <trkpt lat="48.67033" lon="7.294">
        <ele>544.652832</ele>
        <time>2011-03-12T15:06:20Z</time>
      </trkpt>
      <trkpt lat="48.67028" lon="7.29391">
        <ele>543.840332</ele>
        <time>2011-03-12T15:06:22Z</time>
      </trkpt>
      <trkpt lat="48.67022" lon="7.29384">
        <ele>542.793457</ele>
        <time>2011-03-12T15:06:24Z</time>
      </trkpt>
      <trkpt lat="48.67021" lon="7.29378">
        <ele>543.809082</ele>
        <time>2011-03-12T15:06:25Z</time>
      </trkpt>
      <trkpt lat="48.67015" lon="7.29371">
        <ele>542.230957</ele>
        <time>2011-03-12T15:06:27Z</time>
      </trkpt>
      <trkpt lat="48.67011" lon="7.29361">
        <ele>541.996582</ele>
        <time>2011-03-12T15:06:29Z</time>
      </trkpt>
      <trkpt lat="48.67007" lon="7.29353">
        <ele>540.824707</ele>
        <time>2011-03-12T15:06:31Z</time>
      </trkpt>
      <trkpt lat="48.67002" lon="7.29344">
        <ele>540.684082</ele>
        <time>2011-03-12T15:06:33Z</time>
      </trkpt>
      <trkpt lat="48.66997" lon="7.29334">
        <ele>541.996582</ele>
        <time>2011-03-12T15:06:35Z</time>
      </trkpt>
      <trkpt lat="48.66991" lon="7.29325">
        <ele>541.840332</ele>
        <time>2011-03-12T15:06:37Z</time>
      </trkpt>
      <trkpt lat="48.66985" lon="7.29319">
        <ele>541.309082</ele>
        <time>2011-03-12T15:06:39Z</time>
      </trkpt>
      <trkpt lat="48.6698" lon="7.29314">
        <ele>541.293457</ele>
        <time>2011-03-12T15:06:41Z</time>
      </trkpt>
      <trkpt lat="48.66976" lon="7.29305">
        <ele>539.105957</ele>
        <time>2011-03-12T15:06:44Z</time>
      </trkpt>
      <trkpt lat="48.66972" lon="7.29295">
        <ele>539.668457</ele>
        <time>2011-03-12T15:06:46Z</time>
      </trkpt>
      <trkpt lat="48.66968" lon="7.29285">
        <ele>539.949707</ele>
        <time>2011-03-12T15:06:48Z</time>
      </trkpt>
      <trkpt lat="48.66966" lon="7.29274">
        <ele>540.121582</ele>
        <time>2011-03-12T15:06:50Z</time>
      </trkpt>
      <trkpt lat="48.66964" lon="7.29263">
        <ele>536.949707</ele>
        <time>2011-03-12T15:06:52Z</time>
      </trkpt>
      <trkpt lat="48.66962" lon="7.29256">
        <ele>535.902832</ele>
        <time>2011-03-12T15:06:53Z</time>
      </trkpt>
      <trkpt lat="48.66958" lon="7.29247">
        <ele>536.262207</ele>
        <time>2011-03-12T15:06:55Z</time>
      </trkpt>
      <trkpt lat="48.66952" lon="7.29236">
        <ele>534.105957</ele>
        <time>2011-03-12T15:06:57Z</time>
      </trkpt>
      <trkpt lat="48.6695" lon="7.2923">
        <ele>534.371582</ele>
        <time>2011-03-12T15:06:58Z</time>
      </trkpt>
      <trkpt lat="48.66945" lon="7.2922">
        <ele>533.512207</ele>
        <time>2011-03-12T15:07:00Z</time>
      </trkpt>
      <trkpt lat="48.66942" lon="7.2921">
        <ele>533.637207</ele>
        <time>2011-03-12T15:07:02Z</time>
      </trkpt>
      <trkpt lat="48.6694" lon="7.29206">
        <ele>530.027832</ele>
        <time>2011-03-12T15:07:03Z</time>
      </trkpt>
      <trkpt lat="48.66938" lon="7.29194">
        <ele>530.152832</ele>
        <time>2011-03-12T15:07:05Z</time>
      </trkpt>
      <trkpt lat="48.66936" lon="7.29185">
        <ele>528.949707</ele>
        <time>2011-03-12T15:07:07Z</time>
      </trkpt>
      <trkpt lat="48.66932" lon="7.29176">
        <ele>528.012207</ele>
        <time>2011-03-12T15:07:09Z</time>
      </trkpt>
      <trkpt lat="48.66929" lon="7.29167">
        <ele>528.121582</ele>
        <time>2011-03-12T15:07:11Z</time>
      </trkpt>
      <trkpt lat="48.66925" lon="7.29159">
        <ele>528.855957</ele>
        <time>2011-03-12T15:07:13Z</time>
      </trkpt>
      <trkpt lat="48.66923" lon="7.29146">
        <ele>528.340332</ele>
        <time>2011-03-12T15:07:15Z</time>
      </trkpt>
      <trkpt lat="48.6692" lon="7.29136">
        <ele>527.262207</ele>
        <time>2011-03-12T15:07:17Z</time>
      </trkpt>
      <trkpt lat="48.66917" lon="7.29126">
        <ele>528.105957</ele>
        <time>2011-03-12T15:07:19Z</time>
      </trkpt>
      <trkpt lat="48.66915" lon="7.2912">
        <ele>527.434082</ele>
        <time>2011-03-12T15:07:20Z</time>
      </trkpt>
      <trkpt lat="48.66913" lon="7.29105">
        <ele>526.199707</ele>
        <time>2011-03-12T15:07:22Z</time>
      </trkpt>
      <trkpt lat="48.66911" lon="7.29095">
        <ele>525.449707</ele>
        <time>2011-03-12T15:07:24Z</time>
      </trkpt>
      <trkpt lat="48.66908" lon="7.29084">
        <ele>525.965332</ele>
        <time>2011-03-12T15:07:26Z</time>
      </trkpt>
      <trkpt lat="48.66906" lon="7.29072">
        <ele>525.371582</ele>
        <time>2011-03-12T15:07:28Z</time>
      </trkpt>
      <trkpt lat="48.66903" lon="7.29061">
        <ele>523.934082</ele>
        <time>2011-03-12T15:07:30Z</time>
      </trkpt>
      <trkpt lat="48.66903" lon="7.29054">
        <ele>523.246582</ele>
        <time>2011-03-12T15:07:31Z</time>
      </trkpt>
      <trkpt lat="48.66902" lon="7.29046">
        <ele>521.809082</ele>
        <time>2011-03-12T15:07:32Z</time>
      </trkpt>
      <trkpt lat="48.66903" lon="7.29037">
        <ele>521.418457</ele>
        <time>2011-03-12T15:07:33Z</time>
      </trkpt>
      <trkpt lat="48.66903" lon="7.29029">
        <ele>520.793457</ele>
        <time>2011-03-12T15:07:34Z</time>
      </trkpt>
      <trkpt lat="48.66903" lon="7.2902">
        <ele>520.137207</ele>
        <time>2011-03-12T15:07:35Z</time>
      </trkpt>
      <trkpt lat="48.66905" lon="7.2901">
        <ele>518.512207</ele>
        <time>2011-03-12T15:07:36Z</time>
      </trkpt>
      <trkpt lat="48.66906" lon="7.29002">
        <ele>518.043457</ele>
        <time>2011-03-12T15:07:37Z</time>
      </trkpt>
      <trkpt lat="48.66908" lon="7.28995">
        <ele>518.012207</ele>
        <time>2011-03-12T15:07:38Z</time>
      </trkpt>
      <trkpt lat="48.66909" lon="7.28987">
        <ele>517.340332</ele>
        <time>2011-03-12T15:07:39Z</time>
      </trkpt>
      <trkpt lat="48.66905" lon="7.2898">
        <ele>518.918457</ele>
        <time>2011-03-12T15:07:40Z</time>
      </trkpt>
      <trkpt lat="48.66904" lon="7.28972">
        <ele>519.277832</ele>
        <time>2011-03-12T15:07:41Z</time>
      </trkpt>
      <trkpt lat="48.66903" lon="7.28965">
        <ele>518.840332</ele>
        <time>2011-03-12T15:07:42Z</time>
      </trkpt>
      <trkpt lat="48.66903" lon="7.28958">
        <ele>518.262207</ele>
        <time>2011-03-12T15:07:43Z</time>
      </trkpt>
      <trkpt lat="48.66902" lon="7.28951">
        <ele>517.637207</ele>
        <time>2011-03-12T15:07:44Z</time>
      </trkpt>
      <trkpt lat="48.66903" lon="7.28943">
        <ele>515.824707</ele>
        <time>2011-03-12T15:07:45Z</time>
      </trkpt>
      <trkpt lat="48.669" lon="7.2893">
        <ele>515.480957</ele>
        <time>2011-03-12T15:07:47Z</time>
      </trkpt>
      <trkpt lat="48.66899" lon="7.28917">
        <ele>514.480957</ele>
        <time>2011-03-12T15:07:49Z</time>
      </trkpt>
      <trkpt lat="48.66897" lon="7.28906">
        <ele>514.309082</ele>
        <time>2011-03-12T15:07:51Z</time>
      </trkpt>
      <trkpt lat="48.66896" lon="7.28894">
        <ele>513.980957</ele>
        <time>2011-03-12T15:07:53Z</time>
      </trkpt>
      <trkpt lat="48.66897" lon="7.28885">
        <ele>514.277832</ele>
        <time>2011-03-12T15:07:55Z</time>
      </trkpt>
      <trkpt lat="48.66895" lon="7.28887">
        <ele>509.615479</ele>
        <time>2011-03-12T15:12:05Z</time>
      </trkpt>
      <trkpt lat="48.66895" lon="7.2888">
        <ele>508.224854</ele>
        <time>2011-03-12T15:12:31Z</time>
      </trkpt>
      <trkpt lat="48.66898" lon="7.28873">
        <ele>508.115479</ele>
        <time>2011-03-12T15:13:03Z</time>
      </trkpt>
      <trkpt lat="48.66898" lon="7.28867">
        <ele>507.521729</ele>
        <time>2011-03-12T15:13:06Z</time>
      </trkpt>
      <trkpt lat="48.66899" lon="7.28859">
        <ele>507.162354</ele>
        <time>2011-03-12T15:13:10Z</time>
      </trkpt>
      <trkpt lat="48.66902" lon="7.28852">
        <ele>507.076416</ele>
        <time>2011-03-12T15:13:13Z</time>
      </trkpt>
      <trkpt lat="48.66905" lon="7.28847">
        <ele>506.998291</ele>
        <time>2011-03-12T15:13:15Z</time>
      </trkpt>
      <trkpt lat="48.66909" lon="7.28841">
        <ele>507.037354</ele>
        <time>2011-03-12T15:13:17Z</time>
      </trkpt>
      <trkpt lat="48.66914" lon="7.28833">
        <ele>507.498291</ele>
        <time>2011-03-12T15:13:19Z</time>
      </trkpt>
      <trkpt lat="48.66919" lon="7.28824">
        <ele>506.842041</ele>
        <time>2011-03-12T15:13:21Z</time>
      </trkpt>
      <trkpt lat="48.66923" lon="7.28819">
        <ele>506.654541</ele>
        <time>2011-03-12T15:13:22Z</time>
      </trkpt>
      <trkpt lat="48.66927" lon="7.28815">
        <ele>506.740479</ele>
        <time>2011-03-12T15:13:23Z</time>
      </trkpt>
      <trkpt lat="48.66932" lon="7.28812">
        <ele>506.904541</ele>
        <time>2011-03-12T15:13:24Z</time>
      </trkpt>
      <trkpt lat="48.66936" lon="7.28809">
        <ele>506.935791</ele>
        <time>2011-03-12T15:13:25Z</time>
      </trkpt>
      <trkpt lat="48.66941" lon="7.28806">
        <ele>506.881104</ele>
        <time>2011-03-12T15:13:26Z</time>
      </trkpt>
      <trkpt lat="48.66945" lon="7.28804">
        <ele>506.849854</ele>
        <time>2011-03-12T15:13:27Z</time>
      </trkpt>
      <trkpt lat="48.6695" lon="7.28803">
        <ele>506.849854</ele>
        <time>2011-03-12T15:13:28Z</time>
      </trkpt>
      <trkpt lat="48.66959" lon="7.28798">
        <ele>507.084229</ele>
        <time>2011-03-12T15:13:30Z</time>
      </trkpt>
      <trkpt lat="48.66964" lon="7.28796">
        <ele>507.138916</ele>
        <time>2011-03-12T15:13:31Z</time>
      </trkpt>
      <trkpt lat="48.66969" lon="7.28793">
        <ele>507.232666</ele>
        <time>2011-03-12T15:13:32Z</time>
      </trkpt>
      <trkpt lat="48.66974" lon="7.28791">
        <ele>507.427979</ele>
        <time>2011-03-12T15:13:33Z</time>
      </trkpt>
      <trkpt lat="48.66979" lon="7.28789">
        <ele>507.615479</ele>
        <time>2011-03-12T15:13:34Z</time>
      </trkpt>
      <trkpt lat="48.66984" lon="7.28786">
        <ele>508.193604</ele>
        <time>2011-03-12T15:13:35Z</time>
      </trkpt>
      <trkpt lat="48.66988" lon="7.28785">
        <ele>508.552979</ele>
        <time>2011-03-12T15:13:36Z</time>
      </trkpt>
      <trkpt lat="48.66993" lon="7.28782">
        <ele>508.295166</ele>
        <time>2011-03-12T15:13:37Z</time>
      </trkpt>
      <trkpt lat="48.66998" lon="7.28779">
        <ele>507.701416</ele>
        <time>2011-03-12T15:13:38Z</time>
      </trkpt>
      <trkpt lat="48.67003" lon="7.28774">
        <ele>505.990479</ele>
        <time>2011-03-12T15:13:39Z</time>
      </trkpt>
      <trkpt lat="48.67008" lon="7.2877">
        <ele>505.170166</ele>
        <time>2011-03-12T15:13:40Z</time>
      </trkpt>
      <trkpt lat="48.67013" lon="7.28767">
        <ele>504.646729</ele>
        <time>2011-03-12T15:13:41Z</time>
      </trkpt>
      <trkpt lat="48.6702" lon="7.28765">
        <ele>503.818604</ele>
        <time>2011-03-12T15:13:42Z</time>
      </trkpt>
      <trkpt lat="48.67027" lon="7.28763">
        <ele>503.342041</ele>
        <time>2011-03-12T15:13:43Z</time>
      </trkpt>
      <trkpt lat="48.67033" lon="7.2876">
        <ele>503.013916</ele>
        <time>2011-03-12T15:13:44Z</time>
      </trkpt>
      <trkpt lat="48.67038" lon="7.28759">
        <ele>501.623291</ele>
        <time>2011-03-12T15:13:45Z</time>
      </trkpt>
      <trkpt lat="48.67044" lon="7.2876">
        <ele>502.982666</ele>
        <time>2011-03-12T15:13:47Z</time>
      </trkpt>
      <trkpt lat="48.67048" lon="7.28762">
        <ele>503.631104</ele>
        <time>2011-03-12T15:13:49Z</time>
      </trkpt>
      <trkpt lat="48.67054" lon="7.28763">
        <ele>503.545166</ele>
        <time>2011-03-12T15:13:51Z</time>
      </trkpt>
      <trkpt lat="48.67059" lon="7.28765">
        <ele>502.217041</ele>
        <time>2011-03-12T15:13:53Z</time>
      </trkpt>
      <trkpt lat="48.67065" lon="7.28768">
        <ele>501.849854</ele>
        <time>2011-03-12T15:13:55Z</time>
      </trkpt>
      <trkpt lat="48.67072" lon="7.28769">
        <ele>501.388916</ele>
        <time>2011-03-12T15:13:57Z</time>
      </trkpt>
      <trkpt lat="48.67078" lon="7.2877">
        <ele>503.037354</ele>
        <time>2011-03-12T15:13:59Z</time>
      </trkpt>
      <trkpt lat="48.67086" lon="7.28772">
        <ele>502.123291</ele>
        <time>2011-03-12T15:14:01Z</time>
      </trkpt>
      <trkpt lat="48.67092" lon="7.28774">
        <ele>501.357666</ele>
        <time>2011-03-12T15:14:03Z</time>
      </trkpt>
      <trkpt lat="48.67096" lon="7.28775">
        <ele>502.443604</ele>
        <time>2011-03-12T15:14:05Z</time>
      </trkpt>
      <trkpt lat="48.67103" lon="7.28774">
        <ele>500.717041</ele>
        <time>2011-03-12T15:14:07Z</time>
      </trkpt>
      <trkpt lat="48.67108" lon="7.28779">
        <ele>501.506104</ele>
        <time>2011-03-12T15:14:09Z</time>
      </trkpt>
      <trkpt lat="48.67116" lon="7.2878">
        <ele>500.037354</ele>
        <time>2011-03-12T15:14:11Z</time>
      </trkpt>
      <trkpt lat="48.67124" lon="7.28783">
        <ele>499.881104</ele>
        <time>2011-03-12T15:14:13Z</time>
      </trkpt>
      <trkpt lat="48.67132" lon="7.28785">
        <ele>499.615479</ele>
        <time>2011-03-12T15:14:15Z</time>
      </trkpt>
      <trkpt lat="48.67139" lon="7.28788">
        <ele>499.123291</ele>
        <time>2011-03-12T15:14:17Z</time>
      </trkpt>
      <trkpt lat="48.67146" lon="7.28791">
        <ele>499.467041</ele>
        <time>2011-03-12T15:14:19Z</time>
      </trkpt>
      <trkpt lat="48.67153" lon="7.28795">
        <ele>498.201416</ele>
        <time>2011-03-12T15:14:21Z</time>
      </trkpt>
      <trkpt lat="48.6716" lon="7.288">
        <ele>498.615479</ele>
        <time>2011-03-12T15:14:23Z</time>
      </trkpt>
      <trkpt lat="48.67168" lon="7.28804">
        <ele>498.888916</ele>
        <time>2011-03-12T15:14:25Z</time>
      </trkpt>
      <trkpt lat="48.67176" lon="7.2881">
        <ele>498.935791</ele>
        <time>2011-03-12T15:14:27Z</time>
      </trkpt>
      <trkpt lat="48.67184" lon="7.28813">
        <ele>499.771729</ele>
        <time>2011-03-12T15:14:29Z</time>
      </trkpt>
      <trkpt lat="48.67189" lon="7.28815">
        <ele>499.857666</ele>
        <time>2011-03-12T15:14:31Z</time>
      </trkpt>
      <trkpt lat="48.67195" lon="7.28817">
        <ele>500.732666</ele>
        <time>2011-03-12T15:14:34Z</time>
      </trkpt>
      <trkpt lat="48.67199" lon="7.2882">
        <ele>502.521729</ele>
        <time>2011-03-12T15:14:36Z</time>
      </trkpt>
      <trkpt lat="48.67202" lon="7.28825">
        <ele>503.615479</ele>
        <time>2011-03-12T15:14:38Z</time>
      </trkpt>
      <trkpt lat="48.67209" lon="7.28822">
        <ele>505.131104</ele>
        <time>2011-03-12T15:14:41Z</time>
      </trkpt>
      <trkpt lat="48.67216" lon="7.28821">
        <ele>504.060791</ele>
        <time>2011-03-12T15:14:43Z</time>
      </trkpt>
      <trkpt lat="48.67221" lon="7.2882">
        <ele>507.201416</ele>
        <time>2011-03-12T15:14:45Z</time>
      </trkpt>
      <trkpt lat="48.67226" lon="7.28822">
        <ele>507.857666</ele>
        <time>2011-03-12T15:14:47Z</time>
      </trkpt>
      <trkpt lat="48.67231" lon="7.28823">
        <ele>507.646729</ele>
        <time>2011-03-12T15:14:49Z</time>
      </trkpt>
      <trkpt lat="48.67238" lon="7.28826">
        <ele>509.045166</ele>
        <time>2011-03-12T15:14:51Z</time>
      </trkpt>
      <trkpt lat="48.67244" lon="7.28829">
        <ele>510.584229</ele>
        <time>2011-03-12T15:14:53Z</time>
      </trkpt>
      <trkpt lat="48.67252" lon="7.28834">
        <ele>509.217041</ele>
        <time>2011-03-12T15:14:55Z</time>
      </trkpt>
      <trkpt lat="48.67258" lon="7.28837">
        <ele>508.545166</ele>
        <time>2011-03-12T15:14:57Z</time>
      </trkpt>
      <trkpt lat="48.67263" lon="7.28842">
        <ele>509.084229</ele>
        <time>2011-03-12T15:14:59Z</time>
      </trkpt>
      <trkpt lat="48.67268" lon="7.28846">
        <ele>508.482666</ele>
        <time>2011-03-12T15:15:01Z</time>
      </trkpt>
      <trkpt lat="48.67271" lon="7.28851">
        <ele>507.349854</ele>
        <time>2011-03-12T15:15:04Z</time>
      </trkpt>
      <trkpt lat="48.67276" lon="7.28854">
        <ele>508.021729</ele>
        <time>2011-03-12T15:15:07Z</time>
      </trkpt>
      <trkpt lat="48.67281" lon="7.28856">
        <ele>507.771729</ele>
        <time>2011-03-12T15:15:09Z</time>
      </trkpt>
      <trkpt lat="48.67287" lon="7.28861">
        <ele>508.326416</ele>
        <time>2011-03-12T15:15:11Z</time>
      </trkpt>
      <trkpt lat="48.67295" lon="7.28864">
        <ele>508.592041</ele>
        <time>2011-03-12T15:15:13Z</time>
      </trkpt>
      <trkpt lat="48.67301" lon="7.28868">
        <ele>508.537354</ele>
        <time>2011-03-12T15:15:15Z</time>
      </trkpt>
      <trkpt lat="48.67307" lon="7.28873">
        <ele>507.935791</ele>
        <time>2011-03-12T15:15:17Z</time>
      </trkpt>
      <trkpt lat="48.67315" lon="7.28874">
        <ele>508.888916</ele>
        <time>2011-03-12T15:15:19Z</time>
      </trkpt>
      <trkpt lat="48.6732" lon="7.28876">
        <ele>507.092041</ele>
        <time>2011-03-12T15:15:21Z</time>
      </trkpt>
      <trkpt lat="48.67326" lon="7.2888">
        <ele>507.545166</ele>
        <time>2011-03-12T15:15:23Z</time>
      </trkpt>
      <trkpt lat="48.67331" lon="7.28884">
        <ele>507.092041</ele>
        <time>2011-03-12T15:15:25Z</time>
      </trkpt>
      <trkpt lat="48.67336" lon="7.28892">
        <ele>506.857666</ele>
        <time>2011-03-12T15:15:27Z</time>
      </trkpt>
      <trkpt lat="48.67339" lon="7.28897">
        <ele>506.326416</ele>
        <time>2011-03-12T15:15:28Z</time>
      </trkpt>
      <trkpt lat="48.67346" lon="7.28906">
        <ele>505.037354</ele>
        <time>2011-03-12T15:15:30Z</time>
      </trkpt>
      <trkpt lat="48.67351" lon="7.28917">
        <ele>504.904541</ele>
        <time>2011-03-12T15:15:32Z</time>
      </trkpt>
      <trkpt lat="48.67354" lon="7.28926">
        <ele>505.318604</ele>
        <time>2011-03-12T15:15:34Z</time>
      </trkpt>
      <trkpt lat="48.67359" lon="7.28937">
        <ele>505.373291</ele>
        <time>2011-03-12T15:15:36Z</time>
      </trkpt>
      <trkpt lat="48.67365" lon="7.28946">
        <ele>505.060791</ele>
        <time>2011-03-12T15:15:38Z</time>
      </trkpt>
      <trkpt lat="48.6737" lon="7.28955">
        <ele>504.888916</ele>
        <time>2011-03-12T15:15:40Z</time>
      </trkpt>
      <trkpt lat="48.67374" lon="7.28963">
        <ele>504.599854</ele>
        <time>2011-03-12T15:15:42Z</time>
      </trkpt>
      <trkpt lat="48.67378" lon="7.28971">
        <ele>504.599854</ele>
        <time>2011-03-12T15:15:44Z</time>
      </trkpt>
      <trkpt lat="48.67381" lon="7.28978">
        <ele>504.193604</ele>
        <time>2011-03-12T15:15:46Z</time>
      </trkpt>
      <trkpt lat="48.67386" lon="7.28986">
        <ele>504.162354</ele>
        <time>2011-03-12T15:15:48Z</time>
      </trkpt>
      <trkpt lat="48.67389" lon="7.28993">
        <ele>504.052979</ele>
        <time>2011-03-12T15:15:50Z</time>
      </trkpt>
      <trkpt lat="48.67394" lon="7.29">
        <ele>504.381104</ele>
        <time>2011-03-12T15:15:52Z</time>
      </trkpt>
      <trkpt lat="48.67396" lon="7.29008">
        <ele>504.756104</ele>
        <time>2011-03-12T15:15:54Z</time>
      </trkpt>
      <trkpt lat="48.674" lon="7.29016">
        <ele>504.552979</ele>
        <time>2011-03-12T15:15:56Z</time>
      </trkpt>
      <trkpt lat="48.67404" lon="7.29024">
        <ele>504.529541</ele>
        <time>2011-03-12T15:15:58Z</time>
      </trkpt>
      <trkpt lat="48.67409" lon="7.29031">
        <ele>504.779541</ele>
        <time>2011-03-12T15:16:00Z</time>
      </trkpt>
      <trkpt lat="48.67415" lon="7.2904">
        <ele>504.927979</ele>
        <time>2011-03-12T15:16:02Z</time>
      </trkpt>
      <trkpt lat="48.67421" lon="7.29047">
        <ele>504.990479</ele>
        <time>2011-03-12T15:16:04Z</time>
      </trkpt>
      <trkpt lat="48.67427" lon="7.29057">
        <ele>503.982666</ele>
        <time>2011-03-12T15:16:06Z</time>
      </trkpt>
      <trkpt lat="48.67433" lon="7.29064">
        <ele>503.967041</ele>
        <time>2011-03-12T15:16:08Z</time>
      </trkpt>
      <trkpt lat="48.67439" lon="7.29071">
        <ele>502.802979</ele>
        <time>2011-03-12T15:16:10Z</time>
      </trkpt>
      <trkpt lat="48.67445" lon="7.29077">
        <ele>502.912354</ele>
        <time>2011-03-12T15:16:12Z</time>
      </trkpt>
      <trkpt lat="48.67451" lon="7.29082">
        <ele>502.842041</ele>
        <time>2011-03-12T15:16:14Z</time>
      </trkpt>
      <trkpt lat="48.67458" lon="7.29086">
        <ele>502.560791</ele>
        <time>2011-03-12T15:16:16Z</time>
      </trkpt>
      <trkpt lat="48.67464" lon="7.29092">
        <ele>502.740479</ele>
        <time>2011-03-12T15:16:18Z</time>
      </trkpt>
      <trkpt lat="48.67471" lon="7.29097">
        <ele>503.115479</ele>
        <time>2011-03-12T15:16:20Z</time>
      </trkpt>
      <trkpt lat="48.67479" lon="7.29099">
        <ele>503.529541</ele>
        <time>2011-03-12T15:16:22Z</time>
      </trkpt>
      <trkpt lat="48.67487" lon="7.29101">
        <ele>502.779541</ele>
        <time>2011-03-12T15:16:24Z</time>
      </trkpt>
      <trkpt lat="48.67495" lon="7.29102">
        <ele>502.584229</ele>
        <time>2011-03-12T15:16:26Z</time>
      </trkpt>
      <trkpt lat="48.675" lon="7.29102">
        <ele>502.427979</ele>
        <time>2011-03-12T15:16:27Z</time>
      </trkpt>
      <trkpt lat="48.67507" lon="7.29103">
        <ele>501.513916</ele>
        <time>2011-03-12T15:16:29Z</time>
      </trkpt>
      <trkpt lat="48.67516" lon="7.291">
        <ele>500.951416</ele>
        <time>2011-03-12T15:16:31Z</time>
      </trkpt>
      <trkpt lat="48.67524" lon="7.29101">
        <ele>501.123291</ele>
        <time>2011-03-12T15:16:33Z</time>
      </trkpt>
      <trkpt lat="48.67529" lon="7.291">
        <ele>502.599854</ele>
        <time>2011-03-12T15:16:35Z</time>
      </trkpt>
      <trkpt lat="48.67534" lon="7.291">
        <ele>503.107666</ele>
        <time>2011-03-12T15:16:37Z</time>
      </trkpt>
      <trkpt lat="48.6754" lon="7.29101">
        <ele>503.584229</ele>
        <time>2011-03-12T15:16:39Z</time>
      </trkpt>
      <trkpt lat="48.67545" lon="7.29101">
        <ele>503.545166</ele>
        <time>2011-03-12T15:16:41Z</time>
      </trkpt>
      <trkpt lat="48.6755" lon="7.29101">
        <ele>503.927979</ele>
        <time>2011-03-12T15:16:43Z</time>
      </trkpt>
      <trkpt lat="48.67554" lon="7.29104">
        <ele>504.201416</ele>
        <time>2011-03-12T15:16:45Z</time>
      </trkpt>
      <trkpt lat="48.67559" lon="7.29103">
        <ele>503.779541</ele>
        <time>2011-03-12T15:16:47Z</time>
      </trkpt>
      <trkpt lat="48.67563" lon="7.29102">
        <ele>503.263916</ele>
        <time>2011-03-12T15:16:49Z</time>
      </trkpt>
      <trkpt lat="48.67569" lon="7.29099">
        <ele>503.302979</ele>
        <time>2011-03-12T15:16:51Z</time>
      </trkpt>
      <trkpt lat="48.67573" lon="7.29097">
        <ele>502.709229</ele>
        <time>2011-03-12T15:16:53Z</time>
      </trkpt>
      <trkpt lat="48.67577" lon="7.29094">
        <ele>502.763916</ele>
        <time>2011-03-12T15:16:55Z</time>
      </trkpt>
      <trkpt lat="48.67582" lon="7.29092">
        <ele>503.349854</ele>
        <time>2011-03-12T15:16:57Z</time>
      </trkpt>
      <trkpt lat="48.67588" lon="7.29091">
        <ele>503.748291</ele>
        <time>2011-03-12T15:16:59Z</time>
      </trkpt>
      <trkpt lat="48.67594" lon="7.29091">
        <ele>504.607666</ele>
        <time>2011-03-12T15:17:01Z</time>
      </trkpt>
      <trkpt lat="48.67599" lon="7.29092">
        <ele>505.420166</ele>
        <time>2011-03-12T15:17:03Z</time>
      </trkpt>
      <trkpt lat="48.67604" lon="7.29091">
        <ele>505.545166</ele>
        <time>2011-03-12T15:17:05Z</time>
      </trkpt>
      <trkpt lat="48.67609" lon="7.29089">
        <ele>506.435791</ele>
        <time>2011-03-12T15:17:07Z</time>
      </trkpt>
      <trkpt lat="48.67614" lon="7.29088">
        <ele>508.092041</ele>
        <time>2011-03-12T15:17:10Z</time>
      </trkpt>
      <trkpt lat="48.67621" lon="7.29086">
        <ele>510.357666</ele>
        <time>2011-03-12T15:17:13Z</time>
      </trkpt>
      <trkpt lat="48.67625" lon="7.29085">
        <ele>510.842041</ele>
        <time>2011-03-12T15:17:15Z</time>
      </trkpt>
      <trkpt lat="48.6763" lon="7.29085">
        <ele>509.896729</ele>
        <time>2011-03-12T15:17:17Z</time>
      </trkpt>
      <trkpt lat="48.67635" lon="7.29084">
        <ele>510.381104</ele>
        <time>2011-03-12T15:17:19Z</time>
      </trkpt>
      <trkpt lat="48.67639" lon="7.29085">
        <ele>509.865479</ele>
        <time>2011-03-12T15:17:21Z</time>
      </trkpt>
      <trkpt lat="48.67644" lon="7.29087">
        <ele>509.920166</ele>
        <time>2011-03-12T15:17:23Z</time>
      </trkpt>
      <trkpt lat="48.67651" lon="7.29088">
        <ele>510.373291</ele>
        <time>2011-03-12T15:17:26Z</time>
      </trkpt>
      <trkpt lat="48.67656" lon="7.29089">
        <ele>510.427979</ele>
        <time>2011-03-12T15:17:28Z</time>
      </trkpt>
      <trkpt lat="48.6766" lon="7.2909">
        <ele>511.271729</ele>
        <time>2011-03-12T15:17:30Z</time>
      </trkpt>
      <trkpt lat="48.67665" lon="7.29092">
        <ele>512.574707</ele>
        <time>2011-03-12T15:17:32Z</time>
      </trkpt>
      <trkpt lat="48.6767" lon="7.29093">
        <ele>512.543457</ele>
        <time>2011-03-12T15:17:34Z</time>
      </trkpt>
      <trkpt lat="48.67675" lon="7.29096">
        <ele>512.637207</ele>
        <time>2011-03-12T15:17:36Z</time>
      </trkpt>
      <trkpt lat="48.6768" lon="7.291">
        <ele>512.855957</ele>
        <time>2011-03-12T15:17:38Z</time>
      </trkpt>
      <trkpt lat="48.67685" lon="7.29102">
        <ele>513.027832</ele>
        <time>2011-03-12T15:17:40Z</time>
      </trkpt>
      <trkpt lat="48.6769" lon="7.29105">
        <ele>513.543457</ele>
        <time>2011-03-12T15:17:42Z</time>
      </trkpt>
      <trkpt lat="48.67696" lon="7.29109">
        <ele>513.121582</ele>
        <time>2011-03-12T15:17:44Z</time>
      </trkpt>
      <trkpt lat="48.67703" lon="7.29113">
        <ele>512.668457</ele>
        <time>2011-03-12T15:17:46Z</time>
      </trkpt>
      <trkpt lat="48.6771" lon="7.29116">
        <ele>512.730957</ele>
        <time>2011-03-12T15:17:48Z</time>
      </trkpt>
      <trkpt lat="48.67715" lon="7.29119">
        <ele>513.480957</ele>
        <time>2011-03-12T15:17:50Z</time>
      </trkpt>
      <trkpt lat="48.6772" lon="7.29124">
        <ele>513.605957</ele>
        <time>2011-03-12T15:17:52Z</time>
      </trkpt>
      <trkpt lat="48.67726" lon="7.29129">
        <ele>513.590332</ele>
        <time>2011-03-12T15:17:54Z</time>
      </trkpt>
      <trkpt lat="48.67731" lon="7.29135">
        <ele>513.746582</ele>
        <time>2011-03-12T15:17:56Z</time>
      </trkpt>
      <trkpt lat="48.67736" lon="7.29141">
        <ele>514.246582</ele>
        <time>2011-03-12T15:17:58Z</time>
      </trkpt>
      <trkpt lat="48.67741" lon="7.29145">
        <ele>513.684082</ele>
        <time>2011-03-12T15:18:00Z</time>
      </trkpt>
      <trkpt lat="48.67746" lon="7.29149">
        <ele>513.512207</ele>
        <time>2011-03-12T15:18:02Z</time>
      </trkpt>
      <trkpt lat="48.67751" lon="7.29151">
        <ele>512.824707</ele>
        <time>2011-03-12T15:18:04Z</time>
      </trkpt>
      <trkpt lat="48.67757" lon="7.29155">
        <ele>512.668457</ele>
        <time>2011-03-12T15:18:06Z</time>
      </trkpt>
      <trkpt lat="48.67762" lon="7.29161">
        <ele>512.246582</ele>
        <time>2011-03-12T15:18:08Z</time>
      </trkpt>
      <trkpt lat="48.67765" lon="7.2917">
        <ele>512.043457</ele>
        <time>2011-03-12T15:18:10Z</time>
      </trkpt>
      <trkpt lat="48.67769" lon="7.2918">
        <ele>511.763916</ele>
        <time>2011-03-12T15:18:12Z</time>
      </trkpt>
      <trkpt lat="48.67772" lon="7.2919">
        <ele>511.654541</ele>
        <time>2011-03-12T15:18:14Z</time>
      </trkpt>
      <trkpt lat="48.67773" lon="7.29197">
        <ele>511.295166</ele>
        <time>2011-03-12T15:18:16Z</time>
      </trkpt>
      <trkpt lat="48.67776" lon="7.29205">
        <ele>510.209229</ele>
        <time>2011-03-12T15:18:19Z</time>
      </trkpt>
      <trkpt lat="48.67778" lon="7.2921">
        <ele>507.279541</ele>
        <time>2011-03-12T15:18:31Z</time>
      </trkpt>
      <trkpt lat="48.67778" lon="7.29217">
        <ele>507.592041</ele>
        <time>2011-03-12T15:19:09Z</time>
      </trkpt>
      <trkpt lat="48.67783" lon="7.29221">
        <ele>506.482666</ele>
        <time>2011-03-12T15:19:13Z</time>
      </trkpt>
      <trkpt lat="48.67784" lon="7.29229">
        <ele>507.474854</ele>
        <time>2011-03-12T15:19:17Z</time>
      </trkpt>
      <trkpt lat="48.67786" lon="7.29236">
        <ele>506.646729</ele>
        <time>2011-03-12T15:19:22Z</time>
      </trkpt>
      <trkpt lat="48.67783" lon="7.29241">
        <ele>506.881104</ele>
        <time>2011-03-12T15:19:26Z</time>
      </trkpt>
      <trkpt lat="48.67778" lon="7.29248">
        <ele>506.935791</ele>
        <time>2011-03-12T15:19:29Z</time>
      </trkpt>
      <trkpt lat="48.67775" lon="7.29256">
        <ele>505.576416</ele>
        <time>2011-03-12T15:19:31Z</time>
      </trkpt>
      <trkpt lat="48.67772" lon="7.2926">
        <ele>505.068604</ele>
        <time>2011-03-12T15:19:32Z</time>
      </trkpt>
      <trkpt lat="48.67768" lon="7.29266">
        <ele>504.256104</ele>
        <time>2011-03-12T15:19:33Z</time>
      </trkpt>
      <trkpt lat="48.67765" lon="7.29273">
        <ele>503.974854</ele>
        <time>2011-03-12T15:19:34Z</time>
      </trkpt>
      <trkpt lat="48.67759" lon="7.29284">
        <ele>502.888916</ele>
        <time>2011-03-12T15:19:36Z</time>
      </trkpt>
      <trkpt lat="48.67756" lon="7.2929">
        <ele>502.154541</ele>
        <time>2011-03-12T15:19:37Z</time>
      </trkpt>
      <trkpt lat="48.67753" lon="7.293">
        <ele>501.170166</ele>
        <time>2011-03-12T15:19:39Z</time>
      </trkpt>
      <trkpt lat="48.67749" lon="7.2931">
        <ele>500.467041</ele>
        <time>2011-03-12T15:19:41Z</time>
      </trkpt>
      <trkpt lat="48.67746" lon="7.29319">
        <ele>501.060791</ele>
        <time>2011-03-12T15:19:44Z</time>
      </trkpt>
      <trkpt lat="48.67744" lon="7.29326">
        <ele>500.748291</ele>
        <time>2011-03-12T15:19:46Z</time>
      </trkpt>
      <trkpt lat="48.67741" lon="7.29333">
        <ele>499.435791</ele>
        <time>2011-03-12T15:19:48Z</time>
      </trkpt>
      <trkpt lat="48.67738" lon="7.2934">
        <ele>499.256104</ele>
        <time>2011-03-12T15:19:50Z</time>
      </trkpt>
      <trkpt lat="48.67737" lon="7.29346">
        <ele>498.795166</ele>
        <time>2011-03-12T15:19:52Z</time>
      </trkpt>
      <trkpt lat="48.67735" lon="7.29353">
        <ele>497.342041</ele>
        <time>2011-03-12T15:19:54Z</time>
      </trkpt>
      <trkpt lat="48.67732" lon="7.29358">
        <ele>496.857666</ele>
        <time>2011-03-12T15:19:56Z</time>
      </trkpt>
      <trkpt lat="48.67728" lon="7.29364">
        <ele>496.685791</ele>
        <time>2011-03-12T15:19:59Z</time>
      </trkpt>
      <trkpt lat="48.67726" lon="7.29371">
        <ele>496.232666</ele>
        <time>2011-03-12T15:20:01Z</time>
      </trkpt>
      <trkpt lat="48.67724" lon="7.29377">
        <ele>496.201416</ele>
        <time>2011-03-12T15:20:10Z</time>
      </trkpt>
      <trkpt lat="48.6772" lon="7.29381">
        <ele>496.732666</ele>
        <time>2011-03-12T15:20:22Z</time>
      </trkpt>
      <trkpt lat="48.67719" lon="7.29389">
        <ele>496.256104</ele>
        <time>2011-03-12T15:20:33Z</time>
      </trkpt>
      <trkpt lat="48.67716" lon="7.29396">
        <ele>495.592041</ele>
        <time>2011-03-12T15:20:35Z</time>
      </trkpt>
      <trkpt lat="48.67714" lon="7.29406">
        <ele>494.865479</ele>
        <time>2011-03-12T15:20:37Z</time>
      </trkpt>
      <trkpt lat="48.67712" lon="7.29414">
        <ele>494.435791</ele>
        <time>2011-03-12T15:20:39Z</time>
      </trkpt>
      <trkpt lat="48.67711" lon="7.29424">
        <ele>494.021729</ele>
        <time>2011-03-12T15:20:41Z</time>
      </trkpt>
      <trkpt lat="48.67711" lon="7.29435">
        <ele>493.240479</ele>
        <time>2011-03-12T15:20:43Z</time>
      </trkpt>
      <trkpt lat="48.67706" lon="7.29446">
        <ele>492.599854</ele>
        <time>2011-03-12T15:20:45Z</time>
      </trkpt>
      <trkpt lat="48.67705" lon="7.29453">
        <ele>492.084229</ele>
        <time>2011-03-12T15:20:46Z</time>
      </trkpt>
      <trkpt lat="48.67704" lon="7.29461">
        <ele>491.677979</ele>
        <time>2011-03-12T15:20:47Z</time>
      </trkpt>
      <trkpt lat="48.67704" lon="7.29472">
        <ele>490.349854</ele>
        <time>2011-03-12T15:20:49Z</time>
      </trkpt>
      <trkpt lat="48.67704" lon="7.29479">
        <ele>489.138916</ele>
        <time>2011-03-12T15:20:50Z</time>
      </trkpt>
      <trkpt lat="48.67703" lon="7.29486">
        <ele>487.068604</ele>
        <time>2011-03-12T15:20:52Z</time>
      </trkpt>
      <trkpt lat="48.67701" lon="7.29499">
        <ele>485.615479</ele>
        <time>2011-03-12T15:20:54Z</time>
      </trkpt>
      <trkpt lat="48.67699" lon="7.29509">
        <ele>484.849854</ele>
        <time>2011-03-12T15:20:56Z</time>
      </trkpt>
      <trkpt lat="48.67697" lon="7.29516">
        <ele>482.435791</ele>
        <time>2011-03-12T15:21:29Z</time>
      </trkpt>
      <trkpt lat="48.67694" lon="7.29525">
        <ele>481.638916</ele>
        <time>2011-03-12T15:21:33Z</time>
      </trkpt>
      <trkpt lat="48.67691" lon="7.29533">
        <ele>480.748291</ele>
        <time>2011-03-12T15:21:35Z</time>
      </trkpt>
      <trkpt lat="48.67689" lon="7.29541">
        <ele>480.646729</ele>
        <time>2011-03-12T15:21:37Z</time>
      </trkpt>
      <trkpt lat="48.67685" lon="7.2955">
        <ele>480.506104</ele>
        <time>2011-03-12T15:21:39Z</time>
      </trkpt>
      <trkpt lat="48.67682" lon="7.29559">
        <ele>480.795166</ele>
        <time>2011-03-12T15:21:41Z</time>
      </trkpt>
      <trkpt lat="48.67679" lon="7.29569">
        <ele>481.154541</ele>
        <time>2011-03-12T15:21:43Z</time>
      </trkpt>
      <trkpt lat="48.67677" lon="7.29579">
        <ele>481.474854</ele>
        <time>2011-03-12T15:21:45Z</time>
      </trkpt>
      <trkpt lat="48.67673" lon="7.2959">
        <ele>483.506104</ele>
        <time>2011-03-12T15:21:47Z</time>
      </trkpt>
      <trkpt lat="48.6767" lon="7.29601">
        <ele>483.646729</ele>
        <time>2011-03-12T15:21:49Z</time>
      </trkpt>
      <trkpt lat="48.67667" lon="7.29611">
        <ele>484.271729</ele>
        <time>2011-03-12T15:21:51Z</time>
      </trkpt>
      <trkpt lat="48.67664" lon="7.29623">
        <ele>484.052979</ele>
        <time>2011-03-12T15:21:53Z</time>
      </trkpt>
      <trkpt lat="48.67662" lon="7.2963">
        <ele>484.248291</ele>
        <time>2011-03-12T15:21:54Z</time>
      </trkpt>
      <trkpt lat="48.67661" lon="7.29638">
        <ele>484.404541</ele>
        <time>2011-03-12T15:21:55Z</time>
      </trkpt>
      <trkpt lat="48.67661" lon="7.29645">
        <ele>484.763916</ele>
        <time>2011-03-12T15:21:56Z</time>
      </trkpt>
      <trkpt lat="48.6766" lon="7.29653">
        <ele>485.013916</ele>
        <time>2011-03-12T15:21:57Z</time>
      </trkpt>
      <trkpt lat="48.6766" lon="7.29661">
        <ele>485.677979</ele>
        <time>2011-03-12T15:21:58Z</time>
      </trkpt>
      <trkpt lat="48.67659" lon="7.29668">
        <ele>485.732666</ele>
        <time>2011-03-12T15:21:59Z</time>
      </trkpt>
      <trkpt lat="48.67658" lon="7.29675">
        <ele>485.826416</ele>
        <time>2011-03-12T15:22:00Z</time>
      </trkpt>
      <trkpt lat="48.67658" lon="7.29683">
        <ele>486.123291</ele>
        <time>2011-03-12T15:22:01Z</time>
      </trkpt>
      <trkpt lat="48.67658" lon="7.2969">
        <ele>486.373291</ele>
        <time>2011-03-12T15:22:02Z</time>
      </trkpt>
      <trkpt lat="48.67658" lon="7.29698">
        <ele>486.576416</ele>
        <time>2011-03-12T15:22:03Z</time>
      </trkpt>
      <trkpt lat="48.67657" lon="7.29706">
        <ele>486.709229</ele>
        <time>2011-03-12T15:22:04Z</time>
      </trkpt>
      <trkpt lat="48.67656" lon="7.29714">
        <ele>486.990479</ele>
        <time>2011-03-12T15:22:05Z</time>
      </trkpt>
      <trkpt lat="48.67657" lon="7.29723">
        <ele>487.045166</ele>
        <time>2011-03-12T15:22:06Z</time>
      </trkpt>
      <trkpt lat="48.67658" lon="7.29731">
        <ele>487.170166</ele>
        <time>2011-03-12T15:22:07Z</time>
      </trkpt>
      <trkpt lat="48.67658" lon="7.29739">
        <ele>487.209229</ele>
        <time>2011-03-12T15:22:08Z</time>
      </trkpt>
      <trkpt lat="48.67661" lon="7.29748">
        <ele>487.138916</ele>
        <time>2011-03-12T15:22:09Z</time>
      </trkpt>
      <trkpt lat="48.67663" lon="7.29757">
        <ele>487.256104</ele>
        <time>2011-03-12T15:22:10Z</time>
      </trkpt>
      <trkpt lat="48.67666" lon="7.29767">
        <ele>487.537354</ele>
        <time>2011-03-12T15:22:11Z</time>
      </trkpt>
      <trkpt lat="48.67669" lon="7.29775">
        <ele>487.709229</ele>
        <time>2011-03-12T15:22:12Z</time>
      </trkpt>
      <trkpt lat="48.67672" lon="7.29782">
        <ele>488.006104</ele>
        <time>2011-03-12T15:22:13Z</time>
      </trkpt>
      <trkpt lat="48.67675" lon="7.2979">
        <ele>488.146729</ele>
        <time>2011-03-12T15:22:14Z</time>
      </trkpt>
      <trkpt lat="48.67678" lon="7.29797">
        <ele>488.396729</ele>
        <time>2011-03-12T15:22:15Z</time>
      </trkpt>
      <trkpt lat="48.67682" lon="7.29803">
        <ele>488.654541</ele>
        <time>2011-03-12T15:22:16Z</time>
      </trkpt>
      <trkpt lat="48.67685" lon="7.29809">
        <ele>488.888916</ele>
        <time>2011-03-12T15:22:17Z</time>
      </trkpt>
      <trkpt lat="48.67688" lon="7.29817">
        <ele>489.029541</ele>
        <time>2011-03-12T15:22:18Z</time>
      </trkpt>
      <trkpt lat="48.67692" lon="7.29823">
        <ele>489.154541</ele>
        <time>2011-03-12T15:22:19Z</time>
      </trkpt>
      <trkpt lat="48.67696" lon="7.29829">
        <ele>489.295166</ele>
        <time>2011-03-12T15:22:20Z</time>
      </trkpt>
      <trkpt lat="48.67699" lon="7.29835">
        <ele>489.513916</ele>
        <time>2011-03-12T15:22:21Z</time>
      </trkpt>
      <trkpt lat="48.67701" lon="7.29842">
        <ele>489.670166</ele>
        <time>2011-03-12T15:22:22Z</time>
      </trkpt>
      <trkpt lat="48.67706" lon="7.29853">
        <ele>489.701416</ele>
        <time>2011-03-12T15:22:24Z</time>
      </trkpt>
      <trkpt lat="48.67714" lon="7.29864">
        <ele>489.740479</ele>
        <time>2011-03-12T15:22:26Z</time>
      </trkpt>
      <trkpt lat="48.67719" lon="7.2987">
        <ele>489.482666</ele>
        <time>2011-03-12T15:22:27Z</time>
      </trkpt>
      <trkpt lat="48.67723" lon="7.29877">
        <ele>489.584229</ele>
        <time>2011-03-12T15:22:28Z</time>
      </trkpt>
      <trkpt lat="48.67728" lon="7.29885">
        <ele>489.701416</ele>
        <time>2011-03-12T15:22:29Z</time>
      </trkpt>
      <trkpt lat="48.67733" lon="7.29891">
        <ele>489.576416</ele>
        <time>2011-03-12T15:22:30Z</time>
      </trkpt>
      <trkpt lat="48.6774" lon="7.29897">
        <ele>489.670166</ele>
        <time>2011-03-12T15:22:31Z</time>
      </trkpt>
      <trkpt lat="48.67746" lon="7.29904">
        <ele>489.802979</ele>
        <time>2011-03-12T15:22:32Z</time>
      </trkpt>
      <trkpt lat="48.67751" lon="7.29911">
        <ele>490.006104</ele>
        <time>2011-03-12T15:22:33Z</time>
      </trkpt>
      <trkpt lat="48.67756" lon="7.29916">
        <ele>490.138916</ele>
        <time>2011-03-12T15:22:34Z</time>
      </trkpt>
      <trkpt lat="48.6776" lon="7.29922">
        <ele>490.420166</ele>
        <time>2011-03-12T15:22:35Z</time>
      </trkpt>
      <trkpt lat="48.67763" lon="7.29928">
        <ele>490.771729</ele>
        <time>2011-03-12T15:22:36Z</time>
      </trkpt>
      <trkpt lat="48.67766" lon="7.29933">
        <ele>490.787354</ele>
        <time>2011-03-12T15:22:37Z</time>
      </trkpt>
      <trkpt lat="48.67769" lon="7.2994">
        <ele>489.537354</ele>
        <time>2011-03-12T15:22:38Z</time>
      </trkpt>
      <trkpt lat="48.6777" lon="7.29948">
        <ele>489.631104</ele>
        <time>2011-03-12T15:22:39Z</time>
      </trkpt>
      <trkpt lat="48.67774" lon="7.29959">
        <ele>490.998291</ele>
        <time>2011-03-12T15:22:41Z</time>
      </trkpt>
      <trkpt lat="48.67781" lon="7.29969">
        <ele>491.326416</ele>
        <time>2011-03-12T15:22:43Z</time>
      </trkpt>
      <trkpt lat="48.67784" lon="7.29974">
        <ele>491.529541</ele>
        <time>2011-03-12T15:22:44Z</time>
      </trkpt>
      <trkpt lat="48.67788" lon="7.2998">
        <ele>491.560791</ele>
        <time>2011-03-12T15:22:45Z</time>
      </trkpt>
      <trkpt lat="48.6779" lon="7.29988">
        <ele>491.138916</ele>
        <time>2011-03-12T15:22:46Z</time>
      </trkpt>
      <trkpt lat="48.67793" lon="7.29995">
        <ele>491.170166</ele>
        <time>2011-03-12T15:22:47Z</time>
      </trkpt>
      <trkpt lat="48.67795" lon="7.30002">
        <ele>491.248291</ele>
        <time>2011-03-12T15:22:48Z</time>
      </trkpt>
      <trkpt lat="48.67797" lon="7.3001">
        <ele>491.263916</ele>
        <time>2011-03-12T15:22:49Z</time>
      </trkpt>
      <trkpt lat="48.67799" lon="7.30019">
        <ele>490.412354</ele>
        <time>2011-03-12T15:22:50Z</time>
      </trkpt>
      <trkpt lat="48.67801" lon="7.30028">
        <ele>488.834229</ele>
        <time>2011-03-12T15:22:51Z</time>
      </trkpt>
      <trkpt lat="48.67803" lon="7.30036">
        <ele>489.131104</ele>
        <time>2011-03-12T15:22:52Z</time>
      </trkpt>
      <trkpt lat="48.67805" lon="7.30045">
        <ele>488.529541</ele>
        <time>2011-03-12T15:22:53Z</time>
      </trkpt>
      <trkpt lat="48.67807" lon="7.30054">
        <ele>487.498291</ele>
        <time>2011-03-12T15:22:54Z</time>
      </trkpt>
      <trkpt lat="48.67809" lon="7.30062">
        <ele>487.263916</ele>
        <time>2011-03-12T15:22:55Z</time>
      </trkpt>
      <trkpt lat="48.67811" lon="7.30071">
        <ele>488.037354</ele>
        <time>2011-03-12T15:22:56Z</time>
      </trkpt>
      <trkpt lat="48.67814" lon="7.30079">
        <ele>487.951416</ele>
        <time>2011-03-12T15:22:57Z</time>
      </trkpt>
      <trkpt lat="48.67816" lon="7.30087">
        <ele>487.888916</ele>
        <time>2011-03-12T15:22:58Z</time>
      </trkpt>
      <trkpt lat="48.67818" lon="7.30095">
        <ele>488.232666</ele>
        <time>2011-03-12T15:22:59Z</time>
      </trkpt>
      <trkpt lat="48.6782" lon="7.30102">
        <ele>488.435791</ele>
        <time>2011-03-12T15:23:00Z</time>
      </trkpt>
      <trkpt lat="48.67823" lon="7.30109">
        <ele>488.302979</ele>
        <time>2011-03-12T15:23:01Z</time>
      </trkpt>
      <trkpt lat="48.67825" lon="7.30116">
        <ele>488.670166</ele>
        <time>2011-03-12T15:23:02Z</time>
      </trkpt>
      <trkpt lat="48.67827" lon="7.30122">
        <ele>488.623291</ele>
        <time>2011-03-12T15:23:03Z</time>
      </trkpt>
      <trkpt lat="48.6783" lon="7.30133">
        <ele>488.709229</ele>
        <time>2011-03-12T15:23:05Z</time>
      </trkpt>
      <trkpt lat="48.67832" lon="7.30141">
        <ele>489.170166</ele>
        <time>2011-03-12T15:23:07Z</time>
      </trkpt>
      <trkpt lat="48.67833" lon="7.30149">
        <ele>489.623291</ele>
        <time>2011-03-12T15:23:10Z</time>
      </trkpt>
      <trkpt lat="48.67833" lon="7.30159">
        <ele>488.951416</ele>
        <time>2011-03-12T15:23:13Z</time>
      </trkpt>
      <trkpt lat="48.67837" lon="7.30166">
        <ele>488.763916</ele>
        <time>2011-03-12T15:23:15Z</time>
      </trkpt>
      <trkpt lat="48.67841" lon="7.30173">
        <ele>488.420166</ele>
        <time>2011-03-12T15:23:18Z</time>
      </trkpt>
      <trkpt lat="48.67844" lon="7.30179">
        <ele>487.474854</ele>
        <time>2011-03-12T15:23:20Z</time>
      </trkpt>
      <trkpt lat="48.67849" lon="7.30186">
        <ele>487.076416</ele>
        <time>2011-03-12T15:23:22Z</time>
      </trkpt>
      <trkpt lat="48.67853" lon="7.30195">
        <ele>487.060791</ele>
        <time>2011-03-12T15:23:24Z</time>
      </trkpt>
      <trkpt lat="48.67855" lon="7.30202">
        <ele>486.943604</ele>
        <time>2011-03-12T15:23:26Z</time>
      </trkpt>
      <trkpt lat="48.67858" lon="7.3021">
        <ele>486.763916</ele>
        <time>2011-03-12T15:23:28Z</time>
      </trkpt>
      <trkpt lat="48.67862" lon="7.30219">
        <ele>486.412354</ele>
        <time>2011-03-12T15:23:30Z</time>
      </trkpt>
      <trkpt lat="48.67866" lon="7.30225">
        <ele>486.060791</ele>
        <time>2011-03-12T15:23:32Z</time>
      </trkpt>
      <trkpt lat="48.67871" lon="7.30231">
        <ele>486.295166</ele>
        <time>2011-03-12T15:23:34Z</time>
      </trkpt>
      <trkpt lat="48.67875" lon="7.30237">
        <ele>487.232666</ele>
        <time>2011-03-12T15:23:36Z</time>
      </trkpt>
      <trkpt lat="48.6788" lon="7.30243">
        <ele>486.990479</ele>
        <time>2011-03-12T15:23:38Z</time>
      </trkpt>
      <trkpt lat="48.67884" lon="7.3025">
        <ele>487.248291</ele>
        <time>2011-03-12T15:23:40Z</time>
      </trkpt>
      <trkpt lat="48.67887" lon="7.30256">
        <ele>486.263916</ele>
        <time>2011-03-12T15:23:43Z</time>
      </trkpt>
      <trkpt lat="48.6789" lon="7.30262">
        <ele>486.310791</ele>
        <time>2011-03-12T15:23:45Z</time>
      </trkpt>
      <trkpt lat="48.67895" lon="7.30269">
        <ele>486.685791</ele>
        <time>2011-03-12T15:23:47Z</time>
      </trkpt>
      <trkpt lat="48.67899" lon="7.30277">
        <ele>486.810791</ele>
        <time>2011-03-12T15:23:49Z</time>
      </trkpt>
      <trkpt lat="48.67903" lon="7.30283">
        <ele>486.584229</ele>
        <time>2011-03-12T15:23:51Z</time>
      </trkpt>
      <trkpt lat="48.67906" lon="7.30288">
        <ele>486.154541</ele>
        <time>2011-03-12T15:23:54Z</time>
      </trkpt>
      <trkpt lat="48.67909" lon="7.30295">
        <ele>485.802979</ele>
        <time>2011-03-12T15:23:57Z</time>
      </trkpt>
      <trkpt lat="48.67911" lon="7.30301">
        <ele>484.865479</ele>
        <time>2011-03-12T15:24:02Z</time>
      </trkpt>
      <trkpt lat="48.67915" lon="7.30303">
        <ele>484.763916</ele>
        <time>2011-03-12T15:24:12Z</time>
      </trkpt>
      <trkpt lat="48.67917" lon="7.30311">
        <ele>484.138916</ele>
        <time>2011-03-12T15:24:22Z</time>
      </trkpt>
      <trkpt lat="48.6792" lon="7.30317">
        <ele>484.787354</ele>
        <time>2011-03-12T15:24:25Z</time>
      </trkpt>
      <trkpt lat="48.67923" lon="7.30323">
        <ele>485.076416</ele>
        <time>2011-03-12T15:24:28Z</time>
      </trkpt>
      <trkpt lat="48.67925" lon="7.30329">
        <ele>484.943604</ele>
        <time>2011-03-12T15:24:35Z</time>
      </trkpt>
      <trkpt lat="48.6793" lon="7.30332">
        <ele>483.920166</ele>
        <time>2011-03-12T15:24:47Z</time>
      </trkpt>
      <trkpt lat="48.67933" lon="7.3034">
        <ele>485.959229</ele>
        <time>2011-03-12T15:24:54Z</time>
      </trkpt>
      <trkpt lat="48.67935" lon="7.30347">
        <ele>486.365479</ele>
        <time>2011-03-12T15:24:56Z</time>
      </trkpt>
      <trkpt lat="48.67937" lon="7.30355">
        <ele>487.232666</ele>
        <time>2011-03-12T15:24:59Z</time>
      </trkpt>
      <trkpt lat="48.67939" lon="7.30361">
        <ele>487.365479</ele>
        <time>2011-03-12T15:25:05Z</time>
      </trkpt>
      <trkpt lat="48.67941" lon="7.30368">
        <ele>487.052979</ele>
        <time>2011-03-12T15:25:16Z</time>
      </trkpt>
      <trkpt lat="48.67944" lon="7.30375">
        <ele>487.037354</ele>
        <time>2011-03-12T15:25:18Z</time>
      </trkpt>
      <trkpt lat="48.67946" lon="7.30382">
        <ele>486.998291</ele>
        <time>2011-03-12T15:25:20Z</time>
      </trkpt>
      <trkpt lat="48.67949" lon="7.30388">
        <ele>486.326416</ele>
        <time>2011-03-12T15:25:22Z</time>
      </trkpt>
      <trkpt lat="48.67952" lon="7.30395">
        <ele>485.896729</ele>
        <time>2011-03-12T15:25:24Z</time>
      </trkpt>
      <trkpt lat="48.67955" lon="7.30403">
        <ele>486.263916</ele>
        <time>2011-03-12T15:25:26Z</time>
      </trkpt>
      <trkpt lat="48.6796" lon="7.30411">
        <ele>485.842041</ele>
        <time>2011-03-12T15:25:28Z</time>
      </trkpt>
      <trkpt lat="48.67964" lon="7.30419">
        <ele>485.670166</ele>
        <time>2011-03-12T15:25:30Z</time>
      </trkpt>
      <trkpt lat="48.67968" lon="7.30427">
        <ele>485.388916</ele>
        <time>2011-03-12T15:25:32Z</time>
      </trkpt>
      <trkpt lat="48.6797" lon="7.30435">
        <ele>484.810791</ele>
        <time>2011-03-12T15:25:34Z</time>
      </trkpt>
      <trkpt lat="48.67974" lon="7.30442">
        <ele>484.388916</ele>
        <time>2011-03-12T15:25:37Z</time>
      </trkpt>
      <trkpt lat="48.67978" lon="7.30448">
        <ele>484.787354</ele>
        <time>2011-03-12T15:25:39Z</time>
      </trkpt>
      <trkpt lat="48.67981" lon="7.30455">
        <ele>484.927979</ele>
        <time>2011-03-12T15:25:41Z</time>
      </trkpt>
      <trkpt lat="48.67984" lon="7.30462">
        <ele>485.107666</ele>
        <time>2011-03-12T15:25:43Z</time>
      </trkpt>
      <trkpt lat="48.67988" lon="7.30469">
        <ele>485.154541</ele>
        <time>2011-03-12T15:25:45Z</time>
      </trkpt>
      <trkpt lat="48.67991" lon="7.30478">
        <ele>485.185791</ele>
        <time>2011-03-12T15:25:47Z</time>
      </trkpt>
      <trkpt lat="48.67996" lon="7.30489">
        <ele>484.927979</ele>
        <time>2011-03-12T15:25:49Z</time>
      </trkpt>
      <trkpt lat="48.68" lon="7.30501">
        <ele>485.021729</ele>
        <time>2011-03-12T15:25:51Z</time>
      </trkpt>
      <trkpt lat="48.68002" lon="7.30507">
        <ele>484.842041</ele>
        <time>2011-03-12T15:25:52Z</time>
      </trkpt>
      <trkpt lat="48.68005" lon="7.30513">
        <ele>485.029541</ele>
        <time>2011-03-12T15:25:53Z</time>
      </trkpt>
      <trkpt lat="48.68007" lon="7.3052">
        <ele>485.263916</ele>
        <time>2011-03-12T15:25:54Z</time>
      </trkpt>
      <trkpt lat="48.6801" lon="7.30527">
        <ele>485.388916</ele>
        <time>2011-03-12T15:25:55Z</time>
      </trkpt>
      <trkpt lat="48.68012" lon="7.30535">
        <ele>485.459229</ele>
        <time>2011-03-12T15:25:56Z</time>
      </trkpt>
      <trkpt lat="48.68016" lon="7.30542">
        <ele>485.396729</ele>
        <time>2011-03-12T15:25:57Z</time>
      </trkpt>
      <trkpt lat="48.6802" lon="7.30549">
        <ele>485.021729</ele>
        <time>2011-03-12T15:25:58Z</time>
      </trkpt>
      <trkpt lat="48.68023" lon="7.30558">
        <ele>484.849854</ele>
        <time>2011-03-12T15:25:59Z</time>
      </trkpt>
      <trkpt lat="48.68026" lon="7.30567">
        <ele>484.849854</ele>
        <time>2011-03-12T15:26:00Z</time>
      </trkpt>
      <trkpt lat="48.68028" lon="7.30576">
        <ele>484.638916</ele>
        <time>2011-03-12T15:26:01Z</time>
      </trkpt>
      <trkpt lat="48.6803" lon="7.30584">
        <ele>484.412354</ele>
        <time>2011-03-12T15:26:02Z</time>
      </trkpt>
      <trkpt lat="48.68032" lon="7.30593">
        <ele>484.302979</ele>
        <time>2011-03-12T15:26:03Z</time>
      </trkpt>
      <trkpt lat="48.68035" lon="7.30601">
        <ele>484.232666</ele>
        <time>2011-03-12T15:26:04Z</time>
      </trkpt>
      <trkpt lat="48.68037" lon="7.30608">
        <ele>484.029541</ele>
        <time>2011-03-12T15:26:05Z</time>
      </trkpt>
      <trkpt lat="48.68039" lon="7.30615">
        <ele>483.802979</ele>
        <time>2011-03-12T15:26:06Z</time>
      </trkpt>
      <trkpt lat="48.68044" lon="7.30624">
        <ele>483.927979</ele>
        <time>2011-03-12T15:26:07Z</time>
      </trkpt>
      <trkpt lat="48.68048" lon="7.30632">
        <ele>483.982666</ele>
        <time>2011-03-12T15:26:08Z</time>
      </trkpt>
      <trkpt lat="48.6805" lon="7.30641">
        <ele>483.888916</ele>
        <time>2011-03-12T15:26:09Z</time>
      </trkpt>
      <trkpt lat="48.68052" lon="7.30649">
        <ele>484.177979</ele>
        <time>2011-03-12T15:26:10Z</time>
      </trkpt>
      <trkpt lat="48.68053" lon="7.30657">
        <ele>484.232666</ele>
        <time>2011-03-12T15:26:11Z</time>
      </trkpt>
      <trkpt lat="48.68055" lon="7.30664">
        <ele>484.138916</ele>
        <time>2011-03-12T15:26:12Z</time>
      </trkpt>
      <trkpt lat="48.68057" lon="7.30671">
        <ele>484.060791</ele>
        <time>2011-03-12T15:26:13Z</time>
      </trkpt>
      <trkpt lat="48.68058" lon="7.30678">
        <ele>483.748291</ele>
        <time>2011-03-12T15:26:14Z</time>
      </trkpt>
      <trkpt lat="48.6806" lon="7.30686">
        <ele>482.842041</ele>
        <time>2011-03-12T15:26:16Z</time>
      </trkpt>
      <trkpt lat="48.6806" lon="7.30695">
        <ele>482.490479</ele>
        <time>2011-03-12T15:26:32Z</time>
      </trkpt>
      <trkpt lat="48.68061" lon="7.30703">
        <ele>482.326416</ele>
        <time>2011-03-12T15:26:34Z</time>
      </trkpt>
      <trkpt lat="48.68062" lon="7.30713">
        <ele>482.381104</ele>
        <time>2011-03-12T15:26:36Z</time>
      </trkpt>
      <trkpt lat="48.68064" lon="7.30725">
        <ele>482.576416</ele>
        <time>2011-03-12T15:26:38Z</time>
      </trkpt>
      <trkpt lat="48.68065" lon="7.30737">
        <ele>482.334229</ele>
        <time>2011-03-12T15:26:40Z</time>
      </trkpt>
      <trkpt lat="48.68065" lon="7.30743">
        <ele>482.123291</ele>
        <time>2011-03-12T15:26:41Z</time>
      </trkpt>
      <trkpt lat="48.68066" lon="7.3075">
        <ele>481.927979</ele>
        <time>2011-03-12T15:26:42Z</time>
      </trkpt>
      <trkpt lat="48.68068" lon="7.30768">
        <ele>480.545166</ele>
        <time>2011-03-12T15:26:44Z</time>
      </trkpt>
      <trkpt lat="48.68067" lon="7.30778">
        <ele>480.631104</ele>
        <time>2011-03-12T15:26:45Z</time>
      </trkpt>
      <trkpt lat="48.68066" lon="7.30786">
        <ele>480.498291</ele>
        <time>2011-03-12T15:26:46Z</time>
      </trkpt>
      <trkpt lat="48.68066" lon="7.30794">
        <ele>480.365479</ele>
        <time>2011-03-12T15:26:47Z</time>
      </trkpt>
      <trkpt lat="48.68065" lon="7.30804">
        <ele>479.802979</ele>
        <time>2011-03-12T15:26:48Z</time>
      </trkpt>
      <trkpt lat="48.68063" lon="7.30813">
        <ele>479.513916</ele>
        <time>2011-03-12T15:26:49Z</time>
      </trkpt>
      <trkpt lat="48.68063" lon="7.30821">
        <ele>479.240479</ele>
        <time>2011-03-12T15:26:50Z</time>
      </trkpt>
      <trkpt lat="48.68061" lon="7.30828">
        <ele>479.037354</ele>
        <time>2011-03-12T15:26:51Z</time>
      </trkpt>
      <trkpt lat="48.6806" lon="7.30836">
        <ele>478.771729</ele>
        <time>2011-03-12T15:26:52Z</time>
      </trkpt>
      <trkpt lat="48.68057" lon="7.30845">
        <ele>478.974854</ele>
        <time>2011-03-12T15:26:53Z</time>
      </trkpt>
      <trkpt lat="48.68054" lon="7.30855">
        <ele>478.724854</ele>
        <time>2011-03-12T15:26:54Z</time>
      </trkpt>
      <trkpt lat="48.68053" lon="7.30864">
        <ele>478.584229</ele>
        <time>2011-03-12T15:26:55Z</time>
      </trkpt>
      <trkpt lat="48.68049" lon="7.30871">
        <ele>478.717041</ele>
        <time>2011-03-12T15:26:56Z</time>
      </trkpt>
      <trkpt lat="48.68046" lon="7.30877">
        <ele>478.693604</ele>
        <time>2011-03-12T15:26:57Z</time>
      </trkpt>
      <trkpt lat="48.6804" lon="7.30887">
        <ele>478.474854</ele>
        <time>2011-03-12T15:26:59Z</time>
      </trkpt>
      <trkpt lat="48.68037" lon="7.30893">
        <ele>478.537354</ele>
        <time>2011-03-12T15:27:00Z</time>
      </trkpt>
      <trkpt lat="48.68036" lon="7.30903">
        <ele>478.412354</ele>
        <time>2011-03-12T15:27:01Z</time>
      </trkpt>
      <trkpt lat="48.68034" lon="7.30911">
        <ele>478.490479</ele>
        <time>2011-03-12T15:27:02Z</time>
      </trkpt>
      <trkpt lat="48.68031" lon="7.30924">
        <ele>478.506104</ele>
        <time>2011-03-12T15:27:04Z</time>
      </trkpt>
      <trkpt lat="48.68026" lon="7.30929">
        <ele>478.099854</ele>
        <time>2011-03-12T15:27:05Z</time>
      </trkpt>
      <trkpt lat="48.68024" lon="7.30936">
        <ele>477.818604</ele>
        <time>2011-03-12T15:27:06Z</time>
      </trkpt>
      <trkpt lat="48.68023" lon="7.30943">
        <ele>477.701416</ele>
        <time>2011-03-12T15:27:07Z</time>
      </trkpt>
      <trkpt lat="48.68022" lon="7.30951">
        <ele>477.373291</ele>
        <time>2011-03-12T15:27:08Z</time>
      </trkpt>
      <trkpt lat="48.68023" lon="7.30959">
        <ele>477.013916</ele>
        <time>2011-03-12T15:27:09Z</time>
      </trkpt>
      <trkpt lat="48.68024" lon="7.30968">
        <ele>476.857666</ele>
        <time>2011-03-12T15:27:10Z</time>
      </trkpt>
      <trkpt lat="48.68026" lon="7.30978">
        <ele>476.521729</ele>
        <time>2011-03-12T15:27:11Z</time>
      </trkpt>
      <trkpt lat="48.68027" lon="7.30987">
        <ele>476.123291</ele>
        <time>2011-03-12T15:27:12Z</time>
      </trkpt>
      <trkpt lat="48.68027" lon="7.30995">
        <ele>476.138916</ele>
        <time>2011-03-12T15:27:13Z</time>
      </trkpt>
      <trkpt lat="48.68028" lon="7.31002">
        <ele>475.998291</ele>
        <time>2011-03-12T15:27:14Z</time>
      </trkpt>
      <trkpt lat="48.68029" lon="7.3101">
        <ele>475.834229</ele>
        <time>2011-03-12T15:27:15Z</time>
      </trkpt>
      <trkpt lat="48.68031" lon="7.31017">
        <ele>475.724854</ele>
        <time>2011-03-12T15:27:16Z</time>
      </trkpt>
      <trkpt lat="48.68034" lon="7.31024">
        <ele>475.467041</ele>
        <time>2011-03-12T15:27:17Z</time>
      </trkpt>
      <trkpt lat="48.68036" lon="7.31031">
        <ele>475.279541</ele>
        <time>2011-03-12T15:27:18Z</time>
      </trkpt>
      <trkpt lat="48.68038" lon="7.3104">
        <ele>474.943604</ele>
        <time>2011-03-12T15:27:19Z</time>
      </trkpt>
      <trkpt lat="48.68041" lon="7.31047">
        <ele>474.724854</ele>
        <time>2011-03-12T15:27:20Z</time>
      </trkpt>
      <trkpt lat="48.68044" lon="7.31054">
        <ele>472.185791</ele>
        <time>2011-03-12T15:27:21Z</time>
      </trkpt>
      <trkpt lat="48.68047" lon="7.31063">
        <ele>472.724854</ele>
        <time>2011-03-12T15:27:22Z</time>
      </trkpt>
      <trkpt lat="48.68051" lon="7.3107">
        <ele>472.287354</ele>
        <time>2011-03-12T15:27:23Z</time>
      </trkpt>
      <trkpt lat="48.68055" lon="7.31076">
        <ele>471.818604</ele>
        <time>2011-03-12T15:27:24Z</time>
      </trkpt>
      <trkpt lat="48.68058" lon="7.31081">
        <ele>470.896729</ele>
        <time>2011-03-12T15:27:25Z</time>
      </trkpt>
      <trkpt lat="48.68063" lon="7.31087">
        <ele>470.756104</ele>
        <time>2011-03-12T15:27:26Z</time>
      </trkpt>
      <trkpt lat="48.68067" lon="7.31091">
        <ele>470.467041</ele>
        <time>2011-03-12T15:27:27Z</time>
      </trkpt>
      <trkpt lat="48.68071" lon="7.31097">
        <ele>469.920166</ele>
        <time>2011-03-12T15:27:28Z</time>
      </trkpt>
      <trkpt lat="48.68075" lon="7.31104">
        <ele>469.396729</ele>
        <time>2011-03-12T15:27:29Z</time>
      </trkpt>
      <trkpt lat="48.68079" lon="7.3111">
        <ele>468.842041</ele>
        <time>2011-03-12T15:27:30Z</time>
      </trkpt>
      <trkpt lat="48.68083" lon="7.31115">
        <ele>469.357666</ele>
        <time>2011-03-12T15:27:31Z</time>
      </trkpt>
      <trkpt lat="48.68088" lon="7.31118">
        <ele>469.271729</ele>
        <time>2011-03-12T15:27:32Z</time>
      </trkpt>
      <trkpt lat="48.68094" lon="7.3112">
        <ele>469.154541</ele>
        <time>2011-03-12T15:27:33Z</time>
      </trkpt>
      <trkpt lat="48.68099" lon="7.31124">
        <ele>469.068604</ele>
        <time>2011-03-12T15:27:34Z</time>
      </trkpt>
      <trkpt lat="48.68103" lon="7.31128">
        <ele>468.834229</ele>
        <time>2011-03-12T15:27:35Z</time>
      </trkpt>
      <trkpt lat="48.68108" lon="7.31131">
        <ele>468.623291</ele>
        <time>2011-03-12T15:27:36Z</time>
      </trkpt>
      <trkpt lat="48.68113" lon="7.31133">
        <ele>468.045166</ele>
        <time>2011-03-12T15:27:37Z</time>
      </trkpt>
      <trkpt lat="48.6812" lon="7.31141">
        <ele>466.717041</ele>
        <time>2011-03-12T15:27:39Z</time>
      </trkpt>
      <trkpt lat="48.68122" lon="7.31146">
        <ele>465.123291</ele>
        <time>2011-03-12T15:27:40Z</time>
      </trkpt>
      <trkpt lat="48.68129" lon="7.31156">
        <ele>464.334229</ele>
        <time>2011-03-12T15:27:42Z</time>
      </trkpt>
      <trkpt lat="48.68137" lon="7.31162">
        <ele>463.701416</ele>
        <time>2011-03-12T15:27:44Z</time>
      </trkpt>
      <trkpt lat="48.68143" lon="7.31165">
        <ele>463.482666</ele>
        <time>2011-03-12T15:27:46Z</time>
      </trkpt>
      <trkpt lat="48.68147" lon="7.31166">
        <ele>462.201416</ele>
        <time>2011-03-12T15:28:33Z</time>
      </trkpt>
      <trkpt lat="48.68152" lon="7.31171">
        <ele>462.420166</ele>
        <time>2011-03-12T15:28:36Z</time>
      </trkpt>
      <trkpt lat="48.68157" lon="7.31179">
        <ele>461.537354</ele>
        <time>2011-03-12T15:28:39Z</time>
      </trkpt>
      <trkpt lat="48.68164" lon="7.31187">
        <ele>461.482666</ele>
        <time>2011-03-12T15:28:41Z</time>
      </trkpt>
      <trkpt lat="48.68169" lon="7.31194">
        <ele>461.232666</ele>
        <time>2011-03-12T15:28:43Z</time>
      </trkpt>
      <trkpt lat="48.68173" lon="7.31204">
        <ele>461.052979</ele>
        <time>2011-03-12T15:28:45Z</time>
      </trkpt>
      <trkpt lat="48.68178" lon="7.31214">
        <ele>460.771729</ele>
        <time>2011-03-12T15:28:47Z</time>
      </trkpt>
      <trkpt lat="48.68184" lon="7.31221">
        <ele>460.842041</ele>
        <time>2011-03-12T15:28:49Z</time>
      </trkpt>
      <trkpt lat="48.68189" lon="7.31228">
        <ele>460.513916</ele>
        <time>2011-03-12T15:28:51Z</time>
      </trkpt>
      <trkpt lat="48.68193" lon="7.31236">
        <ele>460.662354</ele>
        <time>2011-03-12T15:28:53Z</time>
      </trkpt>
      <trkpt lat="48.68197" lon="7.31242">
        <ele>459.795166</ele>
        <time>2011-03-12T15:28:55Z</time>
      </trkpt>
      <trkpt lat="48.682" lon="7.31248">
        <ele>459.873291</ele>
        <time>2011-03-12T15:28:57Z</time>
      </trkpt>
      <trkpt lat="48.68204" lon="7.31256">
        <ele>459.045166</ele>
        <time>2011-03-12T15:28:59Z</time>
      </trkpt>
      <trkpt lat="48.68208" lon="7.31263">
        <ele>459.404541</ele>
        <time>2011-03-12T15:29:01Z</time>
      </trkpt>
      <trkpt lat="48.68211" lon="7.3127">
        <ele>459.724854</ele>
        <time>2011-03-12T15:29:03Z</time>
      </trkpt>
      <trkpt lat="48.68214" lon="7.31276">
        <ele>460.638916</ele>
        <time>2011-03-12T15:29:05Z</time>
      </trkpt>
      <trkpt lat="48.68218" lon="7.31283">
        <ele>460.795166</ele>
        <time>2011-03-12T15:29:07Z</time>
      </trkpt>
      <trkpt lat="48.68221" lon="7.31293">
        <ele>461.334229</ele>
        <time>2011-03-12T15:29:09Z</time>
      </trkpt>
      <trkpt lat="48.68224" lon="7.31303">
        <ele>461.607666</ele>
        <time>2011-03-12T15:29:11Z</time>
      </trkpt>
      <trkpt lat="48.68229" lon="7.31311">
        <ele>461.357666</ele>
        <time>2011-03-12T15:29:13Z</time>
      </trkpt>
      <trkpt lat="48.68234" lon="7.31319">
        <ele>460.943604</ele>
        <time>2011-03-12T15:29:15Z</time>
      </trkpt>
      <trkpt lat="48.68237" lon="7.31327">
        <ele>461.045166</ele>
        <time>2011-03-12T15:29:17Z</time>
      </trkpt>
      <trkpt lat="48.68243" lon="7.31332">
        <ele>461.404541</ele>
        <time>2011-03-12T15:29:19Z</time>
      </trkpt>
      <trkpt lat="48.6825" lon="7.31335">
        <ele>461.287354</ele>
        <time>2011-03-12T15:29:21Z</time>
      </trkpt>
      <trkpt lat="48.68256" lon="7.31338">
        <ele>461.185791</ele>
        <time>2011-03-12T15:29:23Z</time>
      </trkpt>
      <trkpt lat="48.68261" lon="7.31342">
        <ele>461.084229</ele>
        <time>2011-03-12T15:29:25Z</time>
      </trkpt>
      <trkpt lat="48.68266" lon="7.31347">
        <ele>461.685791</ele>
        <time>2011-03-12T15:29:27Z</time>
      </trkpt>
      <trkpt lat="48.6827" lon="7.31354">
        <ele>462.037354</ele>
        <time>2011-03-12T15:29:29Z</time>
      </trkpt>
      <trkpt lat="48.68275" lon="7.31357">
        <ele>461.849854</ele>
        <time>2011-03-12T15:29:31Z</time>
      </trkpt>
      <trkpt lat="48.68279" lon="7.31362">
        <ele>461.748291</ele>
        <time>2011-03-12T15:29:33Z</time>
      </trkpt>
      <trkpt lat="48.68284" lon="7.31367">
        <ele>461.677979</ele>
        <time>2011-03-12T15:29:35Z</time>
      </trkpt>
      <trkpt lat="48.68289" lon="7.31372">
        <ele>461.670166</ele>
        <time>2011-03-12T15:29:37Z</time>
      </trkpt>
      <trkpt lat="48.68295" lon="7.31374">
        <ele>462.123291</ele>
        <time>2011-03-12T15:29:39Z</time>
      </trkpt>
      <trkpt lat="48.68301" lon="7.31377">
        <ele>461.842041</ele>
        <time>2011-03-12T15:29:41Z</time>
      </trkpt>
      <trkpt lat="48.68306" lon="7.31384">
        <ele>462.240479</ele>
        <time>2011-03-12T15:29:43Z</time>
      </trkpt>
      <trkpt lat="48.68312" lon="7.31389">
        <ele>461.404541</ele>
        <time>2011-03-12T15:29:45Z</time>
      </trkpt>
      <trkpt lat="48.68319" lon="7.31393">
        <ele>461.420166</ele>
        <time>2011-03-12T15:29:47Z</time>
      </trkpt>
      <trkpt lat="48.68325" lon="7.31397">
        <ele>460.779541</ele>
        <time>2011-03-12T15:29:49Z</time>
      </trkpt>
      <trkpt lat="48.6833" lon="7.314">
        <ele>460.873291</ele>
        <time>2011-03-12T15:29:51Z</time>
      </trkpt>
      <trkpt lat="48.68337" lon="7.31405">
        <ele>460.029541</ele>
        <time>2011-03-12T15:29:53Z</time>
      </trkpt>
      <trkpt lat="48.68341" lon="7.3141">
        <ele>460.982666</ele>
        <time>2011-03-12T15:29:55Z</time>
      </trkpt>
      <trkpt lat="48.68346" lon="7.31415">
        <ele>460.842041</ele>
        <time>2011-03-12T15:29:57Z</time>
      </trkpt>
      <trkpt lat="48.68351" lon="7.31419">
        <ele>461.013916</ele>
        <time>2011-03-12T15:29:59Z</time>
      </trkpt>
      <trkpt lat="48.68355" lon="7.31425">
        <ele>462.459229</ele>
        <time>2011-03-12T15:30:01Z</time>
      </trkpt>
      <trkpt lat="48.68358" lon="7.3143">
        <ele>461.224854</ele>
        <time>2011-03-12T15:30:04Z</time>
      </trkpt>
      <trkpt lat="48.68362" lon="7.31437">
        <ele>461.420166</ele>
        <time>2011-03-12T15:30:09Z</time>
      </trkpt>
      <trkpt lat="48.68369" lon="7.31441">
        <ele>460.334229</ele>
        <time>2011-03-12T15:30:12Z</time>
      </trkpt>
      <trkpt lat="48.68375" lon="7.31444">
        <ele>459.881104</ele>
        <time>2011-03-12T15:30:14Z</time>
      </trkpt>
      <trkpt lat="48.68383" lon="7.3145">
        <ele>459.365479</ele>
        <time>2011-03-12T15:30:16Z</time>
      </trkpt>
      <trkpt lat="48.68388" lon="7.31454">
        <ele>458.881104</ele>
        <time>2011-03-12T15:30:17Z</time>
      </trkpt>
      <trkpt lat="48.68395" lon="7.31463">
        <ele>458.498291</ele>
        <time>2011-03-12T15:30:19Z</time>
      </trkpt>
      <trkpt lat="48.68399" lon="7.31467">
        <ele>458.170166</ele>
        <time>2011-03-12T15:30:20Z</time>
      </trkpt>
      <trkpt lat="48.68404" lon="7.31471">
        <ele>457.748291</ele>
        <time>2011-03-12T15:30:21Z</time>
      </trkpt>
      <trkpt lat="48.68409" lon="7.31476">
        <ele>457.490479</ele>
        <time>2011-03-12T15:30:22Z</time>
      </trkpt>
      <trkpt lat="48.68413" lon="7.31481">
        <ele>457.256104</ele>
        <time>2011-03-12T15:30:23Z</time>
      </trkpt>
      <trkpt lat="48.68418" lon="7.31485">
        <ele>457.099854</ele>
        <time>2011-03-12T15:30:24Z</time>
      </trkpt>
      <trkpt lat="48.68423" lon="7.31489">
        <ele>456.779541</ele>
        <time>2011-03-12T15:30:25Z</time>
      </trkpt>
      <trkpt lat="48.68429" lon="7.31492">
        <ele>456.756104</ele>
        <time>2011-03-12T15:30:26Z</time>
      </trkpt>
      <trkpt lat="48.68434" lon="7.31495">
        <ele>456.373291</ele>
        <time>2011-03-12T15:30:27Z</time>
      </trkpt>
      <trkpt lat="48.68439" lon="7.31497">
        <ele>456.599854</ele>
        <time>2011-03-12T15:30:28Z</time>
      </trkpt>
      <trkpt lat="48.68444" lon="7.315">
        <ele>456.310791</ele>
        <time>2011-03-12T15:30:29Z</time>
      </trkpt>
      <trkpt lat="48.68448" lon="7.31502">
        <ele>456.021729</ele>
        <time>2011-03-12T15:30:30Z</time>
      </trkpt>
      <trkpt lat="48.68453" lon="7.31506">
        <ele>456.646729</ele>
        <time>2011-03-12T15:30:31Z</time>
      </trkpt>
      <trkpt lat="48.68457" lon="7.3151">
        <ele>456.482666</ele>
        <time>2011-03-12T15:30:32Z</time>
      </trkpt>
      <trkpt lat="48.68461" lon="7.31515">
        <ele>456.420166</ele>
        <time>2011-03-12T15:30:33Z</time>
      </trkpt>
      <trkpt lat="48.68469" lon="7.31521">
        <ele>456.318604</ele>
        <time>2011-03-12T15:30:35Z</time>
      </trkpt>
      <trkpt lat="48.68474" lon="7.31523">
        <ele>456.217041</ele>
        <time>2011-03-12T15:30:36Z</time>
      </trkpt>
      <trkpt lat="48.68481" lon="7.31526">
        <ele>455.396729</ele>
        <time>2011-03-12T15:30:38Z</time>
      </trkpt>
      <trkpt lat="48.68488" lon="7.31525">
        <ele>455.513916</ele>
        <time>2011-03-12T15:30:40Z</time>
      </trkpt>
      <trkpt lat="48.68496" lon="7.31523">
        <ele>455.224854</ele>
        <time>2011-03-12T15:30:42Z</time>
      </trkpt>
      <trkpt lat="48.68502" lon="7.31525">
        <ele>455.177979</ele>
        <time>2011-03-12T15:30:44Z</time>
      </trkpt>
      <trkpt lat="48.68509" lon="7.31527">
        <ele>455.123291</ele>
        <time>2011-03-12T15:30:46Z</time>
      </trkpt>
      <trkpt lat="48.68516" lon="7.31531">
        <ele>454.842041</ele>
        <time>2011-03-12T15:30:48Z</time>
      </trkpt>
      <trkpt lat="48.68525" lon="7.31534">
        <ele>455.131104</ele>
        <time>2011-03-12T15:30:50Z</time>
      </trkpt>
      <trkpt lat="48.68532" lon="7.31537">
        <ele>455.217041</ele>
        <time>2011-03-12T15:30:52Z</time>
      </trkpt>
      <trkpt lat="48.68541" lon="7.31541">
        <ele>454.998291</ele>
        <time>2011-03-12T15:30:54Z</time>
      </trkpt>
      <trkpt lat="48.68545" lon="7.31543">
        <ele>454.717041</ele>
        <time>2011-03-12T15:30:55Z</time>
      </trkpt>
      <trkpt lat="48.68551" lon="7.31545">
        <ele>454.623291</ele>
        <time>2011-03-12T15:30:56Z</time>
      </trkpt>
      <trkpt lat="48.68559" lon="7.31548">
        <ele>454.263916</ele>
        <time>2011-03-12T15:30:58Z</time>
      </trkpt>
      <trkpt lat="48.68567" lon="7.3155">
        <ele>453.349854</ele>
        <time>2011-03-12T15:31:00Z</time>
      </trkpt>
      <trkpt lat="48.68575" lon="7.31554">
        <ele>452.467041</ele>
        <time>2011-03-12T15:31:02Z</time>
      </trkpt>
      <trkpt lat="48.68584" lon="7.31558">
        <ele>453.263916</ele>
        <time>2011-03-12T15:31:04Z</time>
      </trkpt>
      <trkpt lat="48.68589" lon="7.31559">
        <ele>453.381104</ele>
        <time>2011-03-12T15:31:05Z</time>
      </trkpt>
      <trkpt lat="48.68594" lon="7.31559">
        <ele>452.717041</ele>
        <time>2011-03-12T15:31:06Z</time>
      </trkpt>
      <trkpt lat="48.68598" lon="7.31561">
        <ele>452.670166</ele>
        <time>2011-03-12T15:31:07Z</time>
      </trkpt>
      <trkpt lat="48.68605" lon="7.31564">
        <ele>452.685791</ele>
        <time>2011-03-12T15:31:09Z</time>
      </trkpt>
      <trkpt lat="48.68612" lon="7.31568">
        <ele>452.193604</ele>
        <time>2011-03-12T15:31:11Z</time>
      </trkpt>
      <trkpt lat="48.68617" lon="7.31572">
        <ele>451.740479</ele>
        <time>2011-03-12T15:31:13Z</time>
      </trkpt>
      <trkpt lat="48.68621" lon="7.31576">
        <ele>451.943604</ele>
        <time>2011-03-12T15:31:15Z</time>
      </trkpt>
      <trkpt lat="48.68624" lon="7.31581">
        <ele>454.279541</ele>
        <time>2011-03-12T15:31:33Z</time>
      </trkpt>
      <trkpt lat="48.68626" lon="7.31588">
        <ele>453.795166</ele>
        <time>2011-03-12T15:31:35Z</time>
      </trkpt>
      <trkpt lat="48.68629" lon="7.316">
        <ele>453.310791</ele>
        <time>2011-03-12T15:31:37Z</time>
      </trkpt>
      <trkpt lat="48.68629" lon="7.31615">
        <ele>454.068604</ele>
        <time>2011-03-12T15:31:39Z</time>
      </trkpt>
      <trkpt lat="48.68631" lon="7.31622">
        <ele>453.763916</ele>
        <time>2011-03-12T15:31:40Z</time>
      </trkpt>
      <trkpt lat="48.68634" lon="7.3163">
        <ele>454.279541</ele>
        <time>2011-03-12T15:31:42Z</time>
      </trkpt>
      <trkpt lat="48.68637" lon="7.31637">
        <ele>453.552979</ele>
        <time>2011-03-12T15:31:44Z</time>
      </trkpt>
      <trkpt lat="48.68641" lon="7.31644">
        <ele>453.396729</ele>
        <time>2011-03-12T15:31:46Z</time>
      </trkpt>
      <trkpt lat="48.68645" lon="7.31648">
        <ele>452.935791</ele>
        <time>2011-03-12T15:31:47Z</time>
      </trkpt>
      <trkpt lat="48.68649" lon="7.31652">
        <ele>452.568604</ele>
        <time>2011-03-12T15:31:48Z</time>
      </trkpt>
      <trkpt lat="48.68656" lon="7.31661">
        <ele>451.396729</ele>
        <time>2011-03-12T15:31:50Z</time>
      </trkpt>
      <trkpt lat="48.6866" lon="7.31665">
        <ele>450.482666</ele>
        <time>2011-03-12T15:31:51Z</time>
      </trkpt>
      <trkpt lat="48.68664" lon="7.3167">
        <ele>450.185791</ele>
        <time>2011-03-12T15:31:52Z</time>
      </trkpt>
      <trkpt lat="48.68667" lon="7.31676">
        <ele>451.506104</ele>
        <time>2011-03-12T15:31:53Z</time>
      </trkpt>
      <trkpt lat="48.68671" lon="7.31689">
        <ele>451.326416</ele>
        <time>2011-03-12T15:31:55Z</time>
      </trkpt>
      <trkpt lat="48.68673" lon="7.31696">
        <ele>450.592041</ele>
        <time>2011-03-12T15:31:56Z</time>
      </trkpt>
      <trkpt lat="48.68677" lon="7.31706">
        <ele>448.779541</ele>
        <time>2011-03-12T15:31:57Z</time>
      </trkpt>
      <trkpt lat="48.68678" lon="7.31715">
        <ele>448.568604</ele>
        <time>2011-03-12T15:31:58Z</time>
      </trkpt>
      <trkpt lat="48.68681" lon="7.31723">
        <ele>448.115479</ele>
        <time>2011-03-12T15:31:59Z</time>
      </trkpt>
      <trkpt lat="48.68684" lon="7.31732">
        <ele>447.537354</ele>
        <time>2011-03-12T15:32:00Z</time>
      </trkpt>
      <trkpt lat="48.68686" lon="7.3174">
        <ele>446.849854</ele>
        <time>2011-03-12T15:32:01Z</time>
      </trkpt>
      <trkpt lat="48.68689" lon="7.31748">
        <ele>446.677979</ele>
        <time>2011-03-12T15:32:02Z</time>
      </trkpt>
      <trkpt lat="48.68692" lon="7.31755">
        <ele>446.170166</ele>
        <time>2011-03-12T15:32:03Z</time>
      </trkpt>
      <trkpt lat="48.68694" lon="7.31762">
        <ele>445.381104</ele>
        <time>2011-03-12T15:32:04Z</time>
      </trkpt>
      <trkpt lat="48.68697" lon="7.3177">
        <ele>445.724854</ele>
        <time>2011-03-12T15:32:05Z</time>
      </trkpt>
      <trkpt lat="48.68699" lon="7.31779">
        <ele>445.513916</ele>
        <time>2011-03-12T15:32:06Z</time>
      </trkpt>
      <trkpt lat="48.68702" lon="7.31787">
        <ele>445.263916</ele>
        <time>2011-03-12T15:32:07Z</time>
      </trkpt>
      <trkpt lat="48.68706" lon="7.31797">
        <ele>445.076416</ele>
        <time>2011-03-12T15:32:08Z</time>
      </trkpt>
      <trkpt lat="48.68709" lon="7.31805">
        <ele>445.107666</ele>
        <time>2011-03-12T15:32:09Z</time>
      </trkpt>
      <trkpt lat="48.68712" lon="7.31813">
        <ele>444.506104</ele>
        <time>2011-03-12T15:32:10Z</time>
      </trkpt>
      <trkpt lat="48.68716" lon="7.31819">
        <ele>443.420166</ele>
        <time>2011-03-12T15:32:11Z</time>
      </trkpt>
      <trkpt lat="48.68721" lon="7.31827">
        <ele>443.185791</ele>
        <time>2011-03-12T15:32:12Z</time>
      </trkpt>
      <trkpt lat="48.68725" lon="7.31835">
        <ele>442.576416</ele>
        <time>2011-03-12T15:32:13Z</time>
      </trkpt>
      <trkpt lat="48.6873" lon="7.31841">
        <ele>441.943604</ele>
        <time>2011-03-12T15:32:14Z</time>
      </trkpt>
      <trkpt lat="48.68734" lon="7.31848">
        <ele>441.162354</ele>
        <time>2011-03-12T15:32:15Z</time>
      </trkpt>
      <trkpt lat="48.68737" lon="7.31855">
        <ele>440.677979</ele>
        <time>2011-03-12T15:32:16Z</time>
      </trkpt>
      <trkpt lat="48.68739" lon="7.31862">
        <ele>440.459229</ele>
        <time>2011-03-12T15:32:17Z</time>
      </trkpt>
      <trkpt lat="48.68741" lon="7.31868">
        <ele>440.279541</ele>
        <time>2011-03-12T15:32:18Z</time>
      </trkpt>
      <trkpt lat="48.68743" lon="7.31875">
        <ele>439.170166</ele>
        <time>2011-03-12T15:32:19Z</time>
      </trkpt>
      <trkpt lat="48.68745" lon="7.31881">
        <ele>438.357666</ele>
        <time>2011-03-12T15:32:20Z</time>
      </trkpt>
      <trkpt lat="48.68749" lon="7.31888">
        <ele>440.474854</ele>
        <time>2011-03-12T15:32:21Z</time>
      </trkpt>
      <trkpt lat="48.68754" lon="7.31895">
        <ele>440.373291</ele>
        <time>2011-03-12T15:32:22Z</time>
      </trkpt>
      <trkpt lat="48.68759" lon="7.31902">
        <ele>441.177979</ele>
        <time>2011-03-12T15:32:23Z</time>
      </trkpt>
      <trkpt lat="48.68762" lon="7.31908">
        <ele>441.677979</ele>
        <time>2011-03-12T15:32:24Z</time>
      </trkpt>
      <trkpt lat="48.68767" lon="7.31916">
        <ele>440.123291</ele>
        <time>2011-03-12T15:32:25Z</time>
      </trkpt>
      <trkpt lat="48.68772" lon="7.31923">
        <ele>441.326416</ele>
        <time>2011-03-12T15:32:26Z</time>
      </trkpt>
      <trkpt lat="48.68777" lon="7.31932">
        <ele>440.209229</ele>
        <time>2011-03-12T15:32:27Z</time>
      </trkpt>
      <trkpt lat="48.68781" lon="7.31939">
        <ele>440.474854</ele>
        <time>2011-03-12T15:32:28Z</time>
      </trkpt>
      <trkpt lat="48.68784" lon="7.31945">
        <ele>440.342041</ele>
        <time>2011-03-12T15:32:29Z</time>
      </trkpt>
      <trkpt lat="48.68787" lon="7.31952">
        <ele>439.724854</ele>
        <time>2011-03-12T15:32:30Z</time>
      </trkpt>
      <trkpt lat="48.68788" lon="7.3196">
        <ele>440.076416</ele>
        <time>2011-03-12T15:32:31Z</time>
      </trkpt>
      <trkpt lat="48.68794" lon="7.31967">
        <ele>438.959229</ele>
        <time>2011-03-12T15:32:32Z</time>
      </trkpt>
      <trkpt lat="48.68798" lon="7.31975">
        <ele>438.232666</ele>
        <time>2011-03-12T15:32:33Z</time>
      </trkpt>
      <trkpt lat="48.68802" lon="7.31982">
        <ele>436.552979</ele>
        <time>2011-03-12T15:32:34Z</time>
      </trkpt>
      <trkpt lat="48.68808" lon="7.31988">
        <ele>435.927979</ele>
        <time>2011-03-12T15:32:35Z</time>
      </trkpt>
      <trkpt lat="48.68812" lon="7.31993">
        <ele>435.990479</ele>
        <time>2011-03-12T15:32:36Z</time>
      </trkpt>
      <trkpt lat="48.68817" lon="7.31998">
        <ele>434.865479</ele>
        <time>2011-03-12T15:32:37Z</time>
      </trkpt>
      <trkpt lat="48.68822" lon="7.32001">
        <ele>435.045166</ele>
        <time>2011-03-12T15:32:38Z</time>
      </trkpt>
      <trkpt lat="48.68827" lon="7.32008">
        <ele>433.959229</ele>
        <time>2011-03-12T15:32:39Z</time>
      </trkpt>
      <trkpt lat="48.68831" lon="7.32019">
        <ele>435.592041</ele>
        <time>2011-03-12T15:32:40Z</time>
      </trkpt>
      <trkpt lat="48.68835" lon="7.32025">
        <ele>435.099854</ele>
        <time>2011-03-12T15:32:41Z</time>
      </trkpt>
      <trkpt lat="48.68839" lon="7.32032">
        <ele>434.381104</ele>
        <time>2011-03-12T15:32:42Z</time>
      </trkpt>
      <trkpt lat="48.68843" lon="7.3204">
        <ele>433.615479</ele>
        <time>2011-03-12T15:32:43Z</time>
      </trkpt>
      <trkpt lat="48.68848" lon="7.32047">
        <ele>432.693604</ele>
        <time>2011-03-12T15:32:44Z</time>
      </trkpt>
      <trkpt lat="48.68851" lon="7.32052">
        <ele>431.013916</ele>
        <time>2011-03-12T15:32:45Z</time>
      </trkpt>
      <trkpt lat="48.68854" lon="7.32059">
        <ele>429.802979</ele>
        <time>2011-03-12T15:32:46Z</time>
      </trkpt>
      <trkpt lat="48.68858" lon="7.32067">
        <ele>428.709229</ele>
        <time>2011-03-12T15:32:47Z</time>
      </trkpt>
      <trkpt lat="48.68864" lon="7.32073">
        <ele>429.685791</ele>
        <time>2011-03-12T15:32:48Z</time>
      </trkpt>
      <trkpt lat="48.68868" lon="7.3208">
        <ele>430.631104</ele>
        <time>2011-03-12T15:32:49Z</time>
      </trkpt>
      <trkpt lat="48.68871" lon="7.32086">
        <ele>429.842041</ele>
        <time>2011-03-12T15:32:50Z</time>
      </trkpt>
      <trkpt lat="48.68876" lon="7.32091">
        <ele>428.420166</ele>
        <time>2011-03-12T15:32:51Z</time>
      </trkpt>
      <trkpt lat="48.68879" lon="7.32097">
        <ele>428.201416</ele>
        <time>2011-03-12T15:32:52Z</time>
      </trkpt>
      <trkpt lat="48.68882" lon="7.32103">
        <ele>426.990479</ele>
        <time>2011-03-12T15:32:53Z</time>
      </trkpt>
      <trkpt lat="48.68886" lon="7.32107">
        <ele>426.334229</ele>
        <time>2011-03-12T15:32:54Z</time>
      </trkpt>
      <trkpt lat="48.68891" lon="7.32111">
        <ele>425.240479</ele>
        <time>2011-03-12T15:32:55Z</time>
      </trkpt>
      <trkpt lat="48.68894" lon="7.32116">
        <ele>424.779541</ele>
        <time>2011-03-12T15:32:56Z</time>
      </trkpt>
      <trkpt lat="48.68899" lon="7.3212">
        <ele>423.724854</ele>
        <time>2011-03-12T15:32:57Z</time>
      </trkpt>
      <trkpt lat="48.68903" lon="7.32126">
        <ele>422.873291</ele>
        <time>2011-03-12T15:32:58Z</time>
      </trkpt>
      <trkpt lat="48.68907" lon="7.3213">
        <ele>422.576416</ele>
        <time>2011-03-12T15:32:59Z</time>
      </trkpt>
      <trkpt lat="48.6891" lon="7.32137">
        <ele>422.724854</ele>
        <time>2011-03-12T15:33:00Z</time>
      </trkpt>
      <trkpt lat="48.68914" lon="7.32142">
        <ele>422.607666</ele>
        <time>2011-03-12T15:33:01Z</time>
      </trkpt>
      <trkpt lat="48.68919" lon="7.32147">
        <ele>423.451416</ele>
        <time>2011-03-12T15:33:02Z</time>
      </trkpt>
      <trkpt lat="48.68923" lon="7.32153">
        <ele>423.232666</ele>
        <time>2011-03-12T15:33:03Z</time>
      </trkpt>
      <trkpt lat="48.68927" lon="7.32159">
        <ele>422.068604</ele>
        <time>2011-03-12T15:33:04Z</time>
      </trkpt>
      <trkpt lat="48.6893" lon="7.32164">
        <ele>421.154541</ele>
        <time>2011-03-12T15:33:05Z</time>
      </trkpt>
      <trkpt lat="48.68935" lon="7.32167">
        <ele>420.638916</ele>
        <time>2011-03-12T15:33:06Z</time>
      </trkpt>
      <trkpt lat="48.68945" lon="7.32174">
        <ele>420.506104</ele>
        <time>2011-03-12T15:33:08Z</time>
      </trkpt>
      <trkpt lat="48.6895" lon="7.32178">
        <ele>419.967041</ele>
        <time>2011-03-12T15:33:09Z</time>
      </trkpt>
      <trkpt lat="48.68955" lon="7.32184">
        <ele>418.865479</ele>
        <time>2011-03-12T15:33:10Z</time>
      </trkpt>
      <trkpt lat="48.68959" lon="7.32189">
        <ele>418.904541</ele>
        <time>2011-03-12T15:33:11Z</time>
      </trkpt>
      <trkpt lat="48.68964" lon="7.32194">
        <ele>418.451416</ele>
        <time>2011-03-12T15:33:12Z</time>
      </trkpt>
      <trkpt lat="48.68969" lon="7.32201">
        <ele>417.685791</ele>
        <time>2011-03-12T15:33:13Z</time>
      </trkpt>
      <trkpt lat="48.68973" lon="7.32206">
        <ele>417.295166</ele>
        <time>2011-03-12T15:33:14Z</time>
      </trkpt>
      <trkpt lat="48.68978" lon="7.32212">
        <ele>416.857666</ele>
        <time>2011-03-12T15:33:15Z</time>
      </trkpt>
      <trkpt lat="48.68982" lon="7.3222">
        <ele>416.920166</ele>
        <time>2011-03-12T15:33:16Z</time>
      </trkpt>
      <trkpt lat="48.68987" lon="7.32224">
        <ele>416.849854</ele>
        <time>2011-03-12T15:33:17Z</time>
      </trkpt>
      <trkpt lat="48.68992" lon="7.32229">
        <ele>416.404541</ele>
        <time>2011-03-12T15:33:18Z</time>
      </trkpt>
      <trkpt lat="48.68998" lon="7.32232">
        <ele>416.349854</ele>
        <time>2011-03-12T15:33:19Z</time>
      </trkpt>
      <trkpt lat="48.69003" lon="7.32235">
        <ele>416.185791</ele>
        <time>2011-03-12T15:33:20Z</time>
      </trkpt>
      <trkpt lat="48.69008" lon="7.3224">
        <ele>415.599854</ele>
        <time>2011-03-12T15:33:21Z</time>
      </trkpt>
      <trkpt lat="48.69014" lon="7.32246">
        <ele>415.209229</ele>
        <time>2011-03-12T15:33:22Z</time>
      </trkpt>
      <trkpt lat="48.6902" lon="7.32251">
        <ele>415.076416</ele>
        <time>2011-03-12T15:33:23Z</time>
      </trkpt>
      <trkpt lat="48.69025" lon="7.32257">
        <ele>414.427979</ele>
        <time>2011-03-12T15:33:24Z</time>
      </trkpt>
      <trkpt lat="48.6903" lon="7.32262">
        <ele>414.381104</ele>
        <time>2011-03-12T15:33:25Z</time>
      </trkpt>
      <trkpt lat="48.69035" lon="7.32267">
        <ele>414.326416</ele>
        <time>2011-03-12T15:33:26Z</time>
      </trkpt>
      <trkpt lat="48.6904" lon="7.32273">
        <ele>414.568604</ele>
        <time>2011-03-12T15:33:27Z</time>
      </trkpt>
      <trkpt lat="48.69047" lon="7.32278">
        <ele>414.326416</ele>
        <time>2011-03-12T15:33:28Z</time>
      </trkpt>
      <trkpt lat="48.69051" lon="7.32283">
        <ele>414.248291</ele>
        <time>2011-03-12T15:33:29Z</time>
      </trkpt>
      <trkpt lat="48.69055" lon="7.32288">
        <ele>413.881104</ele>
        <time>2011-03-12T15:33:30Z</time>
      </trkpt>
      <trkpt lat="48.69059" lon="7.32293">
        <ele>413.638916</ele>
        <time>2011-03-12T15:33:31Z</time>
      </trkpt>
      <trkpt lat="48.69064" lon="7.32299">
        <ele>413.506104</ele>
        <time>2011-03-12T15:33:32Z</time>
      </trkpt>
      <trkpt lat="48.6907" lon="7.32304">
        <ele>413.888916</ele>
        <time>2011-03-12T15:33:33Z</time>
      </trkpt>
      <trkpt lat="48.69075" lon="7.32309">
        <ele>413.529541</ele>
        <time>2011-03-12T15:33:34Z</time>
      </trkpt>
      <trkpt lat="48.69083" lon="7.32313">
        <ele>413.459229</ele>
        <time>2011-03-12T15:33:35Z</time>
      </trkpt>
      <trkpt lat="48.69088" lon="7.32318">
        <ele>413.412354</ele>
        <time>2011-03-12T15:33:36Z</time>
      </trkpt>
      <trkpt lat="48.69092" lon="7.32322">
        <ele>413.435791</ele>
        <time>2011-03-12T15:33:37Z</time>
      </trkpt>
      <trkpt lat="48.69097" lon="7.32329">
        <ele>413.654541</ele>
        <time>2011-03-12T15:33:38Z</time>
      </trkpt>
      <trkpt lat="48.69101" lon="7.32335">
        <ele>413.302979</ele>
        <time>2011-03-12T15:33:39Z</time>
      </trkpt>
      <trkpt lat="48.69105" lon="7.3234">
        <ele>412.873291</ele>
        <time>2011-03-12T15:33:40Z</time>
      </trkpt>
      <trkpt lat="48.69111" lon="7.32344">
        <ele>412.896729</ele>
        <time>2011-03-12T15:33:41Z</time>
      </trkpt>
      <trkpt lat="48.69117" lon="7.32349">
        <ele>412.427979</ele>
        <time>2011-03-12T15:33:42Z</time>
      </trkpt>
      <trkpt lat="48.69123" lon="7.32355">
        <ele>411.967041</ele>
        <time>2011-03-12T15:33:43Z</time>
      </trkpt>
      <trkpt lat="48.69129" lon="7.32359">
        <ele>411.427979</ele>
        <time>2011-03-12T15:33:44Z</time>
      </trkpt>
      <trkpt lat="48.69135" lon="7.32363">
        <ele>411.224854</ele>
        <time>2011-03-12T15:33:45Z</time>
      </trkpt>
      <trkpt lat="48.69141" lon="7.32369">
        <ele>410.974854</ele>
        <time>2011-03-12T15:33:46Z</time>
      </trkpt>
      <trkpt lat="48.69147" lon="7.32373">
        <ele>410.912354</ele>
        <time>2011-03-12T15:33:47Z</time>
      </trkpt>
      <trkpt lat="48.69153" lon="7.32379">
        <ele>410.326416</ele>
        <time>2011-03-12T15:33:48Z</time>
      </trkpt>
      <trkpt lat="48.69157" lon="7.32384">
        <ele>410.138916</ele>
        <time>2011-03-12T15:33:49Z</time>
      </trkpt>
      <trkpt lat="48.69162" lon="7.3239">
        <ele>409.662354</ele>
        <time>2011-03-12T15:33:50Z</time>
      </trkpt>
      <trkpt lat="48.69167" lon="7.32396">
        <ele>409.357666</ele>
        <time>2011-03-12T15:33:51Z</time>
      </trkpt>
      <trkpt lat="48.69172" lon="7.32402">
        <ele>409.342041</ele>
        <time>2011-03-12T15:33:52Z</time>
      </trkpt>
      <trkpt lat="48.69176" lon="7.32407">
        <ele>409.201416</ele>
        <time>2011-03-12T15:33:53Z</time>
      </trkpt>
      <trkpt lat="48.69181" lon="7.32414">
        <ele>408.888916</ele>
        <time>2011-03-12T15:33:54Z</time>
      </trkpt>
      <trkpt lat="48.69186" lon="7.32419">
        <ele>408.748291</ele>
        <time>2011-03-12T15:33:55Z</time>
      </trkpt>
      <trkpt lat="48.6919" lon="7.32425">
        <ele>408.904541</ele>
        <time>2011-03-12T15:33:56Z</time>
      </trkpt>
      <trkpt lat="48.69194" lon="7.32433">
        <ele>409.420166</ele>
        <time>2011-03-12T15:33:57Z</time>
      </trkpt>
      <trkpt lat="48.69197" lon="7.32439">
        <ele>409.529541</ele>
        <time>2011-03-12T15:33:58Z</time>
      </trkpt>
      <trkpt lat="48.69201" lon="7.32446">
        <ele>409.185791</ele>
        <time>2011-03-12T15:33:59Z</time>
      </trkpt>
      <trkpt lat="48.69204" lon="7.32451">
        <ele>409.482666</ele>
        <time>2011-03-12T15:34:00Z</time>
      </trkpt>
      <trkpt lat="48.69207" lon="7.3246">
        <ele>409.857666</ele>
        <time>2011-03-12T15:34:02Z</time>
      </trkpt>
      <trkpt lat="48.69208" lon="7.3247">
        <ele>409.599854</ele>
        <time>2011-03-12T15:34:04Z</time>
      </trkpt>
      <trkpt lat="48.69211" lon="7.32476">
        <ele>408.685791</ele>
        <time>2011-03-12T15:34:07Z</time>
      </trkpt>
      <trkpt lat="48.69217" lon="7.32483">
        <ele>409.513916</ele>
        <time>2011-03-12T15:34:11Z</time>
      </trkpt>
      <trkpt lat="48.69223" lon="7.32492">
        <ele>409.068604</ele>
        <time>2011-03-12T15:34:13Z</time>
      </trkpt>
      <trkpt lat="48.69227" lon="7.325">
        <ele>408.521729</ele>
        <time>2011-03-12T15:34:14Z</time>
      </trkpt>
      <trkpt lat="48.69231" lon="7.32507">
        <ele>407.677979</ele>
        <time>2011-03-12T15:34:15Z</time>
      </trkpt>
      <trkpt lat="48.69236" lon="7.32514">
        <ele>407.068604</ele>
        <time>2011-03-12T15:34:16Z</time>
      </trkpt>
      <trkpt lat="48.69241" lon="7.3252">
        <ele>406.396729</ele>
        <time>2011-03-12T15:34:17Z</time>
      </trkpt>
      <trkpt lat="48.69247" lon="7.32526">
        <ele>406.170166</ele>
        <time>2011-03-12T15:34:18Z</time>
      </trkpt>
      <trkpt lat="48.69252" lon="7.32533">
        <ele>405.959229</ele>
        <time>2011-03-12T15:34:19Z</time>
      </trkpt>
      <trkpt lat="48.69258" lon="7.32541">
        <ele>405.099854</ele>
        <time>2011-03-12T15:34:20Z</time>
      </trkpt>
      <trkpt lat="48.69263" lon="7.32548">
        <ele>404.193604</ele>
        <time>2011-03-12T15:34:21Z</time>
      </trkpt>
      <trkpt lat="48.69268" lon="7.32555">
        <ele>403.279541</ele>
        <time>2011-03-12T15:34:22Z</time>
      </trkpt>
      <trkpt lat="48.69273" lon="7.32559">
        <ele>402.951416</ele>
        <time>2011-03-12T15:34:23Z</time>
      </trkpt>
      <trkpt lat="48.69276" lon="7.32566">
        <ele>402.177979</ele>
        <time>2011-03-12T15:34:24Z</time>
      </trkpt>
      <trkpt lat="48.69281" lon="7.32577">
        <ele>401.560791</ele>
        <time>2011-03-12T15:34:26Z</time>
      </trkpt>
      <trkpt lat="48.69286" lon="7.32582">
        <ele>401.263916</ele>
        <time>2011-03-12T15:34:27Z</time>
      </trkpt>
      <trkpt lat="48.6929" lon="7.32587">
        <ele>400.951416</ele>
        <time>2011-03-12T15:34:28Z</time>
      </trkpt>
      <trkpt lat="48.69297" lon="7.32591">
        <ele>400.662354</ele>
        <time>2011-03-12T15:34:29Z</time>
      </trkpt>
      <trkpt lat="48.69308" lon="7.326">
        <ele>399.084229</ele>
        <time>2011-03-12T15:34:31Z</time>
      </trkpt>
      <trkpt lat="48.69313" lon="7.32603">
        <ele>398.224854</ele>
        <time>2011-03-12T15:34:32Z</time>
      </trkpt>
      <trkpt lat="48.69321" lon="7.32608">
        <ele>397.459229</ele>
        <time>2011-03-12T15:34:33Z</time>
      </trkpt>
      <trkpt lat="48.69327" lon="7.32611">
        <ele>396.802979</ele>
        <time>2011-03-12T15:34:34Z</time>
      </trkpt>
      <trkpt lat="48.69333" lon="7.32614">
        <ele>396.342041</ele>
        <time>2011-03-12T15:34:35Z</time>
      </trkpt>
      <trkpt lat="48.69339" lon="7.32616">
        <ele>396.037354</ele>
        <time>2011-03-12T15:34:36Z</time>
      </trkpt>
      <trkpt lat="48.69345" lon="7.32618">
        <ele>395.631104</ele>
        <time>2011-03-12T15:34:37Z</time>
      </trkpt>
      <trkpt lat="48.69354" lon="7.3262">
        <ele>396.045166</ele>
        <time>2011-03-12T15:34:39Z</time>
      </trkpt>
      <trkpt lat="48.69359" lon="7.3262">
        <ele>395.154541</ele>
        <time>2011-03-12T15:34:40Z</time>
      </trkpt>
      <trkpt lat="48.69366" lon="7.3262">
        <ele>393.568604</ele>
        <time>2011-03-12T15:34:41Z</time>
      </trkpt>
      <trkpt lat="48.6937" lon="7.3262">
        <ele>392.615479</ele>
        <time>2011-03-12T15:34:42Z</time>
      </trkpt>
      <trkpt lat="48.69376" lon="7.32622">
        <ele>391.967041</ele>
        <time>2011-03-12T15:34:43Z</time>
      </trkpt>
      <trkpt lat="48.69382" lon="7.32625">
        <ele>390.709229</ele>
        <time>2011-03-12T15:34:44Z</time>
      </trkpt>
      <trkpt lat="48.69391" lon="7.32625">
        <ele>389.802979</ele>
        <time>2011-03-12T15:34:45Z</time>
      </trkpt>
      <trkpt lat="48.69398" lon="7.32626">
        <ele>389.654541</ele>
        <time>2011-03-12T15:34:46Z</time>
      </trkpt>
      <trkpt lat="48.69404" lon="7.32628">
        <ele>389.349854</ele>
        <time>2011-03-12T15:34:47Z</time>
      </trkpt>
      <trkpt lat="48.6941" lon="7.32629">
        <ele>389.146729</ele>
        <time>2011-03-12T15:34:48Z</time>
      </trkpt>
      <trkpt lat="48.69418" lon="7.3263">
        <ele>389.506104</ele>
        <time>2011-03-12T15:34:50Z</time>
      </trkpt>
      <trkpt lat="48.69423" lon="7.32629">
        <ele>389.287354</ele>
        <time>2011-03-12T15:34:51Z</time>
      </trkpt>
      <trkpt lat="48.69429" lon="7.32628">
        <ele>389.412354</ele>
        <time>2011-03-12T15:34:52Z</time>
      </trkpt>
      <trkpt lat="48.69435" lon="7.32627">
        <ele>388.951416</ele>
        <time>2011-03-12T15:34:53Z</time>
      </trkpt>
      <trkpt lat="48.69441" lon="7.32626">
        <ele>388.927979</ele>
        <time>2011-03-12T15:34:54Z</time>
      </trkpt>
      <trkpt lat="48.69447" lon="7.32624">
        <ele>387.810791</ele>
        <time>2011-03-12T15:34:55Z</time>
      </trkpt>
      <trkpt lat="48.69452" lon="7.32622">
        <ele>387.310791</ele>
        <time>2011-03-12T15:34:56Z</time>
      </trkpt>
      <trkpt lat="48.69456" lon="7.3262">
        <ele>386.998291</ele>
        <time>2011-03-12T15:34:57Z</time>
      </trkpt>
      <trkpt lat="48.69464" lon="7.32617">
        <ele>386.927979</ele>
        <time>2011-03-12T15:34:59Z</time>
      </trkpt>
      <trkpt lat="48.69469" lon="7.32616">
        <ele>385.482666</ele>
        <time>2011-03-12T15:35:01Z</time>
      </trkpt>
      <trkpt lat="48.69475" lon="7.32616">
        <ele>383.412354</ele>
        <time>2011-03-12T15:35:03Z</time>
      </trkpt>
      <trkpt lat="48.69479" lon="7.32621">
        <ele>384.295166</ele>
        <time>2011-03-12T15:35:05Z</time>
      </trkpt>
      <trkpt lat="48.69484" lon="7.32625">
        <ele>383.584229</ele>
        <time>2011-03-12T15:35:07Z</time>
      </trkpt>
      <trkpt lat="48.69491" lon="7.3263">
        <ele>383.029541</ele>
        <time>2011-03-12T15:35:09Z</time>
      </trkpt>
      <trkpt lat="48.695" lon="7.32632">
        <ele>381.646729</ele>
        <time>2011-03-12T15:35:11Z</time>
      </trkpt>
      <trkpt lat="48.69504" lon="7.32634">
        <ele>381.029541</ele>
        <time>2011-03-12T15:35:12Z</time>
      </trkpt>
      <trkpt lat="48.69509" lon="7.32636">
        <ele>380.084229</ele>
        <time>2011-03-12T15:35:13Z</time>
      </trkpt>
      <trkpt lat="48.69514" lon="7.32638">
        <ele>379.967041</ele>
        <time>2011-03-12T15:35:14Z</time>
      </trkpt>
      <trkpt lat="48.69518" lon="7.3264">
        <ele>380.060791</ele>
        <time>2011-03-12T15:35:15Z</time>
      </trkpt>
      <trkpt lat="48.69523" lon="7.32644">
        <ele>379.990479</ele>
        <time>2011-03-12T15:35:16Z</time>
      </trkpt>
      <trkpt lat="48.69528" lon="7.32645">
        <ele>379.842041</ele>
        <time>2011-03-12T15:35:17Z</time>
      </trkpt>
      <trkpt lat="48.69532" lon="7.32646">
        <ele>379.279541</ele>
        <time>2011-03-12T15:35:18Z</time>
      </trkpt>
      <trkpt lat="48.6954" lon="7.32645">
        <ele>379.740479</ele>
        <time>2011-03-12T15:35:20Z</time>
      </trkpt>
      <trkpt lat="48.69545" lon="7.32643">
        <ele>381.131104</ele>
        <time>2011-03-12T15:35:22Z</time>
      </trkpt>
      <trkpt lat="48.6955" lon="7.32641">
        <ele>380.842041</ele>
        <time>2011-03-12T15:35:24Z</time>
      </trkpt>
      <trkpt lat="48.69555" lon="7.3264">
        <ele>381.052979</ele>
        <time>2011-03-12T15:35:26Z</time>
      </trkpt>
      <trkpt lat="48.69559" lon="7.32639">
        <ele>382.677979</ele>
        <time>2011-03-12T15:35:29Z</time>
      </trkpt>
      <trkpt lat="48.69565" lon="7.32636">
        <ele>383.568604</ele>
        <time>2011-03-12T15:35:32Z</time>
      </trkpt>
      <trkpt lat="48.69572" lon="7.32636">
        <ele>383.849854</ele>
        <time>2011-03-12T15:35:34Z</time>
      </trkpt>
      <trkpt lat="48.69579" lon="7.32636">
        <ele>381.013916</ele>
        <time>2011-03-12T15:35:36Z</time>
      </trkpt>
      <trkpt lat="48.69585" lon="7.32636">
        <ele>379.498291</ele>
        <time>2011-03-12T15:35:38Z</time>
      </trkpt>
      <trkpt lat="48.6959" lon="7.3264">
        <ele>378.404541</ele>
        <time>2011-03-12T15:35:41Z</time>
      </trkpt>
      <trkpt lat="48.69595" lon="7.32642">
        <ele>377.896729</ele>
        <time>2011-03-12T15:35:43Z</time>
      </trkpt>
      <trkpt lat="48.696" lon="7.32643">
        <ele>377.209229</ele>
        <time>2011-03-12T15:35:46Z</time>
      </trkpt>
      <trkpt lat="48.69605" lon="7.32647">
        <ele>376.396729</ele>
        <time>2011-03-12T15:36:11Z</time>
      </trkpt>
      <trkpt lat="48.69611" lon="7.32651">
        <ele>376.271729</ele>
        <time>2011-03-12T15:36:13Z</time>
      </trkpt>
      <trkpt lat="48.6962" lon="7.3265">
        <ele>375.552979</ele>
        <time>2011-03-12T15:36:15Z</time>
      </trkpt>
      <trkpt lat="48.69628" lon="7.32649">
        <ele>375.162354</ele>
        <time>2011-03-12T15:36:17Z</time>
      </trkpt>
      <trkpt lat="48.69636" lon="7.32646">
        <ele>374.615479</ele>
        <time>2011-03-12T15:36:19Z</time>
      </trkpt>
      <trkpt lat="48.69644" lon="7.32644">
        <ele>374.529541</ele>
        <time>2011-03-12T15:36:21Z</time>
      </trkpt>
      <trkpt lat="48.69652" lon="7.32645">
        <ele>374.818604</ele>
        <time>2011-03-12T15:36:23Z</time>
      </trkpt>
      <trkpt lat="48.69659" lon="7.32648">
        <ele>375.373291</ele>
        <time>2011-03-12T15:36:25Z</time>
      </trkpt>
      <trkpt lat="48.69665" lon="7.32653">
        <ele>375.217041</ele>
        <time>2011-03-12T15:36:27Z</time>
      </trkpt>
      <trkpt lat="48.69669" lon="7.3266">
        <ele>375.506104</ele>
        <time>2011-03-12T15:36:29Z</time>
      </trkpt>
      <trkpt lat="48.69672" lon="7.32669">
        <ele>376.107666</ele>
        <time>2011-03-12T15:36:31Z</time>
      </trkpt>
      <trkpt lat="48.69674" lon="7.32681">
        <ele>376.599854</ele>
        <time>2011-03-12T15:36:33Z</time>
      </trkpt>
      <trkpt lat="48.69675" lon="7.32693">
        <ele>377.748291</ele>
        <time>2011-03-12T15:36:35Z</time>
      </trkpt>
      <trkpt lat="48.69677" lon="7.32704">
        <ele>378.209229</ele>
        <time>2011-03-12T15:36:37Z</time>
      </trkpt>
      <trkpt lat="48.69678" lon="7.32717">
        <ele>378.709229</ele>
        <time>2011-03-12T15:36:39Z</time>
      </trkpt>
      <trkpt lat="48.69679" lon="7.32724">
        <ele>378.818604</ele>
        <time>2011-03-12T15:36:40Z</time>
      </trkpt>
      <trkpt lat="48.69683" lon="7.32736">
        <ele>378.849854</ele>
        <time>2011-03-12T15:36:42Z</time>
      </trkpt>
      <trkpt lat="48.69686" lon="7.32749">
        <ele>378.568604</ele>
        <time>2011-03-12T15:36:44Z</time>
      </trkpt>
      <trkpt lat="48.6969" lon="7.3276">
        <ele>378.865479</ele>
        <time>2011-03-12T15:36:46Z</time>
      </trkpt>
      <trkpt lat="48.69694" lon="7.32769">
        <ele>379.717041</ele>
        <time>2011-03-12T15:36:48Z</time>
      </trkpt>
      <trkpt lat="48.69698" lon="7.32777">
        <ele>380.021729</ele>
        <time>2011-03-12T15:36:50Z</time>
      </trkpt>
      <trkpt lat="48.697" lon="7.32784">
        <ele>380.592041</ele>
        <time>2011-03-12T15:36:52Z</time>
      </trkpt>
      <trkpt lat="48.69703" lon="7.32791">
        <ele>380.763916</ele>
        <time>2011-03-12T15:36:54Z</time>
      </trkpt>
      <trkpt lat="48.69706" lon="7.32798">
        <ele>381.373291</ele>
        <time>2011-03-12T15:36:57Z</time>
      </trkpt>
      <trkpt lat="48.69709" lon="7.32805">
        <ele>382.967041</ele>
        <time>2011-03-12T15:37:00Z</time>
      </trkpt>
      <trkpt lat="48.6971" lon="7.32813">
        <ele>383.123291</ele>
        <time>2011-03-12T15:37:04Z</time>
      </trkpt>
      <trkpt lat="48.69712" lon="7.32823">
        <ele>382.396729</ele>
        <time>2011-03-12T15:37:07Z</time>
      </trkpt>
      <trkpt lat="48.69715" lon="7.32829">
        <ele>381.927979</ele>
        <time>2011-03-12T15:37:09Z</time>
      </trkpt>
      <trkpt lat="48.69718" lon="7.32834">
        <ele>382.529541</ele>
        <time>2011-03-12T15:37:11Z</time>
      </trkpt>
      <trkpt lat="48.69721" lon="7.32841">
        <ele>381.826416</ele>
        <time>2011-03-12T15:37:13Z</time>
      </trkpt>
      <trkpt lat="48.69723" lon="7.3285">
        <ele>381.873291</ele>
        <time>2011-03-12T15:37:15Z</time>
      </trkpt>
      <trkpt lat="48.69727" lon="7.3286">
        <ele>381.935791</ele>
        <time>2011-03-12T15:37:17Z</time>
      </trkpt>
      <trkpt lat="48.6973" lon="7.3287">
        <ele>382.123291</ele>
        <time>2011-03-12T15:37:19Z</time>
      </trkpt>
      <trkpt lat="48.69733" lon="7.32882">
        <ele>381.193604</ele>
        <time>2011-03-12T15:37:21Z</time>
      </trkpt>
      <trkpt lat="48.69735" lon="7.32888">
        <ele>380.654541</ele>
        <time>2011-03-12T15:37:22Z</time>
      </trkpt>
      <trkpt lat="48.69737" lon="7.32896">
        <ele>380.076416</ele>
        <time>2011-03-12T15:37:23Z</time>
      </trkpt>
      <trkpt lat="48.69739" lon="7.32903">
        <ele>380.029541</ele>
        <time>2011-03-12T15:37:24Z</time>
      </trkpt>
      <trkpt lat="48.69741" lon="7.32911">
        <ele>380.154541</ele>
        <time>2011-03-12T15:37:25Z</time>
      </trkpt>
      <trkpt lat="48.69742" lon="7.32918">
        <ele>379.912354</ele>
        <time>2011-03-12T15:37:26Z</time>
      </trkpt>
      <trkpt lat="48.69743" lon="7.32924">
        <ele>379.834229</ele>
        <time>2011-03-12T15:37:27Z</time>
      </trkpt>
      <trkpt lat="48.69745" lon="7.32931">
        <ele>379.701416</ele>
        <time>2011-03-12T15:37:28Z</time>
      </trkpt>
      <trkpt lat="48.69748" lon="7.32937">
        <ele>379.513916</ele>
        <time>2011-03-12T15:37:29Z</time>
      </trkpt>
      <trkpt lat="48.69751" lon="7.32943">
        <ele>379.357666</ele>
        <time>2011-03-12T15:37:30Z</time>
      </trkpt>
      <trkpt lat="48.69754" lon="7.32949">
        <ele>379.138916</ele>
        <time>2011-03-12T15:37:31Z</time>
      </trkpt>
      <trkpt lat="48.69757" lon="7.32955">
        <ele>378.654541</ele>
        <time>2011-03-12T15:37:32Z</time>
      </trkpt>
      <trkpt lat="48.69761" lon="7.32961">
        <ele>379.045166</ele>
        <time>2011-03-12T15:37:33Z</time>
      </trkpt>
      <trkpt lat="48.69764" lon="7.32968">
        <ele>381.677979</ele>
        <time>2011-03-12T15:37:34Z</time>
      </trkpt>
      <trkpt lat="48.69767" lon="7.32973">
        <ele>379.748291</ele>
        <time>2011-03-12T15:37:35Z</time>
      </trkpt>
      <trkpt lat="48.69771" lon="7.32978">
        <ele>379.138916</ele>
        <time>2011-03-12T15:37:36Z</time>
      </trkpt>
      <trkpt lat="48.69774" lon="7.32983">
        <ele>377.763916</ele>
        <time>2011-03-12T15:37:37Z</time>
      </trkpt>
      <trkpt lat="48.69779" lon="7.3299">
        <ele>378.279541</ele>
        <time>2011-03-12T15:37:39Z</time>
      </trkpt>
      <trkpt lat="48.69783" lon="7.32996">
        <ele>377.138916</ele>
        <time>2011-03-12T15:37:41Z</time>
      </trkpt>
      <trkpt lat="48.69787" lon="7.33001">
        <ele>376.654541</ele>
        <time>2011-03-12T15:37:42Z</time>
      </trkpt>
      <trkpt lat="48.69791" lon="7.33006">
        <ele>376.334229</ele>
        <time>2011-03-12T15:37:43Z</time>
      </trkpt>
      <trkpt lat="48.69796" lon="7.33012">
        <ele>376.795166</ele>
        <time>2011-03-12T15:37:44Z</time>
      </trkpt>
      <trkpt lat="48.69801" lon="7.33018">
        <ele>376.654541</ele>
        <time>2011-03-12T15:37:45Z</time>
      </trkpt>
      <trkpt lat="48.69806" lon="7.33023">
        <ele>376.677979</ele>
        <time>2011-03-12T15:37:46Z</time>
      </trkpt>
      <trkpt lat="48.69811" lon="7.33028">
        <ele>376.959229</ele>
        <time>2011-03-12T15:37:47Z</time>
      </trkpt>
      <trkpt lat="48.69815" lon="7.33033">
        <ele>376.701416</ele>
        <time>2011-03-12T15:37:48Z</time>
      </trkpt>
      <trkpt lat="48.69822" lon="7.33037">
        <ele>376.576416</ele>
        <time>2011-03-12T15:37:49Z</time>
      </trkpt>
      <trkpt lat="48.69827" lon="7.33042">
        <ele>376.388916</ele>
        <time>2011-03-12T15:37:50Z</time>
      </trkpt>
      <trkpt lat="48.69833" lon="7.33047">
        <ele>376.201416</ele>
        <time>2011-03-12T15:37:51Z</time>
      </trkpt>
      <trkpt lat="48.69839" lon="7.33052">
        <ele>376.084229</ele>
        <time>2011-03-12T15:37:52Z</time>
      </trkpt>
      <trkpt lat="48.69845" lon="7.33055">
        <ele>376.177979</ele>
        <time>2011-03-12T15:37:53Z</time>
      </trkpt>
      <trkpt lat="48.69849" lon="7.33061">
        <ele>375.959229</ele>
        <time>2011-03-12T15:37:54Z</time>
      </trkpt>
      <trkpt lat="48.69855" lon="7.33065">
        <ele>375.724854</ele>
        <time>2011-03-12T15:37:55Z</time>
      </trkpt>
      <trkpt lat="48.6986" lon="7.3307">
        <ele>375.271729</ele>
        <time>2011-03-12T15:37:56Z</time>
      </trkpt>
      <trkpt lat="48.69865" lon="7.33073">
        <ele>375.138916</ele>
        <time>2011-03-12T15:37:57Z</time>
      </trkpt>
      <trkpt lat="48.6987" lon="7.33076">
        <ele>375.076416</ele>
        <time>2011-03-12T15:37:58Z</time>
      </trkpt>
      <trkpt lat="48.69877" lon="7.33077">
        <ele>374.912354</ele>
        <time>2011-03-12T15:37:59Z</time>
      </trkpt>
      <trkpt lat="48.69885" lon="7.33083">
        <ele>373.881104</ele>
        <time>2011-03-12T15:38:01Z</time>
      </trkpt>
      <trkpt lat="48.69892" lon="7.3309">
        <ele>372.998291</ele>
        <time>2011-03-12T15:38:03Z</time>
      </trkpt>
      <trkpt lat="48.69897" lon="7.33093">
        <ele>372.662354</ele>
        <time>2011-03-12T15:38:04Z</time>
      </trkpt>
      <trkpt lat="48.69902" lon="7.33094">
        <ele>372.717041</ele>
        <time>2011-03-12T15:38:05Z</time>
      </trkpt>
      <trkpt lat="48.69906" lon="7.33096">
        <ele>372.607666</ele>
        <time>2011-03-12T15:38:06Z</time>
      </trkpt>
      <trkpt lat="48.69915" lon="7.33097">
        <ele>373.217041</ele>
        <time>2011-03-12T15:38:08Z</time>
      </trkpt>
      <trkpt lat="48.6992" lon="7.33098">
        <ele>373.467041</ele>
        <time>2011-03-12T15:38:09Z</time>
      </trkpt>
      <trkpt lat="48.69925" lon="7.331">
        <ele>373.404541</ele>
        <time>2011-03-12T15:38:10Z</time>
      </trkpt>
      <trkpt lat="48.69931" lon="7.33102">
        <ele>373.404541</ele>
        <time>2011-03-12T15:38:11Z</time>
      </trkpt>
      <trkpt lat="48.69936" lon="7.33102">
        <ele>373.560791</ele>
        <time>2011-03-12T15:38:12Z</time>
      </trkpt>
      <trkpt lat="48.69942" lon="7.33105">
        <ele>373.373291</ele>
        <time>2011-03-12T15:38:13Z</time>
      </trkpt>
      <trkpt lat="48.69948" lon="7.33106">
        <ele>373.435791</ele>
        <time>2011-03-12T15:38:14Z</time>
      </trkpt>
      <trkpt lat="48.69954" lon="7.33107">
        <ele>373.584229</ele>
        <time>2011-03-12T15:38:15Z</time>
      </trkpt>
      <trkpt lat="48.6996" lon="7.33109">
        <ele>373.631104</ele>
        <time>2011-03-12T15:38:16Z</time>
      </trkpt>
      <trkpt lat="48.69965" lon="7.3311">
        <ele>373.865479</ele>
        <time>2011-03-12T15:38:17Z</time>
      </trkpt>
      <trkpt lat="48.6997" lon="7.33111">
        <ele>373.998291</ele>
        <time>2011-03-12T15:38:18Z</time>
      </trkpt>
      <trkpt lat="48.6998" lon="7.33111">
        <ele>373.888916</ele>
        <time>2011-03-12T15:38:20Z</time>
      </trkpt>
      <trkpt lat="48.69986" lon="7.33112">
        <ele>373.763916</ele>
        <time>2011-03-12T15:38:21Z</time>
      </trkpt>
      <trkpt lat="48.69991" lon="7.33114">
        <ele>373.607666</ele>
        <time>2011-03-12T15:38:22Z</time>
      </trkpt>
      <trkpt lat="48.7" lon="7.33117">
        <ele>373.287354</ele>
        <time>2011-03-12T15:38:24Z</time>
      </trkpt>
      <trkpt lat="48.70005" lon="7.33119">
        <ele>373.474854</ele>
        <time>2011-03-12T15:38:25Z</time>
      </trkpt>
      <trkpt lat="48.70012" lon="7.33118">
        <ele>372.943604</ele>
        <time>2011-03-12T15:38:26Z</time>
      </trkpt>
      <trkpt lat="48.70016" lon="7.33121">
        <ele>372.920166</ele>
        <time>2011-03-12T15:38:27Z</time>
      </trkpt>
      <trkpt lat="48.70022" lon="7.33123">
        <ele>372.802979</ele>
        <time>2011-03-12T15:38:28Z</time>
      </trkpt>
      <trkpt lat="48.70026" lon="7.33125">
        <ele>372.670166</ele>
        <time>2011-03-12T15:38:29Z</time>
      </trkpt>
      <trkpt lat="48.70031" lon="7.33127">
        <ele>372.256104</ele>
        <time>2011-03-12T15:38:31Z</time>
      </trkpt>
      <trkpt lat="48.70038" lon="7.33126">
        <ele>372.732666</ele>
        <time>2011-03-12T15:38:33Z</time>
      </trkpt>
      <trkpt lat="48.70046" lon="7.33126">
        <ele>372.842041</ele>
        <time>2011-03-12T15:38:35Z</time>
      </trkpt>
      <trkpt lat="48.70052" lon="7.33129">
        <ele>372.459229</ele>
        <time>2011-03-12T15:38:37Z</time>
      </trkpt>
      <trkpt lat="48.70056" lon="7.33132">
        <ele>372.240479</ele>
        <time>2011-03-12T15:38:38Z</time>
      </trkpt>
      <trkpt lat="48.70062" lon="7.33132">
        <ele>371.935791</ele>
        <time>2011-03-12T15:38:39Z</time>
      </trkpt>
      <trkpt lat="48.70067" lon="7.33134">
        <ele>371.951416</ele>
        <time>2011-03-12T15:38:40Z</time>
      </trkpt>
      <trkpt lat="48.70071" lon="7.33135">
        <ele>371.795166</ele>
        <time>2011-03-12T15:38:41Z</time>
      </trkpt>
      <trkpt lat="48.70076" lon="7.33137">
        <ele>371.420166</ele>
        <time>2011-03-12T15:38:42Z</time>
      </trkpt>
      <trkpt lat="48.70081" lon="7.33138">
        <ele>371.209229</ele>
        <time>2011-03-12T15:38:43Z</time>
      </trkpt>
      <trkpt lat="48.70086" lon="7.33139">
        <ele>370.818604</ele>
        <time>2011-03-12T15:38:44Z</time>
      </trkpt>
      <trkpt lat="48.70092" lon="7.33139">
        <ele>370.584229</ele>
        <time>2011-03-12T15:38:45Z</time>
      </trkpt>
      <trkpt lat="48.70097" lon="7.33139">
        <ele>370.943604</ele>
        <time>2011-03-12T15:38:46Z</time>
      </trkpt>
      <trkpt lat="48.70102" lon="7.33138">
        <ele>371.092041</ele>
        <time>2011-03-12T15:38:47Z</time>
      </trkpt>
      <trkpt lat="48.70107" lon="7.33138">
        <ele>370.646729</ele>
        <time>2011-03-12T15:38:48Z</time>
      </trkpt>
      <trkpt lat="48.70112" lon="7.33139">
        <ele>370.779541</ele>
        <time>2011-03-12T15:38:49Z</time>
      </trkpt>
      <trkpt lat="48.70116" lon="7.3314">
        <ele>371.006104</ele>
        <time>2011-03-12T15:38:50Z</time>
      </trkpt>
      <trkpt lat="48.70121" lon="7.33139">
        <ele>371.357666</ele>
        <time>2011-03-12T15:38:51Z</time>
      </trkpt>
      <trkpt lat="48.70125" lon="7.33139">
        <ele>371.263916</ele>
        <time>2011-03-12T15:38:52Z</time>
      </trkpt>
      <trkpt lat="48.70131" lon="7.33137">
        <ele>371.474854</ele>
        <time>2011-03-12T15:38:53Z</time>
      </trkpt>
      <trkpt lat="48.70138" lon="7.33138">
        <ele>371.584229</ele>
        <time>2011-03-12T15:38:55Z</time>
      </trkpt>
      <trkpt lat="48.70143" lon="7.33138">
        <ele>371.646729</ele>
        <time>2011-03-12T15:38:56Z</time>
      </trkpt>
      <trkpt lat="48.70152" lon="7.33134">
        <ele>372.779541</ele>
        <time>2011-03-12T15:38:58Z</time>
      </trkpt>
      <trkpt lat="48.70159" lon="7.33131">
        <ele>374.201416</ele>
        <time>2011-03-12T15:39:00Z</time>
      </trkpt>
      <trkpt lat="48.70163" lon="7.3313">
        <ele>374.576416</ele>
        <time>2011-03-12T15:39:01Z</time>
      </trkpt>
      <trkpt lat="48.70173" lon="7.33128">
        <ele>374.107666</ele>
        <time>2011-03-12T15:39:03Z</time>
      </trkpt>
      <trkpt lat="48.70178" lon="7.33127">
        <ele>374.560791</ele>
        <time>2011-03-12T15:39:04Z</time>
      </trkpt>
      <trkpt lat="48.70183" lon="7.33127">
        <ele>375.115479</ele>
        <time>2011-03-12T15:39:05Z</time>
      </trkpt>
      <trkpt lat="48.70189" lon="7.33128">
        <ele>375.748291</ele>
        <time>2011-03-12T15:39:06Z</time>
      </trkpt>
      <trkpt lat="48.70196" lon="7.33131">
        <ele>375.677979</ele>
        <time>2011-03-12T15:39:08Z</time>
      </trkpt>
      <trkpt lat="48.702" lon="7.33132">
        <ele>375.552979</ele>
        <time>2011-03-12T15:39:09Z</time>
      </trkpt>
      <trkpt lat="48.70206" lon="7.33132">
        <ele>375.529541</ele>
        <time>2011-03-12T15:39:10Z</time>
      </trkpt>
      <trkpt lat="48.70212" lon="7.33133">
        <ele>375.232666</ele>
        <time>2011-03-12T15:39:11Z</time>
      </trkpt>
      <trkpt lat="48.70217" lon="7.33133">
        <ele>374.943604</ele>
        <time>2011-03-12T15:39:12Z</time>
      </trkpt>
      <trkpt lat="48.70223" lon="7.33136">
        <ele>374.498291</ele>
        <time>2011-03-12T15:39:13Z</time>
      </trkpt>
      <trkpt lat="48.70229" lon="7.33137">
        <ele>373.974854</ele>
        <time>2011-03-12T15:39:14Z</time>
      </trkpt>
      <trkpt lat="48.70235" lon="7.33136">
        <ele>373.529541</ele>
        <time>2011-03-12T15:39:15Z</time>
      </trkpt>
      <trkpt lat="48.70242" lon="7.33136">
        <ele>373.006104</ele>
        <time>2011-03-12T15:39:16Z</time>
      </trkpt>
      <trkpt lat="48.70248" lon="7.33136">
        <ele>372.670166</ele>
        <time>2011-03-12T15:39:17Z</time>
      </trkpt>
      <trkpt lat="48.70256" lon="7.33137">
        <ele>372.810791</ele>
        <time>2011-03-12T15:39:18Z</time>
      </trkpt>
      <trkpt lat="48.70262" lon="7.33137">
        <ele>372.662354</ele>
        <time>2011-03-12T15:39:19Z</time>
      </trkpt>
      <trkpt lat="48.70271" lon="7.33135">
        <ele>372.888916</ele>
        <time>2011-03-12T15:39:21Z</time>
      </trkpt>
      <trkpt lat="48.70278" lon="7.33135">
        <ele>372.881104</ele>
        <time>2011-03-12T15:39:22Z</time>
      </trkpt>
      <trkpt lat="48.70284" lon="7.33135">
        <ele>373.021729</ele>
        <time>2011-03-12T15:39:23Z</time>
      </trkpt>
      <trkpt lat="48.70293" lon="7.33137">
        <ele>372.779541</ele>
        <time>2011-03-12T15:39:25Z</time>
      </trkpt>
      <trkpt lat="48.70299" lon="7.33138">
        <ele>372.599854</ele>
        <time>2011-03-12T15:39:26Z</time>
      </trkpt>
      <trkpt lat="48.70305" lon="7.3314">
        <ele>372.545166</ele>
        <time>2011-03-12T15:39:27Z</time>
      </trkpt>
      <trkpt lat="48.70309" lon="7.33142">
        <ele>372.334229</ele>
        <time>2011-03-12T15:39:28Z</time>
      </trkpt>
      <trkpt lat="48.70315" lon="7.33145">
        <ele>371.896729</ele>
        <time>2011-03-12T15:39:29Z</time>
      </trkpt>
      <trkpt lat="48.70321" lon="7.33148">
        <ele>371.232666</ele>
        <time>2011-03-12T15:39:30Z</time>
      </trkpt>
      <trkpt lat="48.70327" lon="7.33151">
        <ele>370.834229</ele>
        <time>2011-03-12T15:39:31Z</time>
      </trkpt>
      <trkpt lat="48.70334" lon="7.33153">
        <ele>370.373291</ele>
        <time>2011-03-12T15:39:32Z</time>
      </trkpt>
      <trkpt lat="48.7034" lon="7.33156">
        <ele>369.998291</ele>
        <time>2011-03-12T15:39:33Z</time>
      </trkpt>
      <trkpt lat="48.70347" lon="7.33159">
        <ele>369.498291</ele>
        <time>2011-03-12T15:39:34Z</time>
      </trkpt>
      <trkpt lat="48.70354" lon="7.33163">
        <ele>368.857666</ele>
        <time>2011-03-12T15:39:35Z</time>
      </trkpt>
      <trkpt lat="48.70365" lon="7.33163">
        <ele>368.076416</ele>
        <time>2011-03-12T15:39:36Z</time>
      </trkpt>
      <trkpt lat="48.70372" lon="7.33165">
        <ele>367.357666</ele>
        <time>2011-03-12T15:39:37Z</time>
      </trkpt>
      <trkpt lat="48.70377" lon="7.33168">
        <ele>366.138916</ele>
        <time>2011-03-12T15:39:38Z</time>
      </trkpt>
      <trkpt lat="48.70384" lon="7.33171">
        <ele>365.388916</ele>
        <time>2011-03-12T15:39:39Z</time>
      </trkpt>
      <trkpt lat="48.70388" lon="7.33176">
        <ele>364.342041</ele>
        <time>2011-03-12T15:39:40Z</time>
      </trkpt>
      <trkpt lat="48.70393" lon="7.3318">
        <ele>363.412354</ele>
        <time>2011-03-12T15:39:41Z</time>
      </trkpt>
      <trkpt lat="48.70401" lon="7.33185">
        <ele>362.584229</ele>
        <time>2011-03-12T15:39:43Z</time>
      </trkpt>
      <trkpt lat="48.70406" lon="7.33186">
        <ele>361.826416</ele>
        <time>2011-03-12T15:39:44Z</time>
      </trkpt>
      <trkpt lat="48.70411" lon="7.33191">
        <ele>361.217041</ele>
        <time>2011-03-12T15:39:45Z</time>
      </trkpt>
      <trkpt lat="48.70416" lon="7.33196">
        <ele>360.209229</ele>
        <time>2011-03-12T15:39:46Z</time>
      </trkpt>
      <trkpt lat="48.70423" lon="7.33199">
        <ele>359.685791</ele>
        <time>2011-03-12T15:39:47Z</time>
      </trkpt>
      <trkpt lat="48.70429" lon="7.33202">
        <ele>359.318604</ele>
        <time>2011-03-12T15:39:48Z</time>
      </trkpt>
      <trkpt lat="48.70434" lon="7.33206">
        <ele>358.701416</ele>
        <time>2011-03-12T15:39:49Z</time>
      </trkpt>
      <trkpt lat="48.70438" lon="7.3321">
        <ele>357.982666</ele>
        <time>2011-03-12T15:39:50Z</time>
      </trkpt>
      <trkpt lat="48.70443" lon="7.33212">
        <ele>357.092041</ele>
        <time>2011-03-12T15:39:51Z</time>
      </trkpt>
      <trkpt lat="48.70449" lon="7.33215">
        <ele>356.779541</ele>
        <time>2011-03-12T15:39:52Z</time>
      </trkpt>
      <trkpt lat="48.70454" lon="7.33219">
        <ele>356.451416</ele>
        <time>2011-03-12T15:39:53Z</time>
      </trkpt>
      <trkpt lat="48.70459" lon="7.33222">
        <ele>355.021729</ele>
        <time>2011-03-12T15:39:54Z</time>
      </trkpt>
      <trkpt lat="48.70463" lon="7.3322">
        <ele>353.052979</ele>
        <time>2011-03-12T15:39:55Z</time>
      </trkpt>
      <trkpt lat="48.70468" lon="7.33226">
        <ele>351.318604</ele>
        <time>2011-03-12T15:39:57Z</time>
      </trkpt>
      <trkpt lat="48.70472" lon="7.33229">
        <ele>349.670166</ele>
        <time>2011-03-12T15:39:59Z</time>
      </trkpt>
      <trkpt lat="48.70478" lon="7.33231">
        <ele>347.717041</ele>
        <time>2011-03-12T15:40:01Z</time>
      </trkpt>
      <trkpt lat="48.70484" lon="7.33234">
        <ele>345.545166</ele>
        <time>2011-03-12T15:40:03Z</time>
      </trkpt>
      <trkpt lat="48.70492" lon="7.33238">
        <ele>344.092041</ele>
        <time>2011-03-12T15:40:05Z</time>
      </trkpt>
      <trkpt lat="48.70499" lon="7.33242">
        <ele>343.037354</ele>
        <time>2011-03-12T15:40:07Z</time>
      </trkpt>
      <trkpt lat="48.70507" lon="7.33247">
        <ele>342.107666</ele>
        <time>2011-03-12T15:40:09Z</time>
      </trkpt>
      <trkpt lat="48.70512" lon="7.33249">
        <ele>341.795166</ele>
        <time>2011-03-12T15:40:10Z</time>
      </trkpt>
      <trkpt lat="48.70518" lon="7.33251">
        <ele>341.068604</ele>
        <time>2011-03-12T15:40:11Z</time>
      </trkpt>
      <trkpt lat="48.70525" lon="7.33254">
        <ele>340.295166</ele>
        <time>2011-03-12T15:40:12Z</time>
      </trkpt>
      <trkpt lat="48.70532" lon="7.33256">
        <ele>339.592041</ele>
        <time>2011-03-12T15:40:13Z</time>
      </trkpt>
      <trkpt lat="48.70539" lon="7.33264">
        <ele>338.357666</ele>
        <time>2011-03-12T15:40:14Z</time>
      </trkpt>
      <trkpt lat="48.70545" lon="7.33268">
        <ele>338.162354</ele>
        <time>2011-03-12T15:40:15Z</time>
      </trkpt>
      <trkpt lat="48.70551" lon="7.33274">
        <ele>337.349854</ele>
        <time>2011-03-12T15:40:16Z</time>
      </trkpt>
      <trkpt lat="48.70557" lon="7.33277">
        <ele>336.693604</ele>
        <time>2011-03-12T15:40:17Z</time>
      </trkpt>
      <trkpt lat="48.70562" lon="7.3328">
        <ele>336.357666</ele>
        <time>2011-03-12T15:40:18Z</time>
      </trkpt>
      <trkpt lat="48.70567" lon="7.33285">
        <ele>335.685791</ele>
        <time>2011-03-12T15:40:19Z</time>
      </trkpt>
      <trkpt lat="48.70572" lon="7.33287">
        <ele>332.935791</ele>
        <time>2011-03-12T15:40:20Z</time>
      </trkpt>
      <trkpt lat="48.70577" lon="7.33293">
        <ele>331.115479</ele>
        <time>2011-03-12T15:40:22Z</time>
      </trkpt>
      <trkpt lat="48.70582" lon="7.33297">
        <ele>330.138916</ele>
        <time>2011-03-12T15:40:24Z</time>
      </trkpt>
      <trkpt lat="48.70587" lon="7.33308">
        <ele>329.974854</ele>
        <time>2011-03-12T15:40:26Z</time>
      </trkpt>
      <trkpt lat="48.70592" lon="7.3332">
        <ele>329.185791</ele>
        <time>2011-03-12T15:40:28Z</time>
      </trkpt>
      <trkpt lat="48.70594" lon="7.33326">
        <ele>328.756104</ele>
        <time>2011-03-12T15:40:29Z</time>
      </trkpt>
      <trkpt lat="48.70598" lon="7.33332">
        <ele>329.037354</ele>
        <time>2011-03-12T15:40:30Z</time>
      </trkpt>
      <trkpt lat="48.70602" lon="7.33337">
        <ele>329.599854</ele>
        <time>2011-03-12T15:40:31Z</time>
      </trkpt>
      <trkpt lat="48.70608" lon="7.33344">
        <ele>329.420166</ele>
        <time>2011-03-12T15:40:33Z</time>
      </trkpt>
      <trkpt lat="48.70613" lon="7.33348">
        <ele>329.146729</ele>
        <time>2011-03-12T15:40:35Z</time>
      </trkpt>
      <trkpt lat="48.70617" lon="7.33353">
        <ele>329.013916</ele>
        <time>2011-03-12T15:40:37Z</time>
      </trkpt>
      <trkpt lat="48.70622" lon="7.33357">
        <ele>328.709229</ele>
        <time>2011-03-12T15:40:40Z</time>
      </trkpt>
      <trkpt lat="48.70626" lon="7.3336">
        <ele>329.388916</ele>
        <time>2011-03-12T15:40:43Z</time>
      </trkpt>
      <trkpt lat="48.7063" lon="7.33363">
        <ele>330.568604</ele>
        <time>2011-03-12T15:40:46Z</time>
      </trkpt>
      <trkpt lat="48.70635" lon="7.33365">
        <ele>331.787354</ele>
        <time>2011-03-12T15:40:49Z</time>
      </trkpt>
      <trkpt lat="48.70641" lon="7.33369">
        <ele>331.670166</ele>
        <time>2011-03-12T15:40:52Z</time>
      </trkpt>
      <trkpt lat="48.70645" lon="7.33372">
        <ele>331.717041</ele>
        <time>2011-03-12T15:40:55Z</time>
      </trkpt>
      <trkpt lat="48.7065" lon="7.33376">
        <ele>331.748291</ele>
        <time>2011-03-12T15:40:59Z</time>
      </trkpt>
      <trkpt lat="48.70656" lon="7.3338">
        <ele>330.967041</ele>
        <time>2011-03-12T15:41:02Z</time>
      </trkpt>
      <trkpt lat="48.70661" lon="7.33384">
        <ele>331.592041</ele>
        <time>2011-03-12T15:41:05Z</time>
      </trkpt>
      <trkpt lat="48.70667" lon="7.3339">
        <ele>331.849854</ele>
        <time>2011-03-12T15:41:07Z</time>
      </trkpt>
      <trkpt lat="48.70671" lon="7.33393">
        <ele>332.037354</ele>
        <time>2011-03-12T15:41:08Z</time>
      </trkpt>
      <trkpt lat="48.70676" lon="7.33396">
        <ele>332.092041</ele>
        <time>2011-03-12T15:41:09Z</time>
      </trkpt>
      <trkpt lat="48.70681" lon="7.33401">
        <ele>331.592041</ele>
        <time>2011-03-12T15:41:10Z</time>
      </trkpt>
      <trkpt lat="48.70686" lon="7.33406">
        <ele>331.177979</ele>
        <time>2011-03-12T15:41:11Z</time>
      </trkpt>
      <trkpt lat="48.70692" lon="7.33411">
        <ele>330.967041</ele>
        <time>2011-03-12T15:41:12Z</time>
      </trkpt>
      <trkpt lat="48.70697" lon="7.33417">
        <ele>330.334229</ele>
        <time>2011-03-12T15:41:13Z</time>
      </trkpt>
      <trkpt lat="48.70702" lon="7.33423">
        <ele>329.029541</ele>
        <time>2011-03-12T15:41:14Z</time>
      </trkpt>
      <trkpt lat="48.70707" lon="7.33428">
        <ele>328.482666</ele>
        <time>2011-03-12T15:41:15Z</time>
      </trkpt>
      <trkpt lat="48.70711" lon="7.33433">
        <ele>328.052979</ele>
        <time>2011-03-12T15:41:16Z</time>
      </trkpt>
      <trkpt lat="48.70716" lon="7.33439">
        <ele>328.256104</ele>
        <time>2011-03-12T15:41:17Z</time>
      </trkpt>
      <trkpt lat="48.7072" lon="7.33443">
        <ele>326.771729</ele>
        <time>2011-03-12T15:41:18Z</time>
      </trkpt>
      <trkpt lat="48.70724" lon="7.33454">
        <ele>325.701416</ele>
        <time>2011-03-12T15:41:20Z</time>
      </trkpt>
      <trkpt lat="48.70726" lon="7.3346">
        <ele>324.881104</ele>
        <time>2011-03-12T15:41:21Z</time>
      </trkpt>
      <trkpt lat="48.70728" lon="7.33468">
        <ele>323.685791</ele>
        <time>2011-03-12T15:41:22Z</time>
      </trkpt>
      <trkpt lat="48.7073" lon="7.33475">
        <ele>322.052979</ele>
        <time>2011-03-12T15:41:23Z</time>
      </trkpt>
      <trkpt lat="48.70733" lon="7.33483">
        <ele>321.271729</ele>
        <time>2011-03-12T15:41:24Z</time>
      </trkpt>
      <trkpt lat="48.70736" lon="7.33492">
        <ele>319.537354</ele>
        <time>2011-03-12T15:41:25Z</time>
      </trkpt>
      <trkpt lat="48.70739" lon="7.33501">
        <ele>318.138916</ele>
        <time>2011-03-12T15:41:26Z</time>
      </trkpt>
      <trkpt lat="48.70742" lon="7.33508">
        <ele>318.232666</ele>
        <time>2011-03-12T15:41:27Z</time>
      </trkpt>
      <trkpt lat="48.70746" lon="7.33514">
        <ele>318.013916</ele>
        <time>2011-03-12T15:41:28Z</time>
      </trkpt>
      <trkpt lat="48.7075" lon="7.33517">
        <ele>318.771729</ele>
        <time>2011-03-12T15:41:29Z</time>
      </trkpt>
      <trkpt lat="48.70757" lon="7.33521">
        <ele>317.967041</ele>
        <time>2011-03-12T15:41:31Z</time>
      </trkpt>
      <trkpt lat="48.70761" lon="7.33523">
        <ele>314.607666</ele>
        <time>2011-03-12T15:41:50Z</time>
      </trkpt>
      <trkpt lat="48.70767" lon="7.33529">
        <ele>314.982666</ele>
        <time>2011-03-12T15:41:53Z</time>
      </trkpt>
      <trkpt lat="48.70773" lon="7.33537">
        <ele>315.201416</ele>
        <time>2011-03-12T15:41:55Z</time>
      </trkpt>
      <trkpt lat="48.70777" lon="7.33541">
        <ele>314.802979</ele>
        <time>2011-03-12T15:41:56Z</time>
      </trkpt>
      <trkpt lat="48.70781" lon="7.33545">
        <ele>314.490479</ele>
        <time>2011-03-12T15:41:57Z</time>
      </trkpt>
      <trkpt lat="48.70786" lon="7.3355">
        <ele>313.967041</ele>
        <time>2011-03-12T15:41:58Z</time>
      </trkpt>
      <trkpt lat="48.7079" lon="7.33553">
        <ele>313.818604</ele>
        <time>2011-03-12T15:41:59Z</time>
      </trkpt>
      <trkpt lat="48.70794" lon="7.33555">
        <ele>313.599854</ele>
        <time>2011-03-12T15:42:00Z</time>
      </trkpt>
      <trkpt lat="48.70802" lon="7.3356">
        <ele>313.537354</ele>
        <time>2011-03-12T15:42:02Z</time>
      </trkpt>
      <trkpt lat="48.70811" lon="7.33566">
        <ele>313.427979</ele>
        <time>2011-03-12T15:42:04Z</time>
      </trkpt>
      <trkpt lat="48.70816" lon="7.33569">
        <ele>313.576416</ele>
        <time>2011-03-12T15:42:05Z</time>
      </trkpt>
      <trkpt lat="48.70821" lon="7.33572">
        <ele>313.248291</ele>
        <time>2011-03-12T15:42:06Z</time>
      </trkpt>
      <trkpt lat="48.70827" lon="7.33576">
        <ele>312.662354</ele>
        <time>2011-03-12T15:42:07Z</time>
      </trkpt>
      <trkpt lat="48.70833" lon="7.33581">
        <ele>312.279541</ele>
        <time>2011-03-12T15:42:08Z</time>
      </trkpt>
      <trkpt lat="48.70839" lon="7.33584">
        <ele>311.638916</ele>
        <time>2011-03-12T15:42:09Z</time>
      </trkpt>
      <trkpt lat="48.70846" lon="7.33587">
        <ele>310.943604</ele>
        <time>2011-03-12T15:42:10Z</time>
      </trkpt>
      <trkpt lat="48.70852" lon="7.33591">
        <ele>310.677979</ele>
        <time>2011-03-12T15:42:11Z</time>
      </trkpt>
      <trkpt lat="48.70859" lon="7.33594">
        <ele>310.201416</ele>
        <time>2011-03-12T15:42:12Z</time>
      </trkpt>
      <trkpt lat="48.70866" lon="7.336">
        <ele>309.935791</ele>
        <time>2011-03-12T15:42:13Z</time>
      </trkpt>
      <trkpt lat="48.70873" lon="7.33603">
        <ele>309.615479</ele>
        <time>2011-03-12T15:42:14Z</time>
      </trkpt>
      <trkpt lat="48.7088" lon="7.33607">
        <ele>309.271729</ele>
        <time>2011-03-12T15:42:15Z</time>
      </trkpt>
      <trkpt lat="48.70887" lon="7.33611">
        <ele>309.123291</ele>
        <time>2011-03-12T15:42:16Z</time>
      </trkpt>
      <trkpt lat="48.70895" lon="7.33614">
        <ele>308.865479</ele>
        <time>2011-03-12T15:42:17Z</time>
      </trkpt>
      <trkpt lat="48.70902" lon="7.33618">
        <ele>308.693604</ele>
        <time>2011-03-12T15:42:18Z</time>
      </trkpt>
      <trkpt lat="48.70909" lon="7.33621">
        <ele>308.427979</ele>
        <time>2011-03-12T15:42:19Z</time>
      </trkpt>
      <trkpt lat="48.70915" lon="7.33623">
        <ele>308.263916</ele>
        <time>2011-03-12T15:42:20Z</time>
      </trkpt>
      <trkpt lat="48.70926" lon="7.33623">
        <ele>308.279541</ele>
        <time>2011-03-12T15:42:21Z</time>
      </trkpt>
      <trkpt lat="48.70934" lon="7.33624">
        <ele>308.084229</ele>
        <time>2011-03-12T15:42:22Z</time>
      </trkpt>
      <trkpt lat="48.70941" lon="7.33625">
        <ele>308.162354</ele>
        <time>2011-03-12T15:42:23Z</time>
      </trkpt>
      <trkpt lat="48.70946" lon="7.33624">
        <ele>308.342041</ele>
        <time>2011-03-12T15:42:24Z</time>
      </trkpt>
      <trkpt lat="48.70952" lon="7.33626">
        <ele>308.302979</ele>
        <time>2011-03-12T15:42:25Z</time>
      </trkpt>
      <trkpt lat="48.70959" lon="7.33628">
        <ele>308.162354</ele>
        <time>2011-03-12T15:42:26Z</time>
      </trkpt>
      <trkpt lat="48.70961" lon="7.33633">
        <ele>307.388916</ele>
        <time>2011-03-12T15:42:27Z</time>
      </trkpt>
      <trkpt lat="48.70968" lon="7.33633">
        <ele>307.084229</ele>
        <time>2011-03-12T15:42:28Z</time>
      </trkpt>
      <trkpt lat="48.70976" lon="7.33633">
        <ele>306.013916</ele>
        <time>2011-03-12T15:42:29Z</time>
      </trkpt>
      <trkpt lat="48.70982" lon="7.33635">
        <ele>305.927979</ele>
        <time>2011-03-12T15:42:30Z</time>
      </trkpt>
      <trkpt lat="48.70989" lon="7.33635">
        <ele>305.373291</ele>
        <time>2011-03-12T15:42:31Z</time>
      </trkpt>
      <trkpt lat="48.70995" lon="7.33636">
        <ele>305.185791</ele>
        <time>2011-03-12T15:42:32Z</time>
      </trkpt>
      <trkpt lat="48.71004" lon="7.33638">
        <ele>303.482666</ele>
        <time>2011-03-12T15:42:34Z</time>
      </trkpt>
      <trkpt lat="48.71009" lon="7.3364">
        <ele>302.685791</ele>
        <time>2011-03-12T15:42:35Z</time>
      </trkpt>
      <trkpt lat="48.71017" lon="7.33642">
        <ele>300.349854</ele>
        <time>2011-03-12T15:42:37Z</time>
      </trkpt>
      <trkpt lat="48.71021" lon="7.33648">
        <ele>298.826416</ele>
        <time>2011-03-12T15:42:39Z</time>
      </trkpt>
      <trkpt lat="48.71023" lon="7.33657">
        <ele>296.717041</ele>
        <time>2011-03-12T15:42:41Z</time>
      </trkpt>
      <trkpt lat="48.71022" lon="7.33669">
        <ele>295.607666</ele>
        <time>2011-03-12T15:42:43Z</time>
      </trkpt>
      <trkpt lat="48.71024" lon="7.33678">
        <ele>294.756104</ele>
        <time>2011-03-12T15:42:45Z</time>
      </trkpt>
      <trkpt lat="48.71026" lon="7.33685">
        <ele>293.951416</ele>
        <time>2011-03-12T15:42:47Z</time>
      </trkpt>
      <trkpt lat="48.71027" lon="7.33692">
        <ele>295.482666</ele>
        <time>2011-03-12T15:42:56Z</time>
      </trkpt>
      <trkpt lat="48.71027" lon="7.337">
        <ele>295.576416</ele>
        <time>2011-03-12T15:43:17Z</time>
      </trkpt>
      <trkpt lat="48.71032" lon="7.33705">
        <ele>295.537354</ele>
        <time>2011-03-12T15:43:19Z</time>
      </trkpt>
      <trkpt lat="48.71038" lon="7.33708">
        <ele>294.998291</ele>
        <time>2011-03-12T15:43:21Z</time>
      </trkpt>
      <trkpt lat="48.71043" lon="7.3371">
        <ele>294.795166</ele>
        <time>2011-03-12T15:43:22Z</time>
      </trkpt>
      <trkpt lat="48.71048" lon="7.33712">
        <ele>294.646729</ele>
        <time>2011-03-12T15:43:23Z</time>
      </trkpt>
      <trkpt lat="48.71056" lon="7.33716">
        <ele>295.037354</ele>
        <time>2011-03-12T15:43:25Z</time>
      </trkpt>
      <trkpt lat="48.71064" lon="7.33719">
        <ele>295.513916</ele>
        <time>2011-03-12T15:43:27Z</time>
      </trkpt>
      <trkpt lat="48.71073" lon="7.33722">
        <ele>295.357666</ele>
        <time>2011-03-12T15:43:29Z</time>
      </trkpt>
      <trkpt lat="48.71082" lon="7.33724">
        <ele>295.818604</ele>
        <time>2011-03-12T15:43:31Z</time>
      </trkpt>
      <trkpt lat="48.7109" lon="7.33725">
        <ele>296.177979</ele>
        <time>2011-03-12T15:43:33Z</time>
      </trkpt>
      <trkpt lat="48.71098" lon="7.33725">
        <ele>296.607666</ele>
        <time>2011-03-12T15:43:35Z</time>
      </trkpt>
      <trkpt lat="48.71106" lon="7.33723">
        <ele>297.037354</ele>
        <time>2011-03-12T15:43:37Z</time>
      </trkpt>
      <trkpt lat="48.71115" lon="7.33719">
        <ele>297.592041</ele>
        <time>2011-03-12T15:43:39Z</time>
      </trkpt>
      <trkpt lat="48.71119" lon="7.33717">
        <ele>297.467041</ele>
        <time>2011-03-12T15:43:40Z</time>
      </trkpt>
      <trkpt lat="48.71125" lon="7.33716">
        <ele>297.576416</ele>
        <time>2011-03-12T15:43:41Z</time>
      </trkpt>
      <trkpt lat="48.7113" lon="7.33715">
        <ele>297.771729</ele>
        <time>2011-03-12T15:43:42Z</time>
      </trkpt>
      <trkpt lat="48.71135" lon="7.33715">
        <ele>298.068604</ele>
        <time>2011-03-12T15:43:43Z</time>
      </trkpt>
      <trkpt lat="48.71143" lon="7.33717">
        <ele>298.521729</ele>
        <time>2011-03-12T15:43:45Z</time>
      </trkpt>
      <trkpt lat="48.71148" lon="7.33719">
        <ele>298.654541</ele>
        <time>2011-03-12T15:43:46Z</time>
      </trkpt>
      <trkpt lat="48.71153" lon="7.33719">
        <ele>298.271729</ele>
        <time>2011-03-12T15:43:47Z</time>
      </trkpt>
      <trkpt lat="48.71162" lon="7.3372">
        <ele>298.982666</ele>
        <time>2011-03-12T15:43:49Z</time>
      </trkpt>
      <trkpt lat="48.7117" lon="7.33721">
        <ele>299.865479</ele>
        <time>2011-03-12T15:43:51Z</time>
      </trkpt>
      <trkpt lat="48.71178" lon="7.3372">
        <ele>300.177979</ele>
        <time>2011-03-12T15:43:53Z</time>
      </trkpt>
      <trkpt lat="48.71185" lon="7.33719">
        <ele>300.607666</ele>
        <time>2011-03-12T15:43:55Z</time>
      </trkpt>
      <trkpt lat="48.7119" lon="7.33717">
        <ele>301.498291</ele>
        <time>2011-03-12T15:43:57Z</time>
      </trkpt>
      <trkpt lat="48.71195" lon="7.33714">
        <ele>301.474854</ele>
        <time>2011-03-12T15:43:59Z</time>
      </trkpt>
      <trkpt lat="48.712" lon="7.3371">
        <ele>301.513916</ele>
        <time>2011-03-12T15:44:01Z</time>
      </trkpt>
      <trkpt lat="48.71206" lon="7.33707">
        <ele>301.779541</ele>
        <time>2011-03-12T15:44:03Z</time>
      </trkpt>
      <trkpt lat="48.7121" lon="7.33704">
        <ele>302.240479</ele>
        <time>2011-03-12T15:44:05Z</time>
      </trkpt>
      <trkpt lat="48.71214" lon="7.33701">
        <ele>302.381104</ele>
        <time>2011-03-12T15:44:07Z</time>
      </trkpt>
      <trkpt lat="48.71218" lon="7.33697">
        <ele>303.404541</ele>
        <time>2011-03-12T15:44:09Z</time>
      </trkpt>
      <trkpt lat="48.71223" lon="7.33695">
        <ele>303.974854</ele>
        <time>2011-03-12T15:44:11Z</time>
      </trkpt>
      <trkpt lat="48.71227" lon="7.33692">
        <ele>304.732666</ele>
        <time>2011-03-12T15:44:13Z</time>
      </trkpt>
      <trkpt lat="48.71232" lon="7.33687">
        <ele>305.467041</ele>
        <time>2011-03-12T15:44:15Z</time>
      </trkpt>
      <trkpt lat="48.71236" lon="7.33684">
        <ele>305.967041</ele>
        <time>2011-03-12T15:44:17Z</time>
      </trkpt>
      <trkpt lat="48.71242" lon="7.33681">
        <ele>306.326416</ele>
        <time>2011-03-12T15:44:20Z</time>
      </trkpt>
      <trkpt lat="48.71248" lon="7.33678">
        <ele>306.701416</ele>
        <time>2011-03-12T15:44:23Z</time>
      </trkpt>
      <trkpt lat="48.71253" lon="7.33677">
        <ele>306.427979</ele>
        <time>2011-03-12T15:44:25Z</time>
      </trkpt>
      <trkpt lat="48.71258" lon="7.33674">
        <ele>306.482666</ele>
        <time>2011-03-12T15:44:27Z</time>
      </trkpt>
      <trkpt lat="48.71264" lon="7.33671">
        <ele>305.888916</ele>
        <time>2011-03-12T15:44:29Z</time>
      </trkpt>
      <trkpt lat="48.71269" lon="7.33668">
        <ele>306.685791</ele>
        <time>2011-03-12T15:44:31Z</time>
      </trkpt>
      <trkpt lat="48.71275" lon="7.33665">
        <ele>307.498291</ele>
        <time>2011-03-12T15:44:33Z</time>
      </trkpt>
      <trkpt lat="48.71282" lon="7.33663">
        <ele>307.287354</ele>
        <time>2011-03-12T15:44:35Z</time>
      </trkpt>
      <trkpt lat="48.71289" lon="7.33664">
        <ele>307.482666</ele>
        <time>2011-03-12T15:44:37Z</time>
      </trkpt>
      <trkpt lat="48.71295" lon="7.33667">
        <ele>307.810791</ele>
        <time>2011-03-12T15:44:39Z</time>
      </trkpt>
      <trkpt lat="48.71301" lon="7.33671">
        <ele>307.599854</ele>
        <time>2011-03-12T15:44:41Z</time>
      </trkpt>
      <trkpt lat="48.71309" lon="7.33677">
        <ele>306.576416</ele>
        <time>2011-03-12T15:44:43Z</time>
      </trkpt>
      <trkpt lat="48.71314" lon="7.3368">
        <ele>306.576416</ele>
        <time>2011-03-12T15:44:44Z</time>
      </trkpt>
      <trkpt lat="48.71319" lon="7.33682">
        <ele>306.201416</ele>
        <time>2011-03-12T15:44:45Z</time>
      </trkpt>
      <trkpt lat="48.71324" lon="7.33685">
        <ele>306.084229</ele>
        <time>2011-03-12T15:44:46Z</time>
      </trkpt>
      <trkpt lat="48.7133" lon="7.33686">
        <ele>306.060791</ele>
        <time>2011-03-12T15:44:47Z</time>
      </trkpt>
      <trkpt lat="48.71336" lon="7.33688">
        <ele>305.631104</ele>
        <time>2011-03-12T15:44:48Z</time>
      </trkpt>
      <trkpt lat="48.71342" lon="7.33689">
        <ele>305.459229</ele>
        <time>2011-03-12T15:44:49Z</time>
      </trkpt>
      <trkpt lat="48.71348" lon="7.3369">
        <ele>304.920166</ele>
        <time>2011-03-12T15:44:50Z</time>
      </trkpt>
      <trkpt lat="48.71355" lon="7.33691">
        <ele>304.638916</ele>
        <time>2011-03-12T15:44:51Z</time>
      </trkpt>
      <trkpt lat="48.71362" lon="7.33693">
        <ele>304.107666</ele>
        <time>2011-03-12T15:44:52Z</time>
      </trkpt>
      <trkpt lat="48.7137" lon="7.33697">
        <ele>303.052979</ele>
        <time>2011-03-12T15:44:53Z</time>
      </trkpt>
      <trkpt lat="48.71378" lon="7.33701">
        <ele>302.146729</ele>
        <time>2011-03-12T15:44:54Z</time>
      </trkpt>
      <trkpt lat="48.71386" lon="7.33706">
        <ele>300.545166</ele>
        <time>2011-03-12T15:44:55Z</time>
      </trkpt>
      <trkpt lat="48.71394" lon="7.33714">
        <ele>301.201416</ele>
        <time>2011-03-12T15:44:56Z</time>
      </trkpt>
      <trkpt lat="48.71403" lon="7.3372">
        <ele>300.396729</ele>
        <time>2011-03-12T15:44:57Z</time>
      </trkpt>
      <trkpt lat="48.71412" lon="7.33727">
        <ele>300.388916</ele>
        <time>2011-03-12T15:44:58Z</time>
      </trkpt>
      <trkpt lat="48.71423" lon="7.33731">
        <ele>300.990479</ele>
        <time>2011-03-12T15:44:59Z</time>
      </trkpt>
      <trkpt lat="48.71434" lon="7.33734">
        <ele>300.552979</ele>
        <time>2011-03-12T15:45:00Z</time>
      </trkpt>
      <trkpt lat="48.71445" lon="7.33736">
        <ele>299.951416</ele>
        <time>2011-03-12T15:45:01Z</time>
      </trkpt>
      <trkpt lat="48.71455" lon="7.33737">
        <ele>299.482666</ele>
        <time>2011-03-12T15:45:02Z</time>
      </trkpt>
      <trkpt lat="48.71466" lon="7.3374">
        <ele>299.677979</ele>
        <time>2011-03-12T15:45:03Z</time>
      </trkpt>
      <trkpt lat="48.71476" lon="7.33742">
        <ele>299.154541</ele>
        <time>2011-03-12T15:45:04Z</time>
      </trkpt>
      <trkpt lat="48.71486" lon="7.33743">
        <ele>298.529541</ele>
        <time>2011-03-12T15:45:05Z</time>
      </trkpt>
      <trkpt lat="48.71495" lon="7.33745">
        <ele>298.568604</ele>
        <time>2011-03-12T15:45:06Z</time>
      </trkpt>
      <trkpt lat="48.71505" lon="7.33746">
        <ele>298.365479</ele>
        <time>2011-03-12T15:45:07Z</time>
      </trkpt>
      <trkpt lat="48.71514" lon="7.33747">
        <ele>298.138916</ele>
        <time>2011-03-12T15:45:08Z</time>
      </trkpt>
      <trkpt lat="48.71522" lon="7.33748">
        <ele>297.435791</ele>
        <time>2011-03-12T15:45:09Z</time>
      </trkpt>
      <trkpt lat="48.7153" lon="7.3375">
        <ele>297.967041</ele>
        <time>2011-03-12T15:45:10Z</time>
      </trkpt>
      <trkpt lat="48.71538" lon="7.33752">
        <ele>297.334229</ele>
        <time>2011-03-12T15:45:11Z</time>
      </trkpt>
      <trkpt lat="48.71546" lon="7.33755">
        <ele>297.318604</ele>
        <time>2011-03-12T15:45:12Z</time>
      </trkpt>
      <trkpt lat="48.71554" lon="7.33759">
        <ele>296.162354</ele>
        <time>2011-03-12T15:45:13Z</time>
      </trkpt>
      <trkpt lat="48.71562" lon="7.33763">
        <ele>294.943604</ele>
        <time>2011-03-12T15:45:14Z</time>
      </trkpt>
      <trkpt lat="48.7157" lon="7.33766">
        <ele>294.154541</ele>
        <time>2011-03-12T15:45:15Z</time>
      </trkpt>
      <trkpt lat="48.71579" lon="7.33768">
        <ele>293.599854</ele>
        <time>2011-03-12T15:45:16Z</time>
      </trkpt>
      <trkpt lat="48.71587" lon="7.33771">
        <ele>293.365479</ele>
        <time>2011-03-12T15:45:17Z</time>
      </trkpt>
      <trkpt lat="48.71595" lon="7.33773">
        <ele>292.771729</ele>
        <time>2011-03-12T15:45:18Z</time>
      </trkpt>
      <trkpt lat="48.71603" lon="7.33773">
        <ele>291.256104</ele>
        <time>2011-03-12T15:45:19Z</time>
      </trkpt>
      <trkpt lat="48.71611" lon="7.33774">
        <ele>290.482666</ele>
        <time>2011-03-12T15:45:20Z</time>
      </trkpt>
      <trkpt lat="48.71619" lon="7.33773">
        <ele>289.802979</ele>
        <time>2011-03-12T15:45:21Z</time>
      </trkpt>
      <trkpt lat="48.71628" lon="7.33771">
        <ele>288.881104</ele>
        <time>2011-03-12T15:45:22Z</time>
      </trkpt>
      <trkpt lat="48.71636" lon="7.33768">
        <ele>288.388916</ele>
        <time>2011-03-12T15:45:23Z</time>
      </trkpt>
      <trkpt lat="48.71645" lon="7.33766">
        <ele>288.209229</ele>
        <time>2011-03-12T15:45:24Z</time>
      </trkpt>
      <trkpt lat="48.71652" lon="7.33765">
        <ele>288.576416</ele>
        <time>2011-03-12T15:45:25Z</time>
      </trkpt>
      <trkpt lat="48.71659" lon="7.33766">
        <ele>288.021729</ele>
        <time>2011-03-12T15:45:26Z</time>
      </trkpt>
      <trkpt lat="48.71665" lon="7.33768">
        <ele>287.427979</ele>
        <time>2011-03-12T15:45:27Z</time>
      </trkpt>
      <trkpt lat="48.71669" lon="7.33772">
        <ele>287.982666</ele>
        <time>2011-03-12T15:45:28Z</time>
      </trkpt>
      <trkpt lat="48.71673" lon="7.33777">
        <ele>287.724854</ele>
        <time>2011-03-12T15:45:30Z</time>
      </trkpt>
      <trkpt lat="48.71674" lon="7.33786">
        <ele>288.310791</ele>
        <time>2011-03-12T15:45:40Z</time>
      </trkpt>
      <trkpt lat="48.71673" lon="7.33793">
        <ele>289.326416</ele>
        <time>2011-03-12T15:45:44Z</time>
      </trkpt>
      <trkpt lat="48.71678" lon="7.33793">
        <ele>289.209229</ele>
        <time>2011-03-12T15:45:47Z</time>
      </trkpt>
      <trkpt lat="48.71685" lon="7.33794">
        <ele>289.709229</ele>
        <time>2011-03-12T15:45:49Z</time>
      </trkpt>
      <trkpt lat="48.7169" lon="7.33796">
        <ele>289.818604</ele>
        <time>2011-03-12T15:45:50Z</time>
      </trkpt>
      <trkpt lat="48.71697" lon="7.338">
        <ele>289.771729</ele>
        <time>2011-03-12T15:45:52Z</time>
      </trkpt>
      <trkpt lat="48.71704" lon="7.33806">
        <ele>290.748291</ele>
        <time>2011-03-12T15:45:54Z</time>
      </trkpt>
      <trkpt lat="48.7171" lon="7.33812">
        <ele>290.654541</ele>
        <time>2011-03-12T15:45:56Z</time>
      </trkpt>
      <trkpt lat="48.71716" lon="7.3382">
        <ele>290.584229</ele>
        <time>2011-03-12T15:45:58Z</time>
      </trkpt>
      <trkpt lat="48.71722" lon="7.33828">
        <ele>290.396729</ele>
        <time>2011-03-12T15:46:00Z</time>
      </trkpt>
      <trkpt lat="48.71727" lon="7.33836">
        <ele>290.842041</ele>
        <time>2011-03-12T15:46:02Z</time>
      </trkpt>
      <trkpt lat="48.71733" lon="7.33846">
        <ele>290.388916</ele>
        <time>2011-03-12T15:46:04Z</time>
      </trkpt>
      <trkpt lat="48.71738" lon="7.33856">
        <ele>290.459229</ele>
        <time>2011-03-12T15:46:06Z</time>
      </trkpt>
      <trkpt lat="48.71745" lon="7.33865">
        <ele>290.185791</ele>
        <time>2011-03-12T15:46:08Z</time>
      </trkpt>
      <trkpt lat="48.71748" lon="7.3387">
        <ele>290.271729</ele>
        <time>2011-03-12T15:46:09Z</time>
      </trkpt>
      <trkpt lat="48.71755" lon="7.33879">
        <ele>290.732666</ele>
        <time>2011-03-12T15:46:11Z</time>
      </trkpt>
      <trkpt lat="48.7176" lon="7.33889">
        <ele>290.545166</ele>
        <time>2011-03-12T15:46:13Z</time>
      </trkpt>
      <trkpt lat="48.71763" lon="7.33894">
        <ele>290.404541</ele>
        <time>2011-03-12T15:46:14Z</time>
      </trkpt>
      <trkpt lat="48.71767" lon="7.33899">
        <ele>290.849854</ele>
        <time>2011-03-12T15:46:15Z</time>
      </trkpt>
      <trkpt lat="48.71774" lon="7.33907">
        <ele>291.849854</ele>
        <time>2011-03-12T15:46:17Z</time>
      </trkpt>
      <trkpt lat="48.71777" lon="7.33911">
        <ele>291.857666</ele>
        <time>2011-03-12T15:46:18Z</time>
      </trkpt>
      <trkpt lat="48.71785" lon="7.33917">
        <ele>291.654541</ele>
        <time>2011-03-12T15:46:20Z</time>
      </trkpt>
      <trkpt lat="48.71793" lon="7.33923">
        <ele>291.552979</ele>
        <time>2011-03-12T15:46:22Z</time>
      </trkpt>
      <trkpt lat="48.71801" lon="7.33928">
        <ele>291.498291</ele>
        <time>2011-03-12T15:46:24Z</time>
      </trkpt>
      <trkpt lat="48.71805" lon="7.33931">
        <ele>291.513916</ele>
        <time>2011-03-12T15:46:25Z</time>
      </trkpt>
      <trkpt lat="48.71814" lon="7.33937">
        <ele>291.857666</ele>
        <time>2011-03-12T15:46:27Z</time>
      </trkpt>
      <trkpt lat="48.71818" lon="7.3394">
        <ele>291.802979</ele>
        <time>2011-03-12T15:46:28Z</time>
      </trkpt>
      <trkpt lat="48.71822" lon="7.33943">
        <ele>291.584229</ele>
        <time>2011-03-12T15:46:29Z</time>
      </trkpt>
      <trkpt lat="48.71827" lon="7.33947">
        <ele>291.568604</ele>
        <time>2011-03-12T15:46:30Z</time>
      </trkpt>
      <trkpt lat="48.71831" lon="7.33949">
        <ele>292.068604</ele>
        <time>2011-03-12T15:46:31Z</time>
      </trkpt>
      <trkpt lat="48.71836" lon="7.33952">
        <ele>292.131104</ele>
        <time>2011-03-12T15:46:32Z</time>
      </trkpt>
      <trkpt lat="48.7184" lon="7.33955">
        <ele>292.021729</ele>
        <time>2011-03-12T15:46:33Z</time>
      </trkpt>
      <trkpt lat="48.71845" lon="7.33958">
        <ele>292.131104</ele>
        <time>2011-03-12T15:46:34Z</time>
      </trkpt>
      <trkpt lat="48.71849" lon="7.33962">
        <ele>292.154541</ele>
        <time>2011-03-12T15:46:35Z</time>
      </trkpt>
      <trkpt lat="48.71854" lon="7.33965">
        <ele>291.998291</ele>
        <time>2011-03-12T15:46:36Z</time>
      </trkpt>
      <trkpt lat="48.71858" lon="7.33969">
        <ele>292.396729</ele>
        <time>2011-03-12T15:46:37Z</time>
      </trkpt>
      <trkpt lat="48.71863" lon="7.33974">
        <ele>292.654541</ele>
        <time>2011-03-12T15:46:38Z</time>
      </trkpt>
      <trkpt lat="48.71868" lon="7.33979">
        <ele>292.646729</ele>
        <time>2011-03-12T15:46:39Z</time>
      </trkpt>
      <trkpt lat="48.71872" lon="7.33984">
        <ele>292.498291</ele>
        <time>2011-03-12T15:46:40Z</time>
      </trkpt>
      <trkpt lat="48.71877" lon="7.33988">
        <ele>292.873291</ele>
        <time>2011-03-12T15:46:41Z</time>
      </trkpt>
      <trkpt lat="48.71881" lon="7.33993">
        <ele>292.396729</ele>
        <time>2011-03-12T15:46:42Z</time>
      </trkpt>
      <trkpt lat="48.71885" lon="7.33998">
        <ele>293.248291</ele>
        <time>2011-03-12T15:46:43Z</time>
      </trkpt>
      <trkpt lat="48.7189" lon="7.34003">
        <ele>293.256104</ele>
        <time>2011-03-12T15:46:44Z</time>
      </trkpt>
      <trkpt lat="48.71895" lon="7.34008">
        <ele>292.490479</ele>
        <time>2011-03-12T15:46:45Z</time>
      </trkpt>
      <trkpt lat="48.71899" lon="7.34013">
        <ele>291.935791</ele>
        <time>2011-03-12T15:46:46Z</time>
      </trkpt>
      <trkpt lat="48.71904" lon="7.34018">
        <ele>291.599854</ele>
        <time>2011-03-12T15:46:47Z</time>
      </trkpt>
      <trkpt lat="48.71909" lon="7.34024">
        <ele>292.045166</ele>
        <time>2011-03-12T15:46:48Z</time>
      </trkpt>
      <trkpt lat="48.71915" lon="7.34028">
        <ele>291.810791</ele>
        <time>2011-03-12T15:46:49Z</time>
      </trkpt>
      <trkpt lat="48.7192" lon="7.34033">
        <ele>291.552979</ele>
        <time>2011-03-12T15:46:50Z</time>
      </trkpt>
      <trkpt lat="48.71926" lon="7.34038">
        <ele>290.943604</ele>
        <time>2011-03-12T15:46:51Z</time>
      </trkpt>
      <trkpt lat="48.71932" lon="7.34042">
        <ele>290.279541</ele>
        <time>2011-03-12T15:46:52Z</time>
      </trkpt>
      <trkpt lat="48.71938" lon="7.34047">
        <ele>289.888916</ele>
        <time>2011-03-12T15:46:53Z</time>
      </trkpt>
      <trkpt lat="48.71943" lon="7.34051">
        <ele>290.154541</ele>
        <time>2011-03-12T15:46:54Z</time>
      </trkpt>
      <trkpt lat="48.71949" lon="7.34056">
        <ele>289.888916</ele>
        <time>2011-03-12T15:46:55Z</time>
      </trkpt>
      <trkpt lat="48.71956" lon="7.3406">
        <ele>289.459229</ele>
        <time>2011-03-12T15:46:56Z</time>
      </trkpt>
      <trkpt lat="48.71962" lon="7.34065">
        <ele>289.068604</ele>
        <time>2011-03-12T15:46:57Z</time>
      </trkpt>
      <trkpt lat="48.71968" lon="7.34069">
        <ele>288.763916</ele>
        <time>2011-03-12T15:46:58Z</time>
      </trkpt>
      <trkpt lat="48.71975" lon="7.34074">
        <ele>288.568604</ele>
        <time>2011-03-12T15:46:59Z</time>
      </trkpt>
      <trkpt lat="48.71981" lon="7.34078">
        <ele>288.217041</ele>
        <time>2011-03-12T15:47:00Z</time>
      </trkpt>
      <trkpt lat="48.71988" lon="7.34083">
        <ele>288.099854</ele>
        <time>2011-03-12T15:47:01Z</time>
      </trkpt>
      <trkpt lat="48.71994" lon="7.34088">
        <ele>288.115479</ele>
        <time>2011-03-12T15:47:02Z</time>
      </trkpt>
      <trkpt lat="48.72001" lon="7.34094">
        <ele>287.638916</ele>
        <time>2011-03-12T15:47:03Z</time>
      </trkpt>
      <trkpt lat="48.72008" lon="7.34099">
        <ele>286.943604</ele>
        <time>2011-03-12T15:47:04Z</time>
      </trkpt>
      <trkpt lat="48.72015" lon="7.34105">
        <ele>286.615479</ele>
        <time>2011-03-12T15:47:05Z</time>
      </trkpt>
      <trkpt lat="48.72022" lon="7.34111">
        <ele>286.810791</ele>
        <time>2011-03-12T15:47:06Z</time>
      </trkpt>
      <trkpt lat="48.72029" lon="7.34116">
        <ele>286.545166</ele>
        <time>2011-03-12T15:47:07Z</time>
      </trkpt>
      <trkpt lat="48.72036" lon="7.34121">
        <ele>285.709229</ele>
        <time>2011-03-12T15:47:08Z</time>
      </trkpt>
      <trkpt lat="48.72043" lon="7.34127">
        <ele>285.443604</ele>
        <time>2011-03-12T15:47:09Z</time>
      </trkpt>
      <trkpt lat="48.7205" lon="7.34132">
        <ele>284.920166</ele>
        <time>2011-03-12T15:47:10Z</time>
      </trkpt>
      <trkpt lat="48.72057" lon="7.34138">
        <ele>284.576416</ele>
        <time>2011-03-12T15:47:11Z</time>
      </trkpt>
      <trkpt lat="48.72065" lon="7.34145">
        <ele>284.974854</ele>
        <time>2011-03-12T15:47:12Z</time>
      </trkpt>
      <trkpt lat="48.72072" lon="7.34152">
        <ele>284.662354</ele>
        <time>2011-03-12T15:47:13Z</time>
      </trkpt>
      <trkpt lat="48.7208" lon="7.34158">
        <ele>284.592041</ele>
        <time>2011-03-12T15:47:14Z</time>
      </trkpt>
      <trkpt lat="48.72088" lon="7.34165">
        <ele>284.154541</ele>
        <time>2011-03-12T15:47:15Z</time>
      </trkpt>
      <trkpt lat="48.72095" lon="7.34172">
        <ele>283.834229</ele>
        <time>2011-03-12T15:47:16Z</time>
      </trkpt>
      <trkpt lat="48.72103" lon="7.34178">
        <ele>283.693604</ele>
        <time>2011-03-12T15:47:17Z</time>
      </trkpt>
      <trkpt lat="48.7211" lon="7.34184">
        <ele>283.498291</ele>
        <time>2011-03-12T15:47:18Z</time>
      </trkpt>
      <trkpt lat="48.72118" lon="7.34191">
        <ele>283.029541</ele>
        <time>2011-03-12T15:47:19Z</time>
      </trkpt>
      <trkpt lat="48.72126" lon="7.34197">
        <ele>282.365479</ele>
        <time>2011-03-12T15:47:20Z</time>
      </trkpt>
      <trkpt lat="48.72133" lon="7.34204">
        <ele>281.982666</ele>
        <time>2011-03-12T15:47:21Z</time>
      </trkpt>
      <trkpt lat="48.72141" lon="7.3421">
        <ele>281.849854</ele>
        <time>2011-03-12T15:47:22Z</time>
      </trkpt>
      <trkpt lat="48.72149" lon="7.34217">
        <ele>281.552979</ele>
        <time>2011-03-12T15:47:23Z</time>
      </trkpt>
      <trkpt lat="48.72156" lon="7.34223">
        <ele>281.076416</ele>
        <time>2011-03-12T15:47:24Z</time>
      </trkpt>
      <trkpt lat="48.72163" lon="7.34229">
        <ele>280.795166</ele>
        <time>2011-03-12T15:47:25Z</time>
      </trkpt>
      <trkpt lat="48.7217" lon="7.34235">
        <ele>280.342041</ele>
        <time>2011-03-12T15:47:26Z</time>
      </trkpt>
      <trkpt lat="48.72178" lon="7.34241">
        <ele>280.013916</ele>
        <time>2011-03-12T15:47:27Z</time>
      </trkpt>
      <trkpt lat="48.72185" lon="7.34247">
        <ele>279.295166</ele>
        <time>2011-03-12T15:47:28Z</time>
      </trkpt>
      <trkpt lat="48.72192" lon="7.34253">
        <ele>279.209229</ele>
        <time>2011-03-12T15:47:29Z</time>
      </trkpt>
      <trkpt lat="48.72199" lon="7.34258">
        <ele>279.248291</ele>
        <time>2011-03-12T15:47:30Z</time>
      </trkpt>
      <trkpt lat="48.72207" lon="7.34263">
        <ele>278.959229</ele>
        <time>2011-03-12T15:47:31Z</time>
      </trkpt>
      <trkpt lat="48.72214" lon="7.34267">
        <ele>278.451416</ele>
        <time>2011-03-12T15:47:32Z</time>
      </trkpt>
      <trkpt lat="48.72221" lon="7.34272">
        <ele>278.310791</ele>
        <time>2011-03-12T15:47:33Z</time>
      </trkpt>
      <trkpt lat="48.72229" lon="7.34276">
        <ele>278.060791</ele>
        <time>2011-03-12T15:47:34Z</time>
      </trkpt>
      <trkpt lat="48.72236" lon="7.3428">
        <ele>277.974854</ele>
        <time>2011-03-12T15:47:35Z</time>
      </trkpt>
      <trkpt lat="48.72244" lon="7.34285">
        <ele>277.904541</ele>
        <time>2011-03-12T15:47:36Z</time>
      </trkpt>
      <trkpt lat="48.72252" lon="7.34289">
        <ele>277.529541</ele>
        <time>2011-03-12T15:47:37Z</time>
      </trkpt>
      <trkpt lat="48.72261" lon="7.34293">
        <ele>277.490479</ele>
        <time>2011-03-12T15:47:38Z</time>
      </trkpt>
      <trkpt lat="48.72269" lon="7.34297">
        <ele>277.232666</ele>
        <time>2011-03-12T15:47:39Z</time>
      </trkpt>
      <trkpt lat="48.72278" lon="7.34302">
        <ele>276.888916</ele>
        <time>2011-03-12T15:47:40Z</time>
      </trkpt>
      <trkpt lat="48.72286" lon="7.34307">
        <ele>276.568604</ele>
        <time>2011-03-12T15:47:41Z</time>
      </trkpt>
      <trkpt lat="48.72295" lon="7.34311">
        <ele>276.529541</ele>
        <time>2011-03-12T15:47:42Z</time>
      </trkpt>
      <trkpt lat="48.72303" lon="7.34316">
        <ele>276.732666</ele>
        <time>2011-03-12T15:47:43Z</time>
      </trkpt>
      <trkpt lat="48.72311" lon="7.34321">
        <ele>276.787354</ele>
        <time>2011-03-12T15:47:44Z</time>
      </trkpt>
      <trkpt lat="48.72318" lon="7.34326">
        <ele>276.904541</ele>
        <time>2011-03-12T15:47:45Z</time>
      </trkpt>
      <trkpt lat="48.72325" lon="7.3433">
        <ele>277.021729</ele>
        <time>2011-03-12T15:47:46Z</time>
      </trkpt>
      <trkpt lat="48.72332" lon="7.34335">
        <ele>276.998291</ele>
        <time>2011-03-12T15:47:47Z</time>
      </trkpt>
      <trkpt lat="48.72339" lon="7.3434">
        <ele>277.115479</ele>
        <time>2011-03-12T15:47:48Z</time>
      </trkpt>
      <trkpt lat="48.72345" lon="7.34345">
        <ele>277.467041</ele>
        <time>2011-03-12T15:47:49Z</time>
      </trkpt>
      <trkpt lat="48.72352" lon="7.34349">
        <ele>277.388916</ele>
        <time>2011-03-12T15:47:50Z</time>
      </trkpt>
      <trkpt lat="48.72359" lon="7.34355">
        <ele>277.029541</ele>
        <time>2011-03-12T15:47:51Z</time>
      </trkpt>
      <trkpt lat="48.72365" lon="7.34361">
        <ele>277.568604</ele>
        <time>2011-03-12T15:47:52Z</time>
      </trkpt>
      <trkpt lat="48.72371" lon="7.34366">
        <ele>277.584229</ele>
        <time>2011-03-12T15:47:53Z</time>
      </trkpt>
      <trkpt lat="48.72377" lon="7.34371">
        <ele>277.131104</ele>
        <time>2011-03-12T15:47:54Z</time>
      </trkpt>
      <trkpt lat="48.72384" lon="7.34376">
        <ele>277.318604</ele>
        <time>2011-03-12T15:47:55Z</time>
      </trkpt>
      <trkpt lat="48.7239" lon="7.34381">
        <ele>277.342041</ele>
        <time>2011-03-12T15:47:56Z</time>
      </trkpt>
      <trkpt lat="48.72397" lon="7.34387">
        <ele>277.045166</ele>
        <time>2011-03-12T15:47:57Z</time>
      </trkpt>
      <trkpt lat="48.72404" lon="7.34392">
        <ele>277.279541</ele>
        <time>2011-03-12T15:47:58Z</time>
      </trkpt>
      <trkpt lat="48.7241" lon="7.34397">
        <ele>276.826416</ele>
        <time>2011-03-12T15:47:59Z</time>
      </trkpt>
      <trkpt lat="48.72417" lon="7.34401">
        <ele>277.084229</ele>
        <time>2011-03-12T15:48:00Z</time>
      </trkpt>
      <trkpt lat="48.72422" lon="7.34406">
        <ele>277.459229</ele>
        <time>2011-03-12T15:48:01Z</time>
      </trkpt>
      <trkpt lat="48.72428" lon="7.34412">
        <ele>277.810791</ele>
        <time>2011-03-12T15:48:02Z</time>
      </trkpt>
      <trkpt lat="48.72434" lon="7.34417">
        <ele>278.193604</ele>
        <time>2011-03-12T15:48:03Z</time>
      </trkpt>
      <trkpt lat="48.72441" lon="7.34423">
        <ele>277.802979</ele>
        <time>2011-03-12T15:48:04Z</time>
      </trkpt>
      <trkpt lat="48.72448" lon="7.34429">
        <ele>276.412354</ele>
        <time>2011-03-12T15:48:05Z</time>
      </trkpt>
      <trkpt lat="48.72456" lon="7.34434">
        <ele>275.537354</ele>
        <time>2011-03-12T15:48:06Z</time>
      </trkpt>
      <trkpt lat="48.72463" lon="7.3444">
        <ele>275.982666</ele>
        <time>2011-03-12T15:48:07Z</time>
      </trkpt>
      <trkpt lat="48.72471" lon="7.34446">
        <ele>275.474854</ele>
        <time>2011-03-12T15:48:08Z</time>
      </trkpt>
      <trkpt lat="48.72477" lon="7.34453">
        <ele>275.373291</ele>
        <time>2011-03-12T15:48:09Z</time>
      </trkpt>
      <trkpt lat="48.72485" lon="7.3446">
        <ele>275.342041</ele>
        <time>2011-03-12T15:48:10Z</time>
      </trkpt>
      <trkpt lat="48.72492" lon="7.34465">
        <ele>274.842041</ele>
        <time>2011-03-12T15:48:11Z</time>
      </trkpt>
      <trkpt lat="48.72499" lon="7.34471">
        <ele>274.310791</ele>
        <time>2011-03-12T15:48:12Z</time>
      </trkpt>
      <trkpt lat="48.72506" lon="7.34477">
        <ele>274.287354</ele>
        <time>2011-03-12T15:48:13Z</time>
      </trkpt>
      <trkpt lat="48.72512" lon="7.34482">
        <ele>273.677979</ele>
        <time>2011-03-12T15:48:14Z</time>
      </trkpt>
      <trkpt lat="48.72519" lon="7.34488">
        <ele>273.443604</ele>
        <time>2011-03-12T15:48:15Z</time>
      </trkpt>
      <trkpt lat="48.72526" lon="7.34495">
        <ele>273.209229</ele>
        <time>2011-03-12T15:48:16Z</time>
      </trkpt>
      <trkpt lat="48.72533" lon="7.345">
        <ele>272.904541</ele>
        <time>2011-03-12T15:48:17Z</time>
      </trkpt>
      <trkpt lat="48.7254" lon="7.34506">
        <ele>272.568604</ele>
        <time>2011-03-12T15:48:18Z</time>
      </trkpt>
      <trkpt lat="48.72547" lon="7.34512">
        <ele>272.388916</ele>
        <time>2011-03-12T15:48:19Z</time>
      </trkpt>
      <trkpt lat="48.72555" lon="7.34518">
        <ele>272.006104</ele>
        <time>2011-03-12T15:48:20Z</time>
      </trkpt>
      <trkpt lat="48.72562" lon="7.34523">
        <ele>271.920166</ele>
        <time>2011-03-12T15:48:21Z</time>
      </trkpt>
      <trkpt lat="48.72569" lon="7.34529">
        <ele>271.802979</ele>
        <time>2011-03-12T15:48:22Z</time>
      </trkpt>
      <trkpt lat="48.72576" lon="7.34535">
        <ele>271.857666</ele>
        <time>2011-03-12T15:48:23Z</time>
      </trkpt>
      <trkpt lat="48.72583" lon="7.3454">
        <ele>270.787354</ele>
        <time>2011-03-12T15:48:24Z</time>
      </trkpt>
      <trkpt lat="48.7259" lon="7.34545">
        <ele>270.256104</ele>
        <time>2011-03-12T15:48:25Z</time>
      </trkpt>
      <trkpt lat="48.72597" lon="7.3455">
        <ele>270.482666</ele>
        <time>2011-03-12T15:48:26Z</time>
      </trkpt>
      <trkpt lat="48.72604" lon="7.34556">
        <ele>270.498291</ele>
        <time>2011-03-12T15:48:27Z</time>
      </trkpt>
      <trkpt lat="48.72611" lon="7.34561">
        <ele>270.123291</ele>
        <time>2011-03-12T15:48:28Z</time>
      </trkpt>
      <trkpt lat="48.72618" lon="7.34566">
        <ele>270.099854</ele>
        <time>2011-03-12T15:48:29Z</time>
      </trkpt>
      <trkpt lat="48.72625" lon="7.34571">
        <ele>269.920166</ele>
        <time>2011-03-12T15:48:30Z</time>
      </trkpt>
      <trkpt lat="48.72632" lon="7.34576">
        <ele>269.498291</ele>
        <time>2011-03-12T15:48:31Z</time>
      </trkpt>
      <trkpt lat="48.72638" lon="7.34581">
        <ele>269.435791</ele>
        <time>2011-03-12T15:48:32Z</time>
      </trkpt>
      <trkpt lat="48.72645" lon="7.34585">
        <ele>269.482666</ele>
        <time>2011-03-12T15:48:33Z</time>
      </trkpt>
      <trkpt lat="48.72652" lon="7.3459">
        <ele>269.217041</ele>
        <time>2011-03-12T15:48:34Z</time>
      </trkpt>
      <trkpt lat="48.72659" lon="7.34595">
        <ele>269.146729</ele>
        <time>2011-03-12T15:48:35Z</time>
      </trkpt>
      <trkpt lat="48.72666" lon="7.34601">
        <ele>269.357666</ele>
        <time>2011-03-12T15:48:36Z</time>
      </trkpt>
      <trkpt lat="48.72673" lon="7.34605">
        <ele>268.779541</ele>
        <time>2011-03-12T15:48:37Z</time>
      </trkpt>
      <trkpt lat="48.7268" lon="7.34611">
        <ele>268.560791</ele>
        <time>2011-03-12T15:48:38Z</time>
      </trkpt>
      <trkpt lat="48.72686" lon="7.34616">
        <ele>268.396729</ele>
        <time>2011-03-12T15:48:39Z</time>
      </trkpt>
      <trkpt lat="48.72693" lon="7.34622">
        <ele>268.920166</ele>
        <time>2011-03-12T15:48:40Z</time>
      </trkpt>
      <trkpt lat="48.72699" lon="7.34626">
        <ele>268.896729</ele>
        <time>2011-03-12T15:48:41Z</time>
      </trkpt>
      <trkpt lat="48.72705" lon="7.34631">
        <ele>268.709229</ele>
        <time>2011-03-12T15:48:42Z</time>
      </trkpt>
      <trkpt lat="48.72712" lon="7.34636">
        <ele>267.677979</ele>
        <time>2011-03-12T15:48:43Z</time>
      </trkpt>
      <trkpt lat="48.72718" lon="7.34641">
        <ele>266.701416</ele>
        <time>2011-03-12T15:48:44Z</time>
      </trkpt>
      <trkpt lat="48.72724" lon="7.34646">
        <ele>266.162354</ele>
        <time>2011-03-12T15:48:45Z</time>
      </trkpt>
      <trkpt lat="48.7273" lon="7.34653">
        <ele>266.365479</ele>
        <time>2011-03-12T15:48:46Z</time>
      </trkpt>
      <trkpt lat="48.72736" lon="7.3466">
        <ele>267.092041</ele>
        <time>2011-03-12T15:48:47Z</time>
      </trkpt>
      <trkpt lat="48.72741" lon="7.34668">
        <ele>267.068604</ele>
        <time>2011-03-12T15:48:48Z</time>
      </trkpt>
      <trkpt lat="48.72747" lon="7.34675">
        <ele>266.670166</ele>
        <time>2011-03-12T15:48:49Z</time>
      </trkpt>
      <trkpt lat="48.72753" lon="7.34683">
        <ele>266.951416</ele>
        <time>2011-03-12T15:48:50Z</time>
      </trkpt>
      <trkpt lat="48.72758" lon="7.34691">
        <ele>267.318604</ele>
        <time>2011-03-12T15:48:51Z</time>
      </trkpt>
      <trkpt lat="48.72763" lon="7.34699">
        <ele>267.396729</ele>
        <time>2011-03-12T15:48:52Z</time>
      </trkpt>
      <trkpt lat="48.72769" lon="7.34708">
        <ele>267.451416</ele>
        <time>2011-03-12T15:48:53Z</time>
      </trkpt>
      <trkpt lat="48.72775" lon="7.34716">
        <ele>267.201416</ele>
        <time>2011-03-12T15:48:54Z</time>
      </trkpt>
      <trkpt lat="48.7278" lon="7.34724">
        <ele>266.935791</ele>
        <time>2011-03-12T15:48:55Z</time>
      </trkpt>
      <trkpt lat="48.72786" lon="7.34731">
        <ele>266.185791</ele>
        <time>2011-03-12T15:48:56Z</time>
      </trkpt>
      <trkpt lat="48.72791" lon="7.34739">
        <ele>265.810791</ele>
        <time>2011-03-12T15:48:57Z</time>
      </trkpt>
      <trkpt lat="48.72797" lon="7.34747">
        <ele>265.826416</ele>
        <time>2011-03-12T15:48:58Z</time>
      </trkpt>
      <trkpt lat="48.72802" lon="7.34754">
        <ele>265.513916</ele>
        <time>2011-03-12T15:48:59Z</time>
      </trkpt>
      <trkpt lat="48.72809" lon="7.34762">
        <ele>265.107666</ele>
        <time>2011-03-12T15:49:00Z</time>
      </trkpt>
      <trkpt lat="48.72815" lon="7.34771">
        <ele>265.006104</ele>
        <time>2011-03-12T15:49:01Z</time>
      </trkpt>
      <trkpt lat="48.72821" lon="7.34779">
        <ele>265.006104</ele>
        <time>2011-03-12T15:49:02Z</time>
      </trkpt>
      <trkpt lat="48.72827" lon="7.34788">
        <ele>264.795166</ele>
        <time>2011-03-12T15:49:03Z</time>
      </trkpt>
      <trkpt lat="48.72833" lon="7.34796">
        <ele>264.271729</ele>
        <time>2011-03-12T15:49:04Z</time>
      </trkpt>
      <trkpt lat="48.72839" lon="7.34804">
        <ele>263.896729</ele>
        <time>2011-03-12T15:49:05Z</time>
      </trkpt>
      <trkpt lat="48.72846" lon="7.34812">
        <ele>263.873291</ele>
        <time>2011-03-12T15:49:06Z</time>
      </trkpt>
      <trkpt lat="48.72851" lon="7.3482">
        <ele>263.599854</ele>
        <time>2011-03-12T15:49:07Z</time>
      </trkpt>
      <trkpt lat="48.72857" lon="7.34829">
        <ele>263.388916</ele>
        <time>2011-03-12T15:49:08Z</time>
      </trkpt>
      <trkpt lat="48.72863" lon="7.34838">
        <ele>263.427979</ele>
        <time>2011-03-12T15:49:09Z</time>
      </trkpt>
      <trkpt lat="48.7287" lon="7.34846">
        <ele>263.318604</ele>
        <time>2011-03-12T15:49:10Z</time>
      </trkpt>
      <trkpt lat="48.72876" lon="7.34854">
        <ele>262.935791</ele>
        <time>2011-03-12T15:49:11Z</time>
      </trkpt>
      <trkpt lat="48.72883" lon="7.34862">
        <ele>262.568604</ele>
        <time>2011-03-12T15:49:12Z</time>
      </trkpt>
      <trkpt lat="48.72889" lon="7.3487">
        <ele>262.115479</ele>
        <time>2011-03-12T15:49:13Z</time>
      </trkpt>
      <trkpt lat="48.72895" lon="7.34877">
        <ele>261.881104</ele>
        <time>2011-03-12T15:49:14Z</time>
      </trkpt>
      <trkpt lat="48.72902" lon="7.34883">
        <ele>261.584229</ele>
        <time>2011-03-12T15:49:15Z</time>
      </trkpt>
      <trkpt lat="48.72909" lon="7.34889">
        <ele>260.967041</ele>
        <time>2011-03-12T15:49:16Z</time>
      </trkpt>
      <trkpt lat="48.72916" lon="7.34896">
        <ele>260.474854</ele>
        <time>2011-03-12T15:49:17Z</time>
      </trkpt>
      <trkpt lat="48.72923" lon="7.34901">
        <ele>259.982666</ele>
        <time>2011-03-12T15:49:18Z</time>
      </trkpt>
      <trkpt lat="48.7293" lon="7.34907">
        <ele>259.873291</ele>
        <time>2011-03-12T15:49:19Z</time>
      </trkpt>
      <trkpt lat="48.72936" lon="7.34913">
        <ele>259.443604</ele>
        <time>2011-03-12T15:49:20Z</time>
      </trkpt>
      <trkpt lat="48.72943" lon="7.34919">
        <ele>258.927979</ele>
        <time>2011-03-12T15:49:21Z</time>
      </trkpt>
      <trkpt lat="48.7295" lon="7.34924">
        <ele>258.693604</ele>
        <time>2011-03-12T15:49:22Z</time>
      </trkpt>
      <trkpt lat="48.72957" lon="7.3493">
        <ele>258.357666</ele>
        <time>2011-03-12T15:49:23Z</time>
      </trkpt>
      <trkpt lat="48.72963" lon="7.34935">
        <ele>258.396729</ele>
        <time>2011-03-12T15:49:24Z</time>
      </trkpt>
      <trkpt lat="48.7297" lon="7.3494">
        <ele>258.131104</ele>
        <time>2011-03-12T15:49:25Z</time>
      </trkpt>
      <trkpt lat="48.72976" lon="7.34945">
        <ele>258.146729</ele>
        <time>2011-03-12T15:49:26Z</time>
      </trkpt>
      <trkpt lat="48.72982" lon="7.3495">
        <ele>258.099854</ele>
        <time>2011-03-12T15:49:27Z</time>
      </trkpt>
      <trkpt lat="48.72989" lon="7.34955">
        <ele>258.810791</ele>
        <time>2011-03-12T15:49:28Z</time>
      </trkpt>
      <trkpt lat="48.72995" lon="7.3496">
        <ele>258.357666</ele>
        <time>2011-03-12T15:49:29Z</time>
      </trkpt>
      <trkpt lat="48.73001" lon="7.34966">
        <ele>257.834229</ele>
        <time>2011-03-12T15:49:30Z</time>
      </trkpt>
      <trkpt lat="48.73008" lon="7.34971">
        <ele>257.326416</ele>
        <time>2011-03-12T15:49:31Z</time>
      </trkpt>
      <trkpt lat="48.73014" lon="7.34975">
        <ele>257.068604</ele>
        <time>2011-03-12T15:49:32Z</time>
      </trkpt>
      <trkpt lat="48.73021" lon="7.3498">
        <ele>257.068604</ele>
        <time>2011-03-12T15:49:33Z</time>
      </trkpt>
      <trkpt lat="48.73027" lon="7.34985">
        <ele>256.740479</ele>
        <time>2011-03-12T15:49:34Z</time>
      </trkpt>
      <trkpt lat="48.73034" lon="7.3499">
        <ele>256.396729</ele>
        <time>2011-03-12T15:49:35Z</time>
      </trkpt>
      <trkpt lat="48.7304" lon="7.34995">
        <ele>255.971802</ele>
        <time>2011-03-12T15:49:36Z</time>
      </trkpt>
      <trkpt lat="48.73047" lon="7.35">
        <ele>255.608521</ele>
        <time>2011-03-12T15:49:37Z</time>
      </trkpt>
      <trkpt lat="48.73053" lon="7.35005">
        <ele>255.596802</ele>
        <time>2011-03-12T15:49:38Z</time>
      </trkpt>
      <trkpt lat="48.7306" lon="7.35009">
        <ele>254.792114</ele>
        <time>2011-03-12T15:49:39Z</time>
      </trkpt>
      <trkpt lat="48.73066" lon="7.35015">
        <ele>254.780396</ele>
        <time>2011-03-12T15:49:40Z</time>
      </trkpt>
      <trkpt lat="48.73072" lon="7.3502">
        <ele>254.171021</ele>
        <time>2011-03-12T15:49:41Z</time>
      </trkpt>
      <trkpt lat="48.73079" lon="7.35026">
        <ele>254.280396</ele>
        <time>2011-03-12T15:49:42Z</time>
      </trkpt>
      <trkpt lat="48.73086" lon="7.35032">
        <ele>254.147583</ele>
        <time>2011-03-12T15:49:43Z</time>
      </trkpt>
      <trkpt lat="48.73093" lon="7.35037">
        <ele>253.378052</ele>
        <time>2011-03-12T15:49:44Z</time>
      </trkpt>
      <trkpt lat="48.731" lon="7.35042">
        <ele>252.756958</ele>
        <time>2011-03-12T15:49:45Z</time>
      </trkpt>
      <trkpt lat="48.73106" lon="7.35047">
        <ele>251.971802</ele>
        <time>2011-03-12T15:49:46Z</time>
      </trkpt>
      <trkpt lat="48.73114" lon="7.35053">
        <ele>251.975708</ele>
        <time>2011-03-12T15:49:47Z</time>
      </trkpt>
      <trkpt lat="48.7312" lon="7.35058">
        <ele>251.799927</ele>
        <time>2011-03-12T15:49:48Z</time>
      </trkpt>
      <trkpt lat="48.73127" lon="7.35064">
        <ele>251.436646</ele>
        <time>2011-03-12T15:49:49Z</time>
      </trkpt>
      <trkpt lat="48.73134" lon="7.35069">
        <ele>251.077271</ele>
        <time>2011-03-12T15:49:50Z</time>
      </trkpt>
      <trkpt lat="48.7314" lon="7.35075">
        <ele>250.354614</ele>
        <time>2011-03-12T15:49:51Z</time>
      </trkpt>
      <trkpt lat="48.73146" lon="7.3508">
        <ele>249.807739</ele>
        <time>2011-03-12T15:49:52Z</time>
      </trkpt>
      <trkpt lat="48.73153" lon="7.35084">
        <ele>249.378052</ele>
        <time>2011-03-12T15:49:53Z</time>
      </trkpt>
      <trkpt lat="48.73158" lon="7.35089">
        <ele>249.120239</ele>
        <time>2011-03-12T15:49:54Z</time>
      </trkpt>
      <trkpt lat="48.73163" lon="7.35093">
        <ele>248.557739</ele>
        <time>2011-03-12T15:49:55Z</time>
      </trkpt>
      <trkpt lat="48.73167" lon="7.35096">
        <ele>248.460083</ele>
        <time>2011-03-12T15:49:56Z</time>
      </trkpt>
      <trkpt lat="48.73172" lon="7.35101">
        <ele>248.096802</ele>
        <time>2011-03-12T15:49:57Z</time>
      </trkpt>
      <trkpt lat="48.73178" lon="7.3511">
        <ele>247.643677</ele>
        <time>2011-03-12T15:49:59Z</time>
      </trkpt>
      <trkpt lat="48.73178" lon="7.35117">
        <ele>247.221802</ele>
        <time>2011-03-12T15:50:00Z</time>
      </trkpt>
      <trkpt lat="48.73176" lon="7.35124">
        <ele>246.866333</ele>
        <time>2011-03-12T15:50:01Z</time>
      </trkpt>
      <trkpt lat="48.73174" lon="7.35132">
        <ele>246.678833</ele>
        <time>2011-03-12T15:50:02Z</time>
      </trkpt>
      <trkpt lat="48.73171" lon="7.3514">
        <ele>246.479614</ele>
        <time>2011-03-12T15:50:03Z</time>
      </trkpt>
      <trkpt lat="48.73167" lon="7.35148">
        <ele>246.288208</ele>
        <time>2011-03-12T15:50:04Z</time>
      </trkpt>
      <trkpt lat="48.73164" lon="7.35155">
        <ele>246.159302</ele>
        <time>2011-03-12T15:50:05Z</time>
      </trkpt>
      <trkpt lat="48.73162" lon="7.35164">
        <ele>246.085083</ele>
        <time>2011-03-12T15:50:06Z</time>
      </trkpt>
      <trkpt lat="48.73159" lon="7.35173">
        <ele>245.596802</ele>
        <time>2011-03-12T15:50:07Z</time>
      </trkpt>
      <trkpt lat="48.73157" lon="7.35181">
        <ele>245.206177</ele>
        <time>2011-03-12T15:50:08Z</time>
      </trkpt>
      <trkpt lat="48.73155" lon="7.35187">
        <ele>244.838989</ele>
        <time>2011-03-12T15:50:09Z</time>
      </trkpt>
      <trkpt lat="48.73151" lon="7.35193">
        <ele>244.124146</ele>
        <time>2011-03-12T15:50:11Z</time>
      </trkpt>
      <trkpt lat="48.73145" lon="7.35199">
        <ele>243.385864</ele>
        <time>2011-03-12T15:50:13Z</time>
      </trkpt>
    </trkseg>
  </trk>
</gpx>